<?xml version='1.0' encoding='UTF-8'?><gpx version="1.1" creator="JPX - https://github.com/jenetics/jpx" xmlns="http://www.topografix.com/GPX/1/1"><trk><trkseg><trkpt lat="46.1072864" lon="12.1787285"><ele>311.0</ele><time>2026-04-27T15:10:22.999Z</time></trkpt><trkpt lat="46.107372" lon="12.178785"><ele>311.0</ele><time>2026-04-27T15:10:25.999Z</time></trkpt><trkpt lat="46.1074274" lon="12.1788482"><ele>311.0</ele><time>2026-04-27T15:10:27.999Z</time></trkpt><trkpt lat="46.1074847" lon="12.178918"><ele>311.0</ele><time>2026-04-27T15:10:29.999Z</time></trkpt><trkpt lat="46.1075376" lon="12.1789892"><ele>311.0</ele><time>2026-04-27T15:10:31.999Z</time></trkpt><trkpt lat="46.1075816" lon="12.1790556"><ele>311.0</ele><time>2026-04-27T15:10:33.999Z</time></trkpt><trkpt lat="46.1076583" lon="12.1791353"><ele>311.0</ele><time>2026-04-27T15:10:36.999Z</time></trkpt><trkpt lat="46.1077146" lon="12.1791982"><ele>311.0</ele><time>2026-04-27T15:10:38.999Z</time></trkpt><trkpt lat="46.1077701" lon="12.179251"><ele>311.0</ele><time>2026-04-27T15:10:41Z</time></trkpt><trkpt lat="46.1078354" lon="12.1792809"><ele>311.0</ele><time>2026-04-27T15:10:42.999Z</time></trkpt><trkpt lat="46.107926" lon="12.1793263"><ele>311.0</ele><time>2026-04-27T15:10:45.999Z</time></trkpt><trkpt lat="46.1079915" lon="12.1793808"><ele>311.0</ele><time>2026-04-27T15:10:47.999Z</time></trkpt><trkpt lat="46.1080573" lon="12.1794323"><ele>311.0</ele><time>2026-04-27T15:10:49.999Z</time></trkpt><trkpt lat="46.1081146" lon="12.1794839"><ele>311.0</ele><time>2026-04-27T15:10:52Z</time></trkpt><trkpt lat="46.1081626" lon="12.1795795"><ele>311.0</ele><time>2026-04-27T15:10:54.999Z</time></trkpt><trkpt lat="46.1081722" lon="12.1796724"><ele>311.0</ele><time>2026-04-27T15:10:58Z</time></trkpt><trkpt lat="46.1081744" lon="12.1797705"><ele>311.0</ele><time>2026-04-27T15:11:04Z</time></trkpt><trkpt lat="46.1081943" lon="12.1798594"><ele>311.0</ele><time>2026-04-27T15:11:09.999Z</time></trkpt><trkpt lat="46.1082267" lon="12.1799373"><ele>311.0</ele><time>2026-04-27T15:11:15Z</time></trkpt><trkpt lat="46.1082655" lon="12.1800197"><ele>311.40000000000003</ele><time>2026-04-27T15:11:20.999Z</time></trkpt><trkpt lat="46.1083135" lon="12.1801259"><ele>311.8</ele><time>2026-04-27T15:11:23.999Z</time></trkpt><trkpt lat="46.10842" lon="12.1803299"><ele>312.20000000000005</ele><time>2026-04-27T15:11:24.999Z</time></trkpt><trkpt lat="46.1084796" lon="12.1804327"><ele>312.6</ele><time>2026-04-27T15:11:27.999Z</time></trkpt><trkpt lat="46.1085312" lon="12.1805335"><ele>313.0</ele><time>2026-04-27T15:11:30.999Z</time></trkpt><trkpt lat="46.1085537" lon="12.1806247"><ele>313.42857142857144</ele><time>2026-04-27T15:11:33Z</time></trkpt><trkpt lat="46.1085325" lon="12.1807244"><ele>313.8571428571429</ele><time>2026-04-27T15:11:35.999Z</time></trkpt><trkpt lat="46.1084646" lon="12.1807564"><ele>314.28571428571433</ele><time>2026-04-27T15:11:38.999Z</time></trkpt><trkpt lat="46.1084036" lon="12.1807331"><ele>314.7142857142857</ele><time>2026-04-27T15:11:40.999Z</time></trkpt><trkpt lat="46.1083238" lon="12.1807237"><ele>315.14285714285717</ele><time>2026-04-27T15:11:43.999Z</time></trkpt><trkpt lat="46.1082895" lon="12.1808101"><ele>315.5714285714286</ele><time>2026-04-27T15:11:48Z</time></trkpt><trkpt lat="46.1083363" lon="12.180883"><ele>316.0</ele><time>2026-04-27T15:11:49.999Z</time></trkpt><trkpt lat="46.1084147" lon="12.1809387"><ele>316.0</ele><time>2026-04-27T15:11:51.999Z</time></trkpt><trkpt lat="46.1084974" lon="12.1810146"><ele>316.0</ele><time>2026-04-27T15:11:53.999Z</time></trkpt><trkpt lat="46.1085506" lon="12.1811295"><ele>316.0</ele><time>2026-04-27T15:11:55.999Z</time></trkpt><trkpt lat="46.1085882" lon="12.1812245"><ele>316.0</ele><time>2026-04-27T15:11:57.999Z</time></trkpt><trkpt lat="46.1085345" lon="12.181276"><ele>316.0</ele><time>2026-04-27T15:12:00.999Z</time></trkpt><trkpt lat="46.1084708" lon="12.1812647"><ele>316.0</ele><time>2026-04-27T15:12:02.999Z</time></trkpt><trkpt lat="46.1083872" lon="12.1812567"><ele>316.0</ele><time>2026-04-27T15:12:05Z</time></trkpt><trkpt lat="46.1083243" lon="12.1812266"><ele>316.0</ele><time>2026-04-27T15:12:06.999Z</time></trkpt><trkpt lat="46.1082364" lon="12.1812044"><ele>316.0</ele><time>2026-04-27T15:12:09.999Z</time></trkpt><trkpt lat="46.1081666" lon="12.1812023"><ele>316.0</ele><time>2026-04-27T15:12:12.999Z</time></trkpt><trkpt lat="46.1081" lon="12.1812194"><ele>316.0</ele><time>2026-04-27T15:12:16Z</time></trkpt><trkpt lat="46.1080149" lon="12.1812313"><ele>316.0</ele><time>2026-04-27T15:12:17.999Z</time></trkpt><trkpt lat="46.1079137" lon="12.1812194"><ele>315.8</ele><time>2026-04-27T15:12:19.999Z</time></trkpt><trkpt lat="46.1078201" lon="12.1811981"><ele>315.6</ele><time>2026-04-27T15:12:21.999Z</time></trkpt><trkpt lat="46.1077127" lon="12.1812147"><ele>315.4</ele><time>2026-04-27T15:12:23.999Z</time></trkpt><trkpt lat="46.1076072" lon="12.1812525"><ele>315.2</ele><time>2026-04-27T15:12:25.999Z</time></trkpt><trkpt lat="46.1075251" lon="12.1813478"><ele>315.0</ele><time>2026-04-27T15:12:27.999Z</time></trkpt><trkpt lat="46.107476" lon="12.1814067"><ele>315.4</ele><time>2026-04-27T15:12:28.999Z</time></trkpt><trkpt lat="46.1073884" lon="12.1815237"><ele>315.8</ele><time>2026-04-27T15:12:30.999Z</time></trkpt><trkpt lat="46.1072923" lon="12.1816363"><ele>316.2</ele><time>2026-04-27T15:12:32.999Z</time></trkpt><trkpt lat="46.1072404" lon="12.1816884"><ele>316.6</ele><time>2026-04-27T15:12:33.999Z</time></trkpt><trkpt lat="46.1071546" lon="12.1818067"><ele>317.0</ele><time>2026-04-27T15:12:35.999Z</time></trkpt><trkpt lat="46.1070632" lon="12.1819466"><ele>317.0</ele><time>2026-04-27T15:12:37.999Z</time></trkpt><trkpt lat="46.106983" lon="12.1820798"><ele>317.0</ele><time>2026-04-27T15:12:39.999Z</time></trkpt><trkpt lat="46.1069429" lon="12.1821507"><ele>317.0</ele><time>2026-04-27T15:12:40.999Z</time></trkpt><trkpt lat="46.1068844" lon="12.1822744"><ele>317.0</ele><time>2026-04-27T15:12:43Z</time></trkpt><trkpt lat="46.1068217" lon="12.1824022"><ele>317.0</ele><time>2026-04-27T15:12:44.999Z</time></trkpt><trkpt lat="46.1067429" lon="12.1825041"><ele>317.2</ele><time>2026-04-27T15:12:46.999Z</time></trkpt><trkpt lat="46.1066595" lon="12.1825734"><ele>317.4</ele><time>2026-04-27T15:12:49Z</time></trkpt><trkpt lat="46.1065602" lon="12.1826224"><ele>317.6</ele><time>2026-04-27T15:12:50.999Z</time></trkpt><trkpt lat="46.1064624" lon="12.182636"><ele>317.8</ele><time>2026-04-27T15:12:53Z</time></trkpt><trkpt lat="46.1063858" lon="12.1826848"><ele>318.0</ele><time>2026-04-27T15:12:55Z</time></trkpt><trkpt lat="46.1063612" lon="12.1828026"><ele>321.1666666666667</ele><time>2026-04-27T15:12:56.999Z</time></trkpt><trkpt lat="46.106371" lon="12.1828979"><ele>324.3333333333333</ele><time>2026-04-27T15:12:58.999Z</time></trkpt><trkpt lat="46.1064048" lon="12.1830225"><ele>327.5</ele><time>2026-04-27T15:13:01.999Z</time></trkpt><trkpt lat="46.1064376" lon="12.1831199"><ele>330.66666666666663</ele><time>2026-04-27T15:13:04.999Z</time></trkpt><trkpt lat="46.1064671" lon="12.1832394"><ele>333.8333333333333</ele><time>2026-04-27T15:13:07.999Z</time></trkpt><trkpt lat="46.1064972" lon="12.1833484"><ele>337.0</ele><time>2026-04-27T15:13:10.999Z</time></trkpt><trkpt lat="46.1065339" lon="12.1834517"><ele>336.7142857142857</ele><time>2026-04-27T15:13:13.999Z</time></trkpt><trkpt lat="46.1065524" lon="12.1835478"><ele>336.42857142857144</ele><time>2026-04-27T15:13:16.999Z</time></trkpt><trkpt lat="46.1065569" lon="12.183667"><ele>336.1428571428571</ele><time>2026-04-27T15:13:19.999Z</time></trkpt><trkpt lat="46.1065507" lon="12.1837771"><ele>335.8571428571429</ele><time>2026-04-27T15:13:22.999Z</time></trkpt><trkpt lat="46.1065638" lon="12.1838825"><ele>335.57142857142856</ele><time>2026-04-27T15:13:26Z</time></trkpt><trkpt lat="46.1065867" lon="12.1839893"><ele>335.2857142857143</ele><time>2026-04-27T15:13:28.999Z</time></trkpt><trkpt lat="46.1066295" lon="12.1840656"><ele>335.0</ele><time>2026-04-27T15:13:32Z</time></trkpt><trkpt lat="46.1066619" lon="12.1841692"><ele>334.99999999999994</ele><time>2026-04-27T15:13:35.999Z</time></trkpt><trkpt lat="46.1066673" lon="12.1842763"><ele>335.0</ele><time>2026-04-27T15:13:40Z</time></trkpt><trkpt lat="46.1066266" lon="12.1843686"><ele>335.0</ele><time>2026-04-27T15:13:43.999Z</time></trkpt><trkpt lat="46.1065633" lon="12.1843688"><ele>335.0</ele><time>2026-04-27T15:13:47.999Z</time></trkpt><trkpt lat="46.1064896" lon="12.1843194"><ele>335.0</ele><time>2026-04-27T15:13:51.999Z</time></trkpt><trkpt lat="46.1064281" lon="12.1842483"><ele>334.99999999999994</ele><time>2026-04-27T15:13:55.999Z</time></trkpt><trkpt lat="46.1063848" lon="12.1841642"><ele>335.0</ele><time>2026-04-27T15:13:58.999Z</time></trkpt><trkpt lat="46.1063524" lon="12.1840679"><ele>336.5</ele><time>2026-04-27T15:14:01.999Z</time></trkpt><trkpt lat="46.1063067" lon="12.1839789"><ele>338.0</ele><time>2026-04-27T15:14:05Z</time></trkpt><trkpt lat="46.1062479" lon="12.1839124"><ele>339.5</ele><time>2026-04-27T15:14:07.999Z</time></trkpt><trkpt lat="46.106184" lon="12.183845"><ele>341.0</ele><time>2026-04-27T15:14:11Z</time></trkpt><trkpt lat="46.1061473" lon="12.1837627"><ele>342.5</ele><time>2026-04-27T15:14:14Z</time></trkpt><trkpt lat="46.1060871" lon="12.1836785"><ele>344.0</ele><time>2026-04-27T15:14:16.999Z</time></trkpt><trkpt lat="46.1060277" lon="12.183622"><ele>344.0</ele><time>2026-04-27T15:14:18.999Z</time></trkpt><trkpt lat="46.1059622" lon="12.1835606"><ele>344.0</ele><time>2026-04-27T15:14:20.999Z</time></trkpt><trkpt lat="46.1059011" lon="12.1834951"><ele>344.0</ele><time>2026-04-27T15:14:22.999Z</time></trkpt><trkpt lat="46.1058485" lon="12.1834351"><ele>344.0</ele><time>2026-04-27T15:14:24.999Z</time></trkpt><trkpt lat="46.1057895" lon="12.1833736"><ele>344.0</ele><time>2026-04-27T15:14:26.999Z</time></trkpt><trkpt lat="46.1056992" lon="12.1833155"><ele>344.0</ele><time>2026-04-27T15:14:29.999Z</time></trkpt><trkpt lat="46.1055948" lon="12.1832776"><ele>345.0</ele><time>2026-04-27T15:14:32Z</time></trkpt><trkpt lat="46.1055053" lon="12.1832365"><ele>346.0</ele><time>2026-04-27T15:14:33.999Z</time></trkpt><trkpt lat="46.1054309" lon="12.183184"><ele>347.0</ele><time>2026-04-27T15:14:36Z</time></trkpt><trkpt lat="46.1053556" lon="12.1831623"><ele>348.0</ele><time>2026-04-27T15:14:38Z</time></trkpt><trkpt lat="46.1052591" lon="12.1831783"><ele>349.0</ele><time>2026-04-27T15:14:39.999Z</time></trkpt><trkpt lat="46.105172" lon="12.1832523"><ele>349.0</ele><time>2026-04-27T15:14:41.999Z</time></trkpt><trkpt lat="46.1050845" lon="12.1833607"><ele>349.0</ele><time>2026-04-27T15:14:43.999Z</time></trkpt><trkpt lat="46.1049847" lon="12.1834636"><ele>349.0</ele><time>2026-04-27T15:14:45.999Z</time></trkpt><trkpt lat="46.1049235" lon="12.1834931"><ele>349.0</ele><time>2026-04-27T15:14:46.999Z</time></trkpt><trkpt lat="46.1048244" lon="12.1834722"><ele>349.0</ele><time>2026-04-27T15:14:48.999Z</time></trkpt><trkpt lat="46.104737" lon="12.1834446"><ele>349.0</ele><time>2026-04-27T15:14:50.999Z</time></trkpt><trkpt lat="46.1046529" lon="12.1834946"><ele>349.0</ele><time>2026-04-27T15:14:53Z</time></trkpt><trkpt lat="46.1045983" lon="12.1836246"><ele>349.0</ele><time>2026-04-27T15:14:54.999Z</time></trkpt><trkpt lat="46.1045483" lon="12.1837688"><ele>349.0</ele><time>2026-04-27T15:14:56.999Z</time></trkpt><trkpt lat="46.1045017" lon="12.1839042"><ele>349.0</ele><time>2026-04-27T15:14:58.999Z</time></trkpt><trkpt lat="46.1044542" lon="12.1840561"><ele>349.0</ele><time>2026-04-27T15:15:00.999Z</time></trkpt><trkpt lat="46.104417" lon="12.1841944"><ele>349.0</ele><time>2026-04-27T15:15:03Z</time></trkpt><trkpt lat="46.1043892" lon="12.1842822"><ele>349.0</ele><time>2026-04-27T15:15:04.999Z</time></trkpt><trkpt lat="46.104306" lon="12.1842247"><ele>349.0</ele><time>2026-04-27T15:15:07.999Z</time></trkpt><trkpt lat="46.104262" lon="12.1840945"><ele>349.0</ele><time>2026-04-27T15:15:09.999Z</time></trkpt><trkpt lat="46.1042051" lon="12.183954"><ele>349.0</ele><time>2026-04-27T15:15:12Z</time></trkpt><trkpt lat="46.1041443" lon="12.1837946"><ele>349.0</ele><time>2026-04-27T15:15:14Z</time></trkpt><trkpt lat="46.1040859" lon="12.1836366"><ele>349.0</ele><time>2026-04-27T15:15:15.999Z</time></trkpt><trkpt lat="46.1040502" lon="12.1835592"><ele>349.0</ele><time>2026-04-27T15:15:16.999Z</time></trkpt><trkpt lat="46.1039942" lon="12.1834049"><ele>349.0</ele><time>2026-04-27T15:15:19Z</time></trkpt><trkpt lat="46.103934" lon="12.183258"><ele>348.4</ele><time>2026-04-27T15:15:20.999Z</time></trkpt><trkpt lat="46.1039016" lon="12.1831066"><ele>347.79999999999995</ele><time>2026-04-27T15:15:22.999Z</time></trkpt><trkpt lat="46.10392" lon="12.1829521"><ele>347.20000000000005</ele><time>2026-04-27T15:15:24.999Z</time></trkpt><trkpt lat="46.1039367" lon="12.1827957"><ele>346.6</ele><time>2026-04-27T15:15:26.999Z</time></trkpt><trkpt lat="46.1039366" lon="12.1827022"><ele>346.0</ele><time>2026-04-27T15:15:27.999Z</time></trkpt><trkpt lat="46.1039183" lon="12.1825211"><ele>346.0</ele><time>2026-04-27T15:15:29.999Z</time></trkpt><trkpt lat="46.103906" lon="12.1824303"><ele>346.0</ele><time>2026-04-27T15:15:31Z</time></trkpt><trkpt lat="46.1038956" lon="12.1823372"><ele>346.0</ele><time>2026-04-27T15:15:31.999Z</time></trkpt><trkpt lat="46.103883" lon="12.1822427"><ele>346.0</ele><time>2026-04-27T15:15:32.999Z</time></trkpt><trkpt lat="46.1038697" lon="12.1821499"><ele>346.0</ele><time>2026-04-27T15:15:33.999Z</time></trkpt><trkpt lat="46.1038603" lon="12.1820567"><ele>346.0</ele><time>2026-04-27T15:15:34.999Z</time></trkpt><trkpt lat="46.1038353" lon="12.181876"><ele>345.85714285714283</ele><time>2026-04-27T15:15:36.999Z</time></trkpt><trkpt lat="46.103827" lon="12.1817834"><ele>345.7142857142857</ele><time>2026-04-27T15:15:37.999Z</time></trkpt><trkpt lat="46.1038187" lon="12.181692"><ele>345.57142857142856</ele><time>2026-04-27T15:15:39Z</time></trkpt><trkpt lat="46.1038102" lon="12.1815986"><ele>345.42857142857144</ele><time>2026-04-27T15:15:39.999Z</time></trkpt><trkpt lat="46.1037983" lon="12.1815075"><ele>345.2857142857143</ele><time>2026-04-27T15:15:41Z</time></trkpt><trkpt lat="46.1037851" lon="12.1814174"><ele>345.14285714285717</ele><time>2026-04-27T15:15:41.999Z</time></trkpt><trkpt lat="46.1037745" lon="12.1813249"><ele>345.0</ele><time>2026-04-27T15:15:42.999Z</time></trkpt><trkpt lat="46.1037619" lon="12.1812343"><ele>345.0</ele><time>2026-04-27T15:15:43.999Z</time></trkpt><trkpt lat="46.1037313" lon="12.1810595"><ele>345.0</ele><time>2026-04-27T15:15:46Z</time></trkpt><trkpt lat="46.1036969" lon="12.1808852"><ele>345.0</ele><time>2026-04-27T15:15:48Z</time></trkpt><trkpt lat="46.1036818" lon="12.1807947"><ele>345.0</ele><time>2026-04-27T15:15:48.999Z</time></trkpt><trkpt lat="46.103666" lon="12.1807033"><ele>345.0</ele><time>2026-04-27T15:15:49.999Z</time></trkpt><trkpt lat="46.1036516" lon="12.1806133"><ele>345.0</ele><time>2026-04-27T15:15:50.999Z</time></trkpt><trkpt lat="46.1036421" lon="12.1805224"><ele>344.25</ele><time>2026-04-27T15:15:51.999Z</time></trkpt><trkpt lat="46.1036197" lon="12.1803466"><ele>343.5</ele><time>2026-04-27T15:15:54Z</time></trkpt><trkpt lat="46.1035963" lon="12.1801763"><ele>342.75</ele><time>2026-04-27T15:15:56Z</time></trkpt><trkpt lat="46.1035723" lon="12.1800059"><ele>342.0</ele><time>2026-04-27T15:15:57.999Z</time></trkpt><trkpt lat="46.103556" lon="12.1798362"><ele>341.75</ele><time>2026-04-27T15:15:59.999Z</time></trkpt><trkpt lat="46.1035307" lon="12.179663"><ele>341.5</ele><time>2026-04-27T15:16:02Z</time></trkpt><trkpt lat="46.1035054" lon="12.179501"><ele>341.25</ele><time>2026-04-27T15:16:03.999Z</time></trkpt><trkpt lat="46.1034767" lon="12.1793381"><ele>341.0</ele><time>2026-04-27T15:16:05.999Z</time></trkpt><trkpt lat="46.1034539" lon="12.1791665"><ele>340.75</ele><time>2026-04-27T15:16:08Z</time></trkpt><trkpt lat="46.1034322" lon="12.1790051"><ele>340.5</ele><time>2026-04-27T15:16:09.999Z</time></trkpt><trkpt lat="46.1034126" lon="12.1788482"><ele>340.25</ele><time>2026-04-27T15:16:11.999Z</time></trkpt><trkpt lat="46.1033954" lon="12.1786765"><ele>340.0</ele><time>2026-04-27T15:16:13.999Z</time></trkpt><trkpt lat="46.1033733" lon="12.1784953"><ele>340.0</ele><time>2026-04-27T15:16:15.999Z</time></trkpt><trkpt lat="46.1033576" lon="12.1783149"><ele>340.0</ele><time>2026-04-27T15:16:18Z</time></trkpt><trkpt lat="46.1033549" lon="12.1782216"><ele>340.0</ele><time>2026-04-27T15:16:19Z</time></trkpt><trkpt lat="46.1033514" lon="12.1781302"><ele>340.0</ele><time>2026-04-27T15:16:19.999Z</time></trkpt><trkpt lat="46.1033447" lon="12.1780391"><ele>340.0</ele><time>2026-04-27T15:16:20.999Z</time></trkpt><trkpt lat="46.1033434" lon="12.1779465"><ele>340.0</ele><time>2026-04-27T15:16:21.999Z</time></trkpt><trkpt lat="46.103355" lon="12.1777668"><ele>340.25</ele><time>2026-04-27T15:16:24Z</time></trkpt><trkpt lat="46.1033516" lon="12.1775897"><ele>340.5</ele><time>2026-04-27T15:16:25.999Z</time></trkpt><trkpt lat="46.1033268" lon="12.1774275"><ele>340.75</ele><time>2026-04-27T15:16:27.999Z</time></trkpt><trkpt lat="46.1032746" lon="12.1772836"><ele>341.0</ele><time>2026-04-27T15:16:29.999Z</time></trkpt><trkpt lat="46.1032199" lon="12.177143"><ele>339.6666666666667</ele><time>2026-04-27T15:16:31.999Z</time></trkpt><trkpt lat="46.1031644" lon="12.1769801"><ele>338.33333333333337</ele><time>2026-04-27T15:16:34Z</time></trkpt><trkpt lat="46.1031349" lon="12.1768947"><ele>337.0</ele><time>2026-04-27T15:16:34.999Z</time></trkpt><trkpt lat="46.1031158" lon="12.1768034"><ele>335.6666666666667</ele><time>2026-04-27T15:16:35.999Z</time></trkpt><trkpt lat="46.1030914" lon="12.1767056"><ele>334.3333333333333</ele><time>2026-04-27T15:16:36.999Z</time></trkpt><trkpt lat="46.1030682" lon="12.1766115"><ele>333.0</ele><time>2026-04-27T15:16:38Z</time></trkpt><trkpt lat="46.103054" lon="12.1765073"><ele>332.6666666666667</ele><time>2026-04-27T15:16:38.999Z</time></trkpt><trkpt lat="46.1030476" lon="12.1764006"><ele>332.3333333333333</ele><time>2026-04-27T15:16:39.999Z</time></trkpt><trkpt lat="46.1030499" lon="12.1762941"><ele>332.0</ele><time>2026-04-27T15:16:40.999Z</time></trkpt><trkpt lat="46.1030597" lon="12.1761924"><ele>331.66666666666663</ele><time>2026-04-27T15:16:41.999Z</time></trkpt><trkpt lat="46.1030695" lon="12.1760961"><ele>331.3333333333333</ele><time>2026-04-27T15:16:43Z</time></trkpt><trkpt lat="46.1030888" lon="12.1760057"><ele>331.0</ele><time>2026-04-27T15:16:43.999Z</time></trkpt><trkpt lat="46.1031302" lon="12.1758336"><ele>331.0</ele><time>2026-04-27T15:16:46Z</time></trkpt><trkpt lat="46.1031437" lon="12.1757378"><ele>331.0</ele><time>2026-04-27T15:16:46.999Z</time></trkpt><trkpt lat="46.1031467" lon="12.1756365"><ele>331.0</ele><time>2026-04-27T15:16:47.999Z</time></trkpt><trkpt lat="46.1031298" lon="12.1755321"><ele>331.0</ele><time>2026-04-27T15:16:49Z</time></trkpt><trkpt lat="46.1031117" lon="12.1754316"><ele>331.0</ele><time>2026-04-27T15:16:49.999Z</time></trkpt><trkpt lat="46.1030741" lon="12.1753309"><ele>331.0</ele><time>2026-04-27T15:16:50.999Z</time></trkpt><trkpt lat="46.1030264" lon="12.175246"><ele>331.0</ele><time>2026-04-27T15:16:52Z</time></trkpt><trkpt lat="46.1029766" lon="12.1751639"><ele>331.16666666666663</ele><time>2026-04-27T15:16:52.999Z</time></trkpt><trkpt lat="46.1029278" lon="12.1750906"><ele>331.3333333333333</ele><time>2026-04-27T15:16:54Z</time></trkpt><trkpt lat="46.1028802" lon="12.1750102"><ele>331.5</ele><time>2026-04-27T15:16:55Z</time></trkpt><trkpt lat="46.1028342" lon="12.174939"><ele>331.6666666666667</ele><time>2026-04-27T15:16:55.999Z</time></trkpt><trkpt lat="46.1027926" lon="12.1748668"><ele>331.83333333333337</ele><time>2026-04-27T15:16:56.999Z</time></trkpt><trkpt lat="46.1027194" lon="12.1747348"><ele>332.0</ele><time>2026-04-27T15:16:59Z</time></trkpt><trkpt lat="46.1026763" lon="12.1746218"><ele>331.0</ele><time>2026-04-27T15:17:00.999Z</time></trkpt><trkpt lat="46.1026612" lon="12.1745159"><ele>330.0</ele><time>2026-04-27T15:17:02.999Z</time></trkpt><trkpt lat="46.1026297" lon="12.1744094"><ele>329.0</ele><time>2026-04-27T15:17:04.999Z</time></trkpt><trkpt lat="46.1025956" lon="12.174286"><ele>328.0</ele><time>2026-04-27T15:17:06.999Z</time></trkpt><trkpt lat="46.102562" lon="12.1742089"><ele>327.0</ele><time>2026-04-27T15:17:07.999Z</time></trkpt><trkpt lat="46.1025109" lon="12.1740804"><ele>326.0</ele><time>2026-04-27T15:17:10Z</time></trkpt><trkpt lat="46.1024348" lon="12.1739742"><ele>325.6666666666667</ele><time>2026-04-27T15:17:11.999Z</time></trkpt><trkpt lat="46.1023757" lon="12.1738884"><ele>325.33333333333337</ele><time>2026-04-27T15:17:15Z</time></trkpt><trkpt lat="46.102376" lon="12.1737878"><ele>325.0</ele><time>2026-04-27T15:17:18.999Z</time></trkpt><trkpt lat="46.1023911" lon="12.1736641"><ele>324.6666666666667</ele><time>2026-04-27T15:17:21.999Z</time></trkpt><trkpt lat="46.1023733" lon="12.1735373"><ele>324.3333333333333</ele><time>2026-04-27T15:17:24.999Z</time></trkpt><trkpt lat="46.1023435" lon="12.1734172"><ele>324.0</ele><time>2026-04-27T15:17:26.999Z</time></trkpt><trkpt lat="46.1022875" lon="12.1733225"><ele>324.0</ele><time>2026-04-27T15:17:29.999Z</time></trkpt><trkpt lat="46.102237" lon="12.1732065"><ele>324.0</ele><time>2026-04-27T15:17:32.999Z</time></trkpt><trkpt lat="46.1022106" lon="12.1731057"><ele>324.0</ele><time>2026-04-27T15:17:35Z</time></trkpt><trkpt lat="46.1021732" lon="12.1729958"><ele>324.0</ele><time>2026-04-27T15:17:37.999Z</time></trkpt><trkpt lat="46.1021159" lon="12.1729052"><ele>324.0</ele><time>2026-04-27T15:17:40.999Z</time></trkpt><trkpt lat="46.1020742" lon="12.1728032"><ele>324.0</ele><time>2026-04-27T15:17:42.999Z</time></trkpt><trkpt lat="46.1020496" lon="12.1727113"><ele>324.3333333333333</ele><time>2026-04-27T15:17:45Z</time></trkpt><trkpt lat="46.1020287" lon="12.1726105"><ele>324.6666666666667</ele><time>2026-04-27T15:17:46.999Z</time></trkpt><trkpt lat="46.1020193" lon="12.1724861"><ele>325.0</ele><time>2026-04-27T15:17:49Z</time></trkpt><trkpt lat="46.1020182" lon="12.1723826"><ele>325.33333333333337</ele><time>2026-04-27T15:17:51.145Z</time></trkpt><trkpt lat="46.1020043" lon="12.1722718"><ele>325.6666666666667</ele><time>2026-04-27T15:17:53Z</time></trkpt><trkpt lat="46.101979" lon="12.1721614"><ele>326.0</ele><time>2026-04-27T15:17:54.999Z</time></trkpt><trkpt lat="46.1019281" lon="12.1720162"><ele>326.0</ele><time>2026-04-27T15:17:56.999Z</time></trkpt><trkpt lat="46.1018846" lon="12.1719008"><ele>326.0</ele><time>2026-04-27T15:17:58.999Z</time></trkpt><trkpt lat="46.1018461" lon="12.1717734"><ele>326.0</ele><time>2026-04-27T15:18:00.999Z</time></trkpt><trkpt lat="46.1018132" lon="12.1716431"><ele>326.0</ele><time>2026-04-27T15:18:02.999Z</time></trkpt><trkpt lat="46.1017846" lon="12.1715191"><ele>326.0</ele><time>2026-04-27T15:18:04.999Z</time></trkpt><trkpt lat="46.1017545" lon="12.1713966"><ele>325.0</ele><time>2026-04-27T15:18:06.999Z</time></trkpt><trkpt lat="46.1017246" lon="12.1712557"><ele>324.0</ele><time>2026-04-27T15:18:08.999Z</time></trkpt><trkpt lat="46.1017072" lon="12.171121"><ele>323.0</ele><time>2026-04-27T15:18:11Z</time></trkpt><trkpt lat="46.1016709" lon="12.171031"><ele>322.0</ele><time>2026-04-27T15:18:13Z</time></trkpt><trkpt lat="46.1016397" lon="12.1709017"><ele>321.0</ele><time>2026-04-27T15:18:15.999Z</time></trkpt><trkpt lat="46.1016245" lon="12.1707915"><ele>320.0</ele><time>2026-04-27T15:18:19.999Z</time></trkpt><trkpt lat="46.1015893" lon="12.1706987"><ele>321.1666666666667</ele><time>2026-04-27T15:18:23.999Z</time></trkpt><trkpt lat="46.101549" lon="12.1706023"><ele>322.33333333333337</ele><time>2026-04-27T15:18:26.999Z</time></trkpt><trkpt lat="46.1015086" lon="12.1705292"><ele>323.5</ele><time>2026-04-27T15:18:29Z</time></trkpt><trkpt lat="46.1015042" lon="12.1704367"><ele>324.6666666666667</ele><time>2026-04-27T15:18:31.999Z</time></trkpt><trkpt lat="46.1015064" lon="12.1703269"><ele>325.8333333333333</ele><time>2026-04-27T15:18:34Z</time></trkpt><trkpt lat="46.1015059" lon="12.1701936"><ele>327.0</ele><time>2026-04-27T15:18:35.999Z</time></trkpt><trkpt lat="46.1014878" lon="12.1700668"><ele>327.0</ele><time>2026-04-27T15:18:37.999Z</time></trkpt><trkpt lat="46.1014531" lon="12.1699402"><ele>327.0</ele><time>2026-04-27T15:18:39.999Z</time></trkpt><trkpt lat="46.1014459" lon="12.1698465"><ele>327.0</ele><time>2026-04-27T15:18:41.999Z</time></trkpt><trkpt lat="46.1014358" lon="12.169727"><ele>327.0</ele><time>2026-04-27T15:18:44.999Z</time></trkpt><trkpt lat="46.1014261" lon="12.1696287"><ele>327.0</ele><time>2026-04-27T15:18:47.999Z</time></trkpt><trkpt lat="46.1014228" lon="12.1695161"><ele>327.0</ele><time>2026-04-27T15:18:50.999Z</time></trkpt><trkpt lat="46.1014275" lon="12.1694109"><ele>327.0</ele><time>2026-04-27T15:18:53.999Z</time></trkpt><trkpt lat="46.101405" lon="12.1692872"><ele>327.0</ele><time>2026-04-27T15:18:56.999Z</time></trkpt><trkpt lat="46.1014071" lon="12.1691694"><ele>327.0</ele><time>2026-04-27T15:18:59.999Z</time></trkpt><trkpt lat="46.1014194" lon="12.1690623"><ele>327.0</ele><time>2026-04-27T15:19:02.999Z</time></trkpt><trkpt lat="46.1013847" lon="12.168978"><ele>327.0</ele><time>2026-04-27T15:19:06Z</time></trkpt><trkpt lat="46.1012989" lon="12.1689791"><ele>327.0</ele><time>2026-04-27T15:19:08.999Z</time></trkpt><trkpt lat="46.1012413" lon="12.1689299"><ele>327.0</ele><time>2026-04-27T15:19:12.999Z</time></trkpt><trkpt lat="46.1011858" lon="12.1689857"><ele>327.0</ele><time>2026-04-27T15:19:16.999Z</time></trkpt><trkpt lat="46.1011278" lon="12.1690793"><ele>327.0</ele><time>2026-04-27T15:19:19.999Z</time></trkpt><trkpt lat="46.1010939" lon="12.1692028"><ele>327.0</ele><time>2026-04-27T15:19:23Z</time></trkpt><trkpt lat="46.1010707" lon="12.1693307"><ele>327.0</ele><time>2026-04-27T15:19:26Z</time></trkpt><trkpt lat="46.1010681" lon="12.1694269"><ele>327.0</ele><time>2026-04-27T15:19:27.999Z</time></trkpt><trkpt lat="46.1010694" lon="12.1695203"><ele>327.0</ele><time>2026-04-27T15:19:30.999Z</time></trkpt><trkpt lat="46.1010705" lon="12.1696125"><ele>327.0</ele><time>2026-04-27T15:19:32.999Z</time></trkpt><trkpt lat="46.1010603" lon="12.1697343"><ele>327.0</ele><time>2026-04-27T15:19:35.999Z</time></trkpt><trkpt lat="46.1010466" lon="12.1698491"><ele>327.0</ele><time>2026-04-27T15:19:38.999Z</time></trkpt><trkpt lat="46.1010249" lon="12.1699624"><ele>327.0</ele><time>2026-04-27T15:19:41.999Z</time></trkpt><trkpt lat="46.1010002" lon="12.1700754"><ele>327.0</ele><time>2026-04-27T15:19:45Z</time></trkpt><trkpt lat="46.1009752" lon="12.1701968"><ele>327.0</ele><time>2026-04-27T15:19:48Z</time></trkpt><trkpt lat="46.1009492" lon="12.1703237"><ele>327.0</ele><time>2026-04-27T15:19:50.999Z</time></trkpt><trkpt lat="46.1009253" lon="12.1704092"><ele>327.0</ele><time>2026-04-27T15:19:53Z</time></trkpt><trkpt lat="46.1008787" lon="12.1705083"><ele>327.0</ele><time>2026-04-27T15:19:55.999Z</time></trkpt><trkpt lat="46.1008367" lon="12.1705801"><ele>327.0</ele><time>2026-04-27T15:19:57.999Z</time></trkpt><trkpt lat="46.1007761" lon="12.1706559"><ele>327.0</ele><time>2026-04-27T15:19:59.999Z</time></trkpt><trkpt lat="46.1007149" lon="12.1706971"><ele>328.5</ele><time>2026-04-27T15:20:01.999Z</time></trkpt><trkpt lat="46.1006403" lon="12.1707213"><ele>330.0</ele><time>2026-04-27T15:20:04.999Z</time></trkpt><trkpt lat="46.100555" lon="12.1707451"><ele>331.5</ele><time>2026-04-27T15:20:08Z</time></trkpt><trkpt lat="46.1004689" lon="12.1707909"><ele>333.0</ele><time>2026-04-27T15:20:10.999Z</time></trkpt><trkpt lat="46.1003863" lon="12.1708349"><ele>334.5</ele><time>2026-04-27T15:20:14Z</time></trkpt><trkpt lat="46.100296" lon="12.1708602"><ele>336.0</ele><time>2026-04-27T15:20:16.999Z</time></trkpt><trkpt lat="46.1002136" lon="12.1708511"><ele>336.0</ele><time>2026-04-27T15:20:20Z</time></trkpt><trkpt lat="46.1001369" lon="12.1707905"><ele>336.0</ele><time>2026-04-27T15:20:22.999Z</time></trkpt><trkpt lat="46.1000738" lon="12.1707148"><ele>336.0</ele><time>2026-04-27T15:20:25.999Z</time></trkpt><trkpt lat="46.1000044" lon="12.1706515"><ele>336.0</ele><time>2026-04-27T15:20:29Z</time></trkpt><trkpt lat="46.0999311" lon="12.1706357"><ele>336.0</ele><time>2026-04-27T15:20:31.999Z</time></trkpt><trkpt lat="46.0998663" lon="12.1706763"><ele>336.0</ele><time>2026-04-27T15:20:35.999Z</time></trkpt><trkpt lat="46.0998262" lon="12.1707717"><ele>336.0</ele><time>2026-04-27T15:20:39.999Z</time></trkpt><trkpt lat="46.0997648" lon="12.1708039"><ele>336.0</ele><time>2026-04-27T15:20:41.999Z</time></trkpt><trkpt lat="46.0997002" lon="12.1708409"><ele>336.0</ele><time>2026-04-27T15:20:44.999Z</time></trkpt><trkpt lat="46.0996576" lon="12.1707317"><ele>336.0</ele><time>2026-04-27T15:20:47.999Z</time></trkpt><trkpt lat="46.0996694" lon="12.1706041"><ele>336.0</ele><time>2026-04-27T15:20:49.999Z</time></trkpt><trkpt lat="46.0996748" lon="12.1704667"><ele>336.0</ele><time>2026-04-27T15:20:51.999Z</time></trkpt><trkpt lat="46.0996922" lon="12.1703171"><ele>336.0</ele><time>2026-04-27T15:20:54Z</time></trkpt><trkpt lat="46.0997202" lon="12.170159"><ele>336.0</ele><time>2026-04-27T15:20:55.999Z</time></trkpt><trkpt lat="46.0997536" lon="12.169994"><ele>336.0</ele><time>2026-04-27T15:20:58Z</time></trkpt><trkpt lat="46.0997932" lon="12.1698287"><ele>336.0</ele><time>2026-04-27T15:20:59.999Z</time></trkpt><trkpt lat="46.099848" lon="12.1696787"><ele>335.0</ele><time>2026-04-27T15:21:01.999Z</time></trkpt><trkpt lat="46.0998846" lon="12.1696021"><ele>334.0</ele><time>2026-04-27T15:21:03Z</time></trkpt><trkpt lat="46.0999224" lon="12.169527"><ele>333.0</ele><time>2026-04-27T15:21:03.999Z</time></trkpt><trkpt lat="46.0999562" lon="12.1694488"><ele>332.0</ele><time>2026-04-27T15:21:04.999Z</time></trkpt><trkpt lat="46.1000278" lon="12.1693029"><ele>331.0</ele><time>2026-04-27T15:21:06.999Z</time></trkpt><trkpt lat="46.1000981" lon="12.169157"><ele>330.0</ele><time>2026-04-27T15:21:08.999Z</time></trkpt><trkpt lat="46.100163" lon="12.1690131"><ele>329.6</ele><time>2026-04-27T15:21:10.999Z</time></trkpt><trkpt lat="46.1002225" lon="12.1688766"><ele>329.2</ele><time>2026-04-27T15:21:13Z</time></trkpt><trkpt lat="46.1002961" lon="12.1687623"><ele>328.79999999999995</ele><time>2026-04-27T15:21:14.999Z</time></trkpt><trkpt lat="46.1003749" lon="12.1686579"><ele>328.4</ele><time>2026-04-27T15:21:16.999Z</time></trkpt><trkpt lat="46.1004556" lon="12.168538"><ele>328.0</ele><time>2026-04-27T15:21:18.999Z</time></trkpt><trkpt lat="46.100536" lon="12.168396"><ele>328.0</ele><time>2026-04-27T15:21:20.999Z</time></trkpt><trkpt lat="46.1005689" lon="12.1683159"><ele>328.0</ele><time>2026-04-27T15:21:22Z</time></trkpt><trkpt lat="46.1006096" lon="12.168155"><ele>328.0</ele><time>2026-04-27T15:21:23.999Z</time></trkpt><trkpt lat="46.1006317" lon="12.1679842"><ele>328.0</ele><time>2026-04-27T15:21:25.999Z</time></trkpt><trkpt lat="46.1006376" lon="12.1678082"><ele>328.0</ele><time>2026-04-27T15:21:27.999Z</time></trkpt><trkpt lat="46.1006318" lon="12.1676339"><ele>327.8333333333333</ele><time>2026-04-27T15:21:30Z</time></trkpt><trkpt lat="46.1006192" lon="12.1674559"><ele>327.66666666666663</ele><time>2026-04-27T15:21:31.999Z</time></trkpt><trkpt lat="46.1006101" lon="12.1673654"><ele>327.5</ele><time>2026-04-27T15:21:33Z</time></trkpt><trkpt lat="46.1006027" lon="12.1672743"><ele>327.3333333333333</ele><time>2026-04-27T15:21:34Z</time></trkpt><trkpt lat="46.1005956" lon="12.167183"><ele>327.1666666666667</ele><time>2026-04-27T15:21:34.999Z</time></trkpt><trkpt lat="46.1005822" lon="12.167004"><ele>327.0</ele><time>2026-04-27T15:21:36.999Z</time></trkpt><trkpt lat="46.1005783" lon="12.1669128"><ele>326.6</ele><time>2026-04-27T15:21:37.999Z</time></trkpt><trkpt lat="46.1005708" lon="12.1668201"><ele>326.20000000000005</ele><time>2026-04-27T15:21:39Z</time></trkpt><trkpt lat="46.100555" lon="12.1666425"><ele>325.8</ele><time>2026-04-27T15:21:40.999Z</time></trkpt><trkpt lat="46.1005351" lon="12.1664657"><ele>325.4</ele><time>2026-04-27T15:21:43Z</time></trkpt><trkpt lat="46.1005141" lon="12.1662917"><ele>325.0</ele><time>2026-04-27T15:21:44.999Z</time></trkpt><trkpt lat="46.1005068" lon="12.1662006"><ele>325.0</ele><time>2026-04-27T15:21:45.999Z</time></trkpt><trkpt lat="46.1004985" lon="12.1661095"><ele>325.0</ele><time>2026-04-27T15:21:46.999Z</time></trkpt><trkpt lat="46.1004924" lon="12.1660172"><ele>325.0</ele><time>2026-04-27T15:21:47.999Z</time></trkpt><trkpt lat="46.1004983" lon="12.1658346"><ele>325.0</ele><time>2026-04-27T15:21:49.999Z</time></trkpt><trkpt lat="46.1005022" lon="12.1657407"><ele>325.0</ele><time>2026-04-27T15:21:51Z</time></trkpt><trkpt lat="46.1005079" lon="12.165646"><ele>325.0</ele><time>2026-04-27T15:21:51.999Z</time></trkpt><trkpt lat="46.1005117" lon="12.1655527"><ele>325.0</ele><time>2026-04-27T15:21:52.999Z</time></trkpt><trkpt lat="46.1005119" lon="12.1654577"><ele>325.0</ele><time>2026-04-27T15:21:53.999Z</time></trkpt><trkpt lat="46.1005127" lon="12.165365"><ele>325.0</ele><time>2026-04-27T15:21:54.999Z</time></trkpt><trkpt lat="46.1005139" lon="12.1652679"><ele>325.0</ele><time>2026-04-27T15:21:56Z</time></trkpt><trkpt lat="46.1005146" lon="12.1651708"><ele>325.0</ele><time>2026-04-27T15:21:56.999Z</time></trkpt><trkpt lat="46.1005109" lon="12.1650741"><ele>325.0</ele><time>2026-04-27T15:21:58Z</time></trkpt><trkpt lat="46.1005056" lon="12.1649783"><ele>325.0</ele><time>2026-04-27T15:21:58.999Z</time></trkpt><trkpt lat="46.1005002" lon="12.1648874"><ele>325.0</ele><time>2026-04-27T15:21:59.999Z</time></trkpt><trkpt lat="46.100479" lon="12.1647097"><ele>325.0</ele><time>2026-04-27T15:22:01.999Z</time></trkpt><trkpt lat="46.1004632" lon="12.1645323"><ele>325.0</ele><time>2026-04-27T15:22:04Z</time></trkpt><trkpt lat="46.1004751" lon="12.1643633"><ele>325.0</ele><time>2026-04-27T15:22:05.999Z</time></trkpt><trkpt lat="46.1005073" lon="12.1642837"><ele>325.0</ele><time>2026-04-27T15:22:06.999Z</time></trkpt><trkpt lat="46.100552" lon="12.1642114"><ele>325.0</ele><time>2026-04-27T15:22:08Z</time></trkpt><trkpt lat="46.1006023" lon="12.1641333"><ele>325.0</ele><time>2026-04-27T15:22:08.999Z</time></trkpt><trkpt lat="46.100649" lon="12.1640478"><ele>325.0</ele><time>2026-04-27T15:22:09.999Z</time></trkpt><trkpt lat="46.1006913" lon="12.1639518"><ele>325.0</ele><time>2026-04-27T15:22:11Z</time></trkpt><trkpt lat="46.1007235" lon="12.1638524"><ele>325.0</ele><time>2026-04-27T15:22:11.999Z</time></trkpt><trkpt lat="46.1007447" lon="12.1637498"><ele>325.0</ele><time>2026-04-27T15:22:12.999Z</time></trkpt><trkpt lat="46.1007589" lon="12.1636421"><ele>324.57142857142856</ele><time>2026-04-27T15:22:13.999Z</time></trkpt><trkpt lat="46.1007735" lon="12.1635396"><ele>324.14285714285717</ele><time>2026-04-27T15:22:14.999Z</time></trkpt><trkpt lat="46.1007895" lon="12.16344"><ele>323.7142857142857</ele><time>2026-04-27T15:22:16Z</time></trkpt><trkpt lat="46.1008037" lon="12.1633379"><ele>323.2857142857143</ele><time>2026-04-27T15:22:16.999Z</time></trkpt><trkpt lat="46.1008217" lon="12.1632383"><ele>322.8571428571429</ele><time>2026-04-27T15:22:17.999Z</time></trkpt><trkpt lat="46.1008429" lon="12.1631441"><ele>322.42857142857144</ele><time>2026-04-27T15:22:18.999Z</time></trkpt><trkpt lat="46.1008656" lon="12.1630515"><ele>322.0</ele><time>2026-04-27T15:22:20Z</time></trkpt><trkpt lat="46.100892" lon="12.1629586"><ele>321.85714285714283</ele><time>2026-04-27T15:22:20.999Z</time></trkpt><trkpt lat="46.1009204" lon="12.1628671"><ele>321.7142857142857</ele><time>2026-04-27T15:22:21.999Z</time></trkpt><trkpt lat="46.1009479" lon="12.1627743"><ele>321.57142857142856</ele><time>2026-04-27T15:22:22.999Z</time></trkpt><trkpt lat="46.100972" lon="12.1626797"><ele>321.42857142857144</ele><time>2026-04-27T15:22:24Z</time></trkpt><trkpt lat="46.1009995" lon="12.1625901"><ele>321.2857142857143</ele><time>2026-04-27T15:22:25Z</time></trkpt><trkpt lat="46.1010265" lon="12.1625001"><ele>321.1428571428571</ele><time>2026-04-27T15:22:25.999Z</time></trkpt><trkpt lat="46.1010543" lon="12.1624089"><ele>321.0</ele><time>2026-04-27T15:22:27Z</time></trkpt><trkpt lat="46.1010835" lon="12.1623196"><ele>320.4285714285714</ele><time>2026-04-27T15:22:28Z</time></trkpt><trkpt lat="46.1011097" lon="12.1622305"><ele>319.85714285714283</ele><time>2026-04-27T15:22:28.999Z</time></trkpt><trkpt lat="46.1011422" lon="12.162141"><ele>319.2857142857143</ele><time>2026-04-27T15:22:30Z</time></trkpt><trkpt lat="46.1011743" lon="12.1620582"><ele>318.71428571428567</ele><time>2026-04-27T15:22:30.999Z</time></trkpt><trkpt lat="46.1012092" lon="12.1619754"><ele>318.1428571428571</ele><time>2026-04-27T15:22:31.999Z</time></trkpt><trkpt lat="46.1012435" lon="12.1618921"><ele>317.57142857142856</ele><time>2026-04-27T15:22:32.999Z</time></trkpt><trkpt lat="46.1012799" lon="12.16181"><ele>317.0</ele><time>2026-04-27T15:22:33.999Z</time></trkpt><trkpt lat="46.1013183" lon="12.1617353"><ele>317.0</ele><time>2026-04-27T15:22:34.999Z</time></trkpt><trkpt lat="46.1013911" lon="12.1615884"><ele>317.0</ele><time>2026-04-27T15:22:36.999Z</time></trkpt><trkpt lat="46.1014281" lon="12.1615107"><ele>317.0</ele><time>2026-04-27T15:22:37.999Z</time></trkpt><trkpt lat="46.1014982" lon="12.1613588"><ele>317.0</ele><time>2026-04-27T15:22:39.999Z</time></trkpt><trkpt lat="46.1015354" lon="12.1612854"><ele>317.0</ele><time>2026-04-27T15:22:40.999Z</time></trkpt><trkpt lat="46.1015734" lon="12.1612072"><ele>317.0</ele><time>2026-04-27T15:22:41.999Z</time></trkpt><trkpt lat="46.1016081" lon="12.1611302"><ele>317.6666666666667</ele><time>2026-04-27T15:22:43.144Z</time></trkpt><trkpt lat="46.1016697" lon="12.1609698"><ele>318.33333333333337</ele><time>2026-04-27T15:22:44.999Z</time></trkpt><trkpt lat="46.1017008" lon="12.1608868"><ele>319.0</ele><time>2026-04-27T15:22:45.999Z</time></trkpt><trkpt lat="46.1017275" lon="12.1608017"><ele>319.6666666666667</ele><time>2026-04-27T15:22:46.999Z</time></trkpt><trkpt lat="46.1017499" lon="12.160713"><ele>320.3333333333333</ele><time>2026-04-27T15:22:47.999Z</time></trkpt><trkpt lat="46.1017711" lon="12.160626"><ele>321.0</ele><time>2026-04-27T15:22:48.999Z</time></trkpt><trkpt lat="46.1017883" lon="12.1605368"><ele>321.0</ele><time>2026-04-27T15:22:49.999Z</time></trkpt><trkpt lat="46.1018052" lon="12.160449"><ele>321.0</ele><time>2026-04-27T15:22:50.999Z</time></trkpt><trkpt lat="46.101817" lon="12.1603592"><ele>321.0</ele><time>2026-04-27T15:22:51.999Z</time></trkpt><trkpt lat="46.101831" lon="12.1601817"><ele>321.0</ele><time>2026-04-27T15:22:53.999Z</time></trkpt><trkpt lat="46.1018465" lon="12.1600062"><ele>321.0</ele><time>2026-04-27T15:22:55.999Z</time></trkpt><trkpt lat="46.1018567" lon="12.1599131"><ele>321.0</ele><time>2026-04-27T15:22:57Z</time></trkpt><trkpt lat="46.1018786" lon="12.1597372"><ele>321.25</ele><time>2026-04-27T15:22:58.999Z</time></trkpt><trkpt lat="46.1019072" lon="12.159568"><ele>321.5</ele><time>2026-04-27T15:23:01Z</time></trkpt><trkpt lat="46.101943" lon="12.1593988"><ele>321.75</ele><time>2026-04-27T15:23:02.999Z</time></trkpt><trkpt lat="46.1020112" lon="12.1592524"><ele>322.0</ele><time>2026-04-27T15:23:04.999Z</time></trkpt><trkpt lat="46.1021014" lon="12.1591372"><ele>322.0</ele><time>2026-04-27T15:23:06.999Z</time></trkpt><trkpt lat="46.102195" lon="12.1590231"><ele>322.0</ele><time>2026-04-27T15:23:09Z</time></trkpt><trkpt lat="46.1022853" lon="12.1589075"><ele>322.0</ele><time>2026-04-27T15:23:11Z</time></trkpt><trkpt lat="46.102381" lon="12.1587996"><ele>322.0</ele><time>2026-04-27T15:23:12.999Z</time></trkpt><trkpt lat="46.1024783" lon="12.1586871"><ele>322.5</ele><time>2026-04-27T15:23:14.999Z</time></trkpt><trkpt lat="46.1025793" lon="12.1585742"><ele>323.0</ele><time>2026-04-27T15:23:16.999Z</time></trkpt><trkpt lat="46.1026759" lon="12.1584723"><ele>323.5</ele><time>2026-04-27T15:23:18.999Z</time></trkpt><trkpt lat="46.102767" lon="12.1583678"><ele>324.0</ele><time>2026-04-27T15:23:20.999Z</time></trkpt><trkpt lat="46.1028526" lon="12.1582813"><ele>324.0</ele><time>2026-04-27T15:23:23Z</time></trkpt><trkpt lat="46.1029165" lon="12.1582059"><ele>324.0</ele><time>2026-04-27T15:23:25Z</time></trkpt><trkpt lat="46.102905" lon="12.1580892"><ele>324.0</ele><time>2026-04-27T15:23:26.999Z</time></trkpt><trkpt lat="46.1028534" lon="12.1579611"><ele>324.0</ele><time>2026-04-27T15:23:28.999Z</time></trkpt><trkpt lat="46.102801" lon="12.157806"><ele>324.0</ele><time>2026-04-27T15:23:30.999Z</time></trkpt><trkpt lat="46.1027414" lon="12.1576506"><ele>323.5</ele><time>2026-04-27T15:23:33Z</time></trkpt><trkpt lat="46.1026859" lon="12.1574988"><ele>323.0</ele><time>2026-04-27T15:23:34.999Z</time></trkpt><trkpt lat="46.1026379" lon="12.1573598"><ele>322.5</ele><time>2026-04-27T15:23:36.999Z</time></trkpt><trkpt lat="46.1025825" lon="12.1572161"><ele>322.0</ele><time>2026-04-27T15:23:39Z</time></trkpt><trkpt lat="46.1025215" lon="12.1570728"><ele>322.0</ele><time>2026-04-27T15:23:40.999Z</time></trkpt><trkpt lat="46.1024743" lon="12.1569313"><ele>322.0</ele><time>2026-04-27T15:23:42.999Z</time></trkpt><trkpt lat="46.1024141" lon="12.1567739"><ele>322.0</ele><time>2026-04-27T15:23:44.999Z</time></trkpt><trkpt lat="46.1023803" lon="12.1566969"><ele>322.0</ele><time>2026-04-27T15:23:45.999Z</time></trkpt><trkpt lat="46.1023455" lon="12.1566187"><ele>322.0</ele><time>2026-04-27T15:23:47Z</time></trkpt><trkpt lat="46.1022839" lon="12.1564635"><ele>322.0</ele><time>2026-04-27T15:23:48.999Z</time></trkpt><trkpt lat="46.1022465" lon="12.1563874"><ele>322.0</ele><time>2026-04-27T15:23:49.999Z</time></trkpt><trkpt lat="46.1021802" lon="12.1562373"><ele>322.0</ele><time>2026-04-27T15:23:51.999Z</time></trkpt><trkpt lat="46.1020881" lon="12.1561541"><ele>322.0</ele><time>2026-04-27T15:23:54Z</time></trkpt><trkpt lat="46.1019781" lon="12.1561443"><ele>322.0</ele><time>2026-04-27T15:23:55.999Z</time></trkpt><trkpt lat="46.1018645" lon="12.1560885"><ele>322.0</ele><time>2026-04-27T15:23:57.999Z</time></trkpt><trkpt lat="46.1017768" lon="12.155966"><ele>322.0</ele><time>2026-04-27T15:24:00Z</time></trkpt><trkpt lat="46.1017" lon="12.155822"><ele>322.0</ele><time>2026-04-27T15:24:01.999Z</time></trkpt><trkpt lat="46.1016273" lon="12.1556812"><ele>322.0</ele><time>2026-04-27T15:24:03.999Z</time></trkpt><trkpt lat="46.101588" lon="12.1556081"><ele>322.0</ele><time>2026-04-27T15:24:04.999Z</time></trkpt><trkpt lat="46.1015101" lon="12.1554605"><ele>321.8333333333333</ele><time>2026-04-27T15:24:06.999Z</time></trkpt><trkpt lat="46.1014358" lon="12.1553076"><ele>321.66666666666663</ele><time>2026-04-27T15:24:08.999Z</time></trkpt><trkpt lat="46.1013927" lon="12.1552314"><ele>321.5</ele><time>2026-04-27T15:24:09.999Z</time></trkpt><trkpt lat="46.1013512" lon="12.1551545"><ele>321.3333333333333</ele><time>2026-04-27T15:24:10.999Z</time></trkpt><trkpt lat="46.1013084" lon="12.1550756"><ele>321.1666666666667</ele><time>2026-04-27T15:24:11.999Z</time></trkpt><trkpt lat="46.10127" lon="12.1549985"><ele>321.0</ele><time>2026-04-27T15:24:12.999Z</time></trkpt><trkpt lat="46.1012307" lon="12.1549189"><ele>321.4285714285714</ele><time>2026-04-27T15:24:13.999Z</time></trkpt><trkpt lat="46.1011913" lon="12.1548349"><ele>321.85714285714283</ele><time>2026-04-27T15:24:14.999Z</time></trkpt><trkpt lat="46.1011444" lon="12.1547499"><ele>322.2857142857143</ele><time>2026-04-27T15:24:15.999Z</time></trkpt><trkpt lat="46.1011026" lon="12.1546708"><ele>322.71428571428567</ele><time>2026-04-27T15:24:16.999Z</time></trkpt><trkpt lat="46.101058" lon="12.1545866"><ele>323.1428571428571</ele><time>2026-04-27T15:24:18Z</time></trkpt><trkpt lat="46.1010146" lon="12.1545063"><ele>323.57142857142856</ele><time>2026-04-27T15:24:18.999Z</time></trkpt><trkpt lat="46.1009758" lon="12.1544247"><ele>324.0</ele><time>2026-04-27T15:24:19.999Z</time></trkpt><trkpt lat="46.1009332" lon="12.154347"><ele>324.0</ele><time>2026-04-27T15:24:20.999Z</time></trkpt><trkpt lat="46.100893" lon="12.1542695"><ele>324.0</ele><time>2026-04-27T15:24:21.999Z</time></trkpt><trkpt lat="46.1008532" lon="12.1541899"><ele>324.0</ele><time>2026-04-27T15:24:22.999Z</time></trkpt><trkpt lat="46.1008111" lon="12.154112"><ele>324.0</ele><time>2026-04-27T15:24:23.999Z</time></trkpt><trkpt lat="46.1007692" lon="12.1540351"><ele>324.0</ele><time>2026-04-27T15:24:24.999Z</time></trkpt><trkpt lat="46.1007265" lon="12.1539603"><ele>324.0</ele><time>2026-04-27T15:24:25.999Z</time></trkpt><trkpt lat="46.1006913" lon="12.1538781"><ele>324.0</ele><time>2026-04-27T15:24:26.999Z</time></trkpt><trkpt lat="46.1006533" lon="12.1538012"><ele>323.0</ele><time>2026-04-27T15:24:28Z</time></trkpt><trkpt lat="46.1005769" lon="12.1536505"><ele>322.0</ele><time>2026-04-27T15:24:29.999Z</time></trkpt><trkpt lat="46.1005377" lon="12.1535761"><ele>321.0</ele><time>2026-04-27T15:24:31Z</time></trkpt><trkpt lat="46.1004579" lon="12.1534401"><ele>320.0</ele><time>2026-04-27T15:24:33Z</time></trkpt><trkpt lat="46.100419" lon="12.1533672"><ele>319.0</ele><time>2026-04-27T15:24:33.999Z</time></trkpt><trkpt lat="46.100343" lon="12.1532196"><ele>319.5</ele><time>2026-04-27T15:24:35.999Z</time></trkpt><trkpt lat="46.1003057" lon="12.1531435"><ele>320.0</ele><time>2026-04-27T15:24:36.999Z</time></trkpt><trkpt lat="46.1002671" lon="12.1530683"><ele>320.5</ele><time>2026-04-27T15:24:38Z</time></trkpt><trkpt lat="46.1002289" lon="12.1529948"><ele>321.0</ele><time>2026-04-27T15:24:38.999Z</time></trkpt><trkpt lat="46.1001901" lon="12.1529223"><ele>321.5</ele><time>2026-04-27T15:24:39.999Z</time></trkpt><trkpt lat="46.1001507" lon="12.1528513"><ele>322.0</ele><time>2026-04-27T15:24:40.999Z</time></trkpt><trkpt lat="46.1001097" lon="12.1527796"><ele>322.5</ele><time>2026-04-27T15:24:41.999Z</time></trkpt><trkpt lat="46.1000701" lon="12.152705"><ele>323.0</ele><time>2026-04-27T15:24:42.999Z</time></trkpt><trkpt lat="46.1000317" lon="12.1526305"><ele>323.0</ele><time>2026-04-27T15:24:43.999Z</time></trkpt><trkpt lat="46.0999557" lon="12.1524917"><ele>323.0</ele><time>2026-04-27T15:24:45.999Z</time></trkpt><trkpt lat="46.0999168" lon="12.1524169"><ele>323.0</ele><time>2026-04-27T15:24:46.999Z</time></trkpt><trkpt lat="46.0998459" lon="12.1522723"><ele>323.0</ele><time>2026-04-27T15:24:48.999Z</time></trkpt><trkpt lat="46.099807" lon="12.1521967"><ele>323.0</ele><time>2026-04-27T15:24:50Z</time></trkpt><trkpt lat="46.0997676" lon="12.1521248"><ele>323.0</ele><time>2026-04-27T15:24:51Z</time></trkpt><trkpt lat="46.0997235" lon="12.1520571"><ele>322.0</ele><time>2026-04-27T15:24:51.999Z</time></trkpt><trkpt lat="46.0996753" lon="12.1519978"><ele>321.0</ele><time>2026-04-27T15:24:52.999Z</time></trkpt><trkpt lat="46.09962" lon="12.1519517"><ele>320.0</ele><time>2026-04-27T15:24:53.999Z</time></trkpt><trkpt lat="46.0995648" lon="12.151908"><ele>319.0</ele><time>2026-04-27T15:24:55Z</time></trkpt><trkpt lat="46.0994552" lon="12.1518199"><ele>318.0</ele><time>2026-04-27T15:24:56.999Z</time></trkpt><trkpt lat="46.0993502" lon="12.1517302"><ele>317.0</ele><time>2026-04-27T15:24:59Z</time></trkpt><trkpt lat="46.0992442" lon="12.1516366"><ele>317.0</ele><time>2026-04-27T15:25:00.999Z</time></trkpt><trkpt lat="46.0991912" lon="12.1515874"><ele>317.0</ele><time>2026-04-27T15:25:01.999Z</time></trkpt><trkpt lat="46.0990869" lon="12.1514994"><ele>317.0</ele><time>2026-04-27T15:25:03.999Z</time></trkpt><trkpt lat="46.0990331" lon="12.1514486"><ele>317.0</ele><time>2026-04-27T15:25:04.999Z</time></trkpt><trkpt lat="46.0989803" lon="12.1513985"><ele>317.0</ele><time>2026-04-27T15:25:05.999Z</time></trkpt><trkpt lat="46.0989285" lon="12.1513451"><ele>317.0</ele><time>2026-04-27T15:25:06.999Z</time></trkpt><trkpt lat="46.0988316" lon="12.1512362"><ele>316.5</ele><time>2026-04-27T15:25:08.999Z</time></trkpt><trkpt lat="46.0987798" lon="12.1511809"><ele>316.0</ele><time>2026-04-27T15:25:10Z</time></trkpt><trkpt lat="46.0987273" lon="12.1511253"><ele>315.5</ele><time>2026-04-27T15:25:11Z</time></trkpt><trkpt lat="46.0986755" lon="12.1510688"><ele>315.0</ele><time>2026-04-27T15:25:11.999Z</time></trkpt><trkpt lat="46.0985796" lon="12.150963"><ele>314.5</ele><time>2026-04-27T15:25:13.999Z</time></trkpt><trkpt lat="46.0985283" lon="12.1509018"><ele>314.0</ele><time>2026-04-27T15:25:14.999Z</time></trkpt><trkpt lat="46.0984341" lon="12.1507811"><ele>314.0</ele><time>2026-04-27T15:25:16.999Z</time></trkpt><trkpt lat="46.0983814" lon="12.1507228"><ele>314.0</ele><time>2026-04-27T15:25:17.999Z</time></trkpt><trkpt lat="46.0983287" lon="12.1506681"><ele>314.0</ele><time>2026-04-27T15:25:18.999Z</time></trkpt><trkpt lat="46.0982719" lon="12.1506167"><ele>314.0</ele><time>2026-04-27T15:25:20Z</time></trkpt><trkpt lat="46.0982172" lon="12.1505673"><ele>314.0</ele><time>2026-04-27T15:25:21.129Z</time></trkpt><trkpt lat="46.0981075" lon="12.150477"><ele>314.0</ele><time>2026-04-27T15:25:22.999Z</time></trkpt><trkpt lat="46.0980486" lon="12.1504346"><ele>314.2</ele><time>2026-04-27T15:25:23.999Z</time></trkpt><trkpt lat="46.0979388" lon="12.1503546"><ele>314.4</ele><time>2026-04-27T15:25:26Z</time></trkpt><trkpt lat="46.097879" lon="12.1503173"><ele>314.6</ele><time>2026-04-27T15:25:26.999Z</time></trkpt><trkpt lat="46.0977619" lon="12.1502579"><ele>314.8</ele><time>2026-04-27T15:25:29Z</time></trkpt><trkpt lat="46.097702" lon="12.1502281"><ele>315.0</ele><time>2026-04-27T15:25:29.999Z</time></trkpt><trkpt lat="46.0975848" lon="12.1501621"><ele>315.0</ele><time>2026-04-27T15:25:31.999Z</time></trkpt><trkpt lat="46.0974721" lon="12.1500901"><ele>315.0</ele><time>2026-04-27T15:25:33.999Z</time></trkpt><trkpt lat="46.0973556" lon="12.1500235"><ele>315.0</ele><time>2026-04-27T15:25:35.999Z</time></trkpt><trkpt lat="46.0972394" lon="12.1499565"><ele>315.0</ele><time>2026-04-27T15:25:37.999Z</time></trkpt><trkpt lat="46.0971299" lon="12.1498776"><ele>314.8</ele><time>2026-04-27T15:25:40Z</time></trkpt><trkpt lat="46.097016" lon="12.1498089"><ele>314.6</ele><time>2026-04-27T15:25:42Z</time></trkpt><trkpt lat="46.0969051" lon="12.1497301"><ele>314.4</ele><time>2026-04-27T15:25:43.999Z</time></trkpt><trkpt lat="46.0968465" lon="12.1496871"><ele>314.2</ele><time>2026-04-27T15:25:45Z</time></trkpt><trkpt lat="46.0967896" lon="12.1496434"><ele>314.0</ele><time>2026-04-27T15:25:45.999Z</time></trkpt><trkpt lat="46.0966847" lon="12.1495638"><ele>314.1666666666667</ele><time>2026-04-27T15:25:47.999Z</time></trkpt><trkpt lat="46.0965798" lon="12.1494762"><ele>314.33333333333337</ele><time>2026-04-27T15:25:49.999Z</time></trkpt><trkpt lat="46.0965256" lon="12.1494285"><ele>314.5</ele><time>2026-04-27T15:25:50.999Z</time></trkpt><trkpt lat="46.096423" lon="12.1493287"><ele>314.6666666666667</ele><time>2026-04-27T15:25:52.999Z</time></trkpt><trkpt lat="46.0963703" lon="12.1492776"><ele>314.8333333333333</ele><time>2026-04-27T15:25:53.999Z</time></trkpt><trkpt lat="46.0963158" lon="12.1492268"><ele>315.0</ele><time>2026-04-27T15:25:54.999Z</time></trkpt><trkpt lat="46.0962113" lon="12.1491257"><ele>315.2</ele><time>2026-04-27T15:25:56.999Z</time></trkpt><trkpt lat="46.096109" lon="12.1490322"><ele>315.4</ele><time>2026-04-27T15:25:59Z</time></trkpt><trkpt lat="46.0960535" lon="12.1489861"><ele>315.6</ele><time>2026-04-27T15:26:00Z</time></trkpt><trkpt lat="46.095958" lon="12.1488914"><ele>315.8</ele><time>2026-04-27T15:26:02Z</time></trkpt><trkpt lat="46.0958539" lon="12.1488049"><ele>316.0</ele><time>2026-04-27T15:26:03.999Z</time></trkpt><trkpt lat="46.0957401" lon="12.1487296"><ele>315.42857142857144</ele><time>2026-04-27T15:26:06Z</time></trkpt><trkpt lat="46.0956797" lon="12.1486939"><ele>314.8571428571429</ele><time>2026-04-27T15:26:06.999Z</time></trkpt><trkpt lat="46.0956206" lon="12.1486565"><ele>314.28571428571433</ele><time>2026-04-27T15:26:07.999Z</time></trkpt><trkpt lat="46.0955075" lon="12.1485845"><ele>313.7142857142857</ele><time>2026-04-27T15:26:09.999Z</time></trkpt><trkpt lat="46.0954503" lon="12.1485408"><ele>313.1428571428571</ele><time>2026-04-27T15:26:11Z</time></trkpt><trkpt lat="46.0953953" lon="12.1484948"><ele>312.5714285714286</ele><time>2026-04-27T15:26:11.999Z</time></trkpt><trkpt lat="46.0953415" lon="12.1484427"><ele>312.0</ele><time>2026-04-27T15:26:12.999Z</time></trkpt><trkpt lat="46.0952437" lon="12.1483302"><ele>312.0</ele><time>2026-04-27T15:26:14.999Z</time></trkpt><trkpt lat="46.0951477" lon="12.1482135"><ele>312.0</ele><time>2026-04-27T15:26:16.999Z</time></trkpt><trkpt lat="46.0950506" lon="12.1480992"><ele>312.0</ele><time>2026-04-27T15:26:18.999Z</time></trkpt><trkpt lat="46.0950059" lon="12.1480341"><ele>312.0</ele><time>2026-04-27T15:26:20Z</time></trkpt><trkpt lat="46.0949579" lon="12.1479734"><ele>312.0</ele><time>2026-04-27T15:26:20.999Z</time></trkpt><trkpt lat="46.0948663" lon="12.1478644"><ele>311.8</ele><time>2026-04-27T15:26:22.999Z</time></trkpt><trkpt lat="46.0947768" lon="12.1477483"><ele>311.6</ele><time>2026-04-27T15:26:24.999Z</time></trkpt><trkpt lat="46.0946843" lon="12.1476308"><ele>311.40000000000003</ele><time>2026-04-27T15:26:26.999Z</time></trkpt><trkpt lat="46.0945902" lon="12.147517"><ele>311.2</ele><time>2026-04-27T15:26:28.999Z</time></trkpt><trkpt lat="46.0945382" lon="12.1474605"><ele>311.0</ele><time>2026-04-27T15:26:29.999Z</time></trkpt><trkpt lat="46.0944521" lon="12.1473475"><ele>310.83333333333337</ele><time>2026-04-27T15:26:31.999Z</time></trkpt><trkpt lat="46.0943465" lon="12.1472362"><ele>310.6666666666667</ele><time>2026-04-27T15:26:33.999Z</time></trkpt><trkpt lat="46.0942778" lon="12.1471933"><ele>310.5</ele><time>2026-04-27T15:26:35Z</time></trkpt><trkpt lat="46.0942026" lon="12.1471561"><ele>310.3333333333333</ele><time>2026-04-27T15:26:35.999Z</time></trkpt><trkpt lat="46.094125" lon="12.1471161"><ele>310.16666666666663</ele><time>2026-04-27T15:26:36.999Z</time></trkpt><trkpt lat="46.0940586" lon="12.1470514"><ele>310.0</ele><time>2026-04-27T15:26:37.999Z</time></trkpt><trkpt lat="46.0940021" lon="12.1469635"><ele>310.0</ele><time>2026-04-27T15:26:38.999Z</time></trkpt><trkpt lat="46.093954" lon="12.1468618"><ele>310.0</ele><time>2026-04-27T15:26:39.999Z</time></trkpt><trkpt lat="46.0939067" lon="12.1467577"><ele>310.0</ele><time>2026-04-27T15:26:40.999Z</time></trkpt><trkpt lat="46.0938411" lon="12.146667"><ele>310.0</ele><time>2026-04-27T15:26:41.999Z</time></trkpt><trkpt lat="46.0937743" lon="12.1465898"><ele>310.0</ele><time>2026-04-27T15:26:43Z</time></trkpt><trkpt lat="46.0937012" lon="12.1465195"><ele>310.0</ele><time>2026-04-27T15:26:43.999Z</time></trkpt><trkpt lat="46.0936334" lon="12.1464715"><ele>309.5</ele><time>2026-04-27T15:26:44.999Z</time></trkpt><trkpt lat="46.0935659" lon="12.1464178"><ele>309.0</ele><time>2026-04-27T15:26:45.999Z</time></trkpt><trkpt lat="46.0935041" lon="12.1463674"><ele>308.5</ele><time>2026-04-27T15:26:47Z</time></trkpt><trkpt lat="46.0934374" lon="12.146316"><ele>308.0</ele><time>2026-04-27T15:26:47.999Z</time></trkpt><trkpt lat="46.0933717" lon="12.146266"><ele>307.5</ele><time>2026-04-27T15:26:49Z</time></trkpt><trkpt lat="46.0932994" lon="12.1462075"><ele>307.0</ele><time>2026-04-27T15:26:49.999Z</time></trkpt><trkpt lat="46.0932316" lon="12.1461577"><ele>307.0</ele><time>2026-04-27T15:26:50.999Z</time></trkpt><trkpt lat="46.0931654" lon="12.1461115"><ele>307.0</ele><time>2026-04-27T15:26:51.999Z</time></trkpt><trkpt lat="46.0930994" lon="12.1460805"><ele>307.0</ele><time>2026-04-27T15:26:52.999Z</time></trkpt><trkpt lat="46.0930316" lon="12.1460557"><ele>307.0</ele><time>2026-04-27T15:26:53.999Z</time></trkpt><trkpt lat="46.0929718" lon="12.1460108"><ele>307.0</ele><time>2026-04-27T15:26:55.123Z</time></trkpt><trkpt lat="46.092876" lon="12.1459094"><ele>307.0</ele><time>2026-04-27T15:26:56.999Z</time></trkpt><trkpt lat="46.0927853" lon="12.1458025"><ele>306.5</ele><time>2026-04-27T15:26:58.999Z</time></trkpt><trkpt lat="46.0926929" lon="12.1456979"><ele>306.0</ele><time>2026-04-27T15:27:00.999Z</time></trkpt><trkpt lat="46.0925821" lon="12.1456205"><ele>305.5</ele><time>2026-04-27T15:27:02.999Z</time></trkpt><trkpt lat="46.092462" lon="12.1456467"><ele>305.0</ele><time>2026-04-27T15:27:04.999Z</time></trkpt><trkpt lat="46.0923427" lon="12.1456954"><ele>306.1666666666667</ele><time>2026-04-27T15:27:06.999Z</time></trkpt><trkpt lat="46.0922781" lon="12.1456829"><ele>307.33333333333337</ele><time>2026-04-27T15:27:08Z</time></trkpt><trkpt lat="46.092207" lon="12.1455896"><ele>308.5</ele><time>2026-04-27T15:27:09.999Z</time></trkpt><trkpt lat="46.0921796" lon="12.1454741"><ele>309.6666666666667</ele><time>2026-04-27T15:27:11.999Z</time></trkpt><trkpt lat="46.0921286" lon="12.1453956"><ele>310.8333333333333</ele><time>2026-04-27T15:27:13.999Z</time></trkpt><trkpt lat="46.0920714" lon="12.1453087"><ele>312.0</ele><time>2026-04-27T15:27:16.999Z</time></trkpt><trkpt lat="46.0920127" lon="12.1452152"><ele>312.0</ele><time>2026-04-27T15:27:19.999Z</time></trkpt><trkpt lat="46.091963" lon="12.1451428"><ele>312.0</ele><time>2026-04-27T15:27:21.999Z</time></trkpt><trkpt lat="46.0919118" lon="12.1450502"><ele>312.0</ele><time>2026-04-27T15:27:23.999Z</time></trkpt><trkpt lat="46.0918512" lon="12.1449622"><ele>312.0</ele><time>2026-04-27T15:27:26Z</time></trkpt><trkpt lat="46.0917794" lon="12.1448727"><ele>312.0</ele><time>2026-04-27T15:27:27.999Z</time></trkpt><trkpt lat="46.0916981" lon="12.144792"><ele>312.0</ele><time>2026-04-27T15:27:30Z</time></trkpt><trkpt lat="46.0916212" lon="12.1447166"><ele>312.8</ele><time>2026-04-27T15:27:31.999Z</time></trkpt><trkpt lat="46.0915315" lon="12.1446566"><ele>313.6</ele><time>2026-04-27T15:27:33.999Z</time></trkpt><trkpt lat="46.0914444" lon="12.1446082"><ele>314.40000000000003</ele><time>2026-04-27T15:27:35.999Z</time></trkpt><trkpt lat="46.0913521" lon="12.1445651"><ele>315.2</ele><time>2026-04-27T15:27:37.999Z</time></trkpt><trkpt lat="46.0912634" lon="12.1445249"><ele>316.0</ele><time>2026-04-27T15:27:39.999Z</time></trkpt><trkpt lat="46.0911706" lon="12.1444817"><ele>316.0</ele><time>2026-04-27T15:27:42Z</time></trkpt><trkpt lat="46.0910766" lon="12.1444529"><ele>316.0</ele><time>2026-04-27T15:27:44Z</time></trkpt><trkpt lat="46.0909881" lon="12.1444293"><ele>316.0</ele><time>2026-04-27T15:27:45.999Z</time></trkpt><trkpt lat="46.0909027" lon="12.1443634"><ele>316.0</ele><time>2026-04-27T15:27:47.999Z</time></trkpt><trkpt lat="46.0908225" lon="12.1442729"><ele>316.0</ele><time>2026-04-27T15:27:49.999Z</time></trkpt><trkpt lat="46.0907244" lon="12.1442063"><ele>316.8</ele><time>2026-04-27T15:27:51.999Z</time></trkpt><trkpt lat="46.0906202" lon="12.1441857"><ele>317.6</ele><time>2026-04-27T15:27:53.999Z</time></trkpt><trkpt lat="46.0905195" lon="12.1442288"><ele>318.4</ele><time>2026-04-27T15:27:55.999Z</time></trkpt><trkpt lat="46.0904257" lon="12.1443216"><ele>319.2</ele><time>2026-04-27T15:27:58Z</time></trkpt><trkpt lat="46.0903425" lon="12.1444254"><ele>320.0</ele><time>2026-04-27T15:28:00Z</time></trkpt><trkpt lat="46.0902622" lon="12.1445131"><ele>320.0</ele><time>2026-04-27T15:28:01.999Z</time></trkpt><trkpt lat="46.090164" lon="12.1444637"><ele>320.0</ele><time>2026-04-27T15:28:03.999Z</time></trkpt><trkpt lat="46.0900886" lon="12.1443577"><ele>320.0</ele><time>2026-04-27T15:28:06Z</time></trkpt><trkpt lat="46.0900374" lon="12.1442167"><ele>320.0</ele><time>2026-04-27T15:28:07.999Z</time></trkpt><trkpt lat="46.0900154" lon="12.1440665"><ele>320.0</ele><time>2026-04-27T15:28:09.999Z</time></trkpt><trkpt lat="46.0900365" lon="12.1439012"><ele>320.0</ele><time>2026-04-27T15:28:11.999Z</time></trkpt><trkpt lat="46.0900581" lon="12.1437334"><ele>320.0</ele><time>2026-04-27T15:28:13.999Z</time></trkpt><trkpt lat="46.0900566" lon="12.1435666"><ele>320.0</ele><time>2026-04-27T15:28:15.999Z</time></trkpt><trkpt lat="46.0900509" lon="12.1434007"><ele>320.0</ele><time>2026-04-27T15:28:18Z</time></trkpt><trkpt lat="46.090048" lon="12.1432236"><ele>319.6</ele><time>2026-04-27T15:28:19.999Z</time></trkpt><trkpt lat="46.090037" lon="12.1430376"><ele>319.2</ele><time>2026-04-27T15:28:22Z</time></trkpt><trkpt lat="46.0900337" lon="12.1429448"><ele>318.8</ele><time>2026-04-27T15:28:22.999Z</time></trkpt><trkpt lat="46.090032" lon="12.1427768"><ele>318.4</ele><time>2026-04-27T15:28:25Z</time></trkpt><trkpt lat="46.090022" lon="12.1426032"><ele>318.0</ele><time>2026-04-27T15:28:26.999Z</time></trkpt><trkpt lat="46.090008" lon="12.1424282"><ele>318.0</ele><time>2026-04-27T15:28:28.999Z</time></trkpt><trkpt lat="46.0899854" lon="12.1422608"><ele>318.0</ele><time>2026-04-27T15:28:30.999Z</time></trkpt><trkpt lat="46.0899632" lon="12.1421021"><ele>318.0</ele><time>2026-04-27T15:28:32.999Z</time></trkpt><trkpt lat="46.0899366" lon="12.1419528"><ele>318.0</ele><time>2026-04-27T15:28:34.999Z</time></trkpt><trkpt lat="46.0899107" lon="12.1418131"><ele>318.0</ele><time>2026-04-27T15:28:37Z</time></trkpt><trkpt lat="46.0899025" lon="12.141652"><ele>317.8</ele><time>2026-04-27T15:28:38.999Z</time></trkpt><trkpt lat="46.0898774" lon="12.141559"><ele>317.6</ele><time>2026-04-27T15:28:39.999Z</time></trkpt><trkpt lat="46.0898495" lon="12.1413893"><ele>317.4</ele><time>2026-04-27T15:28:41.999Z</time></trkpt><trkpt lat="46.0898274" lon="12.141212"><ele>317.2</ele><time>2026-04-27T15:28:44Z</time></trkpt><trkpt lat="46.0898137" lon="12.1411225"><ele>317.0</ele><time>2026-04-27T15:28:44.999Z</time></trkpt><trkpt lat="46.0897866" lon="12.1409552"><ele>316.8</ele><time>2026-04-27T15:28:46.999Z</time></trkpt><trkpt lat="46.0897567" lon="12.1407894"><ele>316.6</ele><time>2026-04-27T15:28:48.999Z</time></trkpt><trkpt lat="46.0897415" lon="12.1407007"><ele>316.40000000000003</ele><time>2026-04-27T15:28:50Z</time></trkpt><trkpt lat="46.0897165" lon="12.1405357"><ele>316.2</ele><time>2026-04-27T15:28:51.999Z</time></trkpt><trkpt lat="46.0896902" lon="12.1403737"><ele>316.0</ele><time>2026-04-27T15:28:54Z</time></trkpt><trkpt lat="46.0896402" lon="12.1401944"><ele>315.3333333333333</ele><time>2026-04-27T15:28:56Z</time></trkpt><trkpt lat="46.0896076" lon="12.1400958"><ele>314.66666666666663</ele><time>2026-04-27T15:28:56.999Z</time></trkpt><trkpt lat="46.0895719" lon="12.1399962"><ele>314.0</ele><time>2026-04-27T15:28:57.999Z</time></trkpt><trkpt lat="46.0895294" lon="12.1398995"><ele>313.3333333333333</ele><time>2026-04-27T15:28:58.999Z</time></trkpt><trkpt lat="46.0894845" lon="12.1397918"><ele>312.6666666666667</ele><time>2026-04-27T15:29:00Z</time></trkpt><trkpt lat="46.0894413" lon="12.1396838"><ele>312.0</ele><time>2026-04-27T15:29:00.999Z</time></trkpt><trkpt lat="46.0894152" lon="12.1395917"><ele>311.5</ele><time>2026-04-27T15:29:02Z</time></trkpt><trkpt lat="46.0894346" lon="12.1394321"><ele>311.0</ele><time>2026-04-27T15:29:03.999Z</time></trkpt><trkpt lat="46.0895318" lon="12.1393359"><ele>310.5</ele><time>2026-04-27T15:29:05.999Z</time></trkpt><trkpt lat="46.0895868" lon="12.1392881"><ele>310.0</ele><time>2026-04-27T15:29:06.999Z</time></trkpt><trkpt lat="46.0896444" lon="12.1392364"><ele>309.5</ele><time>2026-04-27T15:29:07.999Z</time></trkpt><trkpt lat="46.0896921" lon="12.1391668"><ele>309.0</ele><time>2026-04-27T15:29:08.999Z</time></trkpt><trkpt lat="46.0897407" lon="12.1390988"><ele>308.5714285714286</ele><time>2026-04-27T15:29:09.999Z</time></trkpt><trkpt lat="46.0897926" lon="12.1390308"><ele>308.14285714285717</ele><time>2026-04-27T15:29:10.999Z</time></trkpt><trkpt lat="46.0898478" lon="12.1389725"><ele>307.7142857142857</ele><time>2026-04-27T15:29:12Z</time></trkpt><trkpt lat="46.0899063" lon="12.1389235"><ele>307.28571428571433</ele><time>2026-04-27T15:29:12.999Z</time></trkpt><trkpt lat="46.0899658" lon="12.1388735"><ele>306.8571428571429</ele><time>2026-04-27T15:29:13.999Z</time></trkpt><trkpt lat="46.0900244" lon="12.1388258"><ele>306.42857142857144</ele><time>2026-04-27T15:29:14.999Z</time></trkpt><trkpt lat="46.0900798" lon="12.1387746"><ele>306.0</ele><time>2026-04-27T15:29:16Z</time></trkpt><trkpt lat="46.0901746" lon="12.1386535"><ele>305.8333333333333</ele><time>2026-04-27T15:29:18Z</time></trkpt><trkpt lat="46.0902728" lon="12.13854"><ele>305.6666666666667</ele><time>2026-04-27T15:29:19.999Z</time></trkpt><trkpt lat="46.0903294" lon="12.1384912"><ele>305.5</ele><time>2026-04-27T15:29:21Z</time></trkpt><trkpt lat="46.0903868" lon="12.1384436"><ele>305.33333333333337</ele><time>2026-04-27T15:29:22Z</time></trkpt><trkpt lat="46.090445" lon="12.1383981"><ele>305.1666666666667</ele><time>2026-04-27T15:29:23Z</time></trkpt><trkpt lat="46.0905054" lon="12.1383601"><ele>305.0</ele><time>2026-04-27T15:29:24Z</time></trkpt><trkpt lat="46.0905679" lon="12.1383231"><ele>305.0</ele><time>2026-04-27T15:29:24.999Z</time></trkpt><trkpt lat="46.0906366" lon="12.1382986"><ele>305.0</ele><time>2026-04-27T15:29:25.999Z</time></trkpt><trkpt lat="46.0907057" lon="12.1382779"><ele>305.0</ele><time>2026-04-27T15:29:26.999Z</time></trkpt><trkpt lat="46.0907737" lon="12.1382649"><ele>305.0</ele><time>2026-04-27T15:29:27.999Z</time></trkpt><trkpt lat="46.090844" lon="12.1382615"><ele>305.0</ele><time>2026-04-27T15:29:28.999Z</time></trkpt><trkpt lat="46.0909163" lon="12.1382746"><ele>305.0</ele><time>2026-04-27T15:29:30Z</time></trkpt><trkpt lat="46.0909845" lon="12.1383021"><ele>305.0</ele><time>2026-04-27T15:29:30.999Z</time></trkpt><trkpt lat="46.091057" lon="12.1383203"><ele>305.0</ele><time>2026-04-27T15:29:31.999Z</time></trkpt><trkpt lat="46.0911265" lon="12.1383062"><ele>305.0</ele><time>2026-04-27T15:29:32.999Z</time></trkpt><trkpt lat="46.0911974" lon="12.1382933"><ele>305.0</ele><time>2026-04-27T15:29:33.999Z</time></trkpt><trkpt lat="46.0912658" lon="12.1382736"><ele>305.0</ele><time>2026-04-27T15:29:34.999Z</time></trkpt><trkpt lat="46.0913318" lon="12.1382428"><ele>305.0</ele><time>2026-04-27T15:29:35.999Z</time></trkpt><trkpt lat="46.0913895" lon="12.1381981"><ele>305.0</ele><time>2026-04-27T15:29:36.999Z</time></trkpt><trkpt lat="46.0914492" lon="12.138151"><ele>305.0</ele><time>2026-04-27T15:29:37.999Z</time></trkpt><trkpt lat="46.091507" lon="12.1380969"><ele>305.0</ele><time>2026-04-27T15:29:38.999Z</time></trkpt><trkpt lat="46.091565" lon="12.138043"><ele>305.0</ele><time>2026-04-27T15:29:39.999Z</time></trkpt><trkpt lat="46.0916219" lon="12.1379981"><ele>305.0</ele><time>2026-04-27T15:29:40.999Z</time></trkpt><trkpt lat="46.0917305" lon="12.1379061"><ele>305.0</ele><time>2026-04-27T15:29:42.999Z</time></trkpt><trkpt lat="46.0917847" lon="12.1378587"><ele>305.0</ele><time>2026-04-27T15:29:43.999Z</time></trkpt><trkpt lat="46.0918439" lon="12.1378117"><ele>305.0</ele><time>2026-04-27T15:29:44.999Z</time></trkpt><trkpt lat="46.0919006" lon="12.1377604"><ele>304.0</ele><time>2026-04-27T15:29:45.999Z</time></trkpt><trkpt lat="46.0919541" lon="12.1377039"><ele>303.0</ele><time>2026-04-27T15:29:46.999Z</time></trkpt><trkpt lat="46.0920094" lon="12.137657"><ele>302.0</ele><time>2026-04-27T15:29:47.999Z</time></trkpt><trkpt lat="46.0920717" lon="12.1376128"><ele>301.0</ele><time>2026-04-27T15:29:48.999Z</time></trkpt><trkpt lat="46.0921352" lon="12.1375737"><ele>300.0</ele><time>2026-04-27T15:29:49.999Z</time></trkpt><trkpt lat="46.0921981" lon="12.1375387"><ele>299.0</ele><time>2026-04-27T15:29:50.999Z</time></trkpt><trkpt lat="46.092261" lon="12.137506"><ele>298.0</ele><time>2026-04-27T15:29:51.999Z</time></trkpt><trkpt lat="46.0923221" lon="12.1374646"><ele>298.0</ele><time>2026-04-27T15:29:52.999Z</time></trkpt><trkpt lat="46.0923828" lon="12.1374247"><ele>298.0</ele><time>2026-04-27T15:29:53.999Z</time></trkpt><trkpt lat="46.0924944" lon="12.1373381"><ele>298.0</ele><time>2026-04-27T15:29:55.999Z</time></trkpt><trkpt lat="46.0925434" lon="12.1372799"><ele>298.0</ele><time>2026-04-27T15:29:56.999Z</time></trkpt><trkpt lat="46.0925817" lon="12.1372046"><ele>298.0</ele><time>2026-04-27T15:29:57.999Z</time></trkpt><trkpt lat="46.0926128" lon="12.1370366"><ele>298.0</ele><time>2026-04-27T15:30:00Z</time></trkpt><trkpt lat="46.092643" lon="12.1368761"><ele>297.6</ele><time>2026-04-27T15:30:02Z</time></trkpt><trkpt lat="46.0927139" lon="12.1367326"><ele>297.20000000000005</ele><time>2026-04-27T15:30:03.999Z</time></trkpt><trkpt lat="46.0928222" lon="12.1366399"><ele>296.8</ele><time>2026-04-27T15:30:05.999Z</time></trkpt><trkpt lat="46.0929462" lon="12.1366152"><ele>296.40000000000003</ele><time>2026-04-27T15:30:07.999Z</time></trkpt><trkpt lat="46.0930102" lon="12.1366018"><ele>296.0</ele><time>2026-04-27T15:30:09Z</time></trkpt><trkpt lat="46.0931265" lon="12.1365592"><ele>296.0</ele><time>2026-04-27T15:30:10.999Z</time></trkpt><trkpt lat="46.0932113" lon="12.1364363"><ele>296.0</ele><time>2026-04-27T15:30:12.999Z</time></trkpt><trkpt lat="46.093233" lon="12.1362764"><ele>296.0</ele><time>2026-04-27T15:30:14.999Z</time></trkpt><trkpt lat="46.0932384" lon="12.136107"><ele>296.0</ele><time>2026-04-27T15:30:17Z</time></trkpt><trkpt lat="46.0932571" lon="12.135932"><ele>296.0</ele><time>2026-04-27T15:30:18.999Z</time></trkpt><trkpt lat="46.0932651" lon="12.1358415"><ele>296.0</ele><time>2026-04-27T15:30:19.999Z</time></trkpt><trkpt lat="46.0932634" lon="12.135666"><ele>296.0</ele><time>2026-04-27T15:30:22Z</time></trkpt><trkpt lat="46.0932522" lon="12.1354871"><ele>296.0</ele><time>2026-04-27T15:30:23.999Z</time></trkpt><trkpt lat="46.0932395" lon="12.1353969"><ele>296.0</ele><time>2026-04-27T15:30:25.151Z</time></trkpt><trkpt lat="46.0932051" lon="12.1352252"><ele>296.25</ele><time>2026-04-27T15:30:27Z</time></trkpt><trkpt lat="46.0931374" lon="12.135088"><ele>296.5</ele><time>2026-04-27T15:30:28.999Z</time></trkpt><trkpt lat="46.0930328" lon="12.1350619"><ele>296.75</ele><time>2026-04-27T15:30:30.999Z</time></trkpt><trkpt lat="46.0929169" lon="12.1351149"><ele>297.0</ele><time>2026-04-27T15:30:32.999Z</time></trkpt><trkpt lat="46.0928018" lon="12.1351479"><ele>297.0</ele><time>2026-04-27T15:30:34.999Z</time></trkpt><trkpt lat="46.0927396" lon="12.1351635"><ele>297.0</ele><time>2026-04-27T15:30:35.999Z</time></trkpt><trkpt lat="46.0926244" lon="12.1351864"><ele>297.0</ele><time>2026-04-27T15:30:37.999Z</time></trkpt><trkpt lat="46.0925089" lon="12.1351837"><ele>297.0</ele><time>2026-04-27T15:30:39.999Z</time></trkpt><trkpt lat="46.0923941" lon="12.135147"><ele>297.0</ele><time>2026-04-27T15:30:41.999Z</time></trkpt><trkpt lat="46.0922934" lon="12.135061"><ele>297.5</ele><time>2026-04-27T15:30:43.999Z</time></trkpt><trkpt lat="46.0922096" lon="12.1349454"><ele>298.0</ele><time>2026-04-27T15:30:45.999Z</time></trkpt><trkpt lat="46.0921337" lon="12.1348089"><ele>298.5</ele><time>2026-04-27T15:30:48Z</time></trkpt><trkpt lat="46.0920645" lon="12.1346596"><ele>299.0</ele><time>2026-04-27T15:30:49.999Z</time></trkpt><trkpt lat="46.0919961" lon="12.1345074"><ele>299.0</ele><time>2026-04-27T15:30:51.999Z</time></trkpt><trkpt lat="46.0919296" lon="12.1343619"><ele>299.0</ele><time>2026-04-27T15:30:53.999Z</time></trkpt><trkpt lat="46.0918471" lon="12.1342316"><ele>299.0</ele><time>2026-04-27T15:30:55.999Z</time></trkpt><trkpt lat="46.0917411" lon="12.1341583"><ele>299.0</ele><time>2026-04-27T15:30:57.999Z</time></trkpt><trkpt lat="46.0916319" lon="12.1341364"><ele>299.0</ele><time>2026-04-27T15:30:59.999Z</time></trkpt><trkpt lat="46.0915173" lon="12.1341302"><ele>299.0</ele><time>2026-04-27T15:31:01.999Z</time></trkpt><trkpt lat="46.0914173" lon="12.1341012"><ele>299.0</ele><time>2026-04-27T15:31:04Z</time></trkpt><trkpt lat="46.0913302" lon="12.1340463"><ele>299.0</ele><time>2026-04-27T15:31:05.999Z</time></trkpt><trkpt lat="46.0912568" lon="12.1339504"><ele>299.0</ele><time>2026-04-27T15:31:07.999Z</time></trkpt><trkpt lat="46.091192" lon="12.1338292"><ele>298.6666666666667</ele><time>2026-04-27T15:31:09.999Z</time></trkpt><trkpt lat="46.0911305" lon="12.133727"><ele>298.33333333333337</ele><time>2026-04-27T15:31:12Z</time></trkpt><trkpt lat="46.091077" lon="12.1336448"><ele>298.0</ele><time>2026-04-27T15:31:13.999Z</time></trkpt><trkpt lat="46.091008" lon="12.1335711"><ele>297.6666666666667</ele><time>2026-04-27T15:31:16Z</time></trkpt><trkpt lat="46.0909308" lon="12.1335412"><ele>297.3333333333333</ele><time>2026-04-27T15:31:17.999Z</time></trkpt><trkpt lat="46.0908438" lon="12.1334885"><ele>297.0</ele><time>2026-04-27T15:31:20Z</time></trkpt><trkpt lat="46.0907469" lon="12.1334334"><ele>297.6666666666667</ele><time>2026-04-27T15:31:21.999Z</time></trkpt><trkpt lat="46.0906551" lon="12.1333698"><ele>298.3333333333333</ele><time>2026-04-27T15:31:23.999Z</time></trkpt><trkpt lat="46.0905644" lon="12.1333122"><ele>299.0</ele><time>2026-04-27T15:31:25.999Z</time></trkpt><trkpt lat="46.0904936" lon="12.1332832"><ele>299.66666666666663</ele><time>2026-04-27T15:31:27.999Z</time></trkpt><trkpt lat="46.0904278" lon="12.1332484"><ele>300.3333333333333</ele><time>2026-04-27T15:31:31Z</time></trkpt><trkpt lat="46.0903511" lon="12.1332158"><ele>301.0</ele><time>2026-04-27T15:31:33.999Z</time></trkpt><trkpt lat="46.0902795" lon="12.1331919"><ele>301.0</ele><time>2026-04-27T15:31:37.999Z</time></trkpt><trkpt lat="46.0901931" lon="12.1331657"><ele>301.0</ele><time>2026-04-27T15:31:41Z</time></trkpt><trkpt lat="46.0901195" lon="12.1331548"><ele>301.0</ele><time>2026-04-27T15:31:43Z</time></trkpt><trkpt lat="46.0900437" lon="12.1331354"><ele>301.0</ele><time>2026-04-27T15:31:44.999Z</time></trkpt><trkpt lat="46.0899743" lon="12.1331017"><ele>301.0</ele><time>2026-04-27T15:31:46.999Z</time></trkpt><trkpt lat="46.0899095" lon="12.133066"><ele>301.0</ele><time>2026-04-27T15:31:48.999Z</time></trkpt><trkpt lat="46.0898276" lon="12.1330097"><ele>301.0</ele><time>2026-04-27T15:31:51.999Z</time></trkpt><trkpt lat="46.0897628" lon="12.132966"><ele>301.0</ele><time>2026-04-27T15:31:53.999Z</time></trkpt><trkpt lat="46.0896911" lon="12.1329146"><ele>301.0</ele><time>2026-04-27T15:31:56Z</time></trkpt><trkpt lat="46.0896203" lon="12.1328337"><ele>301.0</ele><time>2026-04-27T15:31:58Z</time></trkpt><trkpt lat="46.0895528" lon="12.1327342"><ele>301.0</ele><time>2026-04-27T15:31:59.999Z</time></trkpt><trkpt lat="46.0894947" lon="12.1326167"><ele>301.0</ele><time>2026-04-27T15:32:01.999Z</time></trkpt><trkpt lat="46.0894142" lon="12.1325803"><ele>301.0</ele><time>2026-04-27T15:32:03.999Z</time></trkpt><trkpt lat="46.089342" lon="12.1326458"><ele>301.0</ele><time>2026-04-27T15:32:05.999Z</time></trkpt><trkpt lat="46.0892733" lon="12.1327376"><ele>301.0</ele><time>2026-04-27T15:32:07.999Z</time></trkpt><trkpt lat="46.0892074" lon="12.1328311"><ele>301.0</ele><time>2026-04-27T15:32:09.999Z</time></trkpt><trkpt lat="46.0891395" lon="12.1329218"><ele>301.0</ele><time>2026-04-27T15:32:11.999Z</time></trkpt><trkpt lat="46.0890599" lon="12.1330091"><ele>301.8</ele><time>2026-04-27T15:32:13.999Z</time></trkpt><trkpt lat="46.0889817" lon="12.1330857"><ele>302.6</ele><time>2026-04-27T15:32:15.999Z</time></trkpt><trkpt lat="46.0889088" lon="12.1331732"><ele>303.4</ele><time>2026-04-27T15:32:17.999Z</time></trkpt><trkpt lat="46.0888253" lon="12.1332661"><ele>304.2</ele><time>2026-04-27T15:32:20Z</time></trkpt><trkpt lat="46.0887483" lon="12.1333557"><ele>305.0</ele><time>2026-04-27T15:32:22Z</time></trkpt><trkpt lat="46.0886596" lon="12.1333745"><ele>305.0</ele><time>2026-04-27T15:32:23.999Z</time></trkpt><trkpt lat="46.0885834" lon="12.1332997"><ele>305.0</ele><time>2026-04-27T15:32:25.999Z</time></trkpt><trkpt lat="46.0885211" lon="12.1331823"><ele>305.0</ele><time>2026-04-27T15:32:28Z</time></trkpt><trkpt lat="46.0884586" lon="12.1330507"><ele>305.0</ele><time>2026-04-27T15:32:29.999Z</time></trkpt><trkpt lat="46.0883616" lon="12.1328515"><ele>305.0</ele><time>2026-04-27T15:32:32.999Z</time></trkpt><trkpt lat="46.0882974" lon="12.132712"><ele>305.0</ele><time>2026-04-27T15:32:35Z</time></trkpt><trkpt lat="46.088233" lon="12.132573"><ele>305.0</ele><time>2026-04-27T15:32:36.999Z</time></trkpt><trkpt lat="46.0881643" lon="12.1324429"><ele>305.0</ele><time>2026-04-27T15:32:39Z</time></trkpt><trkpt lat="46.0880955" lon="12.1323291"><ele>305.2</ele><time>2026-04-27T15:32:40.999Z</time></trkpt><trkpt lat="46.0880163" lon="12.1322333"><ele>305.4</ele><time>2026-04-27T15:32:42.999Z</time></trkpt><trkpt lat="46.0879362" lon="12.1321512"><ele>305.6</ele><time>2026-04-27T15:32:44.999Z</time></trkpt><trkpt lat="46.0878535" lon="12.1320661"><ele>305.8</ele><time>2026-04-27T15:32:46.999Z</time></trkpt><trkpt lat="46.0877701" lon="12.1319738"><ele>306.0</ele><time>2026-04-27T15:32:49Z</time></trkpt><trkpt lat="46.0876872" lon="12.1318692"><ele>306.0</ele><time>2026-04-27T15:32:51Z</time></trkpt><trkpt lat="46.0876146" lon="12.1317591"><ele>306.0</ele><time>2026-04-27T15:32:52.999Z</time></trkpt><trkpt lat="46.0875375" lon="12.1316518"><ele>306.0</ele><time>2026-04-27T15:32:54.999Z</time></trkpt><trkpt lat="46.0874592" lon="12.1315468"><ele>306.0</ele><time>2026-04-27T15:32:56.999Z</time></trkpt><trkpt lat="46.0873834" lon="12.1314366"><ele>306.0</ele><time>2026-04-27T15:32:58.999Z</time></trkpt><trkpt lat="46.087306" lon="12.1313358"><ele>306.8</ele><time>2026-04-27T15:33:00.999Z</time></trkpt><trkpt lat="46.0872279" lon="12.1312376"><ele>307.6</ele><time>2026-04-27T15:33:02.999Z</time></trkpt><trkpt lat="46.0871581" lon="12.1311592"><ele>308.4</ele><time>2026-04-27T15:33:04.999Z</time></trkpt><trkpt lat="46.087176" lon="12.1310586"><ele>309.2</ele><time>2026-04-27T15:33:07.999Z</time></trkpt><trkpt lat="46.0872519" lon="12.1309957"><ele>310.0</ele><time>2026-04-27T15:33:09.999Z</time></trkpt><trkpt lat="46.0873457" lon="12.1309217"><ele>309.0</ele><time>2026-04-27T15:33:11.999Z</time></trkpt><trkpt lat="46.0874488" lon="12.1308337"><ele>308.0</ele><time>2026-04-27T15:33:13.999Z</time></trkpt><trkpt lat="46.0875579" lon="12.1307488"><ele>307.0</ele><time>2026-04-27T15:33:16Z</time></trkpt><trkpt lat="46.0876679" lon="12.1306567"><ele>306.0</ele><time>2026-04-27T15:33:17.999Z</time></trkpt><trkpt lat="46.0877227" lon="12.1306098"><ele>305.0</ele><time>2026-04-27T15:33:19Z</time></trkpt><trkpt lat="46.087779" lon="12.130567"><ele>305.0</ele><time>2026-04-27T15:33:20Z</time></trkpt><trkpt lat="46.0878359" lon="12.1305202"><ele>305.0</ele><time>2026-04-27T15:33:20.999Z</time></trkpt><trkpt lat="46.0879444" lon="12.1304278"><ele>305.0</ele><time>2026-04-27T15:33:22.999Z</time></trkpt><trkpt lat="46.0880048" lon="12.1303805"><ele>305.0</ele><time>2026-04-27T15:33:23.999Z</time></trkpt><trkpt lat="46.0880629" lon="12.1303339"><ele>305.0</ele><time>2026-04-27T15:33:24.999Z</time></trkpt><trkpt lat="46.08812" lon="12.1302911"><ele>305.0</ele><time>2026-04-27T15:33:26Z</time></trkpt><trkpt lat="46.0881769" lon="12.1302472"><ele>305.0</ele><time>2026-04-27T15:33:27Z</time></trkpt><trkpt lat="46.088232" lon="12.1301971"><ele>305.0</ele><time>2026-04-27T15:33:28Z</time></trkpt><trkpt lat="46.0882876" lon="12.1301513"><ele>305.0</ele><time>2026-04-27T15:33:29Z</time></trkpt><trkpt lat="46.0883993" lon="12.130064"><ele>305.0</ele><time>2026-04-27T15:33:30.999Z</time></trkpt><trkpt lat="46.0884504" lon="12.1300087"><ele>305.0</ele><time>2026-04-27T15:33:31.999Z</time></trkpt><trkpt lat="46.0885017" lon="12.1299487"><ele>305.0</ele><time>2026-04-27T15:33:32.999Z</time></trkpt><trkpt lat="46.0885494" lon="12.1298821"><ele>304.5714285714286</ele><time>2026-04-27T15:33:33.999Z</time></trkpt><trkpt lat="46.0885989" lon="12.1298171"><ele>304.1428571428571</ele><time>2026-04-27T15:33:34.999Z</time></trkpt><trkpt lat="46.0886404" lon="12.1297427"><ele>303.7142857142857</ele><time>2026-04-27T15:33:35.999Z</time></trkpt><trkpt lat="46.0886686" lon="12.12966"><ele>303.28571428571433</ele><time>2026-04-27T15:33:36.999Z</time></trkpt><trkpt lat="46.0886949" lon="12.1295384"><ele>302.8571428571429</ele><time>2026-04-27T15:33:38.999Z</time></trkpt><trkpt lat="46.0887712" lon="12.1295389"><ele>302.42857142857144</ele><time>2026-04-27T15:33:41.999Z</time></trkpt><trkpt lat="46.0888505" lon="12.1294932"><ele>302.0</ele><time>2026-04-27T15:33:43.999Z</time></trkpt><trkpt lat="46.0889454" lon="12.12942"><ele>302.0</ele><time>2026-04-27T15:33:45.999Z</time></trkpt><trkpt lat="46.089047" lon="12.1293394"><ele>302.0</ele><time>2026-04-27T15:33:47.999Z</time></trkpt><trkpt lat="46.0891528" lon="12.1292502"><ele>302.0</ele><time>2026-04-27T15:33:50Z</time></trkpt><trkpt lat="46.0892091" lon="12.1292037"><ele>302.0</ele><time>2026-04-27T15:33:50.999Z</time></trkpt><trkpt lat="46.0893052" lon="12.1290882"><ele>302.0</ele><time>2026-04-27T15:33:52.999Z</time></trkpt><trkpt lat="46.0894018" lon="12.1289765"><ele>302.2</ele><time>2026-04-27T15:33:54.999Z</time></trkpt><trkpt lat="46.0894937" lon="12.1288577"><ele>302.4</ele><time>2026-04-27T15:33:56.999Z</time></trkpt><trkpt lat="46.0895847" lon="12.1287323"><ele>302.6</ele><time>2026-04-27T15:33:58.999Z</time></trkpt><trkpt lat="46.0896297" lon="12.1286687"><ele>302.8</ele><time>2026-04-27T15:34:00Z</time></trkpt><trkpt lat="46.0897141" lon="12.128541"><ele>303.0</ele><time>2026-04-27T15:34:01.999Z</time></trkpt><trkpt lat="46.0897583" lon="12.1284762"><ele>303.0</ele><time>2026-04-27T15:34:03Z</time></trkpt><trkpt lat="46.0898016" lon="12.1284077"><ele>303.0</ele><time>2026-04-27T15:34:03.999Z</time></trkpt><trkpt lat="46.0898437" lon="12.1283393"><ele>303.0</ele><time>2026-04-27T15:34:04.999Z</time></trkpt><trkpt lat="46.0899235" lon="12.1282025"><ele>303.0</ele><time>2026-04-27T15:34:06.999Z</time></trkpt><trkpt lat="46.0900016" lon="12.1280658"><ele>303.0</ele><time>2026-04-27T15:34:08.999Z</time></trkpt><trkpt lat="46.0900751" lon="12.12792"><ele>302.0</ele><time>2026-04-27T15:34:10.999Z</time></trkpt><trkpt lat="46.0901436" lon="12.127776"><ele>301.0</ele><time>2026-04-27T15:34:13Z</time></trkpt><trkpt lat="46.0902187" lon="12.1276382"><ele>300.0</ele><time>2026-04-27T15:34:14.999Z</time></trkpt><trkpt lat="46.0902558" lon="12.1275581"><ele>299.0</ele><time>2026-04-27T15:34:15.999Z</time></trkpt><trkpt lat="46.0902883" lon="12.127477"><ele>298.0</ele><time>2026-04-27T15:34:17Z</time></trkpt><trkpt lat="46.0903565" lon="12.1273272"><ele>297.2</ele><time>2026-04-27T15:34:18.999Z</time></trkpt><trkpt lat="46.0904283" lon="12.1271825"><ele>296.4</ele><time>2026-04-27T15:34:20.999Z</time></trkpt><trkpt lat="46.0904915" lon="12.1270238"><ele>295.59999999999997</ele><time>2026-04-27T15:34:23Z</time></trkpt><trkpt lat="46.0905282" lon="12.1269448"><ele>294.8</ele><time>2026-04-27T15:34:24Z</time></trkpt><trkpt lat="46.0905662" lon="12.1268707"><ele>294.0</ele><time>2026-04-27T15:34:24.999Z</time></trkpt><trkpt lat="46.0906059" lon="12.1267886"><ele>294.0</ele><time>2026-04-27T15:34:25.999Z</time></trkpt><trkpt lat="46.0906421" lon="12.126713"><ele>294.0</ele><time>2026-04-27T15:34:26.999Z</time></trkpt><trkpt lat="46.0907126" lon="12.1265627"><ele>294.0</ele><time>2026-04-27T15:34:28.999Z</time></trkpt><trkpt lat="46.0907454" lon="12.1264848"><ele>294.0</ele><time>2026-04-27T15:34:29.999Z</time></trkpt><trkpt lat="46.0908126" lon="12.1263321"><ele>294.0</ele><time>2026-04-27T15:34:31.999Z</time></trkpt><trkpt lat="46.0908464" lon="12.1262542"><ele>294.0</ele><time>2026-04-27T15:34:32.999Z</time></trkpt><trkpt lat="46.0909159" lon="12.1261029"><ele>293.5</ele><time>2026-04-27T15:34:34.999Z</time></trkpt><trkpt lat="46.0909504" lon="12.1260255"><ele>293.0</ele><time>2026-04-27T15:34:36Z</time></trkpt><trkpt lat="46.0909866" lon="12.1259507"><ele>292.5</ele><time>2026-04-27T15:34:37Z</time></trkpt><trkpt lat="46.0910207" lon="12.1258735"><ele>292.0</ele><time>2026-04-27T15:34:37.999Z</time></trkpt><trkpt lat="46.0910555" lon="12.1257978"><ele>291.5</ele><time>2026-04-27T15:34:38.999Z</time></trkpt><trkpt lat="46.091123" lon="12.1256485"><ele>291.0</ele><time>2026-04-27T15:34:40.999Z</time></trkpt><trkpt lat="46.0911931" lon="12.1255006"><ele>290.8333333333333</ele><time>2026-04-27T15:34:42.999Z</time></trkpt><trkpt lat="46.0912299" lon="12.1254207"><ele>290.6666666666667</ele><time>2026-04-27T15:34:44Z</time></trkpt><trkpt lat="46.0912634" lon="12.1253435"><ele>290.5</ele><time>2026-04-27T15:34:44.999Z</time></trkpt><trkpt lat="46.0913255" lon="12.1251944"><ele>290.33333333333337</ele><time>2026-04-27T15:34:46.999Z</time></trkpt><trkpt lat="46.0913951" lon="12.1250439"><ele>290.1666666666667</ele><time>2026-04-27T15:34:49Z</time></trkpt><trkpt lat="46.091432" lon="12.1249687"><ele>290.0</ele><time>2026-04-27T15:34:49.999Z</time></trkpt><trkpt lat="46.0914983" lon="12.1248169"><ele>290.4</ele><time>2026-04-27T15:34:51.999Z</time></trkpt><trkpt lat="46.0915356" lon="12.1247397"><ele>290.8</ele><time>2026-04-27T15:34:53Z</time></trkpt><trkpt lat="46.0916035" lon="12.124589"><ele>291.2</ele><time>2026-04-27T15:34:54.999Z</time></trkpt><trkpt lat="46.0916718" lon="12.1244391"><ele>291.6</ele><time>2026-04-27T15:34:56.999Z</time></trkpt><trkpt lat="46.0917435" lon="12.1242931"><ele>292.0</ele><time>2026-04-27T15:34:58.999Z</time></trkpt><trkpt lat="46.0918114" lon="12.1241414"><ele>292.5</ele><time>2026-04-27T15:35:00.999Z</time></trkpt><trkpt lat="46.0918443" lon="12.1240586"><ele>293.0</ele><time>2026-04-27T15:35:02Z</time></trkpt><trkpt lat="46.091879" lon="12.1239822"><ele>293.5</ele><time>2026-04-27T15:35:02.999Z</time></trkpt><trkpt lat="46.0919121" lon="12.1239023"><ele>294.0</ele><time>2026-04-27T15:35:03.999Z</time></trkpt><trkpt lat="46.0919597" lon="12.1237488"><ele>294.5</ele><time>2026-04-27T15:35:06Z</time></trkpt><trkpt lat="46.0920245" lon="12.1236003"><ele>295.0</ele><time>2026-04-27T15:35:08Z</time></trkpt><trkpt lat="46.092096" lon="12.1234648"><ele>295.0</ele><time>2026-04-27T15:35:09.999Z</time></trkpt><trkpt lat="46.0921692" lon="12.1233305"><ele>295.0</ele><time>2026-04-27T15:35:11.999Z</time></trkpt><trkpt lat="46.0922571" lon="12.1232278"><ele>295.0</ele><time>2026-04-27T15:35:13.999Z</time></trkpt><trkpt lat="46.0923457" lon="12.1231243"><ele>295.0</ele><time>2026-04-27T15:35:16Z</time></trkpt><trkpt lat="46.0924311" lon="12.1230096"><ele>297.75</ele><time>2026-04-27T15:35:17.999Z</time></trkpt><trkpt lat="46.092514" lon="12.1228913"><ele>300.5</ele><time>2026-04-27T15:35:20Z</time></trkpt><trkpt lat="46.0925838" lon="12.1227532"><ele>303.25</ele><time>2026-04-27T15:35:22Z</time></trkpt><trkpt lat="46.0926344" lon="12.1226009"><ele>306.0</ele><time>2026-04-27T15:35:23.999Z</time></trkpt><trkpt lat="46.0926559" lon="12.1224318"><ele>305.75</ele><time>2026-04-27T15:35:25.999Z</time></trkpt><trkpt lat="46.0926679" lon="12.1222628"><ele>305.5</ele><time>2026-04-27T15:35:27.999Z</time></trkpt><trkpt lat="46.0926732" lon="12.1220938"><ele>305.25</ele><time>2026-04-27T15:35:29.999Z</time></trkpt><trkpt lat="46.0926783" lon="12.1219215"><ele>305.0</ele><time>2026-04-27T15:35:31.999Z</time></trkpt><trkpt lat="46.0926853" lon="12.1217517"><ele>305.0</ele><time>2026-04-27T15:35:33.999Z</time></trkpt><trkpt lat="46.0926877" lon="12.1215762"><ele>305.0</ele><time>2026-04-27T15:35:36Z</time></trkpt><trkpt lat="46.0926978" lon="12.1214076"><ele>305.0</ele><time>2026-04-27T15:35:37.999Z</time></trkpt><trkpt lat="46.0927198" lon="12.1212365"><ele>305.0</ele><time>2026-04-27T15:35:39.999Z</time></trkpt><trkpt lat="46.0927332" lon="12.1211438"><ele>305.0</ele><time>2026-04-27T15:35:40.999Z</time></trkpt><trkpt lat="46.0927456" lon="12.1210498"><ele>305.25</ele><time>2026-04-27T15:35:41.999Z</time></trkpt><trkpt lat="46.0927601" lon="12.1208733"><ele>305.5</ele><time>2026-04-27T15:35:43.999Z</time></trkpt><trkpt lat="46.0927642" lon="12.1206972"><ele>305.75</ele><time>2026-04-27T15:35:45.999Z</time></trkpt><trkpt lat="46.0927651" lon="12.1205259"><ele>306.0</ele><time>2026-04-27T15:35:47.999Z</time></trkpt><trkpt lat="46.0927758" lon="12.1203674"><ele>305.6</ele><time>2026-04-27T15:35:49.999Z</time></trkpt><trkpt lat="46.0927953" lon="12.1202062"><ele>305.20000000000005</ele><time>2026-04-27T15:35:52Z</time></trkpt><trkpt lat="46.0928189" lon="12.1200527"><ele>304.79999999999995</ele><time>2026-04-27T15:35:53.999Z</time></trkpt><trkpt lat="46.0928601" lon="12.1199016"><ele>304.4</ele><time>2026-04-27T15:35:55.999Z</time></trkpt><trkpt lat="46.0929093" lon="12.1197573"><ele>304.0</ele><time>2026-04-27T15:35:58Z</time></trkpt><trkpt lat="46.0929913" lon="12.1196493"><ele>303.0</ele><time>2026-04-27T15:36:00Z</time></trkpt><trkpt lat="46.0930933" lon="12.1195711"><ele>302.0</ele><time>2026-04-27T15:36:02Z</time></trkpt><trkpt lat="46.0931981" lon="12.1195274"><ele>301.0</ele><time>2026-04-27T15:36:03.999Z</time></trkpt><trkpt lat="46.0932978" lon="12.1194858"><ele>300.0</ele><time>2026-04-27T15:36:06Z</time></trkpt><trkpt lat="46.0933958" lon="12.119442"><ele>299.0</ele><time>2026-04-27T15:36:08Z</time></trkpt><trkpt lat="46.0935042" lon="12.1193992"><ele>302.4</ele><time>2026-04-27T15:36:09.999Z</time></trkpt><trkpt lat="46.0936069" lon="12.1193322"><ele>305.79999999999995</ele><time>2026-04-27T15:36:12Z</time></trkpt><trkpt lat="46.0936907" lon="12.1192205"><ele>309.20000000000005</ele><time>2026-04-27T15:36:13.999Z</time></trkpt><trkpt lat="46.0937554" lon="12.1190967"><ele>312.6</ele><time>2026-04-27T15:36:15.999Z</time></trkpt><trkpt lat="46.0938231" lon="12.1189672"><ele>316.0</ele><time>2026-04-27T15:36:17.999Z</time></trkpt><trkpt lat="46.0938862" lon="12.1188266"><ele>316.0</ele><time>2026-04-27T15:36:19.999Z</time></trkpt><trkpt lat="46.0939611" lon="12.1186991"><ele>316.0</ele><time>2026-04-27T15:36:21.999Z</time></trkpt><trkpt lat="46.0940281" lon="12.1185696"><ele>316.0</ele><time>2026-04-27T15:36:24Z</time></trkpt><trkpt lat="46.0940932" lon="12.1184509"><ele>316.0</ele><time>2026-04-27T15:36:26Z</time></trkpt><trkpt lat="46.0941528" lon="12.1183372"><ele>316.0</ele><time>2026-04-27T15:36:27.999Z</time></trkpt><trkpt lat="46.0942107" lon="12.1182362"><ele>316.66666666666663</ele><time>2026-04-27T15:36:29.999Z</time></trkpt><trkpt lat="46.0942653" lon="12.1181562"><ele>317.3333333333333</ele><time>2026-04-27T15:36:31.999Z</time></trkpt><trkpt lat="46.0943219" lon="12.118064"><ele>318.0</ele><time>2026-04-27T15:36:34Z</time></trkpt><trkpt lat="46.0943914" lon="12.1179967"><ele>318.6666666666667</ele><time>2026-04-27T15:36:36Z</time></trkpt><trkpt lat="46.0944693" lon="12.1179771"><ele>319.33333333333337</ele><time>2026-04-27T15:36:37.999Z</time></trkpt><trkpt lat="46.0945431" lon="12.1179875"><ele>320.0</ele><time>2026-04-27T15:36:39.999Z</time></trkpt><trkpt lat="46.0946149" lon="12.1180166"><ele>320.0</ele><time>2026-04-27T15:36:41.999Z</time></trkpt><trkpt lat="46.0946818" lon="12.1180655"><ele>320.0</ele><time>2026-04-27T15:36:43.999Z</time></trkpt><trkpt lat="46.0947344" lon="12.1181323"><ele>320.0</ele><time>2026-04-27T15:36:45.999Z</time></trkpt><trkpt lat="46.0947854" lon="12.11821"><ele>320.0</ele><time>2026-04-27T15:36:48Z</time></trkpt><trkpt lat="46.0948375" lon="12.1182877"><ele>320.0</ele><time>2026-04-27T15:36:50Z</time></trkpt><trkpt lat="46.0948919" lon="12.1183616"><ele>320.0</ele><time>2026-04-27T15:36:51.999Z</time></trkpt><trkpt lat="46.0949427" lon="12.1184419"><ele>320.0</ele><time>2026-04-27T15:36:53.999Z</time></trkpt><trkpt lat="46.094999" lon="12.1185233"><ele>322.0</ele><time>2026-04-27T15:36:55.999Z</time></trkpt><trkpt lat="46.0950739" lon="12.1186157"><ele>324.0</ele><time>2026-04-27T15:36:57.999Z</time></trkpt><trkpt lat="46.0951602" lon="12.1187326"><ele>326.0</ele><time>2026-04-27T15:37:00Z</time></trkpt><trkpt lat="46.0952083" lon="12.1188013"><ele>328.0</ele><time>2026-04-27T15:37:01Z</time></trkpt><trkpt lat="46.095255" lon="12.1188739"><ele>330.0</ele><time>2026-04-27T15:37:01.999Z</time></trkpt><trkpt lat="46.0953015" lon="12.1189612"><ele>332.0</ele><time>2026-04-27T15:37:02.999Z</time></trkpt><trkpt lat="46.0953615" lon="12.1190357"><ele>332.0</ele><time>2026-04-27T15:37:03.999Z</time></trkpt><trkpt lat="46.0954339" lon="12.1190903"><ele>332.0</ele><time>2026-04-27T15:37:04.999Z</time></trkpt><trkpt lat="46.0954989" lon="12.1191209"><ele>332.0</ele><time>2026-04-27T15:37:05.999Z</time></trkpt><trkpt lat="46.0956014" lon="12.1191292"><ele>332.0</ele><time>2026-04-27T15:37:07.999Z</time></trkpt><trkpt lat="46.0956873" lon="12.1190596"><ele>332.0</ele><time>2026-04-27T15:37:10Z</time></trkpt><trkpt lat="46.0957812" lon="12.1189656"><ele>331.7142857142857</ele><time>2026-04-27T15:37:11.999Z</time></trkpt><trkpt lat="46.0958832" lon="12.1188622"><ele>331.42857142857144</ele><time>2026-04-27T15:37:13.999Z</time></trkpt><trkpt lat="46.0959404" lon="12.1188093"><ele>331.14285714285717</ele><time>2026-04-27T15:37:14.999Z</time></trkpt><trkpt lat="46.0959956" lon="12.1187651"><ele>330.8571428571429</ele><time>2026-04-27T15:37:15.999Z</time></trkpt><trkpt lat="46.0960544" lon="12.1187274"><ele>330.57142857142856</ele><time>2026-04-27T15:37:16.999Z</time></trkpt><trkpt lat="46.0961138" lon="12.1186892"><ele>330.28571428571433</ele><time>2026-04-27T15:37:17.999Z</time></trkpt><trkpt lat="46.0961745" lon="12.1186623"><ele>330.0</ele><time>2026-04-27T15:37:18.999Z</time></trkpt><trkpt lat="46.0962349" lon="12.1186347"><ele>330.0</ele><time>2026-04-27T15:37:19.999Z</time></trkpt><trkpt lat="46.0963584" lon="12.1186097"><ele>330.0</ele><time>2026-04-27T15:37:21.999Z</time></trkpt><trkpt lat="46.0964802" lon="12.1186155"><ele>330.0</ele><time>2026-04-27T15:37:23.999Z</time></trkpt><trkpt lat="46.0966522" lon="12.1186112"><ele>330.0</ele><time>2026-04-27T15:37:26.999Z</time></trkpt><trkpt lat="46.0967568" lon="12.1186261"><ele>329.4</ele><time>2026-04-27T15:37:28.999Z</time></trkpt><trkpt lat="46.0968671" lon="12.1186323"><ele>328.8</ele><time>2026-04-27T15:37:30.999Z</time></trkpt><trkpt lat="46.0969631" lon="12.1186369"><ele>328.20000000000005</ele><time>2026-04-27T15:37:32.999Z</time></trkpt><trkpt lat="46.0970505" lon="12.118632"><ele>327.6</ele><time>2026-04-27T15:37:34.999Z</time></trkpt><trkpt lat="46.0971478" lon="12.1186191"><ele>327.0</ele><time>2026-04-27T15:37:36.999Z</time></trkpt><trkpt lat="46.0972549" lon="12.1186269"><ele>327.0</ele><time>2026-04-27T15:37:38.999Z</time></trkpt><trkpt lat="46.0973688" lon="12.1186379"><ele>327.0</ele><time>2026-04-27T15:37:40.999Z</time></trkpt><trkpt lat="46.0974832" lon="12.1186443"><ele>327.0</ele><time>2026-04-27T15:37:42.999Z</time></trkpt><trkpt lat="46.0976075" lon="12.1186457"><ele>327.0</ele><time>2026-04-27T15:37:44.999Z</time></trkpt><trkpt lat="46.0977194" lon="12.1186371"><ele>327.0</ele><time>2026-04-27T15:37:46.999Z</time></trkpt><trkpt lat="46.0978236" lon="12.1186424"><ele>327.0</ele><time>2026-04-27T15:37:48.999Z</time></trkpt><trkpt lat="46.0979276" lon="12.1186456"><ele>327.0</ele><time>2026-04-27T15:37:51Z</time></trkpt><trkpt lat="46.0980215" lon="12.118645"><ele>327.0</ele><time>2026-04-27T15:37:52.999Z</time></trkpt><trkpt lat="46.0981177" lon="12.1186442"><ele>327.0</ele><time>2026-04-27T15:37:54.999Z</time></trkpt><trkpt lat="46.0982211" lon="12.1186322"><ele>327.0</ele><time>2026-04-27T15:37:57Z</time></trkpt><trkpt lat="46.0983165" lon="12.1186255"><ele>327.0</ele><time>2026-04-27T15:37:58.999Z</time></trkpt><trkpt lat="46.0984076" lon="12.1186144"><ele>327.0</ele><time>2026-04-27T15:38:00.999Z</time></trkpt><trkpt lat="46.0985071" lon="12.1186165"><ele>327.0</ele><time>2026-04-27T15:38:03Z</time></trkpt><trkpt lat="46.0986081" lon="12.1186177"><ele>327.0</ele><time>2026-04-27T15:38:04.999Z</time></trkpt><trkpt lat="46.0987171" lon="12.1186101"><ele>327.0</ele><time>2026-04-27T15:38:07Z</time></trkpt><trkpt lat="46.0988207" lon="12.1185958"><ele>327.0</ele><time>2026-04-27T15:38:08.999Z</time></trkpt><trkpt lat="46.0989182" lon="12.1185838"><ele>327.0</ele><time>2026-04-27T15:38:10.999Z</time></trkpt><trkpt lat="46.0990018" lon="12.1185822"><ele>327.0</ele><time>2026-04-27T15:38:12.999Z</time></trkpt><trkpt lat="46.0990673" lon="12.1185767"><ele>327.0</ele><time>2026-04-27T15:38:15Z</time></trkpt><trkpt lat="46.0991432" lon="12.1185498"><ele>327.0</ele><time>2026-04-27T15:38:18Z</time></trkpt><trkpt lat="46.099201" lon="12.1184962"><ele>327.6666666666667</ele><time>2026-04-27T15:38:20.999Z</time></trkpt><trkpt lat="46.0992339" lon="12.1183922"><ele>328.3333333333333</ele><time>2026-04-27T15:38:24.999Z</time></trkpt><trkpt lat="46.0992264" lon="12.1182977"><ele>329.0</ele><time>2026-04-27T15:38:27.999Z</time></trkpt><trkpt lat="46.0992089" lon="12.1181886"><ele>329.66666666666663</ele><time>2026-04-27T15:38:30.999Z</time></trkpt><trkpt lat="46.0991911" lon="12.1180645"><ele>330.3333333333333</ele><time>2026-04-27T15:38:33.999Z</time></trkpt><trkpt lat="46.0991673" lon="12.1179538"><ele>331.0</ele><time>2026-04-27T15:38:36.999Z</time></trkpt><trkpt lat="46.0991627" lon="12.1178422"><ele>331.57142857142856</ele><time>2026-04-27T15:38:39.999Z</time></trkpt><trkpt lat="46.0991572" lon="12.1177351"><ele>332.1428571428571</ele><time>2026-04-27T15:38:42.999Z</time></trkpt><trkpt lat="46.0991893" lon="12.1176398"><ele>332.71428571428567</ele><time>2026-04-27T15:38:45.999Z</time></trkpt><trkpt lat="46.0992517" lon="12.1175841"><ele>333.2857142857143</ele><time>2026-04-27T15:38:48.999Z</time></trkpt><trkpt lat="46.0993338" lon="12.1175599"><ele>333.85714285714283</ele><time>2026-04-27T15:38:51.999Z</time></trkpt><trkpt lat="46.0994096" lon="12.1175442"><ele>334.4285714285714</ele><time>2026-04-27T15:38:54.999Z</time></trkpt><trkpt lat="46.0994756" lon="12.1175301"><ele>335.0</ele><time>2026-04-27T15:38:57.999Z</time></trkpt><trkpt lat="46.0995493" lon="12.117498"><ele>335.0</ele><time>2026-04-27T15:39:00.999Z</time></trkpt><trkpt lat="46.099623" lon="12.117423"><ele>335.0</ele><time>2026-04-27T15:39:04Z</time></trkpt><trkpt lat="46.0996687" lon="12.1173245"><ele>335.0</ele><time>2026-04-27T15:39:07Z</time></trkpt><trkpt lat="46.0996875" lon="12.1172043"><ele>335.0</ele><time>2026-04-27T15:39:10Z</time></trkpt><trkpt lat="46.0996891" lon="12.1170965"><ele>335.0</ele><time>2026-04-27T15:39:12.999Z</time></trkpt><trkpt lat="46.0996901" lon="12.1169626"><ele>335.0</ele><time>2026-04-27T15:39:16Z</time></trkpt><trkpt lat="46.0996854" lon="12.1168443"><ele>334.6666666666667</ele><time>2026-04-27T15:39:19Z</time></trkpt><trkpt lat="46.0996881" lon="12.1167108"><ele>334.33333333333337</ele><time>2026-04-27T15:39:22Z</time></trkpt><trkpt lat="46.0996849" lon="12.1165813"><ele>334.0</ele><time>2026-04-27T15:39:24.999Z</time></trkpt><trkpt lat="46.0996834" lon="12.1164585"><ele>333.6666666666667</ele><time>2026-04-27T15:39:27.999Z</time></trkpt><trkpt lat="46.09968" lon="12.116325"><ele>333.3333333333333</ele><time>2026-04-27T15:39:30.999Z</time></trkpt><trkpt lat="46.0996735" lon="12.116198"><ele>333.0</ele><time>2026-04-27T15:39:34Z</time></trkpt><trkpt lat="46.0996631" lon="12.1161053"><ele>332.8571428571429</ele><time>2026-04-27T15:39:35.999Z</time></trkpt><trkpt lat="46.0996598" lon="12.1160009"><ele>332.71428571428567</ele><time>2026-04-27T15:39:37.999Z</time></trkpt><trkpt lat="46.099659" lon="12.115887"><ele>332.57142857142856</ele><time>2026-04-27T15:39:39.999Z</time></trkpt><trkpt lat="46.0996646" lon="12.1157888"><ele>332.42857142857144</ele><time>2026-04-27T15:39:41.999Z</time></trkpt><trkpt lat="46.0996737" lon="12.1156976"><ele>332.28571428571433</ele><time>2026-04-27T15:39:44Z</time></trkpt><trkpt lat="46.0996814" lon="12.1156058"><ele>332.1428571428571</ele><time>2026-04-27T15:39:45.999Z</time></trkpt><trkpt lat="46.0996991" lon="12.1154744"><ele>332.0</ele><time>2026-04-27T15:39:48.999Z</time></trkpt><trkpt lat="46.0997198" lon="12.1153751"><ele>332.0</ele><time>2026-04-27T15:39:50.999Z</time></trkpt><trkpt lat="46.0997345" lon="12.1152791"><ele>332.0</ele><time>2026-04-27T15:39:52.999Z</time></trkpt><trkpt lat="46.0997459" lon="12.1151696"><ele>332.0</ele><time>2026-04-27T15:39:54.999Z</time></trkpt><trkpt lat="46.099763" lon="12.1150723"><ele>332.0</ele><time>2026-04-27T15:39:56.999Z</time></trkpt><trkpt lat="46.0997816" lon="12.1149796"><ele>332.0</ele><time>2026-04-27T15:39:59Z</time></trkpt><trkpt lat="46.0997946" lon="12.1148848"><ele>332.0</ele><time>2026-04-27T15:40:00.999Z</time></trkpt><trkpt lat="46.0998132" lon="12.1147963"><ele>332.0</ele><time>2026-04-27T15:40:02.999Z</time></trkpt><trkpt lat="46.0998271" lon="12.1147042"><ele>332.0</ele><time>2026-04-27T15:40:04.999Z</time></trkpt><trkpt lat="46.0998406" lon="12.1146119"><ele>332.0</ele><time>2026-04-27T15:40:07.109Z</time></trkpt><trkpt lat="46.0998552" lon="12.1145157"><ele>332.0</ele><time>2026-04-27T15:40:09Z</time></trkpt><trkpt lat="46.0998732" lon="12.1144216"><ele>332.0</ele><time>2026-04-27T15:40:11Z</time></trkpt><trkpt lat="46.099889" lon="12.1143239"><ele>332.0</ele><time>2026-04-27T15:40:12.999Z</time></trkpt><trkpt lat="46.0999042" lon="12.1142249"><ele>332.0</ele><time>2026-04-27T15:40:14.999Z</time></trkpt><trkpt lat="46.0999179" lon="12.1141258"><ele>332.0</ele><time>2026-04-27T15:40:17Z</time></trkpt><trkpt lat="46.0999357" lon="12.1140325"><ele>333.6666666666667</ele><time>2026-04-27T15:40:18.999Z</time></trkpt><trkpt lat="46.0999524" lon="12.113939"><ele>335.33333333333337</ele><time>2026-04-27T15:40:20.999Z</time></trkpt><trkpt lat="46.09997" lon="12.113847"><ele>337.0</ele><time>2026-04-27T15:40:23Z</time></trkpt><trkpt lat="46.0999914" lon="12.1137613"><ele>338.6666666666667</ele><time>2026-04-27T15:40:24.999Z</time></trkpt><trkpt lat="46.1000357" lon="12.1136443"><ele>340.3333333333333</ele><time>2026-04-27T15:40:27.999Z</time></trkpt><trkpt lat="46.1000875" lon="12.1135387"><ele>342.0</ele><time>2026-04-27T15:40:31Z</time></trkpt><trkpt lat="46.1001487" lon="12.1134493"><ele>342.0</ele><time>2026-04-27T15:40:33.999Z</time></trkpt><trkpt lat="46.1002183" lon="12.1133731"><ele>342.0</ele><time>2026-04-27T15:40:36.999Z</time></trkpt><trkpt lat="46.1002854" lon="12.113304"><ele>342.0</ele><time>2026-04-27T15:40:39.999Z</time></trkpt><trkpt lat="46.1003545" lon="12.1132411"><ele>342.0</ele><time>2026-04-27T15:40:42.999Z</time></trkpt><trkpt lat="46.1004268" lon="12.1131806"><ele>342.0</ele><time>2026-04-27T15:40:46Z</time></trkpt><trkpt lat="46.1005027" lon="12.1131185"><ele>342.0</ele><time>2026-04-27T15:40:49Z</time></trkpt><trkpt lat="46.1005822" lon="12.113055"><ele>342.1428571428571</ele><time>2026-04-27T15:40:51.999Z</time></trkpt><trkpt lat="46.1006395" lon="12.1130105"><ele>342.2857142857143</ele><time>2026-04-27T15:40:54Z</time></trkpt><trkpt lat="46.1006965" lon="12.1129581"><ele>342.42857142857144</ele><time>2026-04-27T15:40:55.999Z</time></trkpt><trkpt lat="46.1007548" lon="12.1129104"><ele>342.57142857142856</ele><time>2026-04-27T15:40:58Z</time></trkpt><trkpt lat="46.1008105" lon="12.1128556"><ele>342.7142857142857</ele><time>2026-04-27T15:41:00Z</time></trkpt><trkpt lat="46.10087" lon="12.1128021"><ele>342.85714285714283</ele><time>2026-04-27T15:41:01.999Z</time></trkpt><trkpt lat="46.1009306" lon="12.1127514"><ele>343.0</ele><time>2026-04-27T15:41:04Z</time></trkpt><trkpt lat="46.1009878" lon="12.1126976"><ele>343.66666666666663</ele><time>2026-04-27T15:41:05.999Z</time></trkpt><trkpt lat="46.1010463" lon="12.1126492"><ele>344.3333333333333</ele><time>2026-04-27T15:41:07.999Z</time></trkpt><trkpt lat="46.1011023" lon="12.1126009"><ele>345.0</ele><time>2026-04-27T15:41:10Z</time></trkpt><trkpt lat="46.1011547" lon="12.1125474"><ele>345.6666666666667</ele><time>2026-04-27T15:41:11.999Z</time></trkpt><trkpt lat="46.1012279" lon="12.1124731"><ele>346.33333333333337</ele><time>2026-04-27T15:41:15Z</time></trkpt><trkpt lat="46.1013019" lon="12.1124037"><ele>347.0</ele><time>2026-04-27T15:41:17.999Z</time></trkpt><trkpt lat="46.1013756" lon="12.1123339"><ele>347.0</ele><time>2026-04-27T15:41:20.999Z</time></trkpt><trkpt lat="46.1014483" lon="12.1122595"><ele>347.0</ele><time>2026-04-27T15:41:24Z</time></trkpt><trkpt lat="46.1015168" lon="12.1121813"><ele>347.0</ele><time>2026-04-27T15:41:26.999Z</time></trkpt><trkpt lat="46.1015842" lon="12.1120989"><ele>347.0</ele><time>2026-04-27T15:41:29.999Z</time></trkpt><trkpt lat="46.1016482" lon="12.1120287"><ele>347.0</ele><time>2026-04-27T15:41:32.999Z</time></trkpt><trkpt lat="46.1017132" lon="12.1119402"><ele>347.0</ele><time>2026-04-27T15:41:35.999Z</time></trkpt><trkpt lat="46.1017627" lon="12.111862"><ele>348.0</ele><time>2026-04-27T15:41:37.999Z</time></trkpt><trkpt lat="46.1018194" lon="12.1117776"><ele>349.0</ele><time>2026-04-27T15:41:39.999Z</time></trkpt><trkpt lat="46.101881" lon="12.1116817"><ele>350.0</ele><time>2026-04-27T15:41:41.999Z</time></trkpt><trkpt lat="46.1019519" lon="12.1115859"><ele>351.0</ele><time>2026-04-27T15:41:43.999Z</time></trkpt><trkpt lat="46.1020374" lon="12.1114908"><ele>352.0</ele><time>2026-04-27T15:41:45.999Z</time></trkpt><trkpt lat="46.1021302" lon="12.11139"><ele>352.0</ele><time>2026-04-27T15:41:47.999Z</time></trkpt><trkpt lat="46.1022716" lon="12.1112335"><ele>352.0</ele><time>2026-04-27T15:41:50.999Z</time></trkpt><trkpt lat="46.1023722" lon="12.1111238"><ele>352.0</ele><time>2026-04-27T15:41:52.999Z</time></trkpt><trkpt lat="46.1024726" lon="12.1110175"><ele>352.0</ele><time>2026-04-27T15:41:54.999Z</time></trkpt><trkpt lat="46.102525" lon="12.1109562"><ele>351.42857142857144</ele><time>2026-04-27T15:41:56Z</time></trkpt><trkpt lat="46.1025791" lon="12.1108924"><ele>350.85714285714283</ele><time>2026-04-27T15:41:56.999Z</time></trkpt><trkpt lat="46.1026308" lon="12.110831"><ele>350.2857142857143</ele><time>2026-04-27T15:41:57.999Z</time></trkpt><trkpt lat="46.1026727" lon="12.1107629"><ele>349.7142857142857</ele><time>2026-04-27T15:41:59Z</time></trkpt><trkpt lat="46.1027017" lon="12.1106799"><ele>349.14285714285717</ele><time>2026-04-27T15:41:59.999Z</time></trkpt><trkpt lat="46.1027253" lon="12.110588"><ele>348.57142857142856</ele><time>2026-04-27T15:42:00.999Z</time></trkpt><trkpt lat="46.1027352" lon="12.1104954"><ele>348.0</ele><time>2026-04-27T15:42:01.999Z</time></trkpt><trkpt lat="46.1027352" lon="12.110398"><ele>347.79999999999995</ele><time>2026-04-27T15:42:02.999Z</time></trkpt><trkpt lat="46.1027264" lon="12.1103049"><ele>347.6</ele><time>2026-04-27T15:42:04Z</time></trkpt><trkpt lat="46.1027202" lon="12.1101471"><ele>347.4</ele><time>2026-04-27T15:42:06Z</time></trkpt><trkpt lat="46.1027835" lon="12.1100445"><ele>347.20000000000005</ele><time>2026-04-27T15:42:07.999Z</time></trkpt><trkpt lat="46.1028963" lon="12.1100534"><ele>347.0</ele><time>2026-04-27T15:42:10Z</time></trkpt><trkpt lat="46.1030036" lon="12.1101515"><ele>347.0</ele><time>2026-04-27T15:42:11.999Z</time></trkpt><trkpt lat="46.1030808" lon="12.1102486"><ele>347.0</ele><time>2026-04-27T15:42:13.999Z</time></trkpt><trkpt lat="46.1031293" lon="12.1101678"><ele>347.0</ele><time>2026-04-27T15:42:17.999Z</time></trkpt><trkpt lat="46.1032214" lon="12.1101426"><ele>347.0</ele><time>2026-04-27T15:42:31Z</time></trkpt><trkpt lat="46.1033089" lon="12.1101076"><ele>347.0</ele><time>2026-04-27T15:42:32.999Z</time></trkpt><trkpt lat="46.1034146" lon="12.1100513"><ele>345.8</ele><time>2026-04-27T15:42:35Z</time></trkpt><trkpt lat="46.1034979" lon="12.1099614"><ele>344.6</ele><time>2026-04-27T15:42:37Z</time></trkpt><trkpt lat="46.1035652" lon="12.1098765"><ele>343.40000000000003</ele><time>2026-04-27T15:42:38.999Z</time></trkpt><trkpt lat="46.1036258" lon="12.1098026"><ele>342.20000000000005</ele><time>2026-04-27T15:42:40.999Z</time></trkpt><trkpt lat="46.1036816" lon="12.1097286"><ele>341.0</ele><time>2026-04-27T15:42:42.999Z</time></trkpt><trkpt lat="46.1037698" lon="12.1096523"><ele>340.5</ele><time>2026-04-27T15:42:45.999Z</time></trkpt><trkpt lat="46.1038349" lon="12.1095663"><ele>340.0</ele><time>2026-04-27T15:42:47.999Z</time></trkpt><trkpt lat="46.1038681" lon="12.1094737"><ele>339.5</ele><time>2026-04-27T15:42:48.999Z</time></trkpt><trkpt lat="46.1039392" lon="12.1093819"><ele>339.0</ele><time>2026-04-27T15:42:50.999Z</time></trkpt><trkpt lat="46.1039941" lon="12.1093297"><ele>338.5</ele><time>2026-04-27T15:42:51.999Z</time></trkpt><trkpt lat="46.1040711" lon="12.1092438"><ele>338.0</ele><time>2026-04-27T15:42:53.999Z</time></trkpt><trkpt lat="46.1041468" lon="12.1091699"><ele>335.42857142857144</ele><time>2026-04-27T15:42:56Z</time></trkpt><trkpt lat="46.1042068" lon="12.1091064"><ele>332.85714285714283</ele><time>2026-04-27T15:42:57.999Z</time></trkpt><trkpt lat="46.1042809" lon="12.1090631"><ele>330.2857142857143</ele><time>2026-04-27T15:43:01Z</time></trkpt><trkpt lat="46.1043434" lon="12.1090165"><ele>327.7142857142857</ele><time>2026-04-27T15:43:03.999Z</time></trkpt><trkpt lat="46.1043843" lon="12.1089257"><ele>325.14285714285717</ele><time>2026-04-27T15:43:06.999Z</time></trkpt><trkpt lat="46.1044237" lon="12.1088541"><ele>322.57142857142856</ele><time>2026-04-27T15:43:09.999Z</time></trkpt><trkpt lat="46.1044705" lon="12.1087829"><ele>320.0</ele><time>2026-04-27T15:43:13.999Z</time></trkpt><trkpt lat="46.104505" lon="12.1086775"><ele>318.4</ele><time>2026-04-27T15:43:27Z</time></trkpt><trkpt lat="46.1044921" lon="12.1085842"><ele>316.8</ele><time>2026-04-27T15:43:28.999Z</time></trkpt><trkpt lat="46.1044768" lon="12.1084713"><ele>315.2</ele><time>2026-04-27T15:43:31Z</time></trkpt><trkpt lat="46.1044876" lon="12.1083359"><ele>313.6</ele><time>2026-04-27T15:43:32.999Z</time></trkpt><trkpt lat="46.1045307" lon="12.1081928"><ele>312.0</ele><time>2026-04-27T15:43:34.999Z</time></trkpt><trkpt lat="46.1045947" lon="12.1080604"><ele>311.25</ele><time>2026-04-27T15:43:37Z</time></trkpt><trkpt lat="46.104677" lon="12.1079376"><ele>310.5</ele><time>2026-04-27T15:43:38.999Z</time></trkpt><trkpt lat="46.1047683" lon="12.1078375"><ele>309.75</ele><time>2026-04-27T15:43:40.999Z</time></trkpt><trkpt lat="46.1048608" lon="12.1077383"><ele>309.0</ele><time>2026-04-27T15:43:42.999Z</time></trkpt><trkpt lat="46.104959" lon="12.1076418"><ele>308.2</ele><time>2026-04-27T15:43:44.999Z</time></trkpt><trkpt lat="46.1050606" lon="12.1075469"><ele>307.4</ele><time>2026-04-27T15:43:47Z</time></trkpt><trkpt lat="46.1051597" lon="12.1074485"><ele>306.6</ele><time>2026-04-27T15:43:49Z</time></trkpt><trkpt lat="46.1052676" lon="12.1073586"><ele>305.8</ele><time>2026-04-27T15:43:51Z</time></trkpt><trkpt lat="46.1053243" lon="12.1073184"><ele>305.0</ele><time>2026-04-27T15:43:51.999Z</time></trkpt><trkpt lat="46.1054368" lon="12.1072525"><ele>305.0</ele><time>2026-04-27T15:43:53.999Z</time></trkpt><trkpt lat="46.1055448" lon="12.1071959"><ele>305.0</ele><time>2026-04-27T15:43:55.999Z</time></trkpt><trkpt lat="46.1056429" lon="12.1071497"><ele>305.0</ele><time>2026-04-27T15:43:57.999Z</time></trkpt><trkpt lat="46.1057323" lon="12.107103"><ele>305.0</ele><time>2026-04-27T15:43:59.999Z</time></trkpt><trkpt lat="46.1058277" lon="12.1070745"><ele>305.0</ele><time>2026-04-27T15:44:02Z</time></trkpt><trkpt lat="46.1059241" lon="12.1070555"><ele>304.4</ele><time>2026-04-27T15:44:03.999Z</time></trkpt><trkpt lat="46.1060211" lon="12.1070698"><ele>303.8</ele><time>2026-04-27T15:44:05.999Z</time></trkpt><trkpt lat="46.1061198" lon="12.107095"><ele>303.2</ele><time>2026-04-27T15:44:07.999Z</time></trkpt><trkpt lat="46.10622" lon="12.1071029"><ele>302.6</ele><time>2026-04-27T15:44:09.999Z</time></trkpt><trkpt lat="46.1063284" lon="12.1070814"><ele>302.0</ele><time>2026-04-27T15:44:11.999Z</time></trkpt><trkpt lat="46.1064329" lon="12.1070683"><ele>302.0</ele><time>2026-04-27T15:44:13.999Z</time></trkpt><trkpt lat="46.1065374" lon="12.1070507"><ele>302.0</ele><time>2026-04-27T15:44:15.999Z</time></trkpt><trkpt lat="46.106643" lon="12.1070306"><ele>302.0</ele><time>2026-04-27T15:44:18Z</time></trkpt><trkpt lat="46.1067476" lon="12.1070078"><ele>302.0</ele><time>2026-04-27T15:44:19.999Z</time></trkpt><trkpt lat="46.1068534" lon="12.106988"><ele>302.0</ele><time>2026-04-27T15:44:21.999Z</time></trkpt><trkpt lat="46.1069558" lon="12.1069788"><ele>302.2</ele><time>2026-04-27T15:44:23.999Z</time></trkpt><trkpt lat="46.1070604" lon="12.106973"><ele>302.4</ele><time>2026-04-27T15:44:25.999Z</time></trkpt><trkpt lat="46.1071669" lon="12.1069641"><ele>302.6</ele><time>2026-04-27T15:44:27.999Z</time></trkpt><trkpt lat="46.107274" lon="12.106958"><ele>302.8</ele><time>2026-04-27T15:44:29.999Z</time></trkpt><trkpt lat="46.1073817" lon="12.1069427"><ele>303.0</ele><time>2026-04-27T15:44:31.999Z</time></trkpt><trkpt lat="46.107481" lon="12.1069031"><ele>303.2</ele><time>2026-04-27T15:44:33.999Z</time></trkpt><trkpt lat="46.1075733" lon="12.1068218"><ele>303.4</ele><time>2026-04-27T15:44:35.999Z</time></trkpt><trkpt lat="46.1076427" lon="12.1067132"><ele>303.59999999999997</ele><time>2026-04-27T15:44:38Z</time></trkpt><trkpt lat="46.1077085" lon="12.1065992"><ele>303.8</ele><time>2026-04-27T15:44:39.999Z</time></trkpt><trkpt lat="46.1077749" lon="12.1064753"><ele>304.0</ele><time>2026-04-27T15:44:42Z</time></trkpt><trkpt lat="46.1078355" lon="12.1063497"><ele>304.2</ele><time>2026-04-27T15:44:43.999Z</time></trkpt><trkpt lat="46.1078964" lon="12.1062144"><ele>304.4</ele><time>2026-04-27T15:44:45.999Z</time></trkpt><trkpt lat="46.1079434" lon="12.1060726"><ele>304.6</ele><time>2026-04-27T15:44:47.999Z</time></trkpt><trkpt lat="46.1079997" lon="12.1059398"><ele>304.8</ele><time>2026-04-27T15:44:50Z</time></trkpt><trkpt lat="46.1080625" lon="12.1058133"><ele>305.0</ele><time>2026-04-27T15:44:51.999Z</time></trkpt><trkpt lat="46.1081439" lon="12.1057084"><ele>305.4</ele><time>2026-04-27T15:44:53.999Z</time></trkpt><trkpt lat="46.1082273" lon="12.1056195"><ele>305.8</ele><time>2026-04-27T15:44:55.999Z</time></trkpt><trkpt lat="46.1083095" lon="12.1055336"><ele>306.2</ele><time>2026-04-27T15:44:57.999Z</time></trkpt><trkpt lat="46.1084018" lon="12.1054618"><ele>306.6</ele><time>2026-04-27T15:44:59.999Z</time></trkpt><trkpt lat="46.1084902" lon="12.1054079"><ele>307.0</ele><time>2026-04-27T15:45:01.999Z</time></trkpt><trkpt lat="46.1085763" lon="12.1053587"><ele>307.2</ele><time>2026-04-27T15:45:04Z</time></trkpt><trkpt lat="46.1086656" lon="12.105314"><ele>307.4</ele><time>2026-04-27T15:45:05.999Z</time></trkpt><trkpt lat="46.1087542" lon="12.1052707"><ele>307.6</ele><time>2026-04-27T15:45:08Z</time></trkpt><trkpt lat="46.1088373" lon="12.105223"><ele>307.8</ele><time>2026-04-27T15:45:09.999Z</time></trkpt><trkpt lat="46.1089002" lon="12.1051313"><ele>308.0</ele><time>2026-04-27T15:45:11.999Z</time></trkpt><trkpt lat="46.1089339" lon="12.1050172"><ele>308.0</ele><time>2026-04-27T15:45:14Z</time></trkpt><trkpt lat="46.1089482" lon="12.1048914"><ele>308.0</ele><time>2026-04-27T15:45:16Z</time></trkpt><trkpt lat="46.1089598" lon="12.1047604"><ele>308.0</ele><time>2026-04-27T15:45:17.999Z</time></trkpt><trkpt lat="46.108965" lon="12.1046275"><ele>308.0</ele><time>2026-04-27T15:45:20Z</time></trkpt><trkpt lat="46.1089667" lon="12.1044904"><ele>308.0</ele><time>2026-04-27T15:45:21.999Z</time></trkpt><trkpt lat="46.1089714" lon="12.1043602"><ele>308.0</ele><time>2026-04-27T15:45:23.999Z</time></trkpt><trkpt lat="46.108984" lon="12.1042347"><ele>308.0</ele><time>2026-04-27T15:45:25.999Z</time></trkpt><trkpt lat="46.1089946" lon="12.1041103"><ele>308.0</ele><time>2026-04-27T15:45:27.999Z</time></trkpt><trkpt lat="46.1090021" lon="12.1039856"><ele>308.0</ele><time>2026-04-27T15:45:30Z</time></trkpt><trkpt lat="46.10901" lon="12.103863"><ele>308.0</ele><time>2026-04-27T15:45:31.999Z</time></trkpt><trkpt lat="46.1090191" lon="12.1037441"><ele>308.0</ele><time>2026-04-27T15:45:33.999Z</time></trkpt><trkpt lat="46.1090304" lon="12.1036188"><ele>308.0</ele><time>2026-04-27T15:45:36Z</time></trkpt><trkpt lat="46.1090415" lon="12.1034943"><ele>308.0</ele><time>2026-04-27T15:45:37.999Z</time></trkpt><trkpt lat="46.109052" lon="12.1033709"><ele>308.0</ele><time>2026-04-27T15:45:39.999Z</time></trkpt><trkpt lat="46.1090607" lon="12.1032514"><ele>308.0</ele><time>2026-04-27T15:45:41.999Z</time></trkpt><trkpt lat="46.1090657" lon="12.1031276"><ele>308.0</ele><time>2026-04-27T15:45:43.999Z</time></trkpt><trkpt lat="46.1090751" lon="12.1030027"><ele>308.0</ele><time>2026-04-27T15:45:45.999Z</time></trkpt><trkpt lat="46.1090833" lon="12.1028763"><ele>308.5</ele><time>2026-04-27T15:45:47.999Z</time></trkpt><trkpt lat="46.1090916" lon="12.102748"><ele>309.0</ele><time>2026-04-27T15:45:49.999Z</time></trkpt><trkpt lat="46.1091041" lon="12.1026238"><ele>309.5</ele><time>2026-04-27T15:45:51.999Z</time></trkpt><trkpt lat="46.1091164" lon="12.1024996"><ele>310.0</ele><time>2026-04-27T15:45:54Z</time></trkpt><trkpt lat="46.1091254" lon="12.102377"><ele>310.5</ele><time>2026-04-27T15:45:56Z</time></trkpt><trkpt lat="46.1091345" lon="12.1022521"><ele>311.0</ele><time>2026-04-27T15:45:57.999Z</time></trkpt><trkpt lat="46.1091451" lon="12.1021248"><ele>311.0</ele><time>2026-04-27T15:45:59.999Z</time></trkpt><trkpt lat="46.1091506" lon="12.1019971"><ele>311.0</ele><time>2026-04-27T15:46:01.999Z</time></trkpt><trkpt lat="46.1091591" lon="12.1018749"><ele>311.0</ele><time>2026-04-27T15:46:03.999Z</time></trkpt><trkpt lat="46.1091684" lon="12.1017527"><ele>311.0</ele><time>2026-04-27T15:46:06Z</time></trkpt><trkpt lat="46.1091698" lon="12.1016341"><ele>311.0</ele><time>2026-04-27T15:46:07.999Z</time></trkpt><trkpt lat="46.1091808" lon="12.1015215"><ele>311.0</ele><time>2026-04-27T15:46:09.999Z</time></trkpt><trkpt lat="46.1091891" lon="12.1014061"><ele>311.33333333333337</ele><time>2026-04-27T15:46:11.999Z</time></trkpt><trkpt lat="46.1092086" lon="12.1012879"><ele>311.6666666666667</ele><time>2026-04-27T15:46:13.999Z</time></trkpt><trkpt lat="46.1092403" lon="12.1011794"><ele>312.0</ele><time>2026-04-27T15:46:16Z</time></trkpt><trkpt lat="46.1092602" lon="12.1010679"><ele>312.3333333333333</ele><time>2026-04-27T15:46:18Z</time></trkpt><trkpt lat="46.1092707" lon="12.1009573"><ele>312.66666666666663</ele><time>2026-04-27T15:46:20Z</time></trkpt><trkpt lat="46.1092897" lon="12.1008596"><ele>313.0</ele><time>2026-04-27T15:46:21.999Z</time></trkpt><trkpt lat="46.1093497" lon="12.1007711"><ele>313.0</ele><time>2026-04-27T15:46:24.999Z</time></trkpt><trkpt lat="46.1094153" lon="12.1007546"><ele>313.0</ele><time>2026-04-27T15:48:13.999Z</time></trkpt><trkpt lat="46.1093728" lon="12.1008309"><ele>313.0</ele><time>2026-04-27T15:48:17.999Z</time></trkpt><trkpt lat="46.1093065" lon="12.1008803"><ele>313.0</ele><time>2026-04-27T15:48:20.999Z</time></trkpt><trkpt lat="46.1092404" lon="12.1009713"><ele>313.0</ele><time>2026-04-27T15:48:23.999Z</time></trkpt><trkpt lat="46.1092076" lon="12.1010765"><ele>313.0</ele><time>2026-04-27T15:48:26Z</time></trkpt><trkpt lat="46.109188" lon="12.1012161"><ele>313.0</ele><time>2026-04-27T15:48:27.999Z</time></trkpt><trkpt lat="46.1091684" lon="12.1013515"><ele>313.0</ele><time>2026-04-27T15:48:29.999Z</time></trkpt><trkpt lat="46.1091483" lon="12.1014804"><ele>313.0</ele><time>2026-04-27T15:48:32Z</time></trkpt><trkpt lat="46.1091417" lon="12.1016174"><ele>313.0</ele><time>2026-04-27T15:48:33.999Z</time></trkpt><trkpt lat="46.1091331" lon="12.1017533"><ele>313.0</ele><time>2026-04-27T15:48:35.999Z</time></trkpt><trkpt lat="46.109119" lon="12.1018947"><ele>312.6</ele><time>2026-04-27T15:48:37.999Z</time></trkpt><trkpt lat="46.1091128" lon="12.1020432"><ele>312.20000000000005</ele><time>2026-04-27T15:48:39.999Z</time></trkpt><trkpt lat="46.1091007" lon="12.1021971"><ele>311.8</ele><time>2026-04-27T15:48:42Z</time></trkpt><trkpt lat="46.1090882" lon="12.1023555"><ele>311.40000000000003</ele><time>2026-04-27T15:48:43.999Z</time></trkpt><trkpt lat="46.1090756" lon="12.1025194"><ele>311.0</ele><time>2026-04-27T15:48:45.999Z</time></trkpt><trkpt lat="46.1090677" lon="12.1026821"><ele>310.25</ele><time>2026-04-27T15:48:47.999Z</time></trkpt><trkpt lat="46.1090543" lon="12.1028423"><ele>309.5</ele><time>2026-04-27T15:48:49.999Z</time></trkpt><trkpt lat="46.109044" lon="12.103006"><ele>308.75</ele><time>2026-04-27T15:48:51.999Z</time></trkpt><trkpt lat="46.1090303" lon="12.1031675"><ele>308.0</ele><time>2026-04-27T15:48:53.999Z</time></trkpt><trkpt lat="46.1090198" lon="12.1033371"><ele>308.0</ele><time>2026-04-27T15:48:55.999Z</time></trkpt><trkpt lat="46.1090096" lon="12.1035051"><ele>308.0</ele><time>2026-04-27T15:48:57.999Z</time></trkpt><trkpt lat="46.1089964" lon="12.1036805"><ele>308.0</ele><time>2026-04-27T15:48:59.999Z</time></trkpt><trkpt lat="46.1089838" lon="12.1038498"><ele>308.0</ele><time>2026-04-27T15:49:01.999Z</time></trkpt><trkpt lat="46.1089737" lon="12.1040152"><ele>308.0</ele><time>2026-04-27T15:49:03.999Z</time></trkpt><trkpt lat="46.1089621" lon="12.1041803"><ele>308.0</ele><time>2026-04-27T15:49:06Z</time></trkpt><trkpt lat="46.1089491" lon="12.104349"><ele>308.0</ele><time>2026-04-27T15:49:07.999Z</time></trkpt><trkpt lat="46.1089362" lon="12.1045169"><ele>308.0</ele><time>2026-04-27T15:49:10Z</time></trkpt><trkpt lat="46.1089265" lon="12.1046803"><ele>308.0</ele><time>2026-04-27T15:49:11.999Z</time></trkpt><trkpt lat="46.1089215" lon="12.104832"><ele>308.0</ele><time>2026-04-27T15:49:13.999Z</time></trkpt><trkpt lat="46.1089097" lon="12.1049718"><ele>308.0</ele><time>2026-04-27T15:49:15.999Z</time></trkpt><trkpt lat="46.1088912" lon="12.1051148"><ele>308.0</ele><time>2026-04-27T15:49:17.999Z</time></trkpt><trkpt lat="46.1089042" lon="12.1052702"><ele>308.0</ele><time>2026-04-27T15:49:20Z</time></trkpt><trkpt lat="46.1089595" lon="12.1054129"><ele>308.0</ele><time>2026-04-27T15:49:21.999Z</time></trkpt><trkpt lat="46.1090198" lon="12.1055494"><ele>308.0</ele><time>2026-04-27T15:49:23.999Z</time></trkpt><trkpt lat="46.1090567" lon="12.1056969"><ele>308.0</ele><time>2026-04-27T15:49:26Z</time></trkpt><trkpt lat="46.1090311" lon="12.1058482"><ele>308.0</ele><time>2026-04-27T15:49:27.999Z</time></trkpt><trkpt lat="46.1089897" lon="12.1059909"><ele>308.0</ele><time>2026-04-27T15:49:30Z</time></trkpt><trkpt lat="46.1089533" lon="12.1061209"><ele>307.8</ele><time>2026-04-27T15:49:31.999Z</time></trkpt><trkpt lat="46.1089171" lon="12.1062791"><ele>307.6</ele><time>2026-04-27T15:49:34Z</time></trkpt><trkpt lat="46.1088983" lon="12.106368"><ele>307.4</ele><time>2026-04-27T15:49:35Z</time></trkpt><trkpt lat="46.1088594" lon="12.1065242"><ele>307.2</ele><time>2026-04-27T15:49:36.999Z</time></trkpt><trkpt lat="46.1088259" lon="12.1066605"><ele>307.0</ele><time>2026-04-27T15:49:38.999Z</time></trkpt><trkpt lat="46.1087941" lon="12.1067878"><ele>306.66666666666663</ele><time>2026-04-27T15:49:41Z</time></trkpt><trkpt lat="46.1087799" lon="12.1069066"><ele>306.3333333333333</ele><time>2026-04-27T15:49:42.999Z</time></trkpt><trkpt lat="46.108782" lon="12.107026"><ele>306.0</ele><time>2026-04-27T15:49:45Z</time></trkpt><trkpt lat="46.1087947" lon="12.1071291"><ele>305.6666666666667</ele><time>2026-04-27T15:49:46.999Z</time></trkpt><trkpt lat="46.1088282" lon="12.1072463"><ele>305.33333333333337</ele><time>2026-04-27T15:49:48.999Z</time></trkpt><trkpt lat="46.1088764" lon="12.1073699"><ele>305.0</ele><time>2026-04-27T15:49:51Z</time></trkpt><trkpt lat="46.10893" lon="12.1074844"><ele>305.0</ele><time>2026-04-27T15:49:52.999Z</time></trkpt><trkpt lat="46.1089807" lon="12.1075695"><ele>305.0</ele><time>2026-04-27T15:49:54.999Z</time></trkpt><trkpt lat="46.1090026" lon="12.1076654"><ele>305.0</ele><time>2026-04-27T15:49:56.999Z</time></trkpt><trkpt lat="46.1089989" lon="12.1077967"><ele>305.0</ele><time>2026-04-27T15:50:00Z</time></trkpt><trkpt lat="46.1090017" lon="12.1079162"><ele>305.0</ele><time>2026-04-27T15:50:02.999Z</time></trkpt><trkpt lat="46.1089753" lon="12.1080057"><ele>305.0</ele><time>2026-04-27T15:50:05Z</time></trkpt><trkpt lat="46.1089636" lon="12.10812"><ele>305.0</ele><time>2026-04-27T15:50:06.999Z</time></trkpt><trkpt lat="46.1089295" lon="12.1082353"><ele>305.0</ele><time>2026-04-27T15:50:08.999Z</time></trkpt><trkpt lat="46.1089044" lon="12.1083562"><ele>305.0</ele><time>2026-04-27T15:50:11Z</time></trkpt><trkpt lat="46.1089045" lon="12.1084802"><ele>305.0</ele><time>2026-04-27T15:50:12.999Z</time></trkpt><trkpt lat="46.1089276" lon="12.1086005"><ele>305.0</ele><time>2026-04-27T15:50:14.999Z</time></trkpt><trkpt lat="46.1089452" lon="12.1087122"><ele>305.0</ele><time>2026-04-27T15:50:18.999Z</time></trkpt><trkpt lat="46.1089766" lon="12.1087972"><ele>304.8571428571429</ele><time>2026-04-27T15:50:25Z</time></trkpt><trkpt lat="46.1089768" lon="12.1088988"><ele>304.71428571428567</ele><time>2026-04-27T15:50:28.999Z</time></trkpt><trkpt lat="46.1089759" lon="12.1089963"><ele>304.57142857142856</ele><time>2026-04-27T15:50:30.999Z</time></trkpt><trkpt lat="46.108974" lon="12.1091025"><ele>304.42857142857144</ele><time>2026-04-27T15:50:33Z</time></trkpt><trkpt lat="46.1089626" lon="12.1092096"><ele>304.28571428571433</ele><time>2026-04-27T15:50:35Z</time></trkpt><trkpt lat="46.1089445" lon="12.1093149"><ele>304.1428571428571</ele><time>2026-04-27T15:50:36.999Z</time></trkpt><trkpt lat="46.1089386" lon="12.1094254"><ele>304.0</ele><time>2026-04-27T15:50:38.999Z</time></trkpt><trkpt lat="46.1089325" lon="12.1095442"><ele>304.59999999999997</ele><time>2026-04-27T15:50:41Z</time></trkpt><trkpt lat="46.108922" lon="12.1096773"><ele>305.2</ele><time>2026-04-27T15:50:42.999Z</time></trkpt><trkpt lat="46.1089181" lon="12.1098145"><ele>305.79999999999995</ele><time>2026-04-27T15:50:44.999Z</time></trkpt><trkpt lat="46.1089108" lon="12.1099535"><ele>306.4</ele><time>2026-04-27T15:50:46.999Z</time></trkpt><trkpt lat="46.1089062" lon="12.1100911"><ele>307.0</ele><time>2026-04-27T15:50:48.999Z</time></trkpt><trkpt lat="46.1089018" lon="12.1102408"><ele>307.4</ele><time>2026-04-27T15:50:50.999Z</time></trkpt><trkpt lat="46.1089039" lon="12.1103942"><ele>307.79999999999995</ele><time>2026-04-27T15:50:52.999Z</time></trkpt><trkpt lat="46.1089012" lon="12.1105435"><ele>308.2</ele><time>2026-04-27T15:50:54.999Z</time></trkpt><trkpt lat="46.1089043" lon="12.1106982"><ele>308.59999999999997</ele><time>2026-04-27T15:50:57Z</time></trkpt><trkpt lat="46.1089073" lon="12.1108455"><ele>309.0</ele><time>2026-04-27T15:50:59Z</time></trkpt><trkpt lat="46.1089098" lon="12.1109844"><ele>309.0</ele><time>2026-04-27T15:51:00.999Z</time></trkpt><trkpt lat="46.1089164" lon="12.1111179"><ele>309.0</ele><time>2026-04-27T15:51:02.999Z</time></trkpt><trkpt lat="46.1089244" lon="12.1112423"><ele>309.0</ele><time>2026-04-27T15:51:05Z</time></trkpt><trkpt lat="46.1088855" lon="12.1113411"><ele>309.0</ele><time>2026-04-27T15:51:06.999Z</time></trkpt><trkpt lat="46.1088071" lon="12.1113999"><ele>309.0</ele><time>2026-04-27T15:51:08.999Z</time></trkpt><trkpt lat="46.1087393" lon="12.1115006"><ele>309.0</ele><time>2026-04-27T15:51:10.999Z</time></trkpt><trkpt lat="46.1087312" lon="12.111646"><ele>308.8</ele><time>2026-04-27T15:51:12.999Z</time></trkpt><trkpt lat="46.1087408" lon="12.1117976"><ele>308.59999999999997</ele><time>2026-04-27T15:51:14.999Z</time></trkpt><trkpt lat="46.1087559" lon="12.1119509"><ele>308.4</ele><time>2026-04-27T15:51:16.999Z</time></trkpt><trkpt lat="46.1087698" lon="12.1121028"><ele>308.2</ele><time>2026-04-27T15:51:18.999Z</time></trkpt><trkpt lat="46.1087846" lon="12.112253"><ele>308.0</ele><time>2026-04-27T15:51:21Z</time></trkpt><trkpt lat="46.108795" lon="12.1124088"><ele>308.6</ele><time>2026-04-27T15:51:22.999Z</time></trkpt><trkpt lat="46.1088012" lon="12.1125571"><ele>309.20000000000005</ele><time>2026-04-27T15:51:24.999Z</time></trkpt><trkpt lat="46.1088101" lon="12.1127103"><ele>309.8</ele><time>2026-04-27T15:51:26.999Z</time></trkpt><trkpt lat="46.1088202" lon="12.1128612"><ele>310.40000000000003</ele><time>2026-04-27T15:51:29Z</time></trkpt><trkpt lat="46.1088282" lon="12.1130116"><ele>311.0</ele><time>2026-04-27T15:51:30.999Z</time></trkpt><trkpt lat="46.1088328" lon="12.1131544"><ele>311.0</ele><time>2026-04-27T15:51:32.999Z</time></trkpt><trkpt lat="46.1088499" lon="12.1132923"><ele>311.0</ele><time>2026-04-27T15:51:34.999Z</time></trkpt><trkpt lat="46.1089195" lon="12.1133712"><ele>311.0</ele><time>2026-04-27T15:51:36.999Z</time></trkpt><trkpt lat="46.1090184" lon="12.1133875"><ele>311.0</ele><time>2026-04-27T15:51:38.999Z</time></trkpt><trkpt lat="46.1091162" lon="12.1133824"><ele>311.0</ele><time>2026-04-27T15:51:40.999Z</time></trkpt><trkpt lat="46.1092282" lon="12.1133664"><ele>310.8</ele><time>2026-04-27T15:51:42.999Z</time></trkpt><trkpt lat="46.1093369" lon="12.1133477"><ele>310.6</ele><time>2026-04-27T15:51:44.999Z</time></trkpt><trkpt lat="46.1094493" lon="12.1133324"><ele>310.4</ele><time>2026-04-27T15:51:46.999Z</time></trkpt><trkpt lat="46.1095563" lon="12.1133147"><ele>310.2</ele><time>2026-04-27T15:51:48.999Z</time></trkpt><trkpt lat="46.1096692" lon="12.113299"><ele>310.0</ele><time>2026-04-27T15:51:51Z</time></trkpt><trkpt lat="46.1097824" lon="12.1132862"><ele>310.0</ele><time>2026-04-27T15:51:52.999Z</time></trkpt><trkpt lat="46.1098851" lon="12.1132771"><ele>310.0</ele><time>2026-04-27T15:51:54.999Z</time></trkpt><trkpt lat="46.1099918" lon="12.113253"><ele>310.0</ele><time>2026-04-27T15:51:56.999Z</time></trkpt><trkpt lat="46.1101024" lon="12.1132389"><ele>310.0</ele><time>2026-04-27T15:51:58.999Z</time></trkpt><trkpt lat="46.1102096" lon="12.1132186"><ele>310.0</ele><time>2026-04-27T15:52:01Z</time></trkpt><trkpt lat="46.1103162" lon="12.11319"><ele>310.0</ele><time>2026-04-27T15:52:02.999Z</time></trkpt><trkpt lat="46.1104229" lon="12.1131748"><ele>310.0</ele><time>2026-04-27T15:52:04.999Z</time></trkpt><trkpt lat="46.110524" lon="12.1131691"><ele>310.0</ele><time>2026-04-27T15:52:06.999Z</time></trkpt><trkpt lat="46.1106307" lon="12.1131594"><ele>310.0</ele><time>2026-04-27T15:52:08.999Z</time></trkpt><trkpt lat="46.1107387" lon="12.1131526"><ele>310.0</ele><time>2026-04-27T15:52:11Z</time></trkpt><trkpt lat="46.1108445" lon="12.1131498"><ele>310.16666666666663</ele><time>2026-04-27T15:52:13Z</time></trkpt><trkpt lat="46.1109427" lon="12.1131439"><ele>310.3333333333333</ele><time>2026-04-27T15:52:14.999Z</time></trkpt><trkpt lat="46.1110198" lon="12.1131328"><ele>310.5</ele><time>2026-04-27T15:52:16.999Z</time></trkpt><trkpt lat="46.1110786" lon="12.1131695"><ele>310.6666666666667</ele><time>2026-04-27T15:52:18.999Z</time></trkpt><trkpt lat="46.1111128" lon="12.1132987"><ele>310.83333333333337</ele><time>2026-04-27T15:52:21.999Z</time></trkpt><trkpt lat="46.1111247" lon="12.1134302"><ele>311.0</ele><time>2026-04-27T15:52:24Z</time></trkpt><trkpt lat="46.1111394" lon="12.1135669"><ele>311.0</ele><time>2026-04-27T15:52:25.999Z</time></trkpt><trkpt lat="46.1111508" lon="12.1137093"><ele>311.0</ele><time>2026-04-27T15:52:27.999Z</time></trkpt><trkpt lat="46.1111664" lon="12.1138499"><ele>311.0</ele><time>2026-04-27T15:52:29.999Z</time></trkpt><trkpt lat="46.1111802" lon="12.1139889"><ele>311.0</ele><time>2026-04-27T15:52:31.999Z</time></trkpt><trkpt lat="46.1111733" lon="12.1141099"><ele>311.0</ele><time>2026-04-27T15:52:33.999Z</time></trkpt><trkpt lat="46.1111429" lon="12.1141934"><ele>311.0</ele><time>2026-04-27T15:52:35.999Z</time></trkpt><trkpt lat="46.1112076" lon="12.1142818"><ele>311.0</ele><time>2026-04-27T15:52:38.999Z</time></trkpt><trkpt lat="46.1112528" lon="12.114365"><ele>311.0</ele><time>2026-04-27T15:52:40.999Z</time></trkpt><trkpt lat="46.1113158" lon="12.1144498"><ele>311.0</ele><time>2026-04-27T15:52:42.999Z</time></trkpt><trkpt lat="46.1113857" lon="12.1145268"><ele>311.0</ele><time>2026-04-27T15:52:45Z</time></trkpt><trkpt lat="46.1114405" lon="12.1146348"><ele>311.0</ele><time>2026-04-27T15:52:46.999Z</time></trkpt><trkpt lat="46.1114763" lon="12.1147596"><ele>311.0</ele><time>2026-04-27T15:52:48.999Z</time></trkpt><trkpt lat="46.1115187" lon="12.1148898"><ele>311.0</ele><time>2026-04-27T15:52:50.999Z</time></trkpt><trkpt lat="46.1115646" lon="12.115025"><ele>311.0</ele><time>2026-04-27T15:52:53Z</time></trkpt><trkpt lat="46.1116121" lon="12.1151621"><ele>311.0</ele><time>2026-04-27T15:52:55Z</time></trkpt><trkpt lat="46.1116603" lon="12.1153016"><ele>311.0</ele><time>2026-04-27T15:52:56.999Z</time></trkpt><trkpt lat="46.1117083" lon="12.1154345"><ele>311.0</ele><time>2026-04-27T15:52:58.999Z</time></trkpt><trkpt lat="46.1117539" lon="12.1155753"><ele>311.2</ele><time>2026-04-27T15:53:00.999Z</time></trkpt><trkpt lat="46.1117997" lon="12.1157153"><ele>311.40000000000003</ele><time>2026-04-27T15:53:02.999Z</time></trkpt><trkpt lat="46.1118575" lon="12.1158477"><ele>311.6</ele><time>2026-04-27T15:53:04.999Z</time></trkpt><trkpt lat="46.11193" lon="12.1159591"><ele>311.8</ele><time>2026-04-27T15:53:06.999Z</time></trkpt><trkpt lat="46.1120123" lon="12.1160643"><ele>312.0</ele><time>2026-04-27T15:53:08.999Z</time></trkpt><trkpt lat="46.1120992" lon="12.1161571"><ele>312.0</ele><time>2026-04-27T15:53:10.999Z</time></trkpt><trkpt lat="46.1121952" lon="12.1162362"><ele>312.0</ele><time>2026-04-27T15:53:12.999Z</time></trkpt><trkpt lat="46.1122816" lon="12.1163016"><ele>312.0</ele><time>2026-04-27T15:53:15Z</time></trkpt><trkpt lat="46.1123762" lon="12.1163586"><ele>312.0</ele><time>2026-04-27T15:53:16.999Z</time></trkpt><trkpt lat="46.1124773" lon="12.1164064"><ele>312.0</ele><time>2026-04-27T15:53:18.999Z</time></trkpt><trkpt lat="46.1125891" lon="12.1164287"><ele>312.4</ele><time>2026-04-27T15:53:21Z</time></trkpt><trkpt lat="46.1126992" lon="12.1164194"><ele>312.79999999999995</ele><time>2026-04-27T15:53:22.999Z</time></trkpt><trkpt lat="46.1128148" lon="12.1163986"><ele>313.2</ele><time>2026-04-27T15:53:24.999Z</time></trkpt><trkpt lat="46.1129252" lon="12.1163693"><ele>313.59999999999997</ele><time>2026-04-27T15:53:26.999Z</time></trkpt><trkpt lat="46.1130278" lon="12.1163319"><ele>314.0</ele><time>2026-04-27T15:53:29Z</time></trkpt><trkpt lat="46.1131285" lon="12.1162981"><ele>314.0</ele><time>2026-04-27T15:53:30.999Z</time></trkpt><trkpt lat="46.1132323" lon="12.1162778"><ele>314.0</ele><time>2026-04-27T15:53:32.999Z</time></trkpt><trkpt lat="46.1133376" lon="12.1162525"><ele>314.0</ele><time>2026-04-27T15:53:34.999Z</time></trkpt><trkpt lat="46.1134355" lon="12.1162327"><ele>314.0</ele><time>2026-04-27T15:53:37Z</time></trkpt><trkpt lat="46.1135325" lon="12.1162216"><ele>314.0</ele><time>2026-04-27T15:53:38.999Z</time></trkpt><trkpt lat="46.1136254" lon="12.1162175"><ele>314.0</ele><time>2026-04-27T15:53:40.999Z</time></trkpt><trkpt lat="46.11372" lon="12.1162242"><ele>314.0</ele><time>2026-04-27T15:53:42.999Z</time></trkpt><trkpt lat="46.1138167" lon="12.1162372"><ele>314.0</ele><time>2026-04-27T15:53:44.999Z</time></trkpt><trkpt lat="46.1139164" lon="12.1162462"><ele>314.0</ele><time>2026-04-27T15:53:47Z</time></trkpt><trkpt lat="46.1140156" lon="12.1162792"><ele>314.0</ele><time>2026-04-27T15:53:48.999Z</time></trkpt><trkpt lat="46.1141155" lon="12.1163301"><ele>314.2</ele><time>2026-04-27T15:53:50.999Z</time></trkpt><trkpt lat="46.1142124" lon="12.1163861"><ele>314.4</ele><time>2026-04-27T15:53:52.999Z</time></trkpt><trkpt lat="46.1143181" lon="12.1164469"><ele>314.6</ele><time>2026-04-27T15:53:54.999Z</time></trkpt><trkpt lat="46.1144228" lon="12.1165076"><ele>314.8</ele><time>2026-04-27T15:53:56.999Z</time></trkpt><trkpt lat="46.1145263" lon="12.1165714"><ele>315.0</ele><time>2026-04-27T15:53:58.999Z</time></trkpt><trkpt lat="46.1146282" lon="12.11664"><ele>314.6</ele><time>2026-04-27T15:54:01Z</time></trkpt><trkpt lat="46.1147084" lon="12.1167397"><ele>314.2</ele><time>2026-04-27T15:54:02.999Z</time></trkpt><trkpt lat="46.1147766" lon="12.1168662"><ele>313.8</ele><time>2026-04-27T15:54:04.999Z</time></trkpt><trkpt lat="46.1148302" lon="12.1170091"><ele>313.4</ele><time>2026-04-27T15:54:06.999Z</time></trkpt><trkpt lat="46.1148767" lon="12.1171609"><ele>313.0</ele><time>2026-04-27T15:54:08.999Z</time></trkpt><trkpt lat="46.1149339" lon="12.1173024"><ele>314.25</ele><time>2026-04-27T15:54:11Z</time></trkpt><trkpt lat="46.1150156" lon="12.1174214"><ele>315.5</ele><time>2026-04-27T15:54:12.999Z</time></trkpt><trkpt lat="46.1151227" lon="12.1174882"><ele>316.75</ele><time>2026-04-27T15:54:14.999Z</time></trkpt><trkpt lat="46.1152362" lon="12.1175227"><ele>318.0</ele><time>2026-04-27T15:54:16.999Z</time></trkpt><trkpt lat="46.1153514" lon="12.1175485"><ele>318.0</ele><time>2026-04-27T15:54:18.999Z</time></trkpt><trkpt lat="46.1154625" lon="12.1175787"><ele>318.0</ele><time>2026-04-27T15:54:20.999Z</time></trkpt><trkpt lat="46.115576" lon="12.1176051"><ele>318.0</ele><time>2026-04-27T15:54:22.999Z</time></trkpt><trkpt lat="46.1156892" lon="12.1176393"><ele>318.0</ele><time>2026-04-27T15:54:25Z</time></trkpt><trkpt lat="46.1158129" lon="12.1176772"><ele>317.5</ele><time>2026-04-27T15:54:26.999Z</time></trkpt><trkpt lat="46.1159358" lon="12.1177066"><ele>317.0</ele><time>2026-04-27T15:54:28.999Z</time></trkpt><trkpt lat="46.1160517" lon="12.1177373"><ele>316.5</ele><time>2026-04-27T15:54:30.999Z</time></trkpt><trkpt lat="46.1161618" lon="12.1177772"><ele>316.0</ele><time>2026-04-27T15:54:33Z</time></trkpt><trkpt lat="46.116275" lon="12.1178054"><ele>316.0</ele><time>2026-04-27T15:54:34.999Z</time></trkpt><trkpt lat="46.1163855" lon="12.1178318"><ele>316.0</ele><time>2026-04-27T15:54:36.999Z</time></trkpt><trkpt lat="46.116497" lon="12.1178525"><ele>316.0</ele><time>2026-04-27T15:54:38.999Z</time></trkpt><trkpt lat="46.1166115" lon="12.117878"><ele>316.0</ele><time>2026-04-27T15:54:40.999Z</time></trkpt><trkpt lat="46.1167242" lon="12.117903"><ele>316.5</ele><time>2026-04-27T15:54:43Z</time></trkpt><trkpt lat="46.1168386" lon="12.1179268"><ele>317.0</ele><time>2026-04-27T15:54:44.999Z</time></trkpt><trkpt lat="46.1169513" lon="12.1179535"><ele>317.5</ele><time>2026-04-27T15:54:46.999Z</time></trkpt><trkpt lat="46.1170611" lon="12.1179804"><ele>318.0</ele><time>2026-04-27T15:54:49Z</time></trkpt><trkpt lat="46.1171752" lon="12.1180121"><ele>318.0</ele><time>2026-04-27T15:54:50.999Z</time></trkpt><trkpt lat="46.1172827" lon="12.1180502"><ele>318.0</ele><time>2026-04-27T15:54:53Z</time></trkpt><trkpt lat="46.1173834" lon="12.1180903"><ele>318.0</ele><time>2026-04-27T15:54:55Z</time></trkpt><trkpt lat="46.1174866" lon="12.1181321"><ele>318.0</ele><time>2026-04-27T15:54:56.999Z</time></trkpt><trkpt lat="46.1175871" lon="12.1181772"><ele>318.0</ele><time>2026-04-27T15:54:58.999Z</time></trkpt><trkpt lat="46.1176869" lon="12.1182189"><ele>318.2</ele><time>2026-04-27T15:55:00.999Z</time></trkpt><trkpt lat="46.1177855" lon="12.118256"><ele>318.4</ele><time>2026-04-27T15:55:02.999Z</time></trkpt><trkpt lat="46.1178876" lon="12.1182986"><ele>318.59999999999997</ele><time>2026-04-27T15:55:05Z</time></trkpt><trkpt lat="46.1179933" lon="12.1183328"><ele>318.8</ele><time>2026-04-27T15:55:06.999Z</time></trkpt><trkpt lat="46.1180964" lon="12.1183508"><ele>319.0</ele><time>2026-04-27T15:55:08.999Z</time></trkpt><trkpt lat="46.1182025" lon="12.1183446"><ele>319.79999999999995</ele><time>2026-04-27T15:55:11Z</time></trkpt><trkpt lat="46.1183068" lon="12.1183492"><ele>320.59999999999997</ele><time>2026-04-27T15:55:13Z</time></trkpt><trkpt lat="46.1184108" lon="12.1183519"><ele>321.4</ele><time>2026-04-27T15:55:14.999Z</time></trkpt><trkpt lat="46.1185125" lon="12.1183648"><ele>322.2</ele><time>2026-04-27T15:55:16.999Z</time></trkpt><trkpt lat="46.1186214" lon="12.1183928"><ele>323.0</ele><time>2026-04-27T15:55:18.999Z</time></trkpt><trkpt lat="46.1187274" lon="12.1184209"><ele>323.0</ele><time>2026-04-27T15:55:20.999Z</time></trkpt><trkpt lat="46.11883" lon="12.1184544"><ele>323.0</ele><time>2026-04-27T15:55:22.999Z</time></trkpt><trkpt lat="46.1189326" lon="12.1184864"><ele>323.0</ele><time>2026-04-27T15:55:24.999Z</time></trkpt><trkpt lat="46.1190379" lon="12.1185145"><ele>323.0</ele><time>2026-04-27T15:55:27Z</time></trkpt><trkpt lat="46.1191374" lon="12.1185375"><ele>323.0</ele><time>2026-04-27T15:55:29Z</time></trkpt><trkpt lat="46.1192431" lon="12.1185586"><ele>323.2</ele><time>2026-04-27T15:55:31Z</time></trkpt><trkpt lat="46.1193462" lon="12.1185839"><ele>323.4</ele><time>2026-04-27T15:55:33Z</time></trkpt><trkpt lat="46.1194559" lon="12.1186072"><ele>323.59999999999997</ele><time>2026-04-27T15:55:34.999Z</time></trkpt><trkpt lat="46.1195683" lon="12.1186491"><ele>323.79999999999995</ele><time>2026-04-27T15:55:36.999Z</time></trkpt><trkpt lat="46.1196761" lon="12.1186959"><ele>324.0</ele><time>2026-04-27T15:55:38.999Z</time></trkpt><trkpt lat="46.1197911" lon="12.1187476"><ele>324.0</ele><time>2026-04-27T15:55:40.999Z</time></trkpt><trkpt lat="46.1198998" lon="12.1188035"><ele>324.0</ele><time>2026-04-27T15:55:42.999Z</time></trkpt><trkpt lat="46.1200142" lon="12.1188684"><ele>324.0</ele><time>2026-04-27T15:55:44.999Z</time></trkpt><trkpt lat="46.1201245" lon="12.1189521"><ele>324.0</ele><time>2026-04-27T15:55:46.999Z</time></trkpt><trkpt lat="46.1202244" lon="12.1190484"><ele>324.0</ele><time>2026-04-27T15:55:48.999Z</time></trkpt><trkpt lat="46.120315" lon="12.1191553"><ele>324.0</ele><time>2026-04-27T15:55:51Z</time></trkpt><trkpt lat="46.1204043" lon="12.1192626"><ele>324.0</ele><time>2026-04-27T15:55:52.999Z</time></trkpt><trkpt lat="46.1205387" lon="12.1194233"><ele>324.0</ele><time>2026-04-27T15:55:56Z</time></trkpt><trkpt lat="46.1206292" lon="12.1195287"><ele>324.0</ele><time>2026-04-27T15:55:58Z</time></trkpt><trkpt lat="46.1207158" lon="12.119631"><ele>324.0</ele><time>2026-04-27T15:56:00Z</time></trkpt><trkpt lat="46.120794" lon="12.1197347"><ele>324.0</ele><time>2026-04-27T15:56:01.999Z</time></trkpt><trkpt lat="46.1208823" lon="12.119846"><ele>324.0</ele><time>2026-04-27T15:56:03.999Z</time></trkpt><trkpt lat="46.1209717" lon="12.1199483"><ele>324.0</ele><time>2026-04-27T15:56:05.999Z</time></trkpt><trkpt lat="46.1210547" lon="12.120052"><ele>324.6</ele><time>2026-04-27T15:56:07.999Z</time></trkpt><trkpt lat="46.1211338" lon="12.1201577"><ele>325.2</ele><time>2026-04-27T15:56:09.999Z</time></trkpt><trkpt lat="46.1212155" lon="12.1202592"><ele>325.8</ele><time>2026-04-27T15:56:11.999Z</time></trkpt><trkpt lat="46.1213028" lon="12.1203582"><ele>326.40000000000003</ele><time>2026-04-27T15:56:14Z</time></trkpt><trkpt lat="46.1213848" lon="12.1204676"><ele>327.0</ele><time>2026-04-27T15:56:15.999Z</time></trkpt><trkpt lat="46.1214816" lon="12.1205662"><ele>326.8</ele><time>2026-04-27T15:56:17.999Z</time></trkpt><trkpt lat="46.1215712" lon="12.1206652"><ele>326.6</ele><time>2026-04-27T15:56:19.999Z</time></trkpt><trkpt lat="46.121657" lon="12.1207656"><ele>326.40000000000003</ele><time>2026-04-27T15:56:21.999Z</time></trkpt><trkpt lat="46.1217418" lon="12.1208668"><ele>326.20000000000005</ele><time>2026-04-27T15:56:23.999Z</time></trkpt><trkpt lat="46.1218223" lon="12.1209729"><ele>326.0</ele><time>2026-04-27T15:56:25.999Z</time></trkpt><trkpt lat="46.1219029" lon="12.1210737"><ele>326.0</ele><time>2026-04-27T15:56:28Z</time></trkpt><trkpt lat="46.1219727" lon="12.1211827"><ele>326.0</ele><time>2026-04-27T15:56:29.999Z</time></trkpt><trkpt lat="46.122038" lon="12.1212962"><ele>326.0</ele><time>2026-04-27T15:56:31.999Z</time></trkpt><trkpt lat="46.1220978" lon="12.1214092"><ele>326.0</ele><time>2026-04-27T15:56:33.999Z</time></trkpt><trkpt lat="46.122157" lon="12.1215241"><ele>326.0</ele><time>2026-04-27T15:56:35.999Z</time></trkpt><trkpt lat="46.1222178" lon="12.1216448"><ele>325.8</ele><time>2026-04-27T15:56:38Z</time></trkpt><trkpt lat="46.1222743" lon="12.1217636"><ele>325.6</ele><time>2026-04-27T15:56:39.999Z</time></trkpt><trkpt lat="46.1223354" lon="12.121879"><ele>325.4</ele><time>2026-04-27T15:56:41.999Z</time></trkpt><trkpt lat="46.1223976" lon="12.1219989"><ele>325.2</ele><time>2026-04-27T15:56:43.999Z</time></trkpt><trkpt lat="46.1224608" lon="12.122114"><ele>325.0</ele><time>2026-04-27T15:56:46Z</time></trkpt><trkpt lat="46.1225239" lon="12.1222272"><ele>325.4</ele><time>2026-04-27T15:56:47.999Z</time></trkpt><trkpt lat="46.1225962" lon="12.122318"><ele>325.8</ele><time>2026-04-27T15:56:49.999Z</time></trkpt><trkpt lat="46.1226871" lon="12.1223673"><ele>326.20000000000005</ele><time>2026-04-27T15:56:51.999Z</time></trkpt><trkpt lat="46.1227918" lon="12.1223793"><ele>326.6</ele><time>2026-04-27T15:56:53.999Z</time></trkpt><trkpt lat="46.1228955" lon="12.1223611"><ele>327.0</ele><time>2026-04-27T15:56:56Z</time></trkpt><trkpt lat="46.1229991" lon="12.1223451"><ele>327.0</ele><time>2026-04-27T15:56:58Z</time></trkpt><trkpt lat="46.1231047" lon="12.1223341"><ele>327.0</ele><time>2026-04-27T15:57:00Z</time></trkpt><trkpt lat="46.1232148" lon="12.1223404"><ele>327.0</ele><time>2026-04-27T15:57:01.999Z</time></trkpt><trkpt lat="46.1233229" lon="12.1223558"><ele>327.0</ele><time>2026-04-27T15:57:03.999Z</time></trkpt><trkpt lat="46.1234316" lon="12.1223751"><ele>327.0</ele><time>2026-04-27T15:57:05.999Z</time></trkpt><trkpt lat="46.1235407" lon="12.1223944"><ele>327.6</ele><time>2026-04-27T15:57:07.999Z</time></trkpt><trkpt lat="46.1236455" lon="12.1224153"><ele>328.20000000000005</ele><time>2026-04-27T15:57:09.999Z</time></trkpt><trkpt lat="46.1237496" lon="12.1224346"><ele>328.8</ele><time>2026-04-27T15:57:11.999Z</time></trkpt><trkpt lat="46.1238537" lon="12.1224541"><ele>329.4</ele><time>2026-04-27T15:57:13.999Z</time></trkpt><trkpt lat="46.1239609" lon="12.1224687"><ele>330.0</ele><time>2026-04-27T15:57:15.999Z</time></trkpt><trkpt lat="46.1240651" lon="12.1224945"><ele>330.4</ele><time>2026-04-27T15:57:17.999Z</time></trkpt><trkpt lat="46.1241638" lon="12.1225247"><ele>330.8</ele><time>2026-04-27T15:57:19.999Z</time></trkpt><trkpt lat="46.1242576" lon="12.1225547"><ele>331.20000000000005</ele><time>2026-04-27T15:57:22Z</time></trkpt><trkpt lat="46.124356" lon="12.1225948"><ele>331.6</ele><time>2026-04-27T15:57:24Z</time></trkpt><trkpt lat="46.1244446" lon="12.1226441"><ele>332.0</ele><time>2026-04-27T15:57:25.999Z</time></trkpt><trkpt lat="46.1245332" lon="12.1226964"><ele>332.0</ele><time>2026-04-27T15:57:27.999Z</time></trkpt><trkpt lat="46.1246193" lon="12.1227585"><ele>332.0</ele><time>2026-04-27T15:57:29.999Z</time></trkpt><trkpt lat="46.1247403" lon="12.1228666"><ele>332.0</ele><time>2026-04-27T15:57:33Z</time></trkpt><trkpt lat="46.1248216" lon="12.1229661"><ele>332.0</ele><time>2026-04-27T15:57:34.999Z</time></trkpt><trkpt lat="46.1248995" lon="12.1230463"><ele>332.0</ele><time>2026-04-27T15:57:36.999Z</time></trkpt><trkpt lat="46.1249783" lon="12.1231256"><ele>333.0</ele><time>2026-04-27T15:57:38.999Z</time></trkpt><trkpt lat="46.1250602" lon="12.1232035"><ele>334.0</ele><time>2026-04-27T15:57:40.999Z</time></trkpt><trkpt lat="46.1251463" lon="12.1232724"><ele>335.0</ele><time>2026-04-27T15:57:43Z</time></trkpt><trkpt lat="46.1252359" lon="12.1233077"><ele>336.0</ele><time>2026-04-27T15:57:45Z</time></trkpt><trkpt lat="46.1253275" lon="12.1233194"><ele>337.0</ele><time>2026-04-27T15:57:46.999Z</time></trkpt><trkpt lat="46.1254316" lon="12.1232879"><ele>337.0</ele><time>2026-04-27T15:57:48.999Z</time></trkpt><trkpt lat="46.1255392" lon="12.1232594"><ele>337.0</ele><time>2026-04-27T15:57:50.999Z</time></trkpt><trkpt lat="46.1256338" lon="12.123217"><ele>337.0</ele><time>2026-04-27T15:57:53Z</time></trkpt><trkpt lat="46.1257163" lon="12.1231514"><ele>337.0</ele><time>2026-04-27T15:57:55Z</time></trkpt><trkpt lat="46.1256428" lon="12.1231272"><ele>337.0</ele><time>2026-04-27T15:58:00Z</time></trkpt><trkpt lat="46.1255729" lon="12.1231893"><ele>337.0</ele><time>2026-04-27T15:58:01.999Z</time></trkpt><trkpt lat="46.1254852" lon="12.1232464"><ele>337.0</ele><time>2026-04-27T15:58:03.999Z</time></trkpt><trkpt lat="46.1253998" lon="12.1233132"><ele>337.0</ele><time>2026-04-27T15:58:05.999Z</time></trkpt><trkpt lat="46.1253205" lon="12.1234036"><ele>337.0</ele><time>2026-04-27T15:58:07.999Z</time></trkpt><trkpt lat="46.1252605" lon="12.1235365"><ele>337.0</ele><time>2026-04-27T15:58:10Z</time></trkpt><trkpt lat="46.1252115" lon="12.1236954"><ele>337.0</ele><time>2026-04-27T15:58:11.999Z</time></trkpt><trkpt lat="46.125182" lon="12.1237777"><ele>337.0</ele><time>2026-04-27T15:58:12.999Z</time></trkpt><trkpt lat="46.1251475" lon="12.1238566"><ele>337.0</ele><time>2026-04-27T15:58:14Z</time></trkpt><trkpt lat="46.125076" lon="12.1240075"><ele>337.0</ele><time>2026-04-27T15:58:16Z</time></trkpt><trkpt lat="46.1250072" lon="12.1241626"><ele>337.0</ele><time>2026-04-27T15:58:17.999Z</time></trkpt><trkpt lat="46.1249711" lon="12.124241"><ele>337.0</ele><time>2026-04-27T15:58:18.999Z</time></trkpt><trkpt lat="46.1249356" lon="12.1243198"><ele>336.7142857142857</ele><time>2026-04-27T15:58:19.999Z</time></trkpt><trkpt lat="46.1249011" lon="12.1243973"><ele>336.42857142857144</ele><time>2026-04-27T15:58:20.999Z</time></trkpt><trkpt lat="46.1248658" lon="12.1244755"><ele>336.1428571428571</ele><time>2026-04-27T15:58:21.999Z</time></trkpt><trkpt lat="46.1248293" lon="12.1245504"><ele>335.8571428571429</ele><time>2026-04-27T15:58:22.999Z</time></trkpt><trkpt lat="46.1247941" lon="12.1246319"><ele>335.57142857142856</ele><time>2026-04-27T15:58:23.999Z</time></trkpt><trkpt lat="46.1247599" lon="12.1247114"><ele>335.2857142857143</ele><time>2026-04-27T15:58:24.999Z</time></trkpt><trkpt lat="46.1247232" lon="12.1247888"><ele>335.0</ele><time>2026-04-27T15:58:25.999Z</time></trkpt><trkpt lat="46.1246886" lon="12.1248677"><ele>334.4</ele><time>2026-04-27T15:58:26.999Z</time></trkpt><trkpt lat="46.1246195" lon="12.1250134"><ele>333.8</ele><time>2026-04-27T15:58:28.999Z</time></trkpt><trkpt lat="46.1245816" lon="12.1250878"><ele>333.20000000000005</ele><time>2026-04-27T15:58:29.999Z</time></trkpt><trkpt lat="46.1245154" lon="12.1252355"><ele>332.6</ele><time>2026-04-27T15:58:31.999Z</time></trkpt><trkpt lat="46.1244811" lon="12.1253136"><ele>332.0</ele><time>2026-04-27T15:58:33Z</time></trkpt><trkpt lat="46.1244152" lon="12.1254551"><ele>332.0</ele><time>2026-04-27T15:58:34.999Z</time></trkpt><trkpt lat="46.124352" lon="12.1255996"><ele>332.0</ele><time>2026-04-27T15:58:36.999Z</time></trkpt><trkpt lat="46.1242917" lon="12.1257448"><ele>332.0</ele><time>2026-04-27T15:58:39Z</time></trkpt><trkpt lat="46.1242353" lon="12.1258848"><ele>332.0</ele><time>2026-04-27T15:58:41Z</time></trkpt><trkpt lat="46.1241863" lon="12.1260311"><ele>332.0</ele><time>2026-04-27T15:58:42.999Z</time></trkpt><trkpt lat="46.1241417" lon="12.1261803"><ele>332.0</ele><time>2026-04-27T15:58:44.999Z</time></trkpt><trkpt lat="46.1240919" lon="12.1263351"><ele>332.0</ele><time>2026-04-27T15:58:46.999Z</time></trkpt><trkpt lat="46.1240437" lon="12.1264867"><ele>332.0</ele><time>2026-04-27T15:58:49Z</time></trkpt><trkpt lat="46.1239973" lon="12.1266395"><ele>331.5</ele><time>2026-04-27T15:58:51Z</time></trkpt><trkpt lat="46.1239503" lon="12.1267937"><ele>331.0</ele><time>2026-04-27T15:58:53Z</time></trkpt><trkpt lat="46.1239026" lon="12.1269496"><ele>330.5</ele><time>2026-04-27T15:58:54.999Z</time></trkpt><trkpt lat="46.1238537" lon="12.127103"><ele>330.0</ele><time>2026-04-27T15:58:57Z</time></trkpt><trkpt lat="46.1238061" lon="12.1272556"><ele>330.0</ele><time>2026-04-27T15:58:58.999Z</time></trkpt><trkpt lat="46.1237552" lon="12.1274174"><ele>330.0</ele><time>2026-04-27T15:59:00.999Z</time></trkpt><trkpt lat="46.1237062" lon="12.1275716"><ele>330.0</ele><time>2026-04-27T15:59:02.999Z</time></trkpt><trkpt lat="46.1236564" lon="12.1277277"><ele>330.0</ele><time>2026-04-27T15:59:04.999Z</time></trkpt><trkpt lat="46.1236072" lon="12.1278842"><ele>330.0</ele><time>2026-04-27T15:59:06.999Z</time></trkpt><trkpt lat="46.1235622" lon="12.1280382"><ele>330.0</ele><time>2026-04-27T15:59:08.999Z</time></trkpt><trkpt lat="46.1235186" lon="12.128185"><ele>330.0</ele><time>2026-04-27T15:59:10.999Z</time></trkpt><trkpt lat="46.1234768" lon="12.12831"><ele>330.0</ele><time>2026-04-27T15:59:12.999Z</time></trkpt><trkpt lat="46.1234409" lon="12.1284226"><ele>330.0</ele><time>2026-04-27T15:59:14.999Z</time></trkpt><trkpt lat="46.1233893" lon="12.1285137"><ele>329.8333333333333</ele><time>2026-04-27T15:59:17Z</time></trkpt><trkpt lat="46.1233364" lon="12.1285765"><ele>329.6666666666667</ele><time>2026-04-27T15:59:18.999Z</time></trkpt><trkpt lat="46.1232639" lon="12.1286587"><ele>329.5</ele><time>2026-04-27T15:59:22Z</time></trkpt><trkpt lat="46.1231834" lon="12.1287102"><ele>329.33333333333337</ele><time>2026-04-27T15:59:24.999Z</time></trkpt><trkpt lat="46.123097" lon="12.1287238"><ele>329.1666666666667</ele><time>2026-04-27T15:59:28Z</time></trkpt><trkpt lat="46.1230044" lon="12.1287336"><ele>329.0</ele><time>2026-04-27T15:59:30.999Z</time></trkpt><trkpt lat="46.122932" lon="12.1287285"><ele>329.0</ele><time>2026-04-27T15:59:32.999Z</time></trkpt><trkpt lat="46.1228521" lon="12.1287205"><ele>329.0</ele><time>2026-04-27T15:59:34.999Z</time></trkpt><trkpt lat="46.1227615" lon="12.1287175"><ele>329.0</ele><time>2026-04-27T15:59:37Z</time></trkpt><trkpt lat="46.1226607" lon="12.1287461"><ele>329.0</ele><time>2026-04-27T15:59:38.999Z</time></trkpt><trkpt lat="46.1225516" lon="12.1288072"><ele>329.0</ele><time>2026-04-27T15:59:40.999Z</time></trkpt><trkpt lat="46.1224436" lon="12.1288546"><ele>328.79999999999995</ele><time>2026-04-27T15:59:42.999Z</time></trkpt><trkpt lat="46.1223351" lon="12.1288186"><ele>328.59999999999997</ele><time>2026-04-27T15:59:44.999Z</time></trkpt><trkpt lat="46.1222361" lon="12.1287572"><ele>328.4</ele><time>2026-04-27T15:59:47Z</time></trkpt><trkpt lat="46.1221391" lon="12.1287234"><ele>328.2</ele><time>2026-04-27T15:59:48.999Z</time></trkpt><trkpt lat="46.1220324" lon="12.1287206"><ele>328.0</ele><time>2026-04-27T15:59:50.999Z</time></trkpt><trkpt lat="46.1219195" lon="12.1287503"><ele>328.0</ele><time>2026-04-27T15:59:53Z</time></trkpt><trkpt lat="46.121812" lon="12.1288086"><ele>328.0</ele><time>2026-04-27T15:59:55Z</time></trkpt><trkpt lat="46.1217053" lon="12.1288851"><ele>328.0</ele><time>2026-04-27T15:59:56.999Z</time></trkpt><trkpt lat="46.1216006" lon="12.1289647"><ele>328.0</ele><time>2026-04-27T15:59:59Z</time></trkpt><trkpt lat="46.1214891" lon="12.1290472"><ele>328.0</ele><time>2026-04-27T16:00:00.999Z</time></trkpt><trkpt lat="46.1213823" lon="12.1291292"><ele>328.0</ele><time>2026-04-27T16:00:02.999Z</time></trkpt><trkpt lat="46.1213284" lon="12.129178"><ele>328.0</ele><time>2026-04-27T16:00:03.999Z</time></trkpt><trkpt lat="46.1212289" lon="12.1292871"><ele>328.0</ele><time>2026-04-27T16:00:06Z</time></trkpt><trkpt lat="46.1211342" lon="12.1294017"><ele>328.0</ele><time>2026-04-27T16:00:07.999Z</time></trkpt><trkpt lat="46.1210475" lon="12.1295168"><ele>328.0</ele><time>2026-04-27T16:00:09.999Z</time></trkpt><trkpt lat="46.1209542" lon="12.1296318"><ele>328.0</ele><time>2026-04-27T16:00:12Z</time></trkpt><trkpt lat="46.1208674" lon="12.1297529"><ele>328.0</ele><time>2026-04-27T16:00:13.999Z</time></trkpt><trkpt lat="46.1207787" lon="12.1298711"><ele>328.0</ele><time>2026-04-27T16:00:15.999Z</time></trkpt><trkpt lat="46.1206936" lon="12.1299901"><ele>328.59999999999997</ele><time>2026-04-27T16:00:17.999Z</time></trkpt><trkpt lat="46.120602" lon="12.1301021"><ele>329.2</ele><time>2026-04-27T16:00:19.999Z</time></trkpt><trkpt lat="46.1205067" lon="12.1302031"><ele>329.8</ele><time>2026-04-27T16:00:21.999Z</time></trkpt><trkpt lat="46.1204065" lon="12.1302614"><ele>330.4</ele><time>2026-04-27T16:00:23.999Z</time></trkpt><trkpt lat="46.1203119" lon="12.1303005"><ele>331.0</ele><time>2026-04-27T16:00:25.999Z</time></trkpt><trkpt lat="46.1202263" lon="12.1303232"><ele>331.0</ele><time>2026-04-27T16:00:27.999Z</time></trkpt><trkpt lat="46.1201397" lon="12.1303039"><ele>331.0</ele><time>2026-04-27T16:00:30Z</time></trkpt><trkpt lat="46.1200494" lon="12.1302312"><ele>331.0</ele><time>2026-04-27T16:00:31.999Z</time></trkpt><trkpt lat="46.1199584" lon="12.1301399"><ele>331.0</ele><time>2026-04-27T16:00:33.999Z</time></trkpt><trkpt lat="46.1198704" lon="12.1300525"><ele>331.0</ele><time>2026-04-27T16:00:35.999Z</time></trkpt><trkpt lat="46.1197833" lon="12.1299479"><ele>332.75</ele><time>2026-04-27T16:00:37.999Z</time></trkpt><trkpt lat="46.119693" lon="12.1298467"><ele>334.5</ele><time>2026-04-27T16:00:39.999Z</time></trkpt><trkpt lat="46.119604" lon="12.1297418"><ele>336.25</ele><time>2026-04-27T16:00:41.999Z</time></trkpt><trkpt lat="46.1195135" lon="12.1296419"><ele>338.0</ele><time>2026-04-27T16:00:43.999Z</time></trkpt><trkpt lat="46.1194248" lon="12.1295389"><ele>338.0</ele><time>2026-04-27T16:00:45.999Z</time></trkpt><trkpt lat="46.1193394" lon="12.1294376"><ele>338.0</ele><time>2026-04-27T16:00:47.999Z</time></trkpt><trkpt lat="46.1192492" lon="12.1293264"><ele>338.0</ele><time>2026-04-27T16:00:50Z</time></trkpt><trkpt lat="46.1191711" lon="12.1292324"><ele>338.0</ele><time>2026-04-27T16:00:51.999Z</time></trkpt><trkpt lat="46.1190971" lon="12.1291268"><ele>338.0</ele><time>2026-04-27T16:00:54Z</time></trkpt><trkpt lat="46.119027" lon="12.1290101"><ele>337.59999999999997</ele><time>2026-04-27T16:00:55.999Z</time></trkpt><trkpt lat="46.1189511" lon="12.1288954"><ele>337.2</ele><time>2026-04-27T16:00:58Z</time></trkpt><trkpt lat="46.1188765" lon="12.1287798"><ele>336.8</ele><time>2026-04-27T16:00:59.999Z</time></trkpt><trkpt lat="46.1188012" lon="12.1286558"><ele>336.4</ele><time>2026-04-27T16:01:01.999Z</time></trkpt><trkpt lat="46.1187292" lon="12.1285353"><ele>336.0</ele><time>2026-04-27T16:01:03.999Z</time></trkpt><trkpt lat="46.1186588" lon="12.128421"><ele>336.0</ele><time>2026-04-27T16:01:05.999Z</time></trkpt><trkpt lat="46.1185894" lon="12.128305"><ele>336.0</ele><time>2026-04-27T16:01:07.999Z</time></trkpt><trkpt lat="46.1185173" lon="12.1281931"><ele>336.0</ele><time>2026-04-27T16:01:09.999Z</time></trkpt><trkpt lat="46.1184288" lon="12.1280917"><ele>336.0</ele><time>2026-04-27T16:01:11.999Z</time></trkpt><trkpt lat="46.118333" lon="12.1280156"><ele>336.0</ele><time>2026-04-27T16:01:13.999Z</time></trkpt><trkpt lat="46.1182347" lon="12.1279526"><ele>333.8</ele><time>2026-04-27T16:01:15.999Z</time></trkpt><trkpt lat="46.1181257" lon="12.1279202"><ele>331.6</ele><time>2026-04-27T16:01:17.999Z</time></trkpt><trkpt lat="46.1180232" lon="12.1279027"><ele>329.4</ele><time>2026-04-27T16:01:19.999Z</time></trkpt><trkpt lat="46.1179183" lon="12.1278953"><ele>327.2</ele><time>2026-04-27T16:01:21.999Z</time></trkpt><trkpt lat="46.117809" lon="12.1279053"><ele>325.0</ele><time>2026-04-27T16:01:23.999Z</time></trkpt><trkpt lat="46.1176885" lon="12.1279016"><ele>325.0</ele><time>2026-04-27T16:01:25.999Z</time></trkpt><trkpt lat="46.1175711" lon="12.1279075"><ele>325.0</ele><time>2026-04-27T16:01:27.999Z</time></trkpt><trkpt lat="46.1174769" lon="12.1279195"><ele>325.0</ele><time>2026-04-27T16:01:30Z</time></trkpt><trkpt lat="46.1174379" lon="12.1279945"><ele>325.0</ele><time>2026-04-27T16:01:32Z</time></trkpt><trkpt lat="46.117503" lon="12.1280567"><ele>325.0</ele><time>2026-04-27T16:01:34.999Z</time></trkpt><trkpt lat="46.1175691" lon="12.1280559"><ele>325.0</ele><time>2026-04-27T16:01:36.999Z</time></trkpt><trkpt lat="46.1176613" lon="12.1280721"><ele>325.0</ele><time>2026-04-27T16:01:39.999Z</time></trkpt><trkpt lat="46.1177534" lon="12.1280691"><ele>325.0</ele><time>2026-04-27T16:01:43Z</time></trkpt><trkpt lat="46.1178452" lon="12.128075"><ele>325.0</ele><time>2026-04-27T16:01:45.999Z</time></trkpt><trkpt lat="46.1179375" lon="12.1280854"><ele>325.0</ele><time>2026-04-27T16:01:49.164Z</time></trkpt><trkpt lat="46.1180221" lon="12.1281111"><ele>325.0</ele><time>2026-04-27T16:01:51.999Z</time></trkpt><trkpt lat="46.1180996" lon="12.1281675"><ele>326.0</ele><time>2026-04-27T16:01:54.999Z</time></trkpt><trkpt lat="46.1181623" lon="12.12825"><ele>327.0</ele><time>2026-04-27T16:01:58Z</time></trkpt><trkpt lat="46.1182086" lon="12.1283548"><ele>328.0</ele><time>2026-04-27T16:02:00.999Z</time></trkpt><trkpt lat="46.1182407" lon="12.128469"><ele>329.0</ele><time>2026-04-27T16:02:04Z</time></trkpt><trkpt lat="46.118261" lon="12.1285932"><ele>330.0</ele><time>2026-04-27T16:02:07Z</time></trkpt><trkpt lat="46.1182727" lon="12.1287201"><ele>331.0</ele><time>2026-04-27T16:02:09.999Z</time></trkpt><trkpt lat="46.1182876" lon="12.1288416"><ele>331.8333333333333</ele><time>2026-04-27T16:02:12.999Z</time></trkpt><trkpt lat="46.1182987" lon="12.1289635"><ele>332.66666666666663</ele><time>2026-04-27T16:02:16Z</time></trkpt><trkpt lat="46.1183153" lon="12.1290861"><ele>333.5</ele><time>2026-04-27T16:02:18.999Z</time></trkpt><trkpt lat="46.1183279" lon="12.1292063"><ele>334.3333333333333</ele><time>2026-04-27T16:02:21.999Z</time></trkpt><trkpt lat="46.1183401" lon="12.1293297"><ele>335.1666666666667</ele><time>2026-04-27T16:02:25Z</time></trkpt><trkpt lat="46.1183581" lon="12.1294489"><ele>336.0</ele><time>2026-04-27T16:02:27.999Z</time></trkpt><trkpt lat="46.1183694" lon="12.1295753"><ele>337.0</ele><time>2026-04-27T16:02:31Z</time></trkpt><trkpt lat="46.11839" lon="12.1296991"><ele>338.0</ele><time>2026-04-27T16:02:33.999Z</time></trkpt><trkpt lat="46.1184059" lon="12.1298247"><ele>339.0</ele><time>2026-04-27T16:02:36.999Z</time></trkpt><trkpt lat="46.1184218" lon="12.1299483"><ele>340.0</ele><time>2026-04-27T16:02:39.999Z</time></trkpt><trkpt lat="46.1184412" lon="12.1300718"><ele>341.0</ele><time>2026-04-27T16:02:42.999Z</time></trkpt><trkpt lat="46.118457" lon="12.1301972"><ele>342.0</ele><time>2026-04-27T16:02:45.999Z</time></trkpt><trkpt lat="46.1184708" lon="12.1303222"><ele>342.8333333333333</ele><time>2026-04-27T16:02:49Z</time></trkpt><trkpt lat="46.1184909" lon="12.130443"><ele>343.6666666666667</ele><time>2026-04-27T16:02:51.999Z</time></trkpt><trkpt lat="46.1185172" lon="12.1305615"><ele>344.5</ele><time>2026-04-27T16:02:54.999Z</time></trkpt><trkpt lat="46.1185384" lon="12.1306813"><ele>345.33333333333337</ele><time>2026-04-27T16:02:58Z</time></trkpt><trkpt lat="46.1185631" lon="12.1307948"><ele>346.1666666666667</ele><time>2026-04-27T16:03:00.999Z</time></trkpt><trkpt lat="46.1185942" lon="12.1308994"><ele>347.0</ele><time>2026-04-27T16:03:03.999Z</time></trkpt><trkpt lat="46.118624" lon="12.1310055"><ele>347.83333333333337</ele><time>2026-04-27T16:03:07Z</time></trkpt><trkpt lat="46.1186498" lon="12.1311131"><ele>348.6666666666667</ele><time>2026-04-27T16:03:09.999Z</time></trkpt><trkpt lat="46.1186774" lon="12.1312121"><ele>349.5</ele><time>2026-04-27T16:03:12.999Z</time></trkpt><trkpt lat="46.118704" lon="12.1313082"><ele>350.3333333333333</ele><time>2026-04-27T16:03:15.999Z</time></trkpt><trkpt lat="46.1187345" lon="12.1314035"><ele>351.16666666666663</ele><time>2026-04-27T16:03:19Z</time></trkpt><trkpt lat="46.1187756" lon="12.1315336"><ele>352.0</ele><time>2026-04-27T16:03:22.999Z</time></trkpt><trkpt lat="46.11881" lon="12.1316247"><ele>353.2857142857143</ele><time>2026-04-27T16:03:25.999Z</time></trkpt><trkpt lat="46.118839" lon="12.1317185"><ele>354.57142857142856</ele><time>2026-04-27T16:03:28.999Z</time></trkpt><trkpt lat="46.1188679" lon="12.1318086"><ele>355.8571428571429</ele><time>2026-04-27T16:03:32Z</time></trkpt><trkpt lat="46.1188971" lon="12.1319034"><ele>357.1428571428571</ele><time>2026-04-27T16:03:34.999Z</time></trkpt><trkpt lat="46.1189265" lon="12.1320063"><ele>358.4285714285714</ele><time>2026-04-27T16:03:38.999Z</time></trkpt><trkpt lat="46.1189611" lon="12.1320891"><ele>359.7142857142857</ele><time>2026-04-27T16:03:41.999Z</time></trkpt><trkpt lat="46.1190087" lon="12.1321659"><ele>361.0</ele><time>2026-04-27T16:03:44.999Z</time></trkpt><trkpt lat="46.1190619" lon="12.1322285"><ele>361.16666666666663</ele><time>2026-04-27T16:03:48Z</time></trkpt><trkpt lat="46.1191239" lon="12.1322945"><ele>361.3333333333333</ele><time>2026-04-27T16:03:51Z</time></trkpt><trkpt lat="46.1191913" lon="12.1323517"><ele>361.5</ele><time>2026-04-27T16:03:53.999Z</time></trkpt><trkpt lat="46.1192608" lon="12.1324201"><ele>361.6666666666667</ele><time>2026-04-27T16:03:56.999Z</time></trkpt><trkpt lat="46.1193146" lon="12.1324973"><ele>361.83333333333337</ele><time>2026-04-27T16:03:59.999Z</time></trkpt><trkpt lat="46.1193657" lon="12.1325888"><ele>362.0</ele><time>2026-04-27T16:04:02.999Z</time></trkpt><trkpt lat="46.1194196" lon="12.1326714"><ele>363.1428571428571</ele><time>2026-04-27T16:04:05.999Z</time></trkpt><trkpt lat="46.1194708" lon="12.1327523"><ele>364.2857142857143</ele><time>2026-04-27T16:04:09Z</time></trkpt><trkpt lat="46.1195224" lon="12.1328319"><ele>365.42857142857144</ele><time>2026-04-27T16:04:11.999Z</time></trkpt><trkpt lat="46.1195767" lon="12.1329034"><ele>366.57142857142856</ele><time>2026-04-27T16:04:14.999Z</time></trkpt><trkpt lat="46.119629" lon="12.1329784"><ele>367.7142857142857</ele><time>2026-04-27T16:04:17.999Z</time></trkpt><trkpt lat="46.1196755" lon="12.1330609"><ele>368.85714285714283</ele><time>2026-04-27T16:04:20.999Z</time></trkpt><trkpt lat="46.1196974" lon="12.1331645"><ele>370.0</ele><time>2026-04-27T16:04:24Z</time></trkpt><trkpt lat="46.1197113" lon="12.1332606"><ele>370.4285714285714</ele><time>2026-04-27T16:04:26.999Z</time></trkpt><trkpt lat="46.1197004" lon="12.1333663"><ele>370.85714285714283</ele><time>2026-04-27T16:04:30.999Z</time></trkpt><trkpt lat="46.1196512" lon="12.1334421"><ele>371.2857142857143</ele><time>2026-04-27T16:04:34.999Z</time></trkpt><trkpt lat="46.1196365" lon="12.1335439"><ele>371.71428571428567</ele><time>2026-04-27T16:04:38Z</time></trkpt><trkpt lat="46.1196394" lon="12.1336383"><ele>372.14285714285717</ele><time>2026-04-27T16:04:41Z</time></trkpt><trkpt lat="46.1196597" lon="12.1337437"><ele>372.57142857142856</ele><time>2026-04-27T16:04:43.999Z</time></trkpt><trkpt lat="46.1196846" lon="12.1338289"><ele>373.0</ele><time>2026-04-27T16:04:47Z</time></trkpt><trkpt lat="46.119708" lon="12.1339286"><ele>373.0</ele><time>2026-04-27T16:04:50Z</time></trkpt><trkpt lat="46.1197183" lon="12.1340267"><ele>373.0</ele><time>2026-04-27T16:04:52.999Z</time></trkpt><trkpt lat="46.119724" lon="12.134132"><ele>373.0</ele><time>2026-04-27T16:04:55.999Z</time></trkpt><trkpt lat="46.1197199" lon="12.1342399"><ele>373.0</ele><time>2026-04-27T16:04:58.999Z</time></trkpt><trkpt lat="46.1197148" lon="12.1343535"><ele>373.0</ele><time>2026-04-27T16:05:01.999Z</time></trkpt><trkpt lat="46.119691" lon="12.1344609"><ele>373.0</ele><time>2026-04-27T16:05:04.999Z</time></trkpt><trkpt lat="46.1196327" lon="12.1345365"><ele>374.0</ele><time>2026-04-27T16:05:07.999Z</time></trkpt><trkpt lat="46.1195796" lon="12.1345929"><ele>375.0</ele><time>2026-04-27T16:05:11Z</time></trkpt><trkpt lat="46.1195129" lon="12.1346441"><ele>376.0</ele><time>2026-04-27T16:05:14Z</time></trkpt><trkpt lat="46.1194522" lon="12.134722"><ele>377.0</ele><time>2026-04-27T16:05:17.999Z</time></trkpt><trkpt lat="46.1194093" lon="12.1347974"><ele>378.0</ele><time>2026-04-27T16:05:20.999Z</time></trkpt><trkpt lat="46.1193532" lon="12.1348587"><ele>379.0</ele><time>2026-04-27T16:05:24Z</time></trkpt><trkpt lat="46.1192948" lon="12.1349268"><ele>380.0</ele><time>2026-04-27T16:05:27.999Z</time></trkpt><trkpt lat="46.1192172" lon="12.1349647"><ele>382.5</ele><time>2026-04-27T16:05:32Z</time></trkpt><trkpt lat="46.1191471" lon="12.135008"><ele>385.0</ele><time>2026-04-27T16:05:36.999Z</time></trkpt><trkpt lat="46.1190825" lon="12.1350448"><ele>387.5</ele><time>2026-04-27T16:05:41Z</time></trkpt><trkpt lat="46.1190286" lon="12.1350993"><ele>390.0</ele><time>2026-04-27T16:05:45Z</time></trkpt><trkpt lat="46.1189589" lon="12.1351496"><ele>392.49999999999994</ele><time>2026-04-27T16:05:49Z</time></trkpt><trkpt lat="46.118917" lon="12.1352534"><ele>395.0</ele><time>2026-04-27T16:05:52.999Z</time></trkpt><trkpt lat="46.1188867" lon="12.1353556"><ele>395.0</ele><time>2026-04-27T16:05:57Z</time></trkpt><trkpt lat="46.1188628" lon="12.1354421"><ele>395.0</ele><time>2026-04-27T16:05:59.999Z</time></trkpt><trkpt lat="46.118842" lon="12.1355361"><ele>395.0</ele><time>2026-04-27T16:06:02.999Z</time></trkpt><trkpt lat="46.1188149" lon="12.1356292"><ele>395.0</ele><time>2026-04-27T16:06:05.999Z</time></trkpt><trkpt lat="46.1187921" lon="12.1357195"><ele>395.0</ele><time>2026-04-27T16:06:09Z</time></trkpt><trkpt lat="46.1187835" lon="12.1358234"><ele>395.0</ele><time>2026-04-27T16:06:11.999Z</time></trkpt><trkpt lat="46.1187904" lon="12.1359251"><ele>395.0</ele><time>2026-04-27T16:06:14.999Z</time></trkpt><trkpt lat="46.1188261" lon="12.1360363"><ele>396.49999999999994</ele><time>2026-04-27T16:06:18.999Z</time></trkpt><trkpt lat="46.1188512" lon="12.1361378"><ele>398.0</ele><time>2026-04-27T16:06:22Z</time></trkpt><trkpt lat="46.1188785" lon="12.1362316"><ele>399.5</ele><time>2026-04-27T16:06:24.999Z</time></trkpt><trkpt lat="46.1189158" lon="12.1363277"><ele>401.0</ele><time>2026-04-27T16:06:28Z</time></trkpt><trkpt lat="46.1189464" lon="12.1364249"><ele>402.49999999999994</ele><time>2026-04-27T16:06:31Z</time></trkpt><trkpt lat="46.11896" lon="12.136529"><ele>404.0</ele><time>2026-04-27T16:06:33.999Z</time></trkpt><trkpt lat="46.1189751" lon="12.1366473"><ele>405.3333333333333</ele><time>2026-04-27T16:06:37Z</time></trkpt><trkpt lat="46.1189902" lon="12.1367756"><ele>406.66666666666663</ele><time>2026-04-27T16:06:39.999Z</time></trkpt><trkpt lat="46.1189998" lon="12.1369057"><ele>408.0</ele><time>2026-04-27T16:06:43Z</time></trkpt><trkpt lat="46.1189754" lon="12.1370298"><ele>409.33333333333337</ele><time>2026-04-27T16:06:45.999Z</time></trkpt><trkpt lat="46.1189308" lon="12.1371428"><ele>410.6666666666667</ele><time>2026-04-27T16:06:49Z</time></trkpt><trkpt lat="46.1188898" lon="12.1372547"><ele>412.0</ele><time>2026-04-27T16:06:51.999Z</time></trkpt><trkpt lat="46.118847" lon="12.1373529"><ele>413.50000000000006</ele><time>2026-04-27T16:06:55Z</time></trkpt><trkpt lat="46.1187835" lon="12.1374757"><ele>415.0</ele><time>2026-04-27T16:06:58.999Z</time></trkpt><trkpt lat="46.1187302" lon="12.1375589"><ele>416.5</ele><time>2026-04-27T16:07:02Z</time></trkpt><trkpt lat="46.1186823" lon="12.1376449"><ele>418.0</ele><time>2026-04-27T16:07:04.999Z</time></trkpt><trkpt lat="46.1186305" lon="12.137734"><ele>419.50000000000006</ele><time>2026-04-27T16:07:07.999Z</time></trkpt><trkpt lat="46.1185853" lon="12.1378456"><ele>421.0</ele><time>2026-04-27T16:07:11Z</time></trkpt><trkpt lat="46.1185577" lon="12.1379304"><ele>421.00000000000006</ele><time>2026-04-27T16:07:12.999Z</time></trkpt><trkpt lat="46.1185413" lon="12.1380268"><ele>421.0</ele><time>2026-04-27T16:07:14.999Z</time></trkpt><trkpt lat="46.1185364" lon="12.1381306"><ele>421.0</ele><time>2026-04-27T16:07:17Z</time></trkpt><trkpt lat="46.1185468" lon="12.138234"><ele>421.0</ele><time>2026-04-27T16:07:18.999Z</time></trkpt><trkpt lat="46.1185704" lon="12.1383307"><ele>421.0</ele><time>2026-04-27T16:07:20.999Z</time></trkpt><trkpt lat="46.1185934" lon="12.138422"><ele>421.00000000000006</ele><time>2026-04-27T16:07:22.999Z</time></trkpt><trkpt lat="46.1186169" lon="12.1385152"><ele>421.0</ele><time>2026-04-27T16:07:24.999Z</time></trkpt><trkpt lat="46.1186434" lon="12.1386032"><ele>421.7142857142857</ele><time>2026-04-27T16:07:26.999Z</time></trkpt><trkpt lat="46.1186706" lon="12.138688"><ele>422.42857142857144</ele><time>2026-04-27T16:07:28.999Z</time></trkpt><trkpt lat="46.1186981" lon="12.1387725"><ele>423.1428571428571</ele><time>2026-04-27T16:07:30.999Z</time></trkpt><trkpt lat="46.1187215" lon="12.1388579"><ele>423.8571428571429</ele><time>2026-04-27T16:07:32.999Z</time></trkpt><trkpt lat="46.1187528" lon="12.1389425"><ele>424.57142857142856</ele><time>2026-04-27T16:07:34.999Z</time></trkpt><trkpt lat="46.1187837" lon="12.1390265"><ele>425.2857142857143</ele><time>2026-04-27T16:07:36.999Z</time></trkpt><trkpt lat="46.1188161" lon="12.1391105"><ele>426.0</ele><time>2026-04-27T16:07:38.999Z</time></trkpt><trkpt lat="46.1188565" lon="12.1391829"><ele>426.3333333333333</ele><time>2026-04-27T16:07:40.999Z</time></trkpt><trkpt lat="46.1189102" lon="12.1392391"><ele>426.66666666666663</ele><time>2026-04-27T16:07:42.999Z</time></trkpt><trkpt lat="46.1189655" lon="12.1392913"><ele>427.0</ele><time>2026-04-27T16:07:45Z</time></trkpt><trkpt lat="46.1190137" lon="12.1393554"><ele>427.3333333333333</ele><time>2026-04-27T16:07:46.999Z</time></trkpt><trkpt lat="46.1190661" lon="12.1394645"><ele>427.66666666666663</ele><time>2026-04-27T16:07:49.999Z</time></trkpt><trkpt lat="46.1191027" lon="12.1395873"><ele>428.0</ele><time>2026-04-27T16:07:52.999Z</time></trkpt><trkpt lat="46.1191368" lon="12.1397121"><ele>428.8571428571429</ele><time>2026-04-27T16:07:55.999Z</time></trkpt><trkpt lat="46.1191666" lon="12.1397988"><ele>429.7142857142857</ele><time>2026-04-27T16:07:58Z</time></trkpt><trkpt lat="46.1191981" lon="12.1398882"><ele>430.57142857142856</ele><time>2026-04-27T16:07:59.999Z</time></trkpt><trkpt lat="46.1192352" lon="12.1399727"><ele>431.42857142857144</ele><time>2026-04-27T16:08:01.999Z</time></trkpt><trkpt lat="46.1192758" lon="12.1400547"><ele>432.2857142857143</ele><time>2026-04-27T16:08:03.999Z</time></trkpt><trkpt lat="46.1193171" lon="12.1401271"><ele>433.14285714285717</ele><time>2026-04-27T16:08:06Z</time></trkpt><trkpt lat="46.1193735" lon="12.1402297"><ele>434.0</ele><time>2026-04-27T16:08:08.999Z</time></trkpt><trkpt lat="46.1194235" lon="12.1403347"><ele>434.8333333333333</ele><time>2026-04-27T16:08:12Z</time></trkpt><trkpt lat="46.1194587" lon="12.1404479"><ele>435.66666666666663</ele><time>2026-04-27T16:08:15Z</time></trkpt><trkpt lat="46.1194947" lon="12.1405631"><ele>436.5</ele><time>2026-04-27T16:08:18Z</time></trkpt><trkpt lat="46.1195244" lon="12.1406854"><ele>437.33333333333337</ele><time>2026-04-27T16:08:20.999Z</time></trkpt><trkpt lat="46.119551" lon="12.1408025"><ele>438.1666666666667</ele><time>2026-04-27T16:08:23.999Z</time></trkpt><trkpt lat="46.1195818" lon="12.1409192"><ele>439.0</ele><time>2026-04-27T16:08:27.127Z</time></trkpt><trkpt lat="46.119614" lon="12.1410327"><ele>439.50000000000006</ele><time>2026-04-27T16:08:29.999Z</time></trkpt><trkpt lat="46.1196462" lon="12.1411452"><ele>440.0</ele><time>2026-04-27T16:08:32.999Z</time></trkpt><trkpt lat="46.1196871" lon="12.1412591"><ele>440.5</ele><time>2026-04-27T16:08:35.999Z</time></trkpt><trkpt lat="46.1197268" lon="12.1413773"><ele>441.0</ele><time>2026-04-27T16:08:38.999Z</time></trkpt><trkpt lat="46.1197648" lon="12.1414935"><ele>441.50000000000006</ele><time>2026-04-27T16:08:41.999Z</time></trkpt><trkpt lat="46.1198082" lon="12.141607"><ele>442.0</ele><time>2026-04-27T16:08:44.999Z</time></trkpt><trkpt lat="46.1198574" lon="12.1417175"><ele>443.50000000000006</ele><time>2026-04-27T16:08:47.999Z</time></trkpt><trkpt lat="46.1199101" lon="12.1418239"><ele>445.0</ele><time>2026-04-27T16:08:50.999Z</time></trkpt><trkpt lat="46.1199524" lon="12.1419376"><ele>446.5</ele><time>2026-04-27T16:08:53.999Z</time></trkpt><trkpt lat="46.1199841" lon="12.1420576"><ele>448.0</ele><time>2026-04-27T16:08:56.999Z</time></trkpt><trkpt lat="46.1200109" lon="12.1421786"><ele>449.50000000000006</ele><time>2026-04-27T16:08:59.999Z</time></trkpt><trkpt lat="46.1200403" lon="12.1422919"><ele>451.0</ele><time>2026-04-27T16:09:03Z</time></trkpt><trkpt lat="46.1200724" lon="12.1424036"><ele>451.33333333333337</ele><time>2026-04-27T16:09:05.999Z</time></trkpt><trkpt lat="46.1201015" lon="12.1425181"><ele>451.6666666666667</ele><time>2026-04-27T16:09:08.999Z</time></trkpt><trkpt lat="46.1201354" lon="12.1426288"><ele>452.0</ele><time>2026-04-27T16:09:11.999Z</time></trkpt><trkpt lat="46.1201762" lon="12.1427361"><ele>452.33333333333337</ele><time>2026-04-27T16:09:14.999Z</time></trkpt><trkpt lat="46.1202119" lon="12.1428429"><ele>452.6666666666667</ele><time>2026-04-27T16:09:17.999Z</time></trkpt><trkpt lat="46.1202482" lon="12.1429449"><ele>453.0</ele><time>2026-04-27T16:09:20.999Z</time></trkpt><trkpt lat="46.1202871" lon="12.1430484"><ele>453.0</ele><time>2026-04-27T16:09:23.999Z</time></trkpt><trkpt lat="46.1203233" lon="12.1431478"><ele>453.0</ele><time>2026-04-27T16:09:27Z</time></trkpt><trkpt lat="46.1203523" lon="12.143252"><ele>453.0</ele><time>2026-04-27T16:09:29.999Z</time></trkpt><trkpt lat="46.1203866" lon="12.1433548"><ele>453.0</ele><time>2026-04-27T16:09:32.999Z</time></trkpt><trkpt lat="46.1204242" lon="12.1434623"><ele>453.0</ele><time>2026-04-27T16:09:35.999Z</time></trkpt><trkpt lat="46.1204666" lon="12.1435598"><ele>453.0</ele><time>2026-04-27T16:09:38.999Z</time></trkpt><trkpt lat="46.1205184" lon="12.143634"><ele>453.42857142857133</ele><time>2026-04-27T16:09:41.999Z</time></trkpt><trkpt lat="46.1205709" lon="12.1436905"><ele>453.85714285714283</ele><time>2026-04-27T16:09:45Z</time></trkpt><trkpt lat="46.1205942" lon="12.1437779"><ele>454.2857142857142</ele><time>2026-04-27T16:09:47.999Z</time></trkpt><trkpt lat="46.1206099" lon="12.1438713"><ele>454.71428571428567</ele><time>2026-04-27T16:09:50.999Z</time></trkpt><trkpt lat="46.1206321" lon="12.1439741"><ele>455.1428571428571</ele><time>2026-04-27T16:09:54Z</time></trkpt><trkpt lat="46.1206521" lon="12.1440785"><ele>455.57142857142856</ele><time>2026-04-27T16:09:56.999Z</time></trkpt><trkpt lat="46.120669" lon="12.1441769"><ele>456.0</ele><time>2026-04-27T16:10:00Z</time></trkpt><trkpt lat="46.120681" lon="12.1442775"><ele>456.5</ele><time>2026-04-27T16:10:03Z</time></trkpt><trkpt lat="46.1206965" lon="12.1443825"><ele>457.0</ele><time>2026-04-27T16:10:05.999Z</time></trkpt><trkpt lat="46.1207148" lon="12.1444884"><ele>457.5</ele><time>2026-04-27T16:10:08.999Z</time></trkpt><trkpt lat="46.1207324" lon="12.1445962"><ele>458.0</ele><time>2026-04-27T16:10:12Z</time></trkpt><trkpt lat="46.1207576" lon="12.1447066"><ele>458.5</ele><time>2026-04-27T16:10:14.999Z</time></trkpt><trkpt lat="46.120788" lon="12.144821"><ele>459.0</ele><time>2026-04-27T16:10:17.999Z</time></trkpt><trkpt lat="46.1208183" lon="12.144941"><ele>460.42857142857144</ele><time>2026-04-27T16:10:20.999Z</time></trkpt><trkpt lat="46.1208267" lon="12.1450316"><ele>461.85714285714283</ele><time>2026-04-27T16:10:22.999Z</time></trkpt><trkpt lat="46.1208187" lon="12.1451312"><ele>463.2857142857143</ele><time>2026-04-27T16:10:24.999Z</time></trkpt><trkpt lat="46.1208086" lon="12.1452223"><ele>464.7142857142857</ele><time>2026-04-27T16:10:27Z</time></trkpt><trkpt lat="46.1207878" lon="12.1453439"><ele>466.1428571428571</ele><time>2026-04-27T16:10:29.999Z</time></trkpt><trkpt lat="46.120782" lon="12.1454802"><ele>467.57142857142856</ele><time>2026-04-27T16:10:32.999Z</time></trkpt><trkpt lat="46.1207839" lon="12.1455756"><ele>469.0</ele><time>2026-04-27T16:10:34.999Z</time></trkpt><trkpt lat="46.1207746" lon="12.1456674"><ele>469.42857142857144</ele><time>2026-04-27T16:10:36.999Z</time></trkpt><trkpt lat="46.120762" lon="12.1457601"><ele>469.8571428571429</ele><time>2026-04-27T16:10:38.999Z</time></trkpt><trkpt lat="46.1207553" lon="12.1458537"><ele>470.2857142857143</ele><time>2026-04-27T16:10:41Z</time></trkpt><trkpt lat="46.1207467" lon="12.145978"><ele>470.7142857142857</ele><time>2026-04-27T16:10:44Z</time></trkpt><trkpt lat="46.1207356" lon="12.1460714"><ele>471.14285714285717</ele><time>2026-04-27T16:10:47Z</time></trkpt><trkpt lat="46.1207796" lon="12.1461553"><ele>471.57142857142856</ele><time>2026-04-27T16:10:56.999Z</time></trkpt><trkpt lat="46.1208636" lon="12.1461009"><ele>472.0</ele><time>2026-04-27T16:10:59.999Z</time></trkpt><trkpt lat="46.1209346" lon="12.1460789"><ele>472.0</ele><time>2026-04-27T16:11:02.999Z</time></trkpt><trkpt lat="46.1208833" lon="12.1460175"><ele>472.0</ele><time>2026-04-27T16:12:18.999Z</time></trkpt><trkpt lat="46.1208013" lon="12.146054"><ele>472.0</ele><time>2026-04-27T16:12:21.999Z</time></trkpt><trkpt lat="46.1207545" lon="12.1461196"><ele>472.0</ele><time>2026-04-27T16:12:24Z</time></trkpt><trkpt lat="46.1207729" lon="12.1462388"><ele>472.0</ele><time>2026-04-27T16:12:26.999Z</time></trkpt><trkpt lat="46.1208113" lon="12.1463159"><ele>472.0</ele><time>2026-04-27T16:12:28.999Z</time></trkpt><trkpt lat="46.1208469" lon="12.1463987"><ele>472.0</ele><time>2026-04-27T16:12:30.999Z</time></trkpt><trkpt lat="46.1208824" lon="12.1464871"><ele>472.00000000000006</ele><time>2026-04-27T16:12:32.999Z</time></trkpt><trkpt lat="46.1209285" lon="12.1465778"><ele>472.0</ele><time>2026-04-27T16:12:34.999Z</time></trkpt><trkpt lat="46.1209805" lon="12.1466668"><ele>472.0</ele><time>2026-04-27T16:12:37Z</time></trkpt><trkpt lat="46.121031" lon="12.1467533"><ele>472.0</ele><time>2026-04-27T16:12:38.999Z</time></trkpt><trkpt lat="46.1210823" lon="12.1468376"><ele>472.00000000000006</ele><time>2026-04-27T16:12:41Z</time></trkpt><trkpt lat="46.1211342" lon="12.1469199"><ele>472.0</ele><time>2026-04-27T16:12:42.999Z</time></trkpt><trkpt lat="46.1211775" lon="12.1470144"><ele>472.0</ele><time>2026-04-27T16:12:45Z</time></trkpt><trkpt lat="46.1212161" lon="12.1471205"><ele>472.00000000000006</ele><time>2026-04-27T16:12:47Z</time></trkpt><trkpt lat="46.1212426" lon="12.1472485"><ele>472.00000000000006</ele><time>2026-04-27T16:12:48.999Z</time></trkpt><trkpt lat="46.1212669" lon="12.1473835"><ele>472.0</ele><time>2026-04-27T16:12:50.999Z</time></trkpt><trkpt lat="46.1212977" lon="12.147521"><ele>472.0</ele><time>2026-04-27T16:12:52.999Z</time></trkpt><trkpt lat="46.1213457" lon="12.1476621"><ele>472.0</ele><time>2026-04-27T16:12:54.999Z</time></trkpt><trkpt lat="46.1213943" lon="12.1477942"><ele>472.00000000000006</ele><time>2026-04-27T16:12:56.999Z</time></trkpt><trkpt lat="46.121457" lon="12.1479235"><ele>472.00000000000006</ele><time>2026-04-27T16:12:59Z</time></trkpt><trkpt lat="46.1215197" lon="12.148051"><ele>472.0</ele><time>2026-04-27T16:13:00.999Z</time></trkpt><trkpt lat="46.1215913" lon="12.148164"><ele>472.0</ele><time>2026-04-27T16:13:02.999Z</time></trkpt><trkpt lat="46.1216769" lon="12.1482872"><ele>471.6666666666667</ele><time>2026-04-27T16:13:04.999Z</time></trkpt><trkpt lat="46.1217249" lon="12.1483543"><ele>471.33333333333337</ele><time>2026-04-27T16:13:06Z</time></trkpt><trkpt lat="46.1218207" lon="12.148476"><ele>471.0</ele><time>2026-04-27T16:13:07.999Z</time></trkpt><trkpt lat="46.1218748" lon="12.1485345"><ele>470.66666666666663</ele><time>2026-04-27T16:13:08.999Z</time></trkpt><trkpt lat="46.1219297" lon="12.1485944"><ele>470.3333333333333</ele><time>2026-04-27T16:13:10Z</time></trkpt><trkpt lat="46.1219781" lon="12.1486553"><ele>470.0</ele><time>2026-04-27T16:13:10.999Z</time></trkpt><trkpt lat="46.1220227" lon="12.1487202"><ele>470.0</ele><time>2026-04-27T16:13:11.999Z</time></trkpt><trkpt lat="46.1221022" lon="12.14886"><ele>470.0</ele><time>2026-04-27T16:13:13.999Z</time></trkpt><trkpt lat="46.1221535" lon="12.149015"><ele>470.0</ele><time>2026-04-27T16:13:16Z</time></trkpt><trkpt lat="46.1222057" lon="12.1491655"><ele>470.0</ele><time>2026-04-27T16:13:17.999Z</time></trkpt><trkpt lat="46.122263" lon="12.1493173"><ele>470.25</ele><time>2026-04-27T16:13:19.999Z</time></trkpt><trkpt lat="46.1223362" lon="12.1495425"><ele>470.5</ele><time>2026-04-27T16:13:22.999Z</time></trkpt><trkpt lat="46.1223694" lon="12.1496997"><ele>470.75</ele><time>2026-04-27T16:13:25Z</time></trkpt><trkpt lat="46.122405" lon="12.1498694"><ele>471.0</ele><time>2026-04-27T16:13:26.999Z</time></trkpt><trkpt lat="46.1224264" lon="12.1500298"><ele>471.20000000000005</ele><time>2026-04-27T16:13:28.999Z</time></trkpt><trkpt lat="46.1224365" lon="12.150186"><ele>471.40000000000003</ele><time>2026-04-27T16:13:30.999Z</time></trkpt><trkpt lat="46.122446" lon="12.1503296"><ele>471.6</ele><time>2026-04-27T16:13:32.999Z</time></trkpt><trkpt lat="46.1224564" lon="12.1504615"><ele>471.8</ele><time>2026-04-27T16:13:34.999Z</time></trkpt><trkpt lat="46.1224625" lon="12.1505805"><ele>472.0</ele><time>2026-04-27T16:13:36.999Z</time></trkpt><trkpt lat="46.1224705" lon="12.1506878"><ele>472.0</ele><time>2026-04-27T16:13:38.999Z</time></trkpt><trkpt lat="46.1225212" lon="12.1507821"><ele>472.00000000000006</ele><time>2026-04-27T16:13:41Z</time></trkpt><trkpt lat="46.122599" lon="12.1508323"><ele>472.00000000000006</ele><time>2026-04-27T16:13:42.999Z</time></trkpt><trkpt lat="46.1226921" lon="12.1508031"><ele>472.0</ele><time>2026-04-27T16:13:44.999Z</time></trkpt><trkpt lat="46.1227833" lon="12.1507384"><ele>472.0</ele><time>2026-04-27T16:13:46.999Z</time></trkpt><trkpt lat="46.1228758" lon="12.1506725"><ele>472.0</ele><time>2026-04-27T16:13:48.999Z</time></trkpt><trkpt lat="46.1229712" lon="12.1506036"><ele>472.00000000000006</ele><time>2026-04-27T16:13:50.999Z</time></trkpt><trkpt lat="46.1230692" lon="12.1505446"><ele>472.00000000000006</ele><time>2026-04-27T16:13:53Z</time></trkpt><trkpt lat="46.1231702" lon="12.1505148"><ele>472.0</ele><time>2026-04-27T16:13:54.999Z</time></trkpt><trkpt lat="46.1232704" lon="12.1505236"><ele>472.0</ele><time>2026-04-27T16:13:56.999Z</time></trkpt><trkpt lat="46.1233611" lon="12.1505806"><ele>472.40000000000003</ele><time>2026-04-27T16:13:58.999Z</time></trkpt><trkpt lat="46.1234482" lon="12.1506473"><ele>472.80000000000007</ele><time>2026-04-27T16:14:01Z</time></trkpt><trkpt lat="46.1235198" lon="12.150739"><ele>473.2</ele><time>2026-04-27T16:14:02.999Z</time></trkpt><trkpt lat="46.1235795" lon="12.1508384"><ele>473.6</ele><time>2026-04-27T16:14:04.999Z</time></trkpt><trkpt lat="46.123632" lon="12.1509448"><ele>474.0</ele><time>2026-04-27T16:14:06.999Z</time></trkpt><trkpt lat="46.1236805" lon="12.1510473"><ele>474.5</ele><time>2026-04-27T16:14:08.999Z</time></trkpt><trkpt lat="46.1237241" lon="12.1511508"><ele>475.0</ele><time>2026-04-27T16:14:10.999Z</time></trkpt><trkpt lat="46.1237683" lon="12.1512547"><ele>475.5</ele><time>2026-04-27T16:14:13Z</time></trkpt><trkpt lat="46.1238131" lon="12.1513462"><ele>476.0</ele><time>2026-04-27T16:14:14.999Z</time></trkpt><trkpt lat="46.1238597" lon="12.1514409"><ele>476.5</ele><time>2026-04-27T16:14:16.999Z</time></trkpt><trkpt lat="46.1239109" lon="12.1515234"><ele>477.0</ele><time>2026-04-27T16:14:19Z</time></trkpt><trkpt lat="46.1239666" lon="12.1515913"><ele>477.57142857142856</ele><time>2026-04-27T16:14:20.999Z</time></trkpt><trkpt lat="46.1240237" lon="12.1516606"><ele>478.1428571428571</ele><time>2026-04-27T16:14:23Z</time></trkpt><trkpt lat="46.1240859" lon="12.1517254"><ele>478.71428571428567</ele><time>2026-04-27T16:14:25Z</time></trkpt><trkpt lat="46.1241293" lon="12.1517962"><ele>479.2857142857142</ele><time>2026-04-27T16:14:27Z</time></trkpt><trkpt lat="46.1241574" lon="12.1518856"><ele>479.85714285714283</ele><time>2026-04-27T16:14:28.999Z</time></trkpt><trkpt lat="46.1241875" lon="12.1519704"><ele>480.42857142857133</ele><time>2026-04-27T16:14:30.999Z</time></trkpt><trkpt lat="46.1242193" lon="12.1520511"><ele>480.99999999999994</ele><time>2026-04-27T16:14:32.999Z</time></trkpt><trkpt lat="46.1242663" lon="12.1521209"><ele>481.1428571428571</ele><time>2026-04-27T16:14:35.999Z</time></trkpt><trkpt lat="46.124331" lon="12.1521259"><ele>481.2857142857143</ele><time>2026-04-27T16:14:38.999Z</time></trkpt><trkpt lat="46.1244004" lon="12.1520999"><ele>481.42857142857144</ele><time>2026-04-27T16:14:41.999Z</time></trkpt><trkpt lat="46.1244551" lon="12.1520415"><ele>481.57142857142856</ele><time>2026-04-27T16:14:45.999Z</time></trkpt><trkpt lat="46.124527" lon="12.151982"><ele>481.7142857142858</ele><time>2026-04-27T16:14:51Z</time></trkpt><trkpt lat="46.1246048" lon="12.1519158"><ele>481.8571428571429</ele><time>2026-04-27T16:14:53.999Z</time></trkpt><trkpt lat="46.1246643" lon="12.1518618"><ele>482.0</ele><time>2026-04-27T16:14:55.999Z</time></trkpt><trkpt lat="46.1247272" lon="12.1518021"><ele>481.99999999999994</ele><time>2026-04-27T16:14:57.999Z</time></trkpt><trkpt lat="46.1247925" lon="12.1517435"><ele>482.0</ele><time>2026-04-27T16:14:59.999Z</time></trkpt><trkpt lat="46.1248562" lon="12.1516835"><ele>482.0</ele><time>2026-04-27T16:15:02Z</time></trkpt><trkpt lat="46.124936" lon="12.1516848"><ele>482.0</ele><time>2026-04-27T16:15:04.999Z</time></trkpt><trkpt lat="46.1249801" lon="12.151808"><ele>481.99999999999994</ele><time>2026-04-27T16:15:07.999Z</time></trkpt><trkpt lat="46.125009" lon="12.1519011"><ele>482.0</ele><time>2026-04-27T16:15:10Z</time></trkpt><trkpt lat="46.1250227" lon="12.1520002"><ele>481.8571428571429</ele><time>2026-04-27T16:15:11.999Z</time></trkpt><trkpt lat="46.1250259" lon="12.1521049"><ele>481.7142857142858</ele><time>2026-04-27T16:15:13.999Z</time></trkpt><trkpt lat="46.1250235" lon="12.1522112"><ele>481.57142857142856</ele><time>2026-04-27T16:15:15.999Z</time></trkpt><trkpt lat="46.1250276" lon="12.1523043"><ele>481.42857142857144</ele><time>2026-04-27T16:15:18Z</time></trkpt><trkpt lat="46.1250463" lon="12.152399"><ele>481.2857142857143</ele><time>2026-04-27T16:15:21.999Z</time></trkpt><trkpt lat="46.1250772" lon="12.1524964"><ele>481.1428571428571</ele><time>2026-04-27T16:16:36Z</time></trkpt><trkpt lat="46.1251401" lon="12.1525654"><ele>480.99999999999994</ele><time>2026-04-27T16:16:40Z</time></trkpt><trkpt lat="46.1252017" lon="12.1526606"><ele>481.1428571428571</ele><time>2026-04-27T16:16:42.999Z</time></trkpt><trkpt lat="46.125252" lon="12.1527326"><ele>481.2857142857143</ele><time>2026-04-27T16:16:44.999Z</time></trkpt><trkpt lat="46.1252996" lon="12.1528151"><ele>481.42857142857144</ele><time>2026-04-27T16:16:46.999Z</time></trkpt><trkpt lat="46.1253431" lon="12.1529048"><ele>481.57142857142856</ele><time>2026-04-27T16:16:49Z</time></trkpt><trkpt lat="46.125381" lon="12.1529934"><ele>481.7142857142858</ele><time>2026-04-27T16:16:50.999Z</time></trkpt><trkpt lat="46.1254204" lon="12.1530821"><ele>481.8571428571429</ele><time>2026-04-27T16:16:53Z</time></trkpt><trkpt lat="46.1254617" lon="12.1531777"><ele>482.0</ele><time>2026-04-27T16:16:54.999Z</time></trkpt><trkpt lat="46.1255047" lon="12.1532818"><ele>482.0</ele><time>2026-04-27T16:16:57Z</time></trkpt><trkpt lat="46.1255435" lon="12.153406"><ele>482.00000000000006</ele><time>2026-04-27T16:16:58.999Z</time></trkpt><trkpt lat="46.1255996" lon="12.1535309"><ele>482.00000000000006</ele><time>2026-04-27T16:17:00.999Z</time></trkpt><trkpt lat="46.1256681" lon="12.1536648"><ele>482.0</ele><time>2026-04-27T16:17:02.999Z</time></trkpt><trkpt lat="46.1257468" lon="12.1537964"><ele>482.0</ele><time>2026-04-27T16:17:04.999Z</time></trkpt><trkpt lat="46.1258333" lon="12.1539337"><ele>481.7142857142857</ele><time>2026-04-27T16:17:07Z</time></trkpt><trkpt lat="46.125878" lon="12.1540007"><ele>481.42857142857144</ele><time>2026-04-27T16:17:07.999Z</time></trkpt><trkpt lat="46.1259198" lon="12.154073"><ele>481.14285714285717</ele><time>2026-04-27T16:17:08.999Z</time></trkpt><trkpt lat="46.1259672" lon="12.1541435"><ele>480.8571428571429</ele><time>2026-04-27T16:17:09.999Z</time></trkpt><trkpt lat="46.1260123" lon="12.1542144"><ele>480.57142857142856</ele><time>2026-04-27T16:17:10.999Z</time></trkpt><trkpt lat="46.1260564" lon="12.1542881"><ele>480.28571428571433</ele><time>2026-04-27T16:17:11.999Z</time></trkpt><trkpt lat="46.1260993" lon="12.1543616"><ele>480.0</ele><time>2026-04-27T16:17:13Z</time></trkpt><trkpt lat="46.1261457" lon="12.1544302"><ele>480.0</ele><time>2026-04-27T16:17:14Z</time></trkpt><trkpt lat="46.1261879" lon="12.1545051"><ele>480.0</ele><time>2026-04-27T16:17:14.999Z</time></trkpt><trkpt lat="46.1262332" lon="12.1545792"><ele>480.0</ele><time>2026-04-27T16:17:15.999Z</time></trkpt><trkpt lat="46.1262833" lon="12.1546503"><ele>480.0</ele><time>2026-04-27T16:17:17Z</time></trkpt><trkpt lat="46.1263325" lon="12.1547207"><ele>480.0</ele><time>2026-04-27T16:17:18Z</time></trkpt><trkpt lat="46.126383" lon="12.1547934"><ele>480.0</ele><time>2026-04-27T16:17:18.999Z</time></trkpt><trkpt lat="46.1264317" lon="12.1548698"><ele>480.0</ele><time>2026-04-27T16:17:19.999Z</time></trkpt><trkpt lat="46.1264795" lon="12.1549447"><ele>479.6666666666667</ele><time>2026-04-27T16:17:21.136Z</time></trkpt><trkpt lat="46.1265748" lon="12.1550919"><ele>479.33333333333337</ele><time>2026-04-27T16:17:22.999Z</time></trkpt><trkpt lat="46.12662" lon="12.1551707"><ele>479.0</ele><time>2026-04-27T16:17:23.999Z</time></trkpt><trkpt lat="46.1266672" lon="12.1552453"><ele>478.6666666666667</ele><time>2026-04-27T16:17:25Z</time></trkpt><trkpt lat="46.12672" lon="12.1553227"><ele>478.33333333333337</ele><time>2026-04-27T16:17:25.999Z</time></trkpt><trkpt lat="46.1267693" lon="12.1553962"><ele>478.0</ele><time>2026-04-27T16:17:26.999Z</time></trkpt><trkpt lat="46.1268178" lon="12.1554672"><ele>478.00000000000006</ele><time>2026-04-27T16:17:27.999Z</time></trkpt><trkpt lat="46.1268657" lon="12.1555424"><ele>478.0</ele><time>2026-04-27T16:17:29Z</time></trkpt><trkpt lat="46.1269143" lon="12.1556173"><ele>478.00000000000006</ele><time>2026-04-27T16:17:29.999Z</time></trkpt><trkpt lat="46.1269607" lon="12.1556866"><ele>478.00000000000006</ele><time>2026-04-27T16:17:30.999Z</time></trkpt><trkpt lat="46.1270101" lon="12.1557582"><ele>478.0</ele><time>2026-04-27T16:17:32Z</time></trkpt><trkpt lat="46.1270549" lon="12.1558376"><ele>478.00000000000006</ele><time>2026-04-27T16:17:33Z</time></trkpt><trkpt lat="46.1270993" lon="12.1559174"><ele>478.00000000000006</ele><time>2026-04-27T16:17:33.999Z</time></trkpt><trkpt lat="46.1271397" lon="12.1560006"><ele>477.8571428571429</ele><time>2026-04-27T16:17:34.999Z</time></trkpt><trkpt lat="46.1271807" lon="12.1560842"><ele>477.7142857142857</ele><time>2026-04-27T16:17:35.999Z</time></trkpt><trkpt lat="46.1272185" lon="12.1561697"><ele>477.57142857142856</ele><time>2026-04-27T16:17:37Z</time></trkpt><trkpt lat="46.127252" lon="12.1562588"><ele>477.42857142857144</ele><time>2026-04-27T16:17:37.999Z</time></trkpt><trkpt lat="46.1272833" lon="12.1563422"><ele>477.2857142857142</ele><time>2026-04-27T16:17:38.999Z</time></trkpt><trkpt lat="46.1273161" lon="12.1564309"><ele>477.1428571428571</ele><time>2026-04-27T16:17:39.999Z</time></trkpt><trkpt lat="46.127346" lon="12.1565194"><ele>477.0</ele><time>2026-04-27T16:17:40.999Z</time></trkpt><trkpt lat="46.1273745" lon="12.1566116"><ele>477.1666666666667</ele><time>2026-04-27T16:17:41.999Z</time></trkpt><trkpt lat="46.1273997" lon="12.1566999"><ele>477.33333333333337</ele><time>2026-04-27T16:17:42.999Z</time></trkpt><trkpt lat="46.1274246" lon="12.1567885"><ele>477.5</ele><time>2026-04-27T16:17:43.999Z</time></trkpt><trkpt lat="46.127445" lon="12.1568746"><ele>477.6666666666667</ele><time>2026-04-27T16:17:45Z</time></trkpt><trkpt lat="46.1274782" lon="12.1570363"><ele>477.83333333333337</ele><time>2026-04-27T16:17:46.999Z</time></trkpt><trkpt lat="46.1275096" lon="12.1571943"><ele>478.0</ele><time>2026-04-27T16:17:48.999Z</time></trkpt><trkpt lat="46.1275352" lon="12.1573522"><ele>478.0</ele><time>2026-04-27T16:17:50.999Z</time></trkpt><trkpt lat="46.1275485" lon="12.1574979"><ele>477.99999999999994</ele><time>2026-04-27T16:17:52.999Z</time></trkpt><trkpt lat="46.1275647" lon="12.1576415"><ele>477.99999999999994</ele><time>2026-04-27T16:17:55Z</time></trkpt><trkpt lat="46.1275829" lon="12.157778"><ele>478.0</ele><time>2026-04-27T16:17:56.999Z</time></trkpt><trkpt lat="46.1276244" lon="12.1579054"><ele>478.0</ele><time>2026-04-27T16:17:58.999Z</time></trkpt><trkpt lat="46.1276777" lon="12.1580161"><ele>478.0</ele><time>2026-04-27T16:18:00.999Z</time></trkpt><trkpt lat="46.1277455" lon="12.1581136"><ele>477.99999999999994</ele><time>2026-04-27T16:18:02.999Z</time></trkpt><trkpt lat="46.1278212" lon="12.1581855"><ele>477.99999999999994</ele><time>2026-04-27T16:18:05Z</time></trkpt><trkpt lat="46.1279017" lon="12.1582499"><ele>478.0</ele><time>2026-04-27T16:18:06.999Z</time></trkpt><trkpt lat="46.127982" lon="12.158305"><ele>478.0</ele><time>2026-04-27T16:18:08.999Z</time></trkpt><trkpt lat="46.1280603" lon="12.1583791"><ele>478.2</ele><time>2026-04-27T16:18:10.999Z</time></trkpt><trkpt lat="46.1281281" lon="12.1584702"><ele>478.4</ele><time>2026-04-27T16:18:12.999Z</time></trkpt><trkpt lat="46.1281904" lon="12.1585715"><ele>478.59999999999997</ele><time>2026-04-27T16:18:14.999Z</time></trkpt><trkpt lat="46.1282417" lon="12.1586884"><ele>478.79999999999995</ele><time>2026-04-27T16:18:16.999Z</time></trkpt><trkpt lat="46.1282888" lon="12.1588013"><ele>479.0</ele><time>2026-04-27T16:18:18.999Z</time></trkpt><trkpt lat="46.1283273" lon="12.1589285"><ele>479.2</ele><time>2026-04-27T16:18:20.999Z</time></trkpt><trkpt lat="46.128355" lon="12.1590584"><ele>479.4</ele><time>2026-04-27T16:18:22.999Z</time></trkpt><trkpt lat="46.1283729" lon="12.1591893"><ele>479.6</ele><time>2026-04-27T16:18:24.999Z</time></trkpt><trkpt lat="46.1283799" lon="12.159321"><ele>479.8</ele><time>2026-04-27T16:18:26.999Z</time></trkpt><trkpt lat="46.1283919" lon="12.1594579"><ele>480.0</ele><time>2026-04-27T16:18:29Z</time></trkpt><trkpt lat="46.128402" lon="12.1596041"><ele>480.0</ele><time>2026-04-27T16:18:30.999Z</time></trkpt><trkpt lat="46.1284178" lon="12.1597524"><ele>480.0</ele><time>2026-04-27T16:18:32.999Z</time></trkpt><trkpt lat="46.1284351" lon="12.1599039"><ele>480.0</ele><time>2026-04-27T16:18:34.999Z</time></trkpt><trkpt lat="46.1284592" lon="12.1600532"><ele>480.0</ele><time>2026-04-27T16:18:36.999Z</time></trkpt><trkpt lat="46.1284843" lon="12.1601941"><ele>480.0</ele><time>2026-04-27T16:18:39Z</time></trkpt><trkpt lat="46.1285271" lon="12.1603394"><ele>480.2</ele><time>2026-04-27T16:18:40.999Z</time></trkpt><trkpt lat="46.1285746" lon="12.1604796"><ele>480.4</ele><time>2026-04-27T16:18:43Z</time></trkpt><trkpt lat="46.1286239" lon="12.1606164"><ele>480.6</ele><time>2026-04-27T16:18:45Z</time></trkpt><trkpt lat="46.128679" lon="12.1607542"><ele>480.8</ele><time>2026-04-27T16:18:47Z</time></trkpt><trkpt lat="46.1287295" lon="12.1608973"><ele>481.0</ele><time>2026-04-27T16:18:49Z</time></trkpt><trkpt lat="46.128787" lon="12.1610332"><ele>480.6</ele><time>2026-04-27T16:18:51.179Z</time></trkpt><trkpt lat="46.1288457" lon="12.1611579"><ele>480.20000000000005</ele><time>2026-04-27T16:18:52.999Z</time></trkpt><trkpt lat="46.1289093" lon="12.1612748"><ele>479.79999999999995</ele><time>2026-04-27T16:18:54.999Z</time></trkpt><trkpt lat="46.1289806" lon="12.1613925"><ele>479.4</ele><time>2026-04-27T16:18:56.999Z</time></trkpt><trkpt lat="46.1290475" lon="12.161502"><ele>479.0</ele><time>2026-04-27T16:18:59Z</time></trkpt><trkpt lat="46.1291222" lon="12.1616062"><ele>479.0</ele><time>2026-04-27T16:19:00.999Z</time></trkpt><trkpt lat="46.129194" lon="12.1617132"><ele>479.0</ele><time>2026-04-27T16:19:02.999Z</time></trkpt><trkpt lat="46.129263" lon="12.1618266"><ele>479.0</ele><time>2026-04-27T16:19:04.999Z</time></trkpt><trkpt lat="46.1293263" lon="12.1619443"><ele>479.0</ele><time>2026-04-27T16:19:06.999Z</time></trkpt><trkpt lat="46.1293833" lon="12.1620618"><ele>479.0</ele><time>2026-04-27T16:19:08.999Z</time></trkpt><trkpt lat="46.1294373" lon="12.162182"><ele>479.0</ele><time>2026-04-27T16:19:10.999Z</time></trkpt><trkpt lat="46.1294967" lon="12.1623085"><ele>479.0</ele><time>2026-04-27T16:19:13Z</time></trkpt><trkpt lat="46.1295493" lon="12.1624376"><ele>479.0</ele><time>2026-04-27T16:19:14.999Z</time></trkpt><trkpt lat="46.1296002" lon="12.1625691"><ele>479.0</ele><time>2026-04-27T16:19:17Z</time></trkpt><trkpt lat="46.1296514" lon="12.1626923"><ele>479.0</ele><time>2026-04-27T16:19:18.999Z</time></trkpt><trkpt lat="46.1297033" lon="12.162802"><ele>479.16666666666663</ele><time>2026-04-27T16:19:20.999Z</time></trkpt><trkpt lat="46.1297574" lon="12.1629103"><ele>479.3333333333333</ele><time>2026-04-27T16:19:23Z</time></trkpt><trkpt lat="46.1298102" lon="12.1630193"><ele>479.5</ele><time>2026-04-27T16:19:24.999Z</time></trkpt><trkpt lat="46.1298575" lon="12.1631213"><ele>479.66666666666663</ele><time>2026-04-27T16:19:26.999Z</time></trkpt><trkpt lat="46.1299092" lon="12.1632213"><ele>479.8333333333333</ele><time>2026-04-27T16:19:28.999Z</time></trkpt><trkpt lat="46.1299675" lon="12.1633214"><ele>480.0</ele><time>2026-04-27T16:19:30.999Z</time></trkpt><trkpt lat="46.1300269" lon="12.1634266"><ele>480.0</ele><time>2026-04-27T16:19:32.999Z</time></trkpt><trkpt lat="46.1300941" lon="12.1635418"><ele>480.0</ele><time>2026-04-27T16:19:34.999Z</time></trkpt><trkpt lat="46.13017" lon="12.1636739"><ele>480.0</ele><time>2026-04-27T16:19:37Z</time></trkpt><trkpt lat="46.1302538" lon="12.1638062"><ele>480.0</ele><time>2026-04-27T16:19:38.999Z</time></trkpt><trkpt lat="46.1302967" lon="12.1638812"><ele>480.0</ele><time>2026-04-27T16:19:39.999Z</time></trkpt><trkpt lat="46.1303399" lon="12.1639594"><ele>480.0</ele><time>2026-04-27T16:19:40.999Z</time></trkpt><trkpt lat="46.1303839" lon="12.1640298"><ele>480.0</ele><time>2026-04-27T16:19:42Z</time></trkpt><trkpt lat="46.1304293" lon="12.164108"><ele>480.0</ele><time>2026-04-27T16:19:42.999Z</time></trkpt><trkpt lat="46.1304794" lon="12.1641893"><ele>480.0</ele><time>2026-04-27T16:19:44Z</time></trkpt><trkpt lat="46.130531" lon="12.1642693"><ele>480.0</ele><time>2026-04-27T16:19:44.999Z</time></trkpt><trkpt lat="46.1305794" lon="12.1643601"><ele>480.0</ele><time>2026-04-27T16:19:46Z</time></trkpt><trkpt lat="46.1306285" lon="12.1644484"><ele>480.0</ele><time>2026-04-27T16:19:47Z</time></trkpt><trkpt lat="46.1306799" lon="12.164541"><ele>479.0</ele><time>2026-04-27T16:19:47.999Z</time></trkpt><trkpt lat="46.1307318" lon="12.1646305"><ele>478.0</ele><time>2026-04-27T16:19:48.999Z</time></trkpt><trkpt lat="46.1307829" lon="12.1647195"><ele>477.0</ele><time>2026-04-27T16:19:50Z</time></trkpt><trkpt lat="46.1308357" lon="12.1648133"><ele>476.0</ele><time>2026-04-27T16:19:51Z</time></trkpt><trkpt lat="46.1308891" lon="12.1649026"><ele>475.0</ele><time>2026-04-27T16:19:52Z</time></trkpt><trkpt lat="46.1309393" lon="12.1649974"><ele>474.0</ele><time>2026-04-27T16:19:52.999Z</time></trkpt><trkpt lat="46.1309909" lon="12.1650911"><ele>474.0</ele><time>2026-04-27T16:19:53.999Z</time></trkpt><trkpt lat="46.1310409" lon="12.1651849"><ele>474.0</ele><time>2026-04-27T16:19:54.999Z</time></trkpt><trkpt lat="46.1310891" lon="12.1652819"><ele>474.0</ele><time>2026-04-27T16:19:55.999Z</time></trkpt><trkpt lat="46.1311363" lon="12.1653796"><ele>474.0</ele><time>2026-04-27T16:19:57Z</time></trkpt><trkpt lat="46.1311804" lon="12.1654717"><ele>474.0</ele><time>2026-04-27T16:19:57.999Z</time></trkpt><trkpt lat="46.131223" lon="12.1655667"><ele>474.0</ele><time>2026-04-27T16:19:59Z</time></trkpt><trkpt lat="46.1312626" lon="12.1656621"><ele>473.5714285714285</ele><time>2026-04-27T16:20:00Z</time></trkpt><trkpt lat="46.1312985" lon="12.1657543"><ele>473.1428571428571</ele><time>2026-04-27T16:20:00.999Z</time></trkpt><trkpt lat="46.1313344" lon="12.1658512"><ele>472.7142857142857</ele><time>2026-04-27T16:20:02Z</time></trkpt><trkpt lat="46.1313703" lon="12.1659425"><ele>472.2857142857143</ele><time>2026-04-27T16:20:03Z</time></trkpt><trkpt lat="46.1314108" lon="12.1660285"><ele>471.8571428571429</ele><time>2026-04-27T16:20:03.999Z</time></trkpt><trkpt lat="46.1314508" lon="12.1661208"><ele>471.4285714285715</ele><time>2026-04-27T16:20:04.999Z</time></trkpt><trkpt lat="46.1314939" lon="12.1662069"><ele>471.00000000000006</ele><time>2026-04-27T16:20:05.999Z</time></trkpt><trkpt lat="46.1315415" lon="12.1662826"><ele>471.1428571428572</ele><time>2026-04-27T16:20:06.999Z</time></trkpt><trkpt lat="46.1315828" lon="12.166354"><ele>471.28571428571433</ele><time>2026-04-27T16:20:08Z</time></trkpt><trkpt lat="46.1316261" lon="12.1664339"><ele>471.42857142857144</ele><time>2026-04-27T16:20:08.999Z</time></trkpt><trkpt lat="46.1316624" lon="12.1665192"><ele>471.5714285714286</ele><time>2026-04-27T16:20:09.999Z</time></trkpt><trkpt lat="46.1316958" lon="12.1666005"><ele>471.7142857142858</ele><time>2026-04-27T16:20:10.999Z</time></trkpt><trkpt lat="46.1317305" lon="12.1666856"><ele>471.85714285714283</ele><time>2026-04-27T16:20:11.999Z</time></trkpt><trkpt lat="46.1317627" lon="12.1667687"><ele>472.0</ele><time>2026-04-27T16:20:13Z</time></trkpt><trkpt lat="46.1317915" lon="12.1668502"><ele>472.0</ele><time>2026-04-27T16:20:13.999Z</time></trkpt><trkpt lat="46.1318428" lon="12.1670089"><ele>472.0</ele><time>2026-04-27T16:20:15.999Z</time></trkpt><trkpt lat="46.1319046" lon="12.167155"><ele>472.0</ele><time>2026-04-27T16:20:17.999Z</time></trkpt><trkpt lat="46.1319827" lon="12.1672811"><ele>472.0</ele><time>2026-04-27T16:20:20Z</time></trkpt><trkpt lat="46.1320676" lon="12.1674038"><ele>471.8</ele><time>2026-04-27T16:20:21.999Z</time></trkpt><trkpt lat="46.132145" lon="12.1675106"><ele>471.6</ele><time>2026-04-27T16:20:23.999Z</time></trkpt><trkpt lat="46.1322121" lon="12.1675905"><ele>471.40000000000003</ele><time>2026-04-27T16:20:25.999Z</time></trkpt><trkpt lat="46.1322749" lon="12.1676739"><ele>471.20000000000005</ele><time>2026-04-27T16:20:27.999Z</time></trkpt><trkpt lat="46.1323601" lon="12.1677459"><ele>471.0</ele><time>2026-04-27T16:20:29.999Z</time></trkpt><trkpt lat="46.1324497" lon="12.1678364"><ele>470.8333333333333</ele><time>2026-04-27T16:20:31.999Z</time></trkpt><trkpt lat="46.1325392" lon="12.1679281"><ele>470.66666666666663</ele><time>2026-04-27T16:20:34Z</time></trkpt><trkpt lat="46.1326153" lon="12.1680029"><ele>470.5</ele><time>2026-04-27T16:20:35.999Z</time></trkpt><trkpt lat="46.1326725" lon="12.168087"><ele>470.3333333333333</ele><time>2026-04-27T16:20:39.999Z</time></trkpt><trkpt lat="46.1326997" lon="12.1681876"><ele>470.16666666666663</ele><time>2026-04-27T16:20:42.999Z</time></trkpt><trkpt lat="46.132731" lon="12.1682737"><ele>470.0</ele><time>2026-04-27T16:20:45Z</time></trkpt><trkpt lat="46.1327658" lon="12.1683724"><ele>469.8</ele><time>2026-04-27T16:20:47Z</time></trkpt><trkpt lat="46.1328094" lon="12.1684842"><ele>469.6</ele><time>2026-04-27T16:20:48.999Z</time></trkpt><trkpt lat="46.1328565" lon="12.1686072"><ele>469.4</ele><time>2026-04-27T16:20:50.999Z</time></trkpt><trkpt lat="46.1328994" lon="12.1687397"><ele>469.2</ele><time>2026-04-27T16:20:52.999Z</time></trkpt><trkpt lat="46.132946" lon="12.1688799"><ele>469.0</ele><time>2026-04-27T16:20:55Z</time></trkpt><trkpt lat="46.1329983" lon="12.1690162"><ele>468.79999999999995</ele><time>2026-04-27T16:20:56.999Z</time></trkpt><trkpt lat="46.1330521" lon="12.1691438"><ele>468.59999999999997</ele><time>2026-04-27T16:20:58.999Z</time></trkpt><trkpt lat="46.1331088" lon="12.1692739"><ele>468.4</ele><time>2026-04-27T16:21:00.999Z</time></trkpt><trkpt lat="46.1331625" lon="12.1694048"><ele>468.2</ele><time>2026-04-27T16:21:03Z</time></trkpt><trkpt lat="46.1332137" lon="12.1695375"><ele>468.0</ele><time>2026-04-27T16:21:05Z</time></trkpt><trkpt lat="46.1332651" lon="12.1696689"><ele>468.2</ele><time>2026-04-27T16:21:06.999Z</time></trkpt><trkpt lat="46.1333168" lon="12.1698002"><ele>468.4</ele><time>2026-04-27T16:21:08.999Z</time></trkpt><trkpt lat="46.1333679" lon="12.169924"><ele>468.59999999999997</ele><time>2026-04-27T16:21:11Z</time></trkpt><trkpt lat="46.1334158" lon="12.1700475"><ele>468.79999999999995</ele><time>2026-04-27T16:21:13.167Z</time></trkpt><trkpt lat="46.1334651" lon="12.1701643"><ele>469.0</ele><time>2026-04-27T16:21:14.999Z</time></trkpt><trkpt lat="46.1335143" lon="12.1702718"><ele>469.00000000000006</ele><time>2026-04-27T16:21:16.999Z</time></trkpt><trkpt lat="46.1335605" lon="12.1703648"><ele>469.0</ele><time>2026-04-27T16:21:19.999Z</time></trkpt><trkpt lat="46.1335951" lon="12.1704545"><ele>469.0</ele><time>2026-04-27T16:21:21.999Z</time></trkpt><trkpt lat="46.1336347" lon="12.1705561"><ele>469.0</ele><time>2026-04-27T16:21:24Z</time></trkpt><trkpt lat="46.1336667" lon="12.170661"><ele>469.00000000000006</ele><time>2026-04-27T16:21:25.999Z</time></trkpt><trkpt lat="46.1336776" lon="12.1707878"><ele>469.0</ele><time>2026-04-27T16:21:27.999Z</time></trkpt><trkpt lat="46.1336645" lon="12.170927"><ele>469.6</ele><time>2026-04-27T16:21:29.999Z</time></trkpt><trkpt lat="46.1336316" lon="12.1710759"><ele>470.2</ele><time>2026-04-27T16:21:31.999Z</time></trkpt><trkpt lat="46.1336011" lon="12.1712297"><ele>470.80000000000007</ele><time>2026-04-27T16:21:33.999Z</time></trkpt><trkpt lat="46.1335745" lon="12.1713866"><ele>471.40000000000003</ele><time>2026-04-27T16:21:35.999Z</time></trkpt><trkpt lat="46.1335512" lon="12.1715376"><ele>472.0</ele><time>2026-04-27T16:21:37.999Z</time></trkpt><trkpt lat="46.1335302" lon="12.1716932"><ele>472.00000000000006</ele><time>2026-04-27T16:21:39.999Z</time></trkpt><trkpt lat="46.1335016" lon="12.171862"><ele>472.0</ele><time>2026-04-27T16:21:41.999Z</time></trkpt><trkpt lat="46.133473" lon="12.172036"><ele>472.0</ele><time>2026-04-27T16:21:43.999Z</time></trkpt><trkpt lat="46.1334587" lon="12.1721287"><ele>472.0</ele><time>2026-04-27T16:21:44.999Z</time></trkpt><trkpt lat="46.1334465" lon="12.1722209"><ele>472.00000000000006</ele><time>2026-04-27T16:21:45.999Z</time></trkpt><trkpt lat="46.1334336" lon="12.1723128"><ele>472.0</ele><time>2026-04-27T16:21:46.999Z</time></trkpt><trkpt lat="46.1334218" lon="12.1724068"><ele>472.0</ele><time>2026-04-27T16:21:48Z</time></trkpt><trkpt lat="46.1334026" lon="12.172586"><ele>472.00000000000006</ele><time>2026-04-27T16:21:49.999Z</time></trkpt><trkpt lat="46.1333854" lon="12.172771"><ele>472.00000000000006</ele><time>2026-04-27T16:21:51.999Z</time></trkpt><trkpt lat="46.1333762" lon="12.1728651"><ele>472.0</ele><time>2026-04-27T16:21:52.999Z</time></trkpt><trkpt lat="46.1333667" lon="12.1729611"><ele>472.0</ele><time>2026-04-27T16:21:54Z</time></trkpt><trkpt lat="46.133359" lon="12.1730583"><ele>472.00000000000006</ele><time>2026-04-27T16:21:54.999Z</time></trkpt><trkpt lat="46.1333492" lon="12.1731523"><ele>472.0</ele><time>2026-04-27T16:21:56Z</time></trkpt><trkpt lat="46.1333455" lon="12.1732487"><ele>472.0</ele><time>2026-04-27T16:21:56.999Z</time></trkpt><trkpt lat="46.1333447" lon="12.1733429"><ele>472.0</ele><time>2026-04-27T16:21:57.999Z</time></trkpt><trkpt lat="46.1333438" lon="12.1734431"><ele>472.00000000000006</ele><time>2026-04-27T16:21:58.999Z</time></trkpt><trkpt lat="46.1333418" lon="12.1735343"><ele>472.0</ele><time>2026-04-27T16:22:00Z</time></trkpt><trkpt lat="46.1333369" lon="12.1737131"><ele>471.57142857142856</ele><time>2026-04-27T16:22:02Z</time></trkpt><trkpt lat="46.1333338" lon="12.1738125"><ele>471.14285714285717</ele><time>2026-04-27T16:22:03Z</time></trkpt><trkpt lat="46.1333218" lon="12.1739158"><ele>470.7142857142857</ele><time>2026-04-27T16:22:04Z</time></trkpt><trkpt lat="46.1333168" lon="12.1740277"><ele>470.2857142857143</ele><time>2026-04-27T16:22:05Z</time></trkpt><trkpt lat="46.133306" lon="12.1741263"><ele>469.8571428571429</ele><time>2026-04-27T16:22:05.999Z</time></trkpt><trkpt lat="46.1332974" lon="12.1742326"><ele>469.42857142857144</ele><time>2026-04-27T16:22:07Z</time></trkpt><trkpt lat="46.1332922" lon="12.1743298"><ele>469.0</ele><time>2026-04-27T16:22:07.999Z</time></trkpt><trkpt lat="46.1332817" lon="12.1744231"><ele>468.33333333333337</ele><time>2026-04-27T16:22:09Z</time></trkpt><trkpt lat="46.1332723" lon="12.1745351"><ele>467.6666666666667</ele><time>2026-04-27T16:22:09.999Z</time></trkpt><trkpt lat="46.1332577" lon="12.174656"><ele>467.0</ele><time>2026-04-27T16:22:10.999Z</time></trkpt><trkpt lat="46.1332459" lon="12.1747755"><ele>466.33333333333337</ele><time>2026-04-27T16:22:12Z</time></trkpt><trkpt lat="46.1332372" lon="12.1748955"><ele>465.6666666666667</ele><time>2026-04-27T16:22:12.999Z</time></trkpt><trkpt lat="46.1332378" lon="12.1750161"><ele>465.0</ele><time>2026-04-27T16:22:14Z</time></trkpt><trkpt lat="46.1332526" lon="12.1751385"><ele>464.1666666666667</ele><time>2026-04-27T16:22:14.999Z</time></trkpt><trkpt lat="46.1332762" lon="12.1752529"><ele>463.33333333333337</ele><time>2026-04-27T16:22:15.999Z</time></trkpt><trkpt lat="46.1333042" lon="12.1753632"><ele>462.5</ele><time>2026-04-27T16:22:17Z</time></trkpt><trkpt lat="46.133332" lon="12.1754797"><ele>461.6666666666667</ele><time>2026-04-27T16:22:18Z</time></trkpt><trkpt lat="46.1333603" lon="12.1755928"><ele>460.83333333333337</ele><time>2026-04-27T16:22:18.999Z</time></trkpt><trkpt lat="46.1333841" lon="12.175694"><ele>460.0</ele><time>2026-04-27T16:22:19.999Z</time></trkpt><trkpt lat="46.1334013" lon="12.1757949"><ele>460.0</ele><time>2026-04-27T16:22:21Z</time></trkpt><trkpt lat="46.1334395" lon="12.1759415"><ele>460.0</ele><time>2026-04-27T16:22:23Z</time></trkpt><trkpt lat="46.1335116" lon="12.175974"><ele>460.0</ele><time>2026-04-27T16:22:24.999Z</time></trkpt><trkpt lat="46.1335842" lon="12.1759292"><ele>460.0</ele><time>2026-04-27T16:22:26.998Z</time></trkpt><trkpt lat="46.1336869" lon="12.17589"><ele>460.0</ele><time>2026-04-27T16:22:28.999Z</time></trkpt><trkpt lat="46.1337984" lon="12.1758517"><ele>460.00000000000006</ele><time>2026-04-27T16:22:30.999Z</time></trkpt><trkpt lat="46.1339196" lon="12.175808"><ele>460.0</ele><time>2026-04-27T16:22:32.999Z</time></trkpt><trkpt lat="46.1339827" lon="12.1757886"><ele>460.0</ele><time>2026-04-27T16:22:33.999Z</time></trkpt><trkpt lat="46.1340455" lon="12.175774"><ele>460.0</ele><time>2026-04-27T16:22:34.999Z</time></trkpt><trkpt lat="46.1341697" lon="12.1757647"><ele>460.00000000000006</ele><time>2026-04-27T16:22:36.999Z</time></trkpt><trkpt lat="46.1342333" lon="12.1757613"><ele>460.0</ele><time>2026-04-27T16:22:37.999Z</time></trkpt><trkpt lat="46.1343529" lon="12.1757628"><ele>460.00000000000006</ele><time>2026-04-27T16:22:39.999Z</time></trkpt><trkpt lat="46.1344613" lon="12.1757759"><ele>460.0</ele><time>2026-04-27T16:22:41.999Z</time></trkpt><trkpt lat="46.1345808" lon="12.1758016"><ele>460.0</ele><time>2026-04-27T16:22:44Z</time></trkpt><trkpt lat="46.1346476" lon="12.175807"><ele>460.0</ele><time>2026-04-27T16:22:45Z</time></trkpt><trkpt lat="46.1347174" lon="12.1758104"><ele>460.00000000000006</ele><time>2026-04-27T16:22:46Z</time></trkpt><trkpt lat="46.1347916" lon="12.1758146"><ele>460.0</ele><time>2026-04-27T16:22:46.999Z</time></trkpt><trkpt lat="46.1348624" lon="12.1758153"><ele>460.0</ele><time>2026-04-27T16:22:47.999Z</time></trkpt><trkpt lat="46.1349304" lon="12.1758133"><ele>460.0</ele><time>2026-04-27T16:22:49Z</time></trkpt><trkpt lat="46.1350559" lon="12.1758164"><ele>460.0</ele><time>2026-04-27T16:22:51.138Z</time></trkpt><trkpt lat="46.135166" lon="12.1758482"><ele>460.0</ele><time>2026-04-27T16:22:52.999Z</time></trkpt><trkpt lat="46.135264" lon="12.1758953"><ele>460.0</ele><time>2026-04-27T16:22:54.999Z</time></trkpt><trkpt lat="46.1353526" lon="12.1759417"><ele>460.00000000000006</ele><time>2026-04-27T16:22:56.999Z</time></trkpt><trkpt lat="46.1354372" lon="12.1759853"><ele>460.0</ele><time>2026-04-27T16:22:58.999Z</time></trkpt><trkpt lat="46.1355167" lon="12.1760241"><ele>460.0</ele><time>2026-04-27T16:23:01Z</time></trkpt><trkpt lat="46.1355894" lon="12.1760728"><ele>460.0</ele><time>2026-04-27T16:23:02.999Z</time></trkpt><trkpt lat="46.135659" lon="12.176108"><ele>460.00000000000006</ele><time>2026-04-27T16:23:04.999Z</time></trkpt><trkpt lat="46.1357265" lon="12.1761233"><ele>460.0</ele><time>2026-04-27T16:23:06.999Z</time></trkpt><trkpt lat="46.1357935" lon="12.1761236"><ele>460.99999999999994</ele><time>2026-04-27T16:23:08.999Z</time></trkpt><trkpt lat="46.1358567" lon="12.1761234"><ele>462.0</ele><time>2026-04-27T16:23:10.999Z</time></trkpt><trkpt lat="46.1359353" lon="12.1761368"><ele>462.99999999999994</ele><time>2026-04-27T16:23:14Z</time></trkpt><trkpt lat="46.1360036" lon="12.1761515"><ele>463.99999999999994</ele><time>2026-04-27T16:23:17Z</time></trkpt><trkpt lat="46.1360744" lon="12.1761889"><ele>465.0</ele><time>2026-04-27T16:23:20.999Z</time></trkpt><trkpt lat="46.1361236" lon="12.1762457"><ele>465.99999999999994</ele><time>2026-04-27T16:23:23.999Z</time></trkpt><trkpt lat="46.1361774" lon="12.1763314"><ele>466.99999999999994</ele><time>2026-04-27T16:23:26.999Z</time></trkpt><trkpt lat="46.1362434" lon="12.176427"><ele>467.0</ele><time>2026-04-27T16:23:30Z</time></trkpt><trkpt lat="46.1362829" lon="12.1765128"><ele>467.00000000000006</ele><time>2026-04-27T16:23:31.999Z</time></trkpt><trkpt lat="46.1363327" lon="12.1766072"><ele>467.00000000000006</ele><time>2026-04-27T16:23:34Z</time></trkpt><trkpt lat="46.1363885" lon="12.1767295"><ele>467.0</ele><time>2026-04-27T16:23:35.999Z</time></trkpt><trkpt lat="46.1364448" lon="12.1768626"><ele>467.0</ele><time>2026-04-27T16:23:37.999Z</time></trkpt><trkpt lat="46.1365026" lon="12.1770087"><ele>467.20000000000005</ele><time>2026-04-27T16:23:39.999Z</time></trkpt><trkpt lat="46.1365546" lon="12.1771602"><ele>467.40000000000003</ele><time>2026-04-27T16:23:41.999Z</time></trkpt><trkpt lat="46.1366191" lon="12.1773075"><ele>467.59999999999997</ele><time>2026-04-27T16:23:43.999Z</time></trkpt><trkpt lat="46.136652" lon="12.1773875"><ele>467.79999999999995</ele><time>2026-04-27T16:23:44.999Z</time></trkpt><trkpt lat="46.1366831" lon="12.1774671"><ele>468.0</ele><time>2026-04-27T16:23:45.999Z</time></trkpt><trkpt lat="46.1367439" lon="12.1776201"><ele>467.4</ele><time>2026-04-27T16:23:48Z</time></trkpt><trkpt lat="46.1368058" lon="12.1777756"><ele>466.79999999999995</ele><time>2026-04-27T16:23:50Z</time></trkpt><trkpt lat="46.1368346" lon="12.1778581"><ele>466.2</ele><time>2026-04-27T16:23:51Z</time></trkpt><trkpt lat="46.1368907" lon="12.1780171"><ele>465.6</ele><time>2026-04-27T16:23:53Z</time></trkpt><trkpt lat="46.1369431" lon="12.1781659"><ele>465.0</ele><time>2026-04-27T16:23:54.999Z</time></trkpt><trkpt lat="46.1369738" lon="12.1782458"><ele>464.75</ele><time>2026-04-27T16:23:56Z</time></trkpt><trkpt lat="46.1370469" lon="12.1784738"><ele>464.5</ele><time>2026-04-27T16:23:58.999Z</time></trkpt><trkpt lat="46.1370945" lon="12.1786319"><ele>464.25</ele><time>2026-04-27T16:24:00.999Z</time></trkpt><trkpt lat="46.1371371" lon="12.1787797"><ele>464.0</ele><time>2026-04-27T16:24:02.999Z</time></trkpt><trkpt lat="46.1371671" lon="12.1789301"><ele>463.4</ele><time>2026-04-27T16:24:05Z</time></trkpt><trkpt lat="46.1371891" lon="12.1790749"><ele>462.79999999999995</ele><time>2026-04-27T16:24:06.999Z</time></trkpt><trkpt lat="46.1372059" lon="12.1792095"><ele>462.20000000000005</ele><time>2026-04-27T16:24:08.999Z</time></trkpt><trkpt lat="46.1372187" lon="12.179344"><ele>461.6</ele><time>2026-04-27T16:24:11Z</time></trkpt><trkpt lat="46.137242" lon="12.1794737"><ele>461.0</ele><time>2026-04-27T16:24:13Z</time></trkpt><trkpt lat="46.1372584" lon="12.1796053"><ele>461.0</ele><time>2026-04-27T16:24:15Z</time></trkpt><trkpt lat="46.1372841" lon="12.1797267"><ele>461.0</ele><time>2026-04-27T16:24:16.999Z</time></trkpt><trkpt lat="46.1373151" lon="12.1798529"><ele>461.0</ele><time>2026-04-27T16:24:18.999Z</time></trkpt><trkpt lat="46.1373515" lon="12.1799761"><ele>461.0</ele><time>2026-04-27T16:24:21.127Z</time></trkpt><trkpt lat="46.1373881" lon="12.180099"><ele>461.0</ele><time>2026-04-27T16:24:22.999Z</time></trkpt><trkpt lat="46.1374174" lon="12.1802291"><ele>462.0</ele><time>2026-04-27T16:24:25Z</time></trkpt><trkpt lat="46.1374368" lon="12.1803687"><ele>463.0</ele><time>2026-04-27T16:24:26.999Z</time></trkpt><trkpt lat="46.1374506" lon="12.1805219"><ele>464.0</ele><time>2026-04-27T16:24:28.999Z</time></trkpt><trkpt lat="46.1374652" lon="12.180676"><ele>465.0</ele><time>2026-04-27T16:24:30.999Z</time></trkpt><trkpt lat="46.1374867" lon="12.1808383"><ele>466.0</ele><time>2026-04-27T16:24:32.999Z</time></trkpt><trkpt lat="46.1375106" lon="12.1809971"><ele>466.0</ele><time>2026-04-27T16:24:35Z</time></trkpt><trkpt lat="46.137529" lon="12.1811545"><ele>466.0</ele><time>2026-04-27T16:24:36.999Z</time></trkpt><trkpt lat="46.1375563" lon="12.1813163"><ele>466.0</ele><time>2026-04-27T16:24:38.999Z</time></trkpt><trkpt lat="46.137587" lon="12.1814765"><ele>466.0</ele><time>2026-04-27T16:24:41Z</time></trkpt><trkpt lat="46.1376192" lon="12.1816345"><ele>466.20000000000005</ele><time>2026-04-27T16:24:43Z</time></trkpt><trkpt lat="46.1376465" lon="12.1817742"><ele>466.40000000000003</ele><time>2026-04-27T16:24:45Z</time></trkpt><trkpt lat="46.1376788" lon="12.1819012"><ele>466.6</ele><time>2026-04-27T16:24:46.999Z</time></trkpt><trkpt lat="46.137705" lon="12.1820373"><ele>466.8</ele><time>2026-04-27T16:24:48.999Z</time></trkpt><trkpt lat="46.1377375" lon="12.182177"><ele>467.0</ele><time>2026-04-27T16:24:50.999Z</time></trkpt><trkpt lat="46.1377742" lon="12.1823254"><ele>466.25</ele><time>2026-04-27T16:24:53Z</time></trkpt><trkpt lat="46.1378101" lon="12.1824695"><ele>465.5</ele><time>2026-04-27T16:24:55Z</time></trkpt><trkpt lat="46.1378494" lon="12.1826264"><ele>464.75</ele><time>2026-04-27T16:24:56.999Z</time></trkpt><trkpt lat="46.1378987" lon="12.1827707"><ele>464.0</ele><time>2026-04-27T16:24:58.999Z</time></trkpt><trkpt lat="46.1379526" lon="12.182921"><ele>464.0</ele><time>2026-04-27T16:25:00.999Z</time></trkpt><trkpt lat="46.138018" lon="12.1830689"><ele>464.0</ele><time>2026-04-27T16:25:02.999Z</time></trkpt><trkpt lat="46.1380797" lon="12.1832079"><ele>464.0</ele><time>2026-04-27T16:25:04.999Z</time></trkpt><trkpt lat="46.138134" lon="12.1833498"><ele>464.0</ele><time>2026-04-27T16:25:06.999Z</time></trkpt><trkpt lat="46.1381856" lon="12.1834936"><ele>464.2</ele><time>2026-04-27T16:25:09Z</time></trkpt><trkpt lat="46.1382373" lon="12.1836219"><ele>464.4</ele><time>2026-04-27T16:25:10.999Z</time></trkpt><trkpt lat="46.1382843" lon="12.1837312"><ele>464.6</ele><time>2026-04-27T16:25:12.999Z</time></trkpt><trkpt lat="46.1383672" lon="12.1837629"><ele>464.8</ele><time>2026-04-27T16:25:14.999Z</time></trkpt><trkpt lat="46.1384506" lon="12.1836908"><ele>465.0</ele><time>2026-04-27T16:25:16.999Z</time></trkpt><trkpt lat="46.1385603" lon="12.1836077"><ele>465.0</ele><time>2026-04-27T16:25:18.999Z</time></trkpt><trkpt lat="46.1386158" lon="12.1835646"><ele>465.0</ele><time>2026-04-27T16:25:20Z</time></trkpt><trkpt lat="46.1386776" lon="12.1835162"><ele>465.0</ele><time>2026-04-27T16:25:21Z</time></trkpt><trkpt lat="46.1387421" lon="12.1834675"><ele>465.0</ele><time>2026-04-27T16:25:21.999Z</time></trkpt><trkpt lat="46.1388007" lon="12.1834135"><ele>465.0</ele><time>2026-04-27T16:25:22.999Z</time></trkpt><trkpt lat="46.1388678" lon="12.1833651"><ele>465.0</ele><time>2026-04-27T16:25:24Z</time></trkpt><trkpt lat="46.1389352" lon="12.1833211"><ele>465.0</ele><time>2026-04-27T16:25:25Z</time></trkpt><trkpt lat="46.138999" lon="12.1832765"><ele>464.5</ele><time>2026-04-27T16:25:25.999Z</time></trkpt><trkpt lat="46.139065" lon="12.1832275"><ele>464.0</ele><time>2026-04-27T16:25:27Z</time></trkpt><trkpt lat="46.1391294" lon="12.1831761"><ele>463.5</ele><time>2026-04-27T16:25:27.999Z</time></trkpt><trkpt lat="46.1391968" lon="12.1831279"><ele>463.0</ele><time>2026-04-27T16:25:28.999Z</time></trkpt><trkpt lat="46.1392683" lon="12.1830769"><ele>462.5</ele><time>2026-04-27T16:25:29.999Z</time></trkpt><trkpt lat="46.1393393" lon="12.1830261"><ele>462.0</ele><time>2026-04-27T16:25:30.999Z</time></trkpt><trkpt lat="46.1394162" lon="12.1829728"><ele>461.3333333333333</ele><time>2026-04-27T16:25:31.999Z</time></trkpt><trkpt lat="46.139494" lon="12.1829242"><ele>460.66666666666663</ele><time>2026-04-27T16:25:32.999Z</time></trkpt><trkpt lat="46.1395778" lon="12.1828854"><ele>460.0</ele><time>2026-04-27T16:25:34Z</time></trkpt><trkpt lat="46.1396626" lon="12.1828589"><ele>459.3333333333333</ele><time>2026-04-27T16:25:35Z</time></trkpt><trkpt lat="46.1397503" lon="12.1828501"><ele>458.66666666666663</ele><time>2026-04-27T16:25:35.999Z</time></trkpt><trkpt lat="46.1398353" lon="12.1828561"><ele>458.0</ele><time>2026-04-27T16:25:37Z</time></trkpt><trkpt lat="46.1399148" lon="12.1828658"><ele>457.99999999999994</ele><time>2026-04-27T16:25:37.999Z</time></trkpt><trkpt lat="46.1399958" lon="12.1828781"><ele>458.0</ele><time>2026-04-27T16:25:39Z</time></trkpt><trkpt lat="46.1400729" lon="12.1828879"><ele>458.0</ele><time>2026-04-27T16:25:40Z</time></trkpt><trkpt lat="46.1401465" lon="12.1828917"><ele>458.0</ele><time>2026-04-27T16:25:41Z</time></trkpt><trkpt lat="46.1402191" lon="12.1828837"><ele>457.99999999999994</ele><time>2026-04-27T16:25:42Z</time></trkpt><trkpt lat="46.1402847" lon="12.1828708"><ele>458.0</ele><time>2026-04-27T16:25:42.999Z</time></trkpt><trkpt lat="46.1404045" lon="12.1828314"><ele>457.99999999999994</ele><time>2026-04-27T16:25:44.999Z</time></trkpt><trkpt lat="46.1404946" lon="12.1827958"><ele>458.0</ele><time>2026-04-27T16:25:46.999Z</time></trkpt><trkpt lat="46.1405604" lon="12.1827921"><ele>458.0</ele><time>2026-04-27T16:25:48.999Z</time></trkpt><trkpt lat="46.1406163" lon="12.1828544"><ele>458.0</ele><time>2026-04-27T16:25:59.999Z</time></trkpt><trkpt lat="46.1406417" lon="12.1829806"><ele>457.99999999999994</ele><time>2026-04-27T16:26:02.999Z</time></trkpt><trkpt lat="46.140653" lon="12.1831003"><ele>458.0</ele><time>2026-04-27T16:26:04.999Z</time></trkpt><trkpt lat="46.1406708" lon="12.1832386"><ele>457.79999999999995</ele><time>2026-04-27T16:26:06.999Z</time></trkpt><trkpt lat="46.1406888" lon="12.1833772"><ele>457.59999999999997</ele><time>2026-04-27T16:26:08.999Z</time></trkpt><trkpt lat="46.1407449" lon="12.1835061"><ele>457.40000000000003</ele><time>2026-04-27T16:26:11Z</time></trkpt><trkpt lat="46.1408543" lon="12.1835368"><ele>457.20000000000005</ele><time>2026-04-27T16:26:12.999Z</time></trkpt><trkpt lat="46.1409735" lon="12.1835135"><ele>457.0</ele><time>2026-04-27T16:26:14.999Z</time></trkpt><trkpt lat="46.1410867" lon="12.1834851"><ele>456.5</ele><time>2026-04-27T16:26:17Z</time></trkpt><trkpt lat="46.1412024" lon="12.1834605"><ele>456.0</ele><time>2026-04-27T16:26:18.999Z</time></trkpt><trkpt lat="46.1413125" lon="12.1834294"><ele>455.5</ele><time>2026-04-27T16:26:20.999Z</time></trkpt><trkpt lat="46.1414254" lon="12.1834031"><ele>455.0</ele><time>2026-04-27T16:26:22.999Z</time></trkpt><trkpt lat="46.1415452" lon="12.1833783"><ele>455.8</ele><time>2026-04-27T16:26:24.999Z</time></trkpt><trkpt lat="46.1416575" lon="12.1833529"><ele>456.6</ele><time>2026-04-27T16:26:26.999Z</time></trkpt><trkpt lat="46.141768" lon="12.1833277"><ele>457.4</ele><time>2026-04-27T16:26:29Z</time></trkpt><trkpt lat="46.1418725" lon="12.1832919"><ele>458.2</ele><time>2026-04-27T16:26:31Z</time></trkpt><trkpt lat="46.141966" lon="12.1832542"><ele>459.0</ele><time>2026-04-27T16:26:33Z</time></trkpt><trkpt lat="46.1420529" lon="12.1832113"><ele>459.1666666666667</ele><time>2026-04-27T16:26:34.999Z</time></trkpt><trkpt lat="46.1421319" lon="12.1831655"><ele>459.33333333333337</ele><time>2026-04-27T16:26:36.999Z</time></trkpt><trkpt lat="46.1422051" lon="12.1831287"><ele>459.5</ele><time>2026-04-27T16:26:38.999Z</time></trkpt><trkpt lat="46.142279" lon="12.1830945"><ele>459.6666666666667</ele><time>2026-04-27T16:26:41Z</time></trkpt><trkpt lat="46.1423501" lon="12.1830599"><ele>459.83333333333337</ele><time>2026-04-27T16:26:42.999Z</time></trkpt><trkpt lat="46.1424231" lon="12.1830252"><ele>460.0</ele><time>2026-04-27T16:26:45Z</time></trkpt><trkpt lat="46.1424995" lon="12.1829873"><ele>460.00000000000006</ele><time>2026-04-27T16:26:46.999Z</time></trkpt><trkpt lat="46.1425779" lon="12.1829512"><ele>460.0</ele><time>2026-04-27T16:26:48.999Z</time></trkpt><trkpt lat="46.142656" lon="12.1829141"><ele>460.0</ele><time>2026-04-27T16:26:51Z</time></trkpt><trkpt lat="46.142736" lon="12.1829194"><ele>460.0</ele><time>2026-04-27T16:26:53Z</time></trkpt><trkpt lat="46.1428065" lon="12.1829793"><ele>460.00000000000006</ele><time>2026-04-27T16:26:54.999Z</time></trkpt><trkpt lat="46.1428691" lon="12.1830627"><ele>460.0</ele><time>2026-04-27T16:26:57Z</time></trkpt><trkpt lat="46.1429319" lon="12.1831452"><ele>460.33333333333337</ele><time>2026-04-27T16:26:59Z</time></trkpt><trkpt lat="46.1429956" lon="12.1832325"><ele>460.6666666666667</ele><time>2026-04-27T16:27:00.999Z</time></trkpt><trkpt lat="46.1430633" lon="12.1833122"><ele>461.0</ele><time>2026-04-27T16:27:02.999Z</time></trkpt><trkpt lat="46.1431134" lon="12.1834243"><ele>461.33333333333337</ele><time>2026-04-27T16:27:04.999Z</time></trkpt><trkpt lat="46.1431638" lon="12.1835321"><ele>461.6666666666667</ele><time>2026-04-27T16:27:06.999Z</time></trkpt><trkpt lat="46.1432176" lon="12.1836325"><ele>462.0</ele><time>2026-04-27T16:27:08.999Z</time></trkpt><trkpt lat="46.1432706" lon="12.1837297"><ele>462.42857142857144</ele><time>2026-04-27T16:27:10.999Z</time></trkpt><trkpt lat="46.1433225" lon="12.1838186"><ele>462.8571428571429</ele><time>2026-04-27T16:27:12.999Z</time></trkpt><trkpt lat="46.1433672" lon="12.1839072"><ele>463.2857142857143</ele><time>2026-04-27T16:27:15Z</time></trkpt><trkpt lat="46.143415" lon="12.1839811"><ele>463.7142857142857</ele><time>2026-04-27T16:27:16.999Z</time></trkpt><trkpt lat="46.1434651" lon="12.1840406"><ele>464.14285714285717</ele><time>2026-04-27T16:27:18.999Z</time></trkpt><trkpt lat="46.1435168" lon="12.1840991"><ele>464.57142857142856</ele><time>2026-04-27T16:27:20.999Z</time></trkpt><trkpt lat="46.1435929" lon="12.1841672"><ele>465.0</ele><time>2026-04-27T16:27:23.999Z</time></trkpt><trkpt lat="46.1436612" lon="12.1842265"><ele>465.2857142857143</ele><time>2026-04-27T16:27:26.999Z</time></trkpt><trkpt lat="46.1437249" lon="12.1842641"><ele>465.57142857142856</ele><time>2026-04-27T16:27:30Z</time></trkpt><trkpt lat="46.1437868" lon="12.1842819"><ele>465.85714285714283</ele><time>2026-04-27T16:27:32.999Z</time></trkpt><trkpt lat="46.1438627" lon="12.1843046"><ele>466.1428571428571</ele><time>2026-04-27T16:27:36.999Z</time></trkpt><trkpt lat="46.1439298" lon="12.1843186"><ele>466.42857142857144</ele><time>2026-04-27T16:27:41Z</time></trkpt><trkpt lat="46.1440004" lon="12.1843198"><ele>466.71428571428567</ele><time>2026-04-27T16:27:44.999Z</time></trkpt><trkpt lat="46.1440695" lon="12.1843213"><ele>466.99999999999994</ele><time>2026-04-27T16:27:48.999Z</time></trkpt><trkpt lat="46.1441357" lon="12.1843214"><ele>469.5714285714285</ele><time>2026-04-27T16:27:52.999Z</time></trkpt><trkpt lat="46.1442005" lon="12.1842936"><ele>472.1428571428571</ele><time>2026-04-27T16:27:55.999Z</time></trkpt><trkpt lat="46.1442637" lon="12.1842698"><ele>474.7142857142857</ele><time>2026-04-27T16:27:58.999Z</time></trkpt><trkpt lat="46.1443231" lon="12.1842392"><ele>477.2857142857143</ele><time>2026-04-27T16:28:01.999Z</time></trkpt><trkpt lat="46.1443974" lon="12.1842208"><ele>479.8571428571429</ele><time>2026-04-27T16:28:06Z</time></trkpt><trkpt lat="46.1444638" lon="12.1842374"><ele>482.4285714285715</ele><time>2026-04-27T16:28:09.999Z</time></trkpt><trkpt lat="46.1445303" lon="12.1842756"><ele>485.00000000000006</ele><time>2026-04-27T16:28:14Z</time></trkpt><trkpt lat="46.1445958" lon="12.1843105"><ele>484.99999999999994</ele><time>2026-04-27T16:28:16.999Z</time></trkpt><trkpt lat="46.1446746" lon="12.1842888"><ele>485.0</ele><time>2026-04-27T16:28:19.999Z</time></trkpt><trkpt lat="46.1447592" lon="12.184267"><ele>485.0</ele><time>2026-04-27T16:28:22.999Z</time></trkpt><trkpt lat="46.1448287" lon="12.1842733"><ele>485.0</ele><time>2026-04-27T16:28:25.999Z</time></trkpt><trkpt lat="46.1449093" lon="12.1842732"><ele>484.99999999999994</ele><time>2026-04-27T16:28:29.999Z</time></trkpt><trkpt lat="46.144973" lon="12.1842795"><ele>485.0</ele><time>2026-04-27T16:28:32.999Z</time></trkpt><trkpt lat="46.1450523" lon="12.1842973"><ele>489.28571428571433</ele><time>2026-04-27T16:28:35.999Z</time></trkpt><trkpt lat="46.1451186" lon="12.1843164"><ele>493.57142857142856</ele><time>2026-04-27T16:28:38.999Z</time></trkpt><trkpt lat="46.1452001" lon="12.1843235"><ele>497.8571428571429</ele><time>2026-04-27T16:28:41.999Z</time></trkpt><trkpt lat="46.1452625" lon="12.184337"><ele>502.14285714285717</ele><time>2026-04-27T16:28:44.999Z</time></trkpt><trkpt lat="46.1453297" lon="12.1843659"><ele>506.42857142857144</ele><time>2026-04-27T16:28:53Z</time></trkpt><trkpt lat="46.1454086" lon="12.1843808"><ele>510.7142857142857</ele><time>2026-04-27T16:28:57.999Z</time></trkpt><trkpt lat="46.1454776" lon="12.1844189"><ele>515.0</ele><time>2026-04-27T16:29:01.999Z</time></trkpt><trkpt lat="46.1455445" lon="12.184469"><ele>515.0</ele><time>2026-04-27T16:29:06.999Z</time></trkpt><trkpt lat="46.1456087" lon="12.1845073"><ele>515.0</ele><time>2026-04-27T16:29:10.999Z</time></trkpt><trkpt lat="46.1456778" lon="12.1844977"><ele>515.0</ele><time>2026-04-27T16:29:14.999Z</time></trkpt><trkpt lat="46.1457277" lon="12.1844373"><ele>515.0</ele><time>2026-04-27T16:29:18.999Z</time></trkpt><trkpt lat="46.1457852" lon="12.1843797"><ele>515.0</ele><time>2026-04-27T16:29:23.999Z</time></trkpt><trkpt lat="46.1458557" lon="12.1843889"><ele>515.0</ele><time>2026-04-27T16:29:29.999Z</time></trkpt><trkpt lat="46.1459084" lon="12.1844483"><ele>515.0</ele><time>2026-04-27T16:29:33.999Z</time></trkpt><trkpt lat="46.1459638" lon="12.1845092"><ele>517.4285714285714</ele><time>2026-04-27T16:29:38.999Z</time></trkpt><trkpt lat="46.1459858" lon="12.1846106"><ele>519.8571428571429</ele><time>2026-04-27T16:29:43.999Z</time></trkpt><trkpt lat="46.1459853" lon="12.1847135"><ele>522.2857142857142</ele><time>2026-04-27T16:29:47.999Z</time></trkpt><trkpt lat="46.145989" lon="12.184824"><ele>524.7142857142858</ele><time>2026-04-27T16:29:52Z</time></trkpt><trkpt lat="46.1459832" lon="12.1849259"><ele>527.1428571428571</ele><time>2026-04-27T16:29:55.999Z</time></trkpt><trkpt lat="46.1459763" lon="12.185038"><ele>529.5714285714286</ele><time>2026-04-27T16:30:01Z</time></trkpt><trkpt lat="46.1459653" lon="12.1851291"><ele>532.0</ele><time>2026-04-27T16:30:05Z</time></trkpt><trkpt lat="46.1459333" lon="12.1852105"><ele>532.0</ele><time>2026-04-27T16:30:08Z</time></trkpt><trkpt lat="46.1458977" lon="12.185297"><ele>532.0</ele><time>2026-04-27T16:30:11Z</time></trkpt><trkpt lat="46.1458577" lon="12.1853758"><ele>532.0</ele><time>2026-04-27T16:30:13.999Z</time></trkpt><trkpt lat="46.1457938" lon="12.1854353"><ele>532.0</ele><time>2026-04-27T16:30:18Z</time></trkpt><trkpt lat="46.1457317" lon="12.1854678"><ele>532.0</ele><time>2026-04-27T16:30:20.999Z</time></trkpt><trkpt lat="46.1456661" lon="12.1854922"><ele>532.0</ele><time>2026-04-27T16:30:24Z</time></trkpt><trkpt lat="46.1456012" lon="12.1855172"><ele>532.0</ele><time>2026-04-27T16:30:26.999Z</time></trkpt><trkpt lat="46.1455381" lon="12.1855363"><ele>534.1428571428571</ele><time>2026-04-27T16:30:29.999Z</time></trkpt><trkpt lat="46.1455149" lon="12.1856273"><ele>536.2857142857142</ele><time>2026-04-27T16:30:32.999Z</time></trkpt><trkpt lat="46.1455304" lon="12.1857415"><ele>538.4285714285714</ele><time>2026-04-27T16:30:36.999Z</time></trkpt><trkpt lat="46.1455814" lon="12.1858062"><ele>540.5714285714286</ele><time>2026-04-27T16:30:40.999Z</time></trkpt><trkpt lat="46.145654" lon="12.1858172"><ele>542.7142857142857</ele><time>2026-04-27T16:30:44.999Z</time></trkpt><trkpt lat="46.1457216" lon="12.1858384"><ele>544.8571428571429</ele><time>2026-04-27T16:30:49Z</time></trkpt><trkpt lat="46.1457931" lon="12.1858659"><ele>547.0</ele><time>2026-04-27T16:30:52.999Z</time></trkpt><trkpt lat="46.1458562" lon="12.1858962"><ele>547.0</ele><time>2026-04-27T16:30:56.999Z</time></trkpt><trkpt lat="46.1459176" lon="12.1859237"><ele>547.0</ele><time>2026-04-27T16:31:01Z</time></trkpt><trkpt lat="46.145996" lon="12.185952"><ele>547.0</ele><time>2026-04-27T16:31:04.999Z</time></trkpt><trkpt lat="46.1460749" lon="12.1859545"><ele>547.0</ele><time>2026-04-27T16:31:09Z</time></trkpt><trkpt lat="46.1461401" lon="12.185979"><ele>547.0</ele><time>2026-04-27T16:31:13.199Z</time></trkpt><trkpt lat="46.1462076" lon="12.1859937"><ele>547.0</ele><time>2026-04-27T16:31:16.999Z</time></trkpt><trkpt lat="46.1462811" lon="12.1859987"><ele>547.0</ele><time>2026-04-27T16:31:20.999Z</time></trkpt><trkpt lat="46.1463547" lon="12.1859889"><ele>547.0</ele><time>2026-04-27T16:31:24.999Z</time></trkpt><trkpt lat="46.1464173" lon="12.1859651"><ele>547.0</ele><time>2026-04-27T16:31:28.999Z</time></trkpt><trkpt lat="46.1464844" lon="12.1859166"><ele>547.0</ele><time>2026-04-27T16:33:05Z</time></trkpt><trkpt lat="46.1465185" lon="12.1859987"><ele>547.0</ele><time>2026-04-27T16:33:10.999Z</time></trkpt><trkpt lat="46.1464532" lon="12.1860056"><ele>547.0</ele><time>2026-04-27T16:43:08.999Z</time></trkpt><trkpt lat="46.1464474" lon="12.1858873"><ele>547.0</ele><time>2026-04-27T16:43:21.999Z</time></trkpt><trkpt lat="46.1464755" lon="12.1857846"><ele>547.0</ele><time>2026-04-27T16:43:25.999Z</time></trkpt><trkpt lat="46.1464921" lon="12.1856838"><ele>549.0</ele><time>2026-04-27T16:43:28.999Z</time></trkpt><trkpt lat="46.1464851" lon="12.18556"><ele>551.0</ele><time>2026-04-27T16:43:31.999Z</time></trkpt><trkpt lat="46.1464742" lon="12.1854223"><ele>553.0</ele><time>2026-04-27T16:43:34.999Z</time></trkpt><trkpt lat="46.1464891" lon="12.1852544"><ele>555.0</ele><time>2026-04-27T16:43:37Z</time></trkpt><trkpt lat="46.1465625" lon="12.1851192"><ele>557.0</ele><time>2026-04-27T16:43:38.999Z</time></trkpt><trkpt lat="46.1466291" lon="12.1850887"><ele>557.0</ele><time>2026-04-27T16:43:40.999Z</time></trkpt><trkpt lat="46.1466696" lon="12.1850157"><ele>557.0</ele><time>2026-04-27T16:43:43Z</time></trkpt><trkpt lat="46.1466881" lon="12.184917"><ele>557.0</ele><time>2026-04-27T16:43:47.999Z</time></trkpt><trkpt lat="46.1467189" lon="12.1848154"><ele>557.0</ele><time>2026-04-27T16:43:52.999Z</time></trkpt><trkpt lat="46.146737" lon="12.1847276"><ele>557.0</ele><time>2026-04-27T16:43:55.999Z</time></trkpt><trkpt lat="46.1467856" lon="12.1846418"><ele>557.0</ele><time>2026-04-27T16:43:58.999Z</time></trkpt><trkpt lat="46.1468643" lon="12.1846621"><ele>557.0</ele><time>2026-04-27T16:44:01.999Z</time></trkpt><trkpt lat="46.1469229" lon="12.1847292"><ele>557.0</ele><time>2026-04-27T16:44:05Z</time></trkpt><trkpt lat="46.1470024" lon="12.1848132"><ele>557.0</ele><time>2026-04-27T16:44:07.999Z</time></trkpt><trkpt lat="46.1470525" lon="12.1848906"><ele>557.0</ele><time>2026-04-27T16:44:09.999Z</time></trkpt><trkpt lat="46.1471076" lon="12.1849671"><ele>557.0</ele><time>2026-04-27T16:44:11.999Z</time></trkpt><trkpt lat="46.1471619" lon="12.1850447"><ele>557.0</ele><time>2026-04-27T16:44:13.999Z</time></trkpt><trkpt lat="46.1472169" lon="12.1851218"><ele>557.0</ele><time>2026-04-27T16:44:16Z</time></trkpt><trkpt lat="46.1472705" lon="12.1852067"><ele>557.0</ele><time>2026-04-27T16:44:18Z</time></trkpt><trkpt lat="46.1473242" lon="12.1852929"><ele>557.0</ele><time>2026-04-27T16:44:19.999Z</time></trkpt><trkpt lat="46.1473734" lon="12.1853638"><ele>557.0</ele><time>2026-04-27T16:44:21.999Z</time></trkpt><trkpt lat="46.1474254" lon="12.1854313"><ele>557.0</ele><time>2026-04-27T16:44:23.999Z</time></trkpt><trkpt lat="46.1474916" lon="12.185456"><ele>557.0</ele><time>2026-04-27T16:44:26Z</time></trkpt><trkpt lat="46.14757" lon="12.1854372"><ele>557.0</ele><time>2026-04-27T16:44:28.999Z</time></trkpt><trkpt lat="46.1476608" lon="12.1854657"><ele>556.6</ele><time>2026-04-27T16:44:31.999Z</time></trkpt><trkpt lat="46.1477281" lon="12.1855107"><ele>556.2</ele><time>2026-04-27T16:44:34Z</time></trkpt><trkpt lat="46.1477924" lon="12.1856041"><ele>555.8</ele><time>2026-04-27T16:44:35.999Z</time></trkpt><trkpt lat="46.1478584" lon="12.1857102"><ele>555.4</ele><time>2026-04-27T16:44:37.999Z</time></trkpt><trkpt lat="46.1479227" lon="12.1858283"><ele>555.0</ele><time>2026-04-27T16:44:39.999Z</time></trkpt><trkpt lat="46.1479791" lon="12.1859534"><ele>555.0</ele><time>2026-04-27T16:44:41.999Z</time></trkpt><trkpt lat="46.1480251" lon="12.1860717"><ele>555.0</ele><time>2026-04-27T16:44:43.999Z</time></trkpt><trkpt lat="46.148074" lon="12.186173"><ele>555.0</ele><time>2026-04-27T16:44:45.999Z</time></trkpt><trkpt lat="46.1481411" lon="12.1862938"><ele>555.0</ele><time>2026-04-27T16:44:47.999Z</time></trkpt><trkpt lat="46.1482356" lon="12.1863901"><ele>555.0</ele><time>2026-04-27T16:44:50Z</time></trkpt><trkpt lat="46.1482904" lon="12.1864426"><ele>554.4285714285714</ele><time>2026-04-27T16:44:50.999Z</time></trkpt><trkpt lat="46.1483374" lon="12.1865145"><ele>553.8571428571429</ele><time>2026-04-27T16:44:51.999Z</time></trkpt><trkpt lat="46.1483758" lon="12.1865991"><ele>553.2857142857142</ele><time>2026-04-27T16:44:52.999Z</time></trkpt><trkpt lat="46.1483986" lon="12.1867011"><ele>552.7142857142858</ele><time>2026-04-27T16:44:53.999Z</time></trkpt><trkpt lat="46.1484106" lon="12.1868045"><ele>552.1428571428571</ele><time>2026-04-27T16:44:54.999Z</time></trkpt><trkpt lat="46.1484181" lon="12.1869038"><ele>551.5714285714286</ele><time>2026-04-27T16:44:55.999Z</time></trkpt><trkpt lat="46.1484184" lon="12.1870078"><ele>551.0</ele><time>2026-04-27T16:44:57Z</time></trkpt><trkpt lat="46.1484299" lon="12.1871109"><ele>551.0</ele><time>2026-04-27T16:44:57.999Z</time></trkpt><trkpt lat="46.148446" lon="12.1872027"><ele>551.0</ele><time>2026-04-27T16:44:58.999Z</time></trkpt><trkpt lat="46.1484789" lon="12.1873553"><ele>551.0</ele><time>2026-04-27T16:45:01Z</time></trkpt><trkpt lat="46.1484875" lon="12.1874765"><ele>551.0</ele><time>2026-04-27T16:45:03Z</time></trkpt><trkpt lat="46.148475" lon="12.1875843"><ele>551.0</ele><time>2026-04-27T16:45:04.999Z</time></trkpt><trkpt lat="46.1484647" lon="12.1876789"><ele>551.0</ele><time>2026-04-27T16:45:06.999Z</time></trkpt><trkpt lat="46.1484509" lon="12.1878013"><ele>550.6666666666666</ele><time>2026-04-27T16:45:09.999Z</time></trkpt><trkpt lat="46.1484531" lon="12.187935"><ele>550.3333333333333</ele><time>2026-04-27T16:45:13Z</time></trkpt><trkpt lat="46.1484566" lon="12.188074"><ele>550.0</ele><time>2026-04-27T16:45:15.999Z</time></trkpt><trkpt lat="46.1484496" lon="12.1881696"><ele>549.6666666666666</ele><time>2026-04-27T16:45:18Z</time></trkpt><trkpt lat="46.1484218" lon="12.1882563"><ele>549.3333333333334</ele><time>2026-04-27T16:45:20Z</time></trkpt><trkpt lat="46.1483716" lon="12.1883261"><ele>549.0</ele><time>2026-04-27T16:45:21.999Z</time></trkpt><trkpt lat="46.1483097" lon="12.1883734"><ele>549.6666666666666</ele><time>2026-04-27T16:45:23.999Z</time></trkpt><trkpt lat="46.1482368" lon="12.1884202"><ele>550.3333333333334</ele><time>2026-04-27T16:45:26Z</time></trkpt><trkpt lat="46.1481458" lon="12.1884647"><ele>551.0</ele><time>2026-04-27T16:45:27.999Z</time></trkpt><trkpt lat="46.1480577" lon="12.1885028"><ele>551.6666666666667</ele><time>2026-04-27T16:45:29.999Z</time></trkpt><trkpt lat="46.1479785" lon="12.1885501"><ele>552.3333333333334</ele><time>2026-04-27T16:45:31.999Z</time></trkpt><trkpt lat="46.1479186" lon="12.1885965"><ele>553.0</ele><time>2026-04-27T16:45:33.999Z</time></trkpt><trkpt lat="46.1478578" lon="12.1886342"><ele>553.0</ele><time>2026-04-27T16:46:28.999Z</time></trkpt><trkpt lat="46.147784" lon="12.1887237"><ele>553.0</ele><time>2026-04-27T16:46:31.999Z</time></trkpt><trkpt lat="46.1477273" lon="12.1888143"><ele>553.0</ele><time>2026-04-27T16:46:33.999Z</time></trkpt><trkpt lat="46.1476713" lon="12.188927"><ele>553.0</ele><time>2026-04-27T16:46:35.999Z</time></trkpt><trkpt lat="46.1476448" lon="12.1890432"><ele>553.0</ele><time>2026-04-27T16:46:38Z</time></trkpt><trkpt lat="46.1476395" lon="12.189168"><ele>553.0</ele><time>2026-04-27T16:46:39.999Z</time></trkpt><trkpt lat="46.147628" lon="12.1892887"><ele>553.0</ele><time>2026-04-27T16:46:41.999Z</time></trkpt><trkpt lat="46.147617" lon="12.1893989"><ele>553.0</ele><time>2026-04-27T16:46:43.999Z</time></trkpt><trkpt lat="46.1476055" lon="12.1895104"><ele>553.0</ele><time>2026-04-27T16:46:45.999Z</time></trkpt><trkpt lat="46.1475911" lon="12.189619"><ele>553.0</ele><time>2026-04-27T16:46:48Z</time></trkpt><trkpt lat="46.1475841" lon="12.1897276"><ele>553.0</ele><time>2026-04-27T16:46:50Z</time></trkpt><trkpt lat="46.1475964" lon="12.1898223"><ele>553.0</ele><time>2026-04-27T16:46:52Z</time></trkpt><trkpt lat="46.1476142" lon="12.1899484"><ele>553.8333333333334</ele><time>2026-04-27T16:46:55Z</time></trkpt><trkpt lat="46.1476174" lon="12.1900629"><ele>554.6666666666667</ele><time>2026-04-27T16:46:57.999Z</time></trkpt><trkpt lat="46.1475919" lon="12.1901708"><ele>555.5</ele><time>2026-04-27T16:47:00.999Z</time></trkpt><trkpt lat="46.147567" lon="12.1902653"><ele>556.3333333333334</ele><time>2026-04-27T16:47:06Z</time></trkpt><trkpt lat="46.1475784" lon="12.1904003"><ele>557.1666666666666</ele><time>2026-04-27T16:47:09.999Z</time></trkpt><trkpt lat="46.1475953" lon="12.1905048"><ele>558.0</ele><time>2026-04-27T16:47:11.999Z</time></trkpt><trkpt lat="46.1476087" lon="12.1906335"><ele>557.6</ele><time>2026-04-27T16:47:13.999Z</time></trkpt><trkpt lat="46.1476236" lon="12.190788"><ele>557.1999999999999</ele><time>2026-04-27T16:47:15.999Z</time></trkpt><trkpt lat="46.14764" lon="12.1909577"><ele>556.8</ele><time>2026-04-27T16:47:18Z</time></trkpt><trkpt lat="46.1476455" lon="12.1910512"><ele>556.4</ele><time>2026-04-27T16:47:18.999Z</time></trkpt><trkpt lat="46.1476564" lon="12.1912242"><ele>556.0</ele><time>2026-04-27T16:47:20.999Z</time></trkpt><trkpt lat="46.1476644" lon="12.1913868"><ele>555.6666666666667</ele><time>2026-04-27T16:47:23Z</time></trkpt><trkpt lat="46.1476773" lon="12.191532"><ele>555.3333333333334</ele><time>2026-04-27T16:47:25Z</time></trkpt><trkpt lat="46.1476897" lon="12.1916327"><ele>555.0</ele><time>2026-04-27T16:47:26.999Z</time></trkpt><trkpt lat="46.1477227" lon="12.1917256"><ele>554.6666666666666</ele><time>2026-04-27T16:47:29.999Z</time></trkpt><trkpt lat="46.1477307" lon="12.1918212"><ele>554.3333333333333</ele><time>2026-04-27T16:47:45.999Z</time></trkpt><trkpt lat="46.1477479" lon="12.1919184"><ele>554.0</ele><time>2026-04-27T16:48:04.999Z</time></trkpt><trkpt lat="46.1477988" lon="12.1920035"><ele>554.0</ele><time>2026-04-27T16:48:08.999Z</time></trkpt><trkpt lat="46.1478452" lon="12.1920688"><ele>554.0</ele><time>2026-04-27T16:48:13.999Z</time></trkpt><trkpt lat="46.1479416" lon="12.1921238"><ele>554.0</ele><time>2026-04-27T16:48:16Z</time></trkpt><trkpt lat="46.1480491" lon="12.1921916"><ele>554.0</ele><time>2026-04-27T16:48:17.999Z</time></trkpt><trkpt lat="46.1481384" lon="12.1922343"><ele>554.0</ele><time>2026-04-27T16:48:20Z</time></trkpt><trkpt lat="46.1482025" lon="12.1922653"><ele>554.0</ele><time>2026-04-27T16:48:21.999Z</time></trkpt><trkpt lat="46.1482705" lon="12.1923164"><ele>553.5714285714286</ele><time>2026-04-27T16:48:25.999Z</time></trkpt><trkpt lat="46.1483339" lon="12.19237"><ele>553.1428571428571</ele><time>2026-04-27T16:48:30.999Z</time></trkpt><trkpt lat="46.1483875" lon="12.1924226"><ele>552.7142857142857</ele><time>2026-04-27T16:48:34.999Z</time></trkpt><trkpt lat="46.1484402" lon="12.1924828"><ele>552.2857142857142</ele><time>2026-04-27T16:48:38.999Z</time></trkpt><trkpt lat="46.1484537" lon="12.192581"><ele>551.8571428571429</ele><time>2026-04-27T16:48:42.999Z</time></trkpt><trkpt lat="46.1484052" lon="12.1926471"><ele>551.4285714285713</ele><time>2026-04-27T16:48:46.999Z</time></trkpt><trkpt lat="46.1483352" lon="12.1927094"><ele>551.0</ele><time>2026-04-27T16:48:51.999Z</time></trkpt><trkpt lat="46.1482741" lon="12.192741"><ele>549.2857142857142</ele><time>2026-04-27T16:48:54.999Z</time></trkpt><trkpt lat="46.1482045" lon="12.19281"><ele>547.5714285714286</ele><time>2026-04-27T16:48:58.999Z</time></trkpt><trkpt lat="46.1481373" lon="12.1928402"><ele>545.8571428571429</ele><time>2026-04-27T16:49:02.999Z</time></trkpt><trkpt lat="46.148083" lon="12.1928924"><ele>544.1428571428571</ele><time>2026-04-27T16:49:06Z</time></trkpt><trkpt lat="46.14802" lon="12.1929694"><ele>542.4285714285714</ele><time>2026-04-27T16:49:09Z</time></trkpt><trkpt lat="46.1480309" lon="12.1930639"><ele>540.7142857142857</ele><time>2026-04-27T16:49:19.999Z</time></trkpt><trkpt lat="46.1481057" lon="12.193102"><ele>539.0</ele><time>2026-04-27T16:49:22.999Z</time></trkpt><trkpt lat="46.1482031" lon="12.1931264"><ele>537.8333333333333</ele><time>2026-04-27T16:49:25Z</time></trkpt><trkpt lat="46.1482861" lon="12.1931426"><ele>536.6666666666666</ele><time>2026-04-27T16:49:26.999Z</time></trkpt><trkpt lat="46.1483593" lon="12.1931934"><ele>535.5</ele><time>2026-04-27T16:49:29Z</time></trkpt><trkpt lat="46.1484521" lon="12.1932279"><ele>534.3333333333334</ele><time>2026-04-27T16:49:30.999Z</time></trkpt><trkpt lat="46.1485257" lon="12.1933034"><ele>533.1666666666667</ele><time>2026-04-27T16:49:33Z</time></trkpt><trkpt lat="46.1486009" lon="12.1933593"><ele>532.0</ele><time>2026-04-27T16:49:35Z</time></trkpt><trkpt lat="46.1486732" lon="12.1933985"><ele>532.0</ele><time>2026-04-27T16:49:36.999Z</time></trkpt><trkpt lat="46.1487365" lon="12.1934664"><ele>532.0</ele><time>2026-04-27T16:49:38.999Z</time></trkpt><trkpt lat="46.1488212" lon="12.1934813"><ele>532.0</ele><time>2026-04-27T16:49:42Z</time></trkpt><trkpt lat="46.1488842" lon="12.1933989"><ele>532.0</ele><time>2026-04-27T16:49:44.999Z</time></trkpt><trkpt lat="46.1489459" lon="12.1933357"><ele>532.0</ele><time>2026-04-27T16:49:47.999Z</time></trkpt><trkpt lat="46.1490393" lon="12.1933867"><ele>532.0</ele><time>2026-04-27T16:49:51Z</time></trkpt><trkpt lat="46.1491001" lon="12.1934432"><ele>528.8333333333334</ele><time>2026-04-27T16:49:52.999Z</time></trkpt><trkpt lat="46.1491491" lon="12.1935384"><ele>525.6666666666667</ele><time>2026-04-27T16:49:55.999Z</time></trkpt><trkpt lat="46.1492002" lon="12.1936315"><ele>522.5</ele><time>2026-04-27T16:49:58Z</time></trkpt><trkpt lat="46.1492222" lon="12.1937592"><ele>519.3333333333334</ele><time>2026-04-27T16:50:00.999Z</time></trkpt><trkpt lat="46.149206" lon="12.1938685"><ele>516.1666666666666</ele><time>2026-04-27T16:50:04Z</time></trkpt><trkpt lat="46.1491651" lon="12.1939931"><ele>513.0</ele><time>2026-04-27T16:50:16.999Z</time></trkpt><trkpt lat="46.1492097" lon="12.1938934"><ele>513.0</ele><time>2026-04-27T16:50:45.999Z</time></trkpt><trkpt lat="46.1492348" lon="12.1938018"><ele>513.0</ele><time>2026-04-27T16:50:49Z</time></trkpt><trkpt lat="46.149277" lon="12.1937104"><ele>513.0</ele><time>2026-04-27T16:51:05.999Z</time></trkpt><trkpt lat="46.1493142" lon="12.1935749"><ele>513.0</ele><time>2026-04-27T16:51:08.999Z</time></trkpt><trkpt lat="46.14932" lon="12.1934694"><ele>513.0</ele><time>2026-04-27T16:51:12Z</time></trkpt><trkpt lat="46.1493169" lon="12.1933761"><ele>513.0</ele><time>2026-04-27T16:51:16Z</time></trkpt><trkpt lat="46.1493051" lon="12.1932478"><ele>515.1666666666666</ele><time>2026-04-27T16:51:18.999Z</time></trkpt><trkpt lat="46.1493146" lon="12.1931286"><ele>517.3333333333334</ele><time>2026-04-27T16:51:22Z</time></trkpt><trkpt lat="46.1493123" lon="12.1930163"><ele>519.5</ele><time>2026-04-27T16:51:23.999Z</time></trkpt><trkpt lat="46.1493578" lon="12.1929141"><ele>521.6666666666667</ele><time>2026-04-27T16:51:25.999Z</time></trkpt><trkpt lat="46.1494405" lon="12.1928687"><ele>523.8333333333334</ele><time>2026-04-27T16:51:28.999Z</time></trkpt><trkpt lat="46.1495225" lon="12.1928916"><ele>526.0</ele><time>2026-04-27T16:51:31.999Z</time></trkpt><trkpt lat="46.1496083" lon="12.1929387"><ele>526.0</ele><time>2026-04-27T16:51:35Z</time></trkpt><trkpt lat="46.1496705" lon="12.1929799"><ele>526.0</ele><time>2026-04-27T16:51:37Z</time></trkpt><trkpt lat="46.1497441" lon="12.1929921"><ele>526.0</ele><time>2026-04-27T16:51:38.999Z</time></trkpt><trkpt lat="46.1498291" lon="12.1929683"><ele>526.0</ele><time>2026-04-27T16:51:41Z</time></trkpt><trkpt lat="46.1499203" lon="12.1928949"><ele>526.0</ele><time>2026-04-27T16:51:42.999Z</time></trkpt><trkpt lat="46.1500267" lon="12.1928293"><ele>526.0</ele><time>2026-04-27T16:51:45Z</time></trkpt><trkpt lat="46.1500725" lon="12.1927663"><ele>527.0</ele><time>2026-04-27T16:51:46.999Z</time></trkpt><trkpt lat="46.1501243" lon="12.1927146"><ele>528.0</ele><time>2026-04-27T16:51:49Z</time></trkpt><trkpt lat="46.1501815" lon="12.1926533"><ele>529.0</ele><time>2026-04-27T16:51:51.999Z</time></trkpt><trkpt lat="46.1502178" lon="12.1925785"><ele>530.0</ele><time>2026-04-27T16:51:54.998Z</time></trkpt><trkpt lat="46.1502677" lon="12.1924945"><ele>531.0</ele><time>2026-04-27T16:51:58.999Z</time></trkpt><trkpt lat="46.1503135" lon="12.1923933"><ele>532.0</ele><time>2026-04-27T16:52:03Z</time></trkpt><trkpt lat="46.1503725" lon="12.1923482"><ele>533.0</ele><time>2026-04-27T16:52:05.999Z</time></trkpt><trkpt lat="46.1504474" lon="12.1923216"><ele>533.0</ele><time>2026-04-27T16:52:09Z</time></trkpt><trkpt lat="46.1505162" lon="12.1922715"><ele>533.0</ele><time>2026-04-27T16:52:11.999Z</time></trkpt><trkpt lat="46.1505999" lon="12.1922204"><ele>533.0</ele><time>2026-04-27T16:52:14.999Z</time></trkpt><trkpt lat="46.1506735" lon="12.1922003"><ele>533.0</ele><time>2026-04-27T16:52:16.999Z</time></trkpt><trkpt lat="46.1507316" lon="12.1921539"><ele>533.0</ele><time>2026-04-27T16:52:19Z</time></trkpt><trkpt lat="46.1507747" lon="12.1920714"><ele>533.0</ele><time>2026-04-27T16:52:20.999Z</time></trkpt><trkpt lat="46.1508342" lon="12.1920023"><ele>530.4</ele><time>2026-04-27T16:52:22.999Z</time></trkpt><trkpt lat="46.1509538" lon="12.1919623"><ele>527.8</ele><time>2026-04-27T16:52:24.999Z</time></trkpt><trkpt lat="46.1510205" lon="12.1919121"><ele>525.2</ele><time>2026-04-27T16:52:25.999Z</time></trkpt><trkpt lat="46.1510989" lon="12.1918377"><ele>522.6</ele><time>2026-04-27T16:52:27.999Z</time></trkpt><trkpt lat="46.1511409" lon="12.1917331"><ele>520.0</ele><time>2026-04-27T16:52:29.999Z</time></trkpt><trkpt lat="46.1511813" lon="12.1916428"><ele>520.0</ele><time>2026-04-27T16:52:32Z</time></trkpt><trkpt lat="46.1512309" lon="12.1915152"><ele>520.0</ele><time>2026-04-27T16:52:33.999Z</time></trkpt><trkpt lat="46.1512858" lon="12.1914309"><ele>520.0</ele><time>2026-04-27T16:52:35.999Z</time></trkpt><trkpt lat="46.1513343" lon="12.1913035"><ele>520.0</ele><time>2026-04-27T16:52:37.999Z</time></trkpt><trkpt lat="46.1513759" lon="12.1911979"><ele>520.0</ele><time>2026-04-27T16:52:39.999Z</time></trkpt><trkpt lat="46.151417" lon="12.191126"><ele>520.0</ele><time>2026-04-27T16:52:41.999Z</time></trkpt><trkpt lat="46.1514718" lon="12.1910202"><ele>518.8</ele><time>2026-04-27T16:52:44Z</time></trkpt><trkpt lat="46.1515317" lon="12.190976"><ele>517.6</ele><time>2026-04-27T16:52:47.999Z</time></trkpt><trkpt lat="46.1515962" lon="12.1909115"><ele>516.4</ele><time>2026-04-27T16:52:50.999Z</time></trkpt><trkpt lat="46.1516711" lon="12.1908133"><ele>515.2</ele><time>2026-04-27T16:52:53.999Z</time></trkpt><trkpt lat="46.1517323" lon="12.1906931"><ele>514.0</ele><time>2026-04-27T16:52:55.999Z</time></trkpt><trkpt lat="46.1518105" lon="12.1905617"><ele>514.0</ele><time>2026-04-27T16:52:57.999Z</time></trkpt><trkpt lat="46.1518501" lon="12.1904319"><ele>514.0</ele><time>2026-04-27T16:53:00Z</time></trkpt><trkpt lat="46.1518851" lon="12.1903077"><ele>514.0</ele><time>2026-04-27T16:53:01.999Z</time></trkpt><trkpt lat="46.1519287" lon="12.190189"><ele>514.0</ele><time>2026-04-27T16:53:03.999Z</time></trkpt><trkpt lat="46.1519597" lon="12.1901055"><ele>514.0</ele><time>2026-04-27T16:53:06Z</time></trkpt><trkpt lat="46.1519669" lon="12.1899716"><ele>514.0</ele><time>2026-04-27T16:53:07.999Z</time></trkpt><trkpt lat="46.1519819" lon="12.1898735"><ele>514.0</ele><time>2026-04-27T16:53:08.999Z</time></trkpt><trkpt lat="46.1519837" lon="12.1897106"><ele>514.0</ele><time>2026-04-27T16:53:10.999Z</time></trkpt><trkpt lat="46.1520099" lon="12.1895614"><ele>514.0</ele><time>2026-04-27T16:53:12.999Z</time></trkpt><trkpt lat="46.1520457" lon="12.1894375"><ele>514.0</ele><time>2026-04-27T16:53:15Z</time></trkpt><trkpt lat="46.1520768" lon="12.1892727"><ele>514.0</ele><time>2026-04-27T16:53:16.999Z</time></trkpt><trkpt lat="46.1521076" lon="12.1891246"><ele>514.0</ele><time>2026-04-27T16:53:18.999Z</time></trkpt><trkpt lat="46.1521103" lon="12.1890212"><ele>514.0</ele><time>2026-04-27T16:53:20.999Z</time></trkpt><trkpt lat="46.1520662" lon="12.1889366"><ele>514.0</ele><time>2026-04-27T16:53:24Z</time></trkpt><trkpt lat="46.1520185" lon="12.1888726"><ele>514.0</ele><time>2026-04-27T16:53:26.999Z</time></trkpt><trkpt lat="46.1519686" lon="12.1887668"><ele>514.0</ele><time>2026-04-27T16:53:29Z</time></trkpt><trkpt lat="46.1519353" lon="12.188595"><ele>514.0</ele><time>2026-04-27T16:53:30.999Z</time></trkpt><trkpt lat="46.1519096" lon="12.1884214"><ele>512.6666666666667</ele><time>2026-04-27T16:53:33Z</time></trkpt><trkpt lat="46.1519253" lon="12.188303"><ele>511.33333333333337</ele><time>2026-04-27T16:53:34.999Z</time></trkpt><trkpt lat="46.1519382" lon="12.188178"><ele>510.0</ele><time>2026-04-27T16:53:36.999Z</time></trkpt><trkpt lat="46.1519268" lon="12.1880506"><ele>508.66666666666663</ele><time>2026-04-27T16:53:38.999Z</time></trkpt><trkpt lat="46.1519231" lon="12.1879493"><ele>507.3333333333333</ele><time>2026-04-27T16:53:41Z</time></trkpt><trkpt lat="46.1519145" lon="12.1877962"><ele>506.0</ele><time>2026-04-27T16:53:42.999Z</time></trkpt><trkpt lat="46.1519176" lon="12.1876953"><ele>504.99999999999994</ele><time>2026-04-27T16:53:44.999Z</time></trkpt><trkpt lat="46.1519368" lon="12.1875793"><ele>504.0</ele><time>2026-04-27T16:53:46.999Z</time></trkpt><trkpt lat="46.1519889" lon="12.187523"><ele>503.0</ele><time>2026-04-27T16:53:49Z</time></trkpt><trkpt lat="46.1520522" lon="12.1874397"><ele>502.0</ele><time>2026-04-27T16:53:51.999Z</time></trkpt><trkpt lat="46.1521008" lon="12.1873482"><ele>500.99999999999994</ele><time>2026-04-27T16:53:54.999Z</time></trkpt><trkpt lat="46.1521292" lon="12.1872583"><ele>500.0</ele><time>2026-04-27T16:53:57Z</time></trkpt><trkpt lat="46.1521317" lon="12.1871261"><ele>499.0</ele><time>2026-04-27T16:53:58.999Z</time></trkpt><trkpt lat="46.1520893" lon="12.1869814"><ele>498.0</ele><time>2026-04-27T16:54:00.999Z</time></trkpt><trkpt lat="46.1520325" lon="12.1868705"><ele>497.0</ele><time>2026-04-27T16:54:02.999Z</time></trkpt><trkpt lat="46.1519606" lon="12.186747"><ele>496.0</ele><time>2026-04-27T16:54:04.999Z</time></trkpt><trkpt lat="46.1519218" lon="12.186628"><ele>495.0</ele><time>2026-04-27T16:54:06.999Z</time></trkpt><trkpt lat="46.1518641" lon="12.1865354"><ele>495.0</ele><time>2026-04-27T16:54:08.999Z</time></trkpt><trkpt lat="46.151808" lon="12.1864668"><ele>495.0</ele><time>2026-04-27T16:54:10.999Z</time></trkpt><trkpt lat="46.1517691" lon="12.1863608"><ele>495.0</ele><time>2026-04-27T16:54:12.999Z</time></trkpt><trkpt lat="46.1517275" lon="12.1862877"><ele>495.0</ele><time>2026-04-27T16:54:14.999Z</time></trkpt><trkpt lat="46.1516832" lon="12.186208"><ele>495.0</ele><time>2026-04-27T16:54:16.999Z</time></trkpt><trkpt lat="46.1517107" lon="12.1860603"><ele>495.0</ele><time>2026-04-27T16:54:19Z</time></trkpt><trkpt lat="46.1517372" lon="12.1859352"><ele>495.0</ele><time>2026-04-27T16:54:20.999Z</time></trkpt><trkpt lat="46.1517504" lon="12.185817"><ele>495.0</ele><time>2026-04-27T16:54:23Z</time></trkpt><trkpt lat="46.1517607" lon="12.1856976"><ele>495.0</ele><time>2026-04-27T16:54:25Z</time></trkpt><trkpt lat="46.1517785" lon="12.1855975"><ele>495.0</ele><time>2026-04-27T16:54:26.999Z</time></trkpt><trkpt lat="46.1517947" lon="12.1854904"><ele>495.0</ele><time>2026-04-27T16:54:29.999Z</time></trkpt><trkpt lat="46.1518018" lon="12.1853867"><ele>495.0</ele><time>2026-04-27T16:54:33.999Z</time></trkpt><trkpt lat="46.1517905" lon="12.1852796"><ele>495.5</ele><time>2026-04-27T16:54:36.999Z</time></trkpt><trkpt lat="46.1517733" lon="12.1851814"><ele>496.0</ele><time>2026-04-27T16:54:38.999Z</time></trkpt><trkpt lat="46.1517495" lon="12.1850738"><ele>496.5</ele><time>2026-04-27T16:54:40.999Z</time></trkpt><trkpt lat="46.1517288" lon="12.1849464"><ele>497.0</ele><time>2026-04-27T16:54:42.999Z</time></trkpt><trkpt lat="46.1517074" lon="12.1848234"><ele>497.5</ele><time>2026-04-27T16:54:44.999Z</time></trkpt><trkpt lat="46.1516895" lon="12.1847062"><ele>498.0</ele><time>2026-04-27T16:54:46.999Z</time></trkpt><trkpt lat="46.1516659" lon="12.1845879"><ele>498.2</ele><time>2026-04-27T16:54:48.999Z</time></trkpt><trkpt lat="46.1515959" lon="12.1844871"><ele>498.4</ele><time>2026-04-27T16:54:51Z</time></trkpt><trkpt lat="46.1515816" lon="12.1843598"><ele>498.59999999999997</ele><time>2026-04-27T16:54:52.999Z</time></trkpt><trkpt lat="46.1515558" lon="12.1842325"><ele>498.79999999999995</ele><time>2026-04-27T16:54:54.999Z</time></trkpt><trkpt lat="46.1515213" lon="12.1841021"><ele>499.0</ele><time>2026-04-27T16:54:57Z</time></trkpt><trkpt lat="46.1514783" lon="12.1839808"><ele>500.1666666666667</ele><time>2026-04-27T16:54:58.999Z</time></trkpt><trkpt lat="46.1514413" lon="12.1838531"><ele>501.33333333333337</ele><time>2026-04-27T16:55:00.999Z</time></trkpt><trkpt lat="46.1514166" lon="12.1837311"><ele>502.5</ele><time>2026-04-27T16:55:02.999Z</time></trkpt><trkpt lat="46.1514352" lon="12.1836358"><ele>503.66666666666663</ele><time>2026-04-27T16:55:04.999Z</time></trkpt><trkpt lat="46.1514898" lon="12.1835485"><ele>504.8333333333333</ele><time>2026-04-27T16:55:06.999Z</time></trkpt><trkpt lat="46.1515287" lon="12.1834582"><ele>506.0</ele><time>2026-04-27T16:55:08.999Z</time></trkpt><trkpt lat="46.151587" lon="12.1833858"><ele>506.00000000000006</ele><time>2026-04-27T16:55:11.999Z</time></trkpt><trkpt lat="46.1515724" lon="12.1832846"><ele>506.0</ele><time>2026-04-27T16:55:18Z</time></trkpt><trkpt lat="46.151517" lon="12.1833283"><ele>506.00000000000006</ele><time>2026-04-27T16:55:22Z</time></trkpt><trkpt lat="46.1514336" lon="12.1833276"><ele>506.00000000000006</ele><time>2026-04-27T16:55:26Z</time></trkpt><trkpt lat="46.1513785" lon="12.1832412"><ele>506.0</ele><time>2026-04-27T16:55:30.999Z</time></trkpt><trkpt lat="46.1513731" lon="12.183144"><ele>506.00000000000006</ele><time>2026-04-27T16:55:35Z</time></trkpt><trkpt lat="46.1513645" lon="12.183038"><ele>506.00000000000006</ele><time>2026-04-27T16:55:39Z</time></trkpt><trkpt lat="46.1513661" lon="12.1829234"><ele>508.1428571428572</ele><time>2026-04-27T16:55:43Z</time></trkpt><trkpt lat="46.15137" lon="12.1828117"><ele>510.28571428571433</ele><time>2026-04-27T16:55:45.999Z</time></trkpt><trkpt lat="46.1513747" lon="12.1827011"><ele>512.4285714285714</ele><time>2026-04-27T16:55:49.999Z</time></trkpt><trkpt lat="46.1513862" lon="12.1826048"><ele>514.5714285714287</ele><time>2026-04-27T16:55:54Z</time></trkpt><trkpt lat="46.1513883" lon="12.1825027"><ele>516.7142857142858</ele><time>2026-04-27T16:55:58.999Z</time></trkpt><trkpt lat="46.1513962" lon="12.1824044"><ele>518.8571428571429</ele><time>2026-04-27T16:56:04.999Z</time></trkpt><trkpt lat="46.1513901" lon="12.1823127"><ele>521.0</ele><time>2026-04-27T16:56:31.999Z</time></trkpt><trkpt lat="46.1513579" lon="12.1822267"><ele>523.5714285714286</ele><time>2026-04-27T16:56:40.999Z</time></trkpt><trkpt lat="46.1513155" lon="12.1821427"><ele>526.1428571428571</ele><time>2026-04-27T16:56:54.999Z</time></trkpt><trkpt lat="46.1512853" lon="12.1820395"><ele>528.7142857142858</ele><time>2026-04-27T16:57:22.999Z</time></trkpt><trkpt lat="46.15124" lon="12.1819692"><ele>531.2857142857142</ele><time>2026-04-27T16:57:30.999Z</time></trkpt><trkpt lat="46.1511844" lon="12.1819086"><ele>533.8571428571429</ele><time>2026-04-27T16:57:37Z</time></trkpt><trkpt lat="46.1511303" lon="12.1818488"><ele>536.4285714285714</ele><time>2026-04-27T16:57:43.999Z</time></trkpt><trkpt lat="46.151095" lon="12.1817668"><ele>539.0</ele><time>2026-04-27T16:57:54.999Z</time></trkpt><trkpt lat="46.1510513" lon="12.1816882"><ele>539.0</ele><time>2026-04-27T16:58:10.999Z</time></trkpt><trkpt lat="46.1510151" lon="12.1816112"><ele>539.0</ele><time>2026-04-27T16:58:14.999Z</time></trkpt><trkpt lat="46.150965" lon="12.1815477"><ele>539.0</ele><time>2026-04-27T16:58:17.999Z</time></trkpt><trkpt lat="46.1509407" lon="12.181458"><ele>539.0</ele><time>2026-04-27T16:58:21.999Z</time></trkpt><trkpt lat="46.150917" lon="12.1813634"><ele>539.0</ele><time>2026-04-27T16:58:25.999Z</time></trkpt><trkpt lat="46.1508767" lon="12.1812788"><ele>539.0</ele><time>2026-04-27T16:58:29.999Z</time></trkpt><trkpt lat="46.1508412" lon="12.1812037"><ele>539.0</ele><time>2026-04-27T16:58:32.999Z</time></trkpt><trkpt lat="46.1508152" lon="12.1810946"><ele>540.2857142857143</ele><time>2026-04-27T16:58:36.999Z</time></trkpt><trkpt lat="46.150785" lon="12.1810069"><ele>541.5714285714286</ele><time>2026-04-27T16:59:23.999Z</time></trkpt><trkpt lat="46.1507357" lon="12.1809155"><ele>542.8571428571429</ele><time>2026-04-27T16:59:28Z</time></trkpt><trkpt lat="46.1507429" lon="12.1808163"><ele>544.1428571428571</ele><time>2026-04-27T16:59:32.999Z</time></trkpt><trkpt lat="46.1507602" lon="12.1807114"><ele>545.4285714285714</ele><time>2026-04-27T16:59:38.999Z</time></trkpt><trkpt lat="46.1507713" lon="12.1806077"><ele>546.7142857142858</ele><time>2026-04-27T16:59:42.999Z</time></trkpt><trkpt lat="46.1507746" lon="12.180499"><ele>548.0</ele><time>2026-04-27T16:59:46.999Z</time></trkpt><trkpt lat="46.1507193" lon="12.1804509"><ele>547.8571428571429</ele><time>2026-04-27T16:59:49.999Z</time></trkpt><trkpt lat="46.1506423" lon="12.1804782"><ele>547.7142857142858</ele><time>2026-04-27T16:59:52.999Z</time></trkpt><trkpt lat="46.1505722" lon="12.1804927"><ele>547.5714285714286</ele><time>2026-04-27T16:59:56Z</time></trkpt><trkpt lat="46.1505002" lon="12.1804478"><ele>547.4285714285714</ele><time>2026-04-27T17:00:00Z</time></trkpt><trkpt lat="46.1504669" lon="12.1803616"><ele>547.2857142857142</ele><time>2026-04-27T17:00:02.999Z</time></trkpt><trkpt lat="46.1504513" lon="12.1802588"><ele>547.1428571428571</ele><time>2026-04-27T17:00:06Z</time></trkpt><trkpt lat="46.1504332" lon="12.1801575"><ele>547.0</ele><time>2026-04-27T17:00:08.999Z</time></trkpt><trkpt lat="46.1504146" lon="12.1800578"><ele>547.0</ele><time>2026-04-27T17:00:11.999Z</time></trkpt><trkpt lat="46.1504015" lon="12.1799525"><ele>547.0</ele><time>2026-04-27T17:00:14.999Z</time></trkpt><trkpt lat="46.1503759" lon="12.1798376"><ele>547.0</ele><time>2026-04-27T17:00:17.999Z</time></trkpt><trkpt lat="46.1503452" lon="12.1797213"><ele>547.0</ele><time>2026-04-27T17:00:20.999Z</time></trkpt><trkpt lat="46.1503197" lon="12.1796039"><ele>547.0</ele><time>2026-04-27T17:00:23.999Z</time></trkpt><trkpt lat="46.1502963" lon="12.1794824"><ele>547.0</ele><time>2026-04-27T17:00:27Z</time></trkpt><trkpt lat="46.1503169" lon="12.1793847"><ele>546.8333333333334</ele><time>2026-04-27T17:00:30.999Z</time></trkpt><trkpt lat="46.1503697" lon="12.1793348"><ele>546.6666666666667</ele><time>2026-04-27T17:00:34.999Z</time></trkpt><trkpt lat="46.1504308" lon="12.1792806"><ele>546.5</ele><time>2026-04-27T17:00:38.999Z</time></trkpt><trkpt lat="46.1505008" lon="12.1792124"><ele>546.3333333333334</ele><time>2026-04-27T17:00:42.999Z</time></trkpt><trkpt lat="46.1505606" lon="12.1791412"><ele>546.1666666666666</ele><time>2026-04-27T17:00:46Z</time></trkpt><trkpt lat="46.1506197" lon="12.179046"><ele>546.0</ele><time>2026-04-27T17:00:49Z</time></trkpt><trkpt lat="46.1506712" lon="12.1789436"><ele>547.8333333333334</ele><time>2026-04-27T17:00:52Z</time></trkpt><trkpt lat="46.1507299" lon="12.1788431"><ele>549.6666666666666</ele><time>2026-04-27T17:00:54.999Z</time></trkpt><trkpt lat="46.1507804" lon="12.1787336"><ele>551.5</ele><time>2026-04-27T17:00:57.999Z</time></trkpt><trkpt lat="46.1508217" lon="12.1786454"><ele>553.3333333333333</ele><time>2026-04-27T17:01:00.999Z</time></trkpt><trkpt lat="46.1508567" lon="12.1785282"><ele>555.1666666666666</ele><time>2026-04-27T17:01:05Z</time></trkpt><trkpt lat="46.1508748" lon="12.1783953"><ele>557.0</ele><time>2026-04-27T17:01:07.999Z</time></trkpt><trkpt lat="46.1508797" lon="12.1783002"><ele>557.6666666666666</ele><time>2026-04-27T17:01:09.999Z</time></trkpt><trkpt lat="46.1508816" lon="12.1781712"><ele>558.3333333333333</ele><time>2026-04-27T17:01:12.999Z</time></trkpt><trkpt lat="46.1508826" lon="12.1780768"><ele>559.0</ele><time>2026-04-27T17:01:14.999Z</time></trkpt><trkpt lat="46.150878" lon="12.1779775"><ele>559.6666666666666</ele><time>2026-04-27T17:01:16.999Z</time></trkpt><trkpt lat="46.1508709" lon="12.1778737"><ele>560.3333333333334</ele><time>2026-04-27T17:01:18.999Z</time></trkpt><trkpt lat="46.1508619" lon="12.1777643"><ele>561.0</ele><time>2026-04-27T17:01:21Z</time></trkpt><trkpt lat="46.1508613" lon="12.1776482"><ele>561.0</ele><time>2026-04-27T17:01:23Z</time></trkpt><trkpt lat="46.1508574" lon="12.1775249"><ele>561.0</ele><time>2026-04-27T17:01:24.999Z</time></trkpt><trkpt lat="46.1508519" lon="12.1773967"><ele>561.0</ele><time>2026-04-27T17:01:26.999Z</time></trkpt><trkpt lat="46.1508461" lon="12.1772683"><ele>561.0</ele><time>2026-04-27T17:01:29Z</time></trkpt><trkpt lat="46.1508501" lon="12.1771329"><ele>561.0</ele><time>2026-04-27T17:01:30.999Z</time></trkpt><trkpt lat="46.150845" lon="12.1769984"><ele>561.0</ele><time>2026-04-27T17:01:33Z</time></trkpt><trkpt lat="46.1508362" lon="12.1768571"><ele>561.0</ele><time>2026-04-27T17:01:34.999Z</time></trkpt><trkpt lat="46.1508293" lon="12.1767201"><ele>561.0</ele><time>2026-04-27T17:01:36.999Z</time></trkpt><trkpt lat="46.1508286" lon="12.1765913"><ele>561.0</ele><time>2026-04-27T17:01:38.999Z</time></trkpt><trkpt lat="46.1508298" lon="12.176457"><ele>561.0</ele><time>2026-04-27T17:01:41Z</time></trkpt><trkpt lat="46.1508393" lon="12.1763274"><ele>560.8333333333334</ele><time>2026-04-27T17:01:43Z</time></trkpt><trkpt lat="46.1508495" lon="12.1761935"><ele>560.6666666666666</ele><time>2026-04-27T17:01:44.999Z</time></trkpt><trkpt lat="46.1508662" lon="12.1760686"><ele>560.5</ele><time>2026-04-27T17:01:46.999Z</time></trkpt><trkpt lat="46.1508933" lon="12.1759487"><ele>560.3333333333333</ele><time>2026-04-27T17:01:49Z</time></trkpt><trkpt lat="46.1509393" lon="12.175865"><ele>560.1666666666666</ele><time>2026-04-27T17:01:51.141Z</time></trkpt><trkpt lat="46.1509931" lon="12.1757832"><ele>560.0</ele><time>2026-04-27T17:02:02.999Z</time></trkpt><trkpt lat="46.1509716" lon="12.1756641"><ele>559.5</ele><time>2026-04-27T17:02:06.999Z</time></trkpt><trkpt lat="46.1509475" lon="12.1755389"><ele>559.0</ele><time>2026-04-27T17:02:09.999Z</time></trkpt><trkpt lat="46.1509198" lon="12.1754482"><ele>558.5</ele><time>2026-04-27T17:02:11.999Z</time></trkpt><trkpt lat="46.1508922" lon="12.1753472"><ele>558.0</ele><time>2026-04-27T17:02:13.999Z</time></trkpt><trkpt lat="46.1508601" lon="12.1752386"><ele>557.5</ele><time>2026-04-27T17:02:15.999Z</time></trkpt><trkpt lat="46.1508202" lon="12.1751082"><ele>557.0</ele><time>2026-04-27T17:02:18Z</time></trkpt><trkpt lat="46.1507895" lon="12.1749749"><ele>557.0</ele><time>2026-04-27T17:02:19.999Z</time></trkpt><trkpt lat="46.1507531" lon="12.1748559"><ele>557.0</ele><time>2026-04-27T17:02:21.999Z</time></trkpt><trkpt lat="46.1506996" lon="12.1747958"><ele>557.0</ele><time>2026-04-27T17:02:23.999Z</time></trkpt><trkpt lat="46.1506408" lon="12.1747449"><ele>557.0</ele><time>2026-04-27T17:02:26.999Z</time></trkpt><trkpt lat="46.150705" lon="12.1747421"><ele>557.0</ele><time>2026-04-27T17:02:33.999Z</time></trkpt><trkpt lat="46.1507649" lon="12.1747927"><ele>557.0</ele><time>2026-04-27T17:02:35.999Z</time></trkpt><trkpt lat="46.1508349" lon="12.1747815"><ele>557.0</ele><time>2026-04-27T17:02:37.999Z</time></trkpt><trkpt lat="46.150915" lon="12.1747181"><ele>555.8000000000001</ele><time>2026-04-27T17:02:39.999Z</time></trkpt><trkpt lat="46.1510257" lon="12.1746461"><ele>554.6</ele><time>2026-04-27T17:02:41.999Z</time></trkpt><trkpt lat="46.1510941" lon="12.1746145"><ele>553.4000000000001</ele><time>2026-04-27T17:02:42.999Z</time></trkpt><trkpt lat="46.1511729" lon="12.1745632"><ele>552.2</ele><time>2026-04-27T17:02:43.999Z</time></trkpt><trkpt lat="46.1512546" lon="12.1745209"><ele>551.0</ele><time>2026-04-27T17:02:44.999Z</time></trkpt><trkpt lat="46.1513485" lon="12.1744746"><ele>551.0</ele><time>2026-04-27T17:02:45.999Z</time></trkpt><trkpt lat="46.1514422" lon="12.1744328"><ele>551.0</ele><time>2026-04-27T17:02:47Z</time></trkpt><trkpt lat="46.1515451" lon="12.174393"><ele>551.0</ele><time>2026-04-27T17:02:48Z</time></trkpt><trkpt lat="46.1516495" lon="12.1743476"><ele>551.0</ele><time>2026-04-27T17:02:48.999Z</time></trkpt><trkpt lat="46.1517484" lon="12.1742968"><ele>551.0</ele><time>2026-04-27T17:02:49.999Z</time></trkpt><trkpt lat="46.1518479" lon="12.1742412"><ele>549.4</ele><time>2026-04-27T17:02:50.999Z</time></trkpt><trkpt lat="46.15195" lon="12.1741833"><ele>547.8</ele><time>2026-04-27T17:02:51.999Z</time></trkpt><trkpt lat="46.1520415" lon="12.1741193"><ele>546.1999999999999</ele><time>2026-04-27T17:02:52.999Z</time></trkpt><trkpt lat="46.1521271" lon="12.1740464"><ele>544.6</ele><time>2026-04-27T17:02:53.999Z</time></trkpt><trkpt lat="46.1522065" lon="12.1739666"><ele>543.0</ele><time>2026-04-27T17:02:54.999Z</time></trkpt><trkpt lat="46.1522832" lon="12.1738887"><ele>543.0</ele><time>2026-04-27T17:02:56Z</time></trkpt><trkpt lat="46.1523575" lon="12.1738188"><ele>543.0</ele><time>2026-04-27T17:02:56.999Z</time></trkpt><trkpt lat="46.1524273" lon="12.1737648"><ele>543.0</ele><time>2026-04-27T17:02:58Z</time></trkpt><trkpt lat="46.1525049" lon="12.1737333"><ele>543.0</ele><time>2026-04-27T17:02:59Z</time></trkpt><trkpt lat="46.1525711" lon="12.1737299"><ele>543.0</ele><time>2026-04-27T17:02:59.999Z</time></trkpt><trkpt lat="46.1526592" lon="12.1738115"><ele>543.0</ele><time>2026-04-27T17:03:01.999Z</time></trkpt><trkpt lat="46.1527337" lon="12.1739203"><ele>543.0</ele><time>2026-04-27T17:03:03.999Z</time></trkpt><trkpt lat="46.1528348" lon="12.173933"><ele>543.0</ele><time>2026-04-27T17:03:05.999Z</time></trkpt><trkpt lat="46.1529352" lon="12.1738619"><ele>543.0</ele><time>2026-04-27T17:03:07.999Z</time></trkpt><trkpt lat="46.1530238" lon="12.1737468"><ele>543.0</ele><time>2026-04-27T17:03:09.999Z</time></trkpt><trkpt lat="46.1531152" lon="12.1736199"><ele>543.0</ele><time>2026-04-27T17:03:11.999Z</time></trkpt><trkpt lat="46.153167" lon="12.1735604"><ele>543.0</ele><time>2026-04-27T17:03:12.999Z</time></trkpt><trkpt lat="46.1532226" lon="12.1735064"><ele>543.0</ele><time>2026-04-27T17:03:13.999Z</time></trkpt><trkpt lat="46.1532834" lon="12.1734599"><ele>543.0</ele><time>2026-04-27T17:03:15Z</time></trkpt><trkpt lat="46.1533478" lon="12.1734165"><ele>543.0</ele><time>2026-04-27T17:03:15.999Z</time></trkpt><trkpt lat="46.1534085" lon="12.1733772"><ele>543.0</ele><time>2026-04-27T17:03:17Z</time></trkpt><trkpt lat="46.1534718" lon="12.1733475"><ele>543.0</ele><time>2026-04-27T17:03:18Z</time></trkpt><trkpt lat="46.1535376" lon="12.1733283"><ele>543.8</ele><time>2026-04-27T17:03:19Z</time></trkpt><trkpt lat="46.1536028" lon="12.1733162"><ele>544.5999999999999</ele><time>2026-04-27T17:03:19.999Z</time></trkpt><trkpt lat="46.1536672" lon="12.1733044"><ele>545.4000000000001</ele><time>2026-04-27T17:03:21.148Z</time></trkpt><trkpt lat="46.1537928" lon="12.1732928"><ele>546.2</ele><time>2026-04-27T17:03:22.999Z</time></trkpt><trkpt lat="46.1539188" lon="12.1732804"><ele>547.0</ele><time>2026-04-27T17:03:24.999Z</time></trkpt><trkpt lat="46.1540344" lon="12.1732862"><ele>547.8000000000001</ele><time>2026-04-27T17:03:26.999Z</time></trkpt><trkpt lat="46.1541405" lon="12.1732871"><ele>548.6</ele><time>2026-04-27T17:03:28.999Z</time></trkpt><trkpt lat="46.1542441" lon="12.1732881"><ele>549.4000000000001</ele><time>2026-04-27T17:03:31Z</time></trkpt><trkpt lat="46.1543479" lon="12.1733045"><ele>550.2</ele><time>2026-04-27T17:03:32.999Z</time></trkpt><trkpt lat="46.1544463" lon="12.1733136"><ele>551.0</ele><time>2026-04-27T17:03:34.999Z</time></trkpt><trkpt lat="46.1545347" lon="12.1733062"><ele>551.0</ele><time>2026-04-27T17:03:36.999Z</time></trkpt><trkpt lat="46.1546112" lon="12.1732187"><ele>551.0</ele><time>2026-04-27T17:03:38.999Z</time></trkpt><trkpt lat="46.1546165" lon="12.1731234"><ele>551.0</ele><time>2026-04-27T17:03:39.999Z</time></trkpt><trkpt lat="46.1546196" lon="12.1730316"><ele>551.0</ele><time>2026-04-27T17:03:40.999Z</time></trkpt><trkpt lat="46.1546301" lon="12.1729331"><ele>551.0</ele><time>2026-04-27T17:03:41.999Z</time></trkpt><trkpt lat="46.1546954" lon="12.1727926"><ele>551.0</ele><time>2026-04-27T17:03:43.999Z</time></trkpt><trkpt lat="46.1548116" lon="12.1727537"><ele>550.4</ele><time>2026-04-27T17:03:46Z</time></trkpt><trkpt lat="46.1549274" lon="12.1727348"><ele>549.8</ele><time>2026-04-27T17:03:47.999Z</time></trkpt><trkpt lat="46.1549946" lon="12.1727121"><ele>549.1999999999999</ele><time>2026-04-27T17:03:49Z</time></trkpt><trkpt lat="46.1550938" lon="12.1726402"><ele>548.6</ele><time>2026-04-27T17:03:50.999Z</time></trkpt><trkpt lat="46.1551816" lon="12.1725879"><ele>548.0</ele><time>2026-04-27T17:03:52.999Z</time></trkpt><trkpt lat="46.1552466" lon="12.1725571"><ele>548.0</ele><time>2026-04-27T17:03:53.999Z</time></trkpt><trkpt lat="46.1553216" lon="12.172505"><ele>548.0</ele><time>2026-04-27T17:03:56Z</time></trkpt><trkpt lat="46.1553807" lon="12.1724619"><ele>548.0</ele><time>2026-04-27T17:03:57Z</time></trkpt><trkpt lat="46.1554685" lon="12.1724046"><ele>548.0</ele><time>2026-04-27T17:03:58.999Z</time></trkpt><trkpt lat="46.1555607" lon="12.1723704"><ele>548.0</ele><time>2026-04-27T17:04:00.999Z</time></trkpt><trkpt lat="46.1556514" lon="12.1723293"><ele>548.0</ele><time>2026-04-27T17:04:02.999Z</time></trkpt><trkpt lat="46.1557387" lon="12.1722737"><ele>549.4</ele><time>2026-04-27T17:04:05Z</time></trkpt><trkpt lat="46.1558214" lon="12.172219"><ele>550.8</ele><time>2026-04-27T17:04:07Z</time></trkpt><trkpt lat="46.1559058" lon="12.172157"><ele>552.2</ele><time>2026-04-27T17:04:08.999Z</time></trkpt><trkpt lat="46.1559995" lon="12.1720764"><ele>553.6</ele><time>2026-04-27T17:04:10.999Z</time></trkpt><trkpt lat="46.1560823" lon="12.1720088"><ele>555.0</ele><time>2026-04-27T17:04:12.999Z</time></trkpt><trkpt lat="46.156158" lon="12.1719357"><ele>555.0</ele><time>2026-04-27T17:04:15Z</time></trkpt><trkpt lat="46.1562326" lon="12.1718737"><ele>555.0</ele><time>2026-04-27T17:04:17Z</time></trkpt><trkpt lat="46.1563066" lon="12.1718088"><ele>555.0</ele><time>2026-04-27T17:04:18.999Z</time></trkpt><trkpt lat="46.1563809" lon="12.171747"><ele>555.0</ele><time>2026-04-27T17:04:20.999Z</time></trkpt><trkpt lat="46.1564554" lon="12.1716886"><ele>555.0</ele><time>2026-04-27T17:04:23Z</time></trkpt><trkpt lat="46.1565287" lon="12.1716271"><ele>555.0</ele><time>2026-04-27T17:04:25Z</time></trkpt><trkpt lat="46.1566076" lon="12.1715772"><ele>555.6666666666666</ele><time>2026-04-27T17:04:26.999Z</time></trkpt><trkpt lat="46.1566886" lon="12.1715318"><ele>556.3333333333334</ele><time>2026-04-27T17:04:29Z</time></trkpt><trkpt lat="46.1567735" lon="12.1715"><ele>557.0</ele><time>2026-04-27T17:04:30.999Z</time></trkpt><trkpt lat="46.1568591" lon="12.1714791"><ele>557.6666666666667</ele><time>2026-04-27T17:04:32.999Z</time></trkpt><trkpt lat="46.1569436" lon="12.1714613"><ele>558.3333333333334</ele><time>2026-04-27T17:04:35Z</time></trkpt><trkpt lat="46.1570292" lon="12.1714495"><ele>559.0</ele><time>2026-04-27T17:04:36.999Z</time></trkpt><trkpt lat="46.1571218" lon="12.1714473"><ele>559.0</ele><time>2026-04-27T17:04:38.999Z</time></trkpt><trkpt lat="46.1572156" lon="12.1714329"><ele>559.0</ele><time>2026-04-27T17:04:40.999Z</time></trkpt><trkpt lat="46.1573092" lon="12.1714185"><ele>559.0</ele><time>2026-04-27T17:04:42.999Z</time></trkpt><trkpt lat="46.1574025" lon="12.171385"><ele>559.0</ele><time>2026-04-27T17:04:44.999Z</time></trkpt><trkpt lat="46.1574996" lon="12.1713619"><ele>559.0</ele><time>2026-04-27T17:04:47Z</time></trkpt><trkpt lat="46.1575982" lon="12.1713609"><ele>559.75</ele><time>2026-04-27T17:04:49Z</time></trkpt><trkpt lat="46.1577002" lon="12.1713643"><ele>560.5</ele><time>2026-04-27T17:04:50.999Z</time></trkpt><trkpt lat="46.1578105" lon="12.1713368"><ele>561.25</ele><time>2026-04-27T17:04:52.999Z</time></trkpt><trkpt lat="46.1579196" lon="12.1712845"><ele>562.0</ele><time>2026-04-27T17:04:55Z</time></trkpt><trkpt lat="46.1580464" lon="12.1712014"><ele>562.0</ele><time>2026-04-27T17:04:56.999Z</time></trkpt><trkpt lat="46.1581112" lon="12.1711529"><ele>562.0</ele><time>2026-04-27T17:04:58Z</time></trkpt><trkpt lat="46.158184" lon="12.1710971"><ele>562.0</ele><time>2026-04-27T17:04:59Z</time></trkpt><trkpt lat="46.1582539" lon="12.1710472"><ele>562.0</ele><time>2026-04-27T17:05:00Z</time></trkpt><trkpt lat="46.1583284" lon="12.1710105"><ele>562.0</ele><time>2026-04-27T17:05:01Z</time></trkpt><trkpt lat="46.1584043" lon="12.1709847"><ele>562.0</ele><time>2026-04-27T17:05:01.999Z</time></trkpt><trkpt lat="46.1584854" lon="12.1709654"><ele>560.6666666666667</ele><time>2026-04-27T17:05:03Z</time></trkpt><trkpt lat="46.1585695" lon="12.1709487"><ele>559.3333333333334</ele><time>2026-04-27T17:05:03.999Z</time></trkpt><trkpt lat="46.1586512" lon="12.1709536"><ele>558.0</ele><time>2026-04-27T17:05:04.999Z</time></trkpt><trkpt lat="46.1587329" lon="12.1709678"><ele>556.6666666666666</ele><time>2026-04-27T17:05:05.999Z</time></trkpt><trkpt lat="46.1588119" lon="12.1709913"><ele>555.3333333333333</ele><time>2026-04-27T17:05:06.999Z</time></trkpt><trkpt lat="46.158888" lon="12.1710169"><ele>554.0</ele><time>2026-04-27T17:05:07.999Z</time></trkpt><trkpt lat="46.1589533" lon="12.1710459"><ele>554.0</ele><time>2026-04-27T17:05:08.999Z</time></trkpt><trkpt lat="46.1590214" lon="12.1710633"><ele>554.0</ele><time>2026-04-27T17:05:10Z</time></trkpt><trkpt lat="46.159087" lon="12.1710709"><ele>554.0</ele><time>2026-04-27T17:05:11Z</time></trkpt><trkpt lat="46.1591509" lon="12.1710629"><ele>554.0</ele><time>2026-04-27T17:05:12Z</time></trkpt><trkpt lat="46.1592144" lon="12.1710545"><ele>554.0</ele><time>2026-04-27T17:05:12.999Z</time></trkpt><trkpt lat="46.1593316" lon="12.171001"><ele>554.0</ele><time>2026-04-27T17:05:14.999Z</time></trkpt><trkpt lat="46.1594451" lon="12.1709316"><ele>554.0</ele><time>2026-04-27T17:05:16.999Z</time></trkpt><trkpt lat="46.159552" lon="12.1708652"><ele>554.0</ele><time>2026-04-27T17:05:18.999Z</time></trkpt><trkpt lat="46.1596389" lon="12.1707959"><ele>554.0</ele><time>2026-04-27T17:05:21Z</time></trkpt><trkpt lat="46.159714" lon="12.1707358"><ele>554.0</ele><time>2026-04-27T17:05:22.999Z</time></trkpt><trkpt lat="46.1597885" lon="12.1706969"><ele>554.0</ele><time>2026-04-27T17:05:24.999Z</time></trkpt><trkpt lat="46.1598598" lon="12.1706626"><ele>552.6666666666666</ele><time>2026-04-27T17:05:26.999Z</time></trkpt><trkpt lat="46.1599269" lon="12.1706512"><ele>551.3333333333333</ele><time>2026-04-27T17:05:28.999Z</time></trkpt><trkpt lat="46.1599995" lon="12.1706469"><ele>550.0</ele><time>2026-04-27T17:05:30.999Z</time></trkpt><trkpt lat="46.1600716" lon="12.1706481"><ele>548.6666666666666</ele><time>2026-04-27T17:05:33Z</time></trkpt><trkpt lat="46.160142" lon="12.1706623"><ele>547.3333333333334</ele><time>2026-04-27T17:05:35Z</time></trkpt><trkpt lat="46.1602258" lon="12.1706794"><ele>546.0</ele><time>2026-04-27T17:05:37.999Z</time></trkpt><trkpt lat="46.1603123" lon="12.1706706"><ele>546.0</ele><time>2026-04-27T17:05:40.999Z</time></trkpt><trkpt lat="46.1604032" lon="12.1706712"><ele>546.0</ele><time>2026-04-27T17:05:43.999Z</time></trkpt><trkpt lat="46.160489" lon="12.1706724"><ele>546.0</ele><time>2026-04-27T17:05:46.999Z</time></trkpt><trkpt lat="46.160558" lon="12.1706692"><ele>546.0</ele><time>2026-04-27T17:05:50Z</time></trkpt><trkpt lat="46.1606348" lon="12.1706627"><ele>546.0</ele><time>2026-04-27T17:05:53.999Z</time></trkpt><trkpt lat="46.1607168" lon="12.1706692"><ele>546.0</ele><time>2026-04-27T17:05:56.999Z</time></trkpt><trkpt lat="46.1608011" lon="12.1706544"><ele>545.5</ele><time>2026-04-27T17:06:00Z</time></trkpt><trkpt lat="46.1608951" lon="12.1706522"><ele>545.0</ele><time>2026-04-27T17:06:02.999Z</time></trkpt><trkpt lat="46.1609586" lon="12.1706462"><ele>544.5</ele><time>2026-04-27T17:06:04.999Z</time></trkpt><trkpt lat="46.1610697" lon="12.1706326"><ele>544.0</ele><time>2026-04-27T17:06:08.999Z</time></trkpt><trkpt lat="46.1611335" lon="12.1706246"><ele>543.5</ele><time>2026-04-27T17:06:10.999Z</time></trkpt><trkpt lat="46.161202" lon="12.1706094"><ele>543.0</ele><time>2026-04-27T17:06:12.999Z</time></trkpt><trkpt lat="46.161296" lon="12.1706094"><ele>543.0</ele><time>2026-04-27T17:06:14.999Z</time></trkpt><trkpt lat="46.1613876" lon="12.1706438"><ele>543.0</ele><time>2026-04-27T17:06:16.999Z</time></trkpt><trkpt lat="46.1614864" lon="12.1707166"><ele>543.0</ele><time>2026-04-27T17:06:18.999Z</time></trkpt><trkpt lat="46.1615906" lon="12.1707921"><ele>543.0</ele><time>2026-04-27T17:06:21Z</time></trkpt><trkpt lat="46.1616878" lon="12.1708692"><ele>543.0</ele><time>2026-04-27T17:06:22.999Z</time></trkpt><trkpt lat="46.1617768" lon="12.1709016"><ele>544.0</ele><time>2026-04-27T17:06:25Z</time></trkpt><trkpt lat="46.1618756" lon="12.170857"><ele>545.0</ele><time>2026-04-27T17:06:27Z</time></trkpt><trkpt lat="46.1619719" lon="12.1707765"><ele>546.0</ele><time>2026-04-27T17:06:28.999Z</time></trkpt><trkpt lat="46.1620814" lon="12.1707089"><ele>547.0</ele><time>2026-04-27T17:06:30.999Z</time></trkpt><trkpt lat="46.1621839" lon="12.170638"><ele>548.0</ele><time>2026-04-27T17:06:32.999Z</time></trkpt><trkpt lat="46.162295" lon="12.1705604"><ele>550.0</ele><time>2026-04-27T17:06:34.999Z</time></trkpt><trkpt lat="46.1624037" lon="12.1704866"><ele>552.0</ele><time>2026-04-27T17:06:36.999Z</time></trkpt><trkpt lat="46.1625124" lon="12.1704143"><ele>554.0</ele><time>2026-04-27T17:06:39Z</time></trkpt><trkpt lat="46.1626153" lon="12.1703391"><ele>556.0</ele><time>2026-04-27T17:06:40.999Z</time></trkpt><trkpt lat="46.1627131" lon="12.1702675"><ele>556.0</ele><time>2026-04-27T17:06:43Z</time></trkpt><trkpt lat="46.1628057" lon="12.1701955"><ele>556.0</ele><time>2026-04-27T17:06:45Z</time></trkpt><trkpt lat="46.1628921" lon="12.1701381"><ele>556.0</ele><time>2026-04-27T17:06:46.999Z</time></trkpt><trkpt lat="46.1629713" lon="12.1700816"><ele>556.0</ele><time>2026-04-27T17:06:49Z</time></trkpt><trkpt lat="46.1630424" lon="12.1700235"><ele>556.0</ele><time>2026-04-27T17:06:50.999Z</time></trkpt><trkpt lat="46.1631034" lon="12.1699661"><ele>556.0</ele><time>2026-04-27T17:06:52.999Z</time></trkpt><trkpt lat="46.1631809" lon="12.1698892"><ele>557.5714285714286</ele><time>2026-04-27T17:06:55.999Z</time></trkpt><trkpt lat="46.1632194" lon="12.1698088"><ele>559.1428571428571</ele><time>2026-04-27T17:06:57.999Z</time></trkpt><trkpt lat="46.1632528" lon="12.1697203"><ele>560.7142857142858</ele><time>2026-04-27T17:06:59.999Z</time></trkpt><trkpt lat="46.1632845" lon="12.1696348"><ele>562.2857142857142</ele><time>2026-04-27T17:07:01.999Z</time></trkpt><trkpt lat="46.1633202" lon="12.1695502"><ele>563.8571428571429</ele><time>2026-04-27T17:07:04Z</time></trkpt><trkpt lat="46.1633559" lon="12.1694646"><ele>565.4285714285714</ele><time>2026-04-27T17:07:05.999Z</time></trkpt><trkpt lat="46.1633942" lon="12.1693817"><ele>567.0</ele><time>2026-04-27T17:07:07.999Z</time></trkpt><trkpt lat="46.1634337" lon="12.1693018"><ele>567.0</ele><time>2026-04-27T17:07:10Z</time></trkpt><trkpt lat="46.163477" lon="12.1692309"><ele>567.0</ele><time>2026-04-27T17:07:11.999Z</time></trkpt><trkpt lat="46.163518" lon="12.1691566"><ele>567.0</ele><time>2026-04-27T17:07:13.999Z</time></trkpt><trkpt lat="46.163554" lon="12.1690783"><ele>567.0</ele><time>2026-04-27T17:07:15.999Z</time></trkpt><trkpt lat="46.1635948" lon="12.1689594"><ele>567.0</ele><time>2026-04-27T17:07:18.999Z</time></trkpt><trkpt lat="46.1636289" lon="12.1688498"><ele>567.0</ele><time>2026-04-27T17:07:21.999Z</time></trkpt><trkpt lat="46.1636747" lon="12.1687463"><ele>567.6666666666666</ele><time>2026-04-27T17:07:24.999Z</time></trkpt><trkpt lat="46.1637371" lon="12.1686618"><ele>568.3333333333334</ele><time>2026-04-27T17:07:27.999Z</time></trkpt><trkpt lat="46.1637993" lon="12.1686322"><ele>569.0</ele><time>2026-04-27T17:07:31Z</time></trkpt><trkpt lat="46.1638882" lon="12.168631"><ele>569.6666666666667</ele><time>2026-04-27T17:07:33.999Z</time></trkpt><trkpt lat="46.1639725" lon="12.1685843"><ele>570.3333333333334</ele><time>2026-04-27T17:07:36.999Z</time></trkpt><trkpt lat="46.1639972" lon="12.1684885"><ele>571.0</ele><time>2026-04-27T17:07:39.999Z</time></trkpt><trkpt lat="46.1639674" lon="12.1684045"><ele>571.0</ele><time>2026-04-27T17:07:41.999Z</time></trkpt><trkpt lat="46.1639306" lon="12.1683127"><ele>571.0</ele><time>2026-04-27T17:07:43.999Z</time></trkpt><trkpt lat="46.1638987" lon="12.1682182"><ele>571.0</ele><time>2026-04-27T17:07:46Z</time></trkpt><trkpt lat="46.1638686" lon="12.1681139"><ele>571.0</ele><time>2026-04-27T17:07:47.999Z</time></trkpt><trkpt lat="46.1638564" lon="12.1680004"><ele>571.0</ele><time>2026-04-27T17:07:49.999Z</time></trkpt><trkpt lat="46.1638409" lon="12.1678853"><ele>571.0</ele><time>2026-04-27T17:07:51.999Z</time></trkpt><trkpt lat="46.1638142" lon="12.1677727"><ele>571.3333333333334</ele><time>2026-04-27T17:07:53.999Z</time></trkpt><trkpt lat="46.1637816" lon="12.1676725"><ele>571.6666666666667</ele><time>2026-04-27T17:07:56Z</time></trkpt><trkpt lat="46.1637484" lon="12.167575"><ele>572.0</ele><time>2026-04-27T17:07:57.999Z</time></trkpt><trkpt lat="46.1637143" lon="12.1674741"><ele>572.3333333333334</ele><time>2026-04-27T17:07:59.999Z</time></trkpt><trkpt lat="46.1636797" lon="12.1673678"><ele>572.6666666666666</ele><time>2026-04-27T17:08:01.999Z</time></trkpt><trkpt lat="46.1636522" lon="12.1672758"><ele>573.0</ele><time>2026-04-27T17:08:04Z</time></trkpt><trkpt lat="46.1636472" lon="12.1671665"><ele>573.8333333333334</ele><time>2026-04-27T17:08:14.999Z</time></trkpt><trkpt lat="46.163648" lon="12.1670506"><ele>574.6666666666666</ele><time>2026-04-27T17:08:18Z</time></trkpt><trkpt lat="46.1636297" lon="12.1669235"><ele>575.5</ele><time>2026-04-27T17:08:21.138Z</time></trkpt><trkpt lat="46.1636375" lon="12.1667951"><ele>576.3333333333333</ele><time>2026-04-27T17:08:23.999Z</time></trkpt><trkpt lat="46.1636492" lon="12.1666587"><ele>577.1666666666666</ele><time>2026-04-27T17:08:26.999Z</time></trkpt><trkpt lat="46.1636617" lon="12.1665663"><ele>578.0</ele><time>2026-04-27T17:08:28.999Z</time></trkpt><trkpt lat="46.1636814" lon="12.1664771"><ele>578.8333333333333</ele><time>2026-04-27T17:08:31Z</time></trkpt><trkpt lat="46.163709" lon="12.1663926"><ele>579.6666666666666</ele><time>2026-04-27T17:08:32.999Z</time></trkpt><trkpt lat="46.1637436" lon="12.1662882"><ele>580.5</ele><time>2026-04-27T17:08:35.999Z</time></trkpt><trkpt lat="46.163777" lon="12.166204"><ele>581.3333333333334</ele><time>2026-04-27T17:08:40Z</time></trkpt><trkpt lat="46.1638336" lon="12.1661135"><ele>582.1666666666667</ele><time>2026-04-27T17:08:43.999Z</time></trkpt><trkpt lat="46.1637826" lon="12.1660423"><ele>583.0</ele><time>2026-04-27T17:08:46.999Z</time></trkpt><trkpt lat="46.1636961" lon="12.1660028"><ele>583.0</ele><time>2026-04-27T17:08:48.999Z</time></trkpt><trkpt lat="46.1636381" lon="12.1659024"><ele>583.0</ele><time>2026-04-27T17:08:50.999Z</time></trkpt><trkpt lat="46.1635966" lon="12.1657964"><ele>583.0</ele><time>2026-04-27T17:08:52.999Z</time></trkpt><trkpt lat="46.1635576" lon="12.1656804"><ele>583.0</ele><time>2026-04-27T17:08:54.999Z</time></trkpt><trkpt lat="46.1635192" lon="12.1655539"><ele>583.0</ele><time>2026-04-27T17:08:57Z</time></trkpt><trkpt lat="46.1634787" lon="12.165425"><ele>584.1999999999999</ele><time>2026-04-27T17:08:58.999Z</time></trkpt><trkpt lat="46.1634414" lon="12.1652813"><ele>585.4</ele><time>2026-04-27T17:09:00.999Z</time></trkpt><trkpt lat="46.1634252" lon="12.1651295"><ele>586.5999999999999</ele><time>2026-04-27T17:09:02.999Z</time></trkpt><trkpt lat="46.1634128" lon="12.1649876"><ele>587.8</ele><time>2026-04-27T17:09:04.999Z</time></trkpt><trkpt lat="46.1633973" lon="12.1648318"><ele>589.0</ele><time>2026-04-27T17:09:07Z</time></trkpt><trkpt lat="46.1633887" lon="12.1647343"><ele>589.6666666666667</ele><time>2026-04-27T17:09:08Z</time></trkpt><trkpt lat="46.1633785" lon="12.1646404"><ele>590.3333333333334</ele><time>2026-04-27T17:09:08.999Z</time></trkpt><trkpt lat="46.1633661" lon="12.1644817"><ele>591.0</ele><time>2026-04-27T17:09:10.999Z</time></trkpt><trkpt lat="46.1633382" lon="12.1643549"><ele>591.6666666666666</ele><time>2026-04-27T17:09:12.999Z</time></trkpt><trkpt lat="46.1633077" lon="12.1642407"><ele>592.3333333333333</ele><time>2026-04-27T17:09:14.999Z</time></trkpt><trkpt lat="46.1632795" lon="12.1641254"><ele>593.0</ele><time>2026-04-27T17:09:17Z</time></trkpt><trkpt lat="46.163252" lon="12.1640087"><ele>593.6</ele><time>2026-04-27T17:09:19Z</time></trkpt><trkpt lat="46.1632221" lon="12.1639008"><ele>594.1999999999999</ele><time>2026-04-27T17:09:20.999Z</time></trkpt><trkpt lat="46.1631795" lon="12.1637973"><ele>594.8</ele><time>2026-04-27T17:09:22.999Z</time></trkpt><trkpt lat="46.1631116" lon="12.163693"><ele>595.4</ele><time>2026-04-27T17:09:24.999Z</time></trkpt><trkpt lat="46.1630219" lon="12.1636072"><ele>596.0</ele><time>2026-04-27T17:09:26.999Z</time></trkpt><trkpt lat="46.162932" lon="12.1634782"><ele>597.0</ele><time>2026-04-27T17:09:29Z</time></trkpt><trkpt lat="46.162896" lon="12.1633967"><ele>598.0</ele><time>2026-04-27T17:09:29.999Z</time></trkpt><trkpt lat="46.1628527" lon="12.1633152"><ele>599.0</ele><time>2026-04-27T17:09:30.999Z</time></trkpt><trkpt lat="46.1628054" lon="12.1632325"><ele>600.0</ele><time>2026-04-27T17:09:32Z</time></trkpt><trkpt lat="46.162763" lon="12.1631503"><ele>601.0</ele><time>2026-04-27T17:09:32.999Z</time></trkpt><trkpt lat="46.1626664" lon="12.1630414"><ele>602.0</ele><time>2026-04-27T17:09:35Z</time></trkpt><trkpt lat="46.1626029" lon="12.1630335"><ele>602.0</ele><time>2026-04-27T17:09:35.999Z</time></trkpt><trkpt lat="46.1625387" lon="12.1630503"><ele>602.0</ele><time>2026-04-27T17:09:36.999Z</time></trkpt><trkpt lat="46.162471" lon="12.1630751"><ele>602.0</ele><time>2026-04-27T17:09:37.999Z</time></trkpt><trkpt lat="46.1624002" lon="12.1631094"><ele>602.0</ele><time>2026-04-27T17:09:38.999Z</time></trkpt><trkpt lat="46.162334" lon="12.1631537"><ele>602.0</ele><time>2026-04-27T17:09:39.999Z</time></trkpt><trkpt lat="46.1622617" lon="12.1631917"><ele>602.0</ele><time>2026-04-27T17:09:40.999Z</time></trkpt><trkpt lat="46.1621883" lon="12.1632303"><ele>602.0</ele><time>2026-04-27T17:09:41.999Z</time></trkpt><trkpt lat="46.1621148" lon="12.1632681"><ele>598.3333333333333</ele><time>2026-04-27T17:09:42.999Z</time></trkpt><trkpt lat="46.1620439" lon="12.16331"><ele>594.6666666666666</ele><time>2026-04-27T17:09:44Z</time></trkpt><trkpt lat="46.1619725" lon="12.1633519"><ele>591.0</ele><time>2026-04-27T17:09:44.999Z</time></trkpt><trkpt lat="46.1618995" lon="12.1633929"><ele>587.3333333333334</ele><time>2026-04-27T17:09:46Z</time></trkpt><trkpt lat="46.1618287" lon="12.1634305"><ele>583.6666666666667</ele><time>2026-04-27T17:09:47Z</time></trkpt><trkpt lat="46.161759" lon="12.1634695"><ele>580.0</ele><time>2026-04-27T17:09:47.999Z</time></trkpt><trkpt lat="46.1616885" lon="12.1635149"><ele>580.0</ele><time>2026-04-27T17:09:49Z</time></trkpt><trkpt lat="46.1616172" lon="12.1635564"><ele>580.0</ele><time>2026-04-27T17:09:50Z</time></trkpt><trkpt lat="46.1615431" lon="12.1636007"><ele>580.0</ele><time>2026-04-27T17:09:51Z</time></trkpt><trkpt lat="46.1614664" lon="12.1636424"><ele>580.0</ele><time>2026-04-27T17:09:52Z</time></trkpt><trkpt lat="46.161392" lon="12.1636833"><ele>580.0</ele><time>2026-04-27T17:09:52.999Z</time></trkpt><trkpt lat="46.1613265" lon="12.1637188"><ele>580.0</ele><time>2026-04-27T17:09:53.999Z</time></trkpt><trkpt lat="46.1612196" lon="12.1637757"><ele>578.6666666666667</ele><time>2026-04-27T17:09:55.999Z</time></trkpt><trkpt lat="46.1611572" lon="12.1638022"><ele>577.3333333333334</ele><time>2026-04-27T17:09:57.999Z</time></trkpt><trkpt lat="46.1611541" lon="12.1637044"><ele>576.0</ele><time>2026-04-27T17:10:02.999Z</time></trkpt><trkpt lat="46.1611482" lon="12.163567"><ele>574.6666666666666</ele><time>2026-04-27T17:10:06Z</time></trkpt><trkpt lat="46.1611128" lon="12.1634597"><ele>573.3333333333333</ele><time>2026-04-27T17:10:07.999Z</time></trkpt><trkpt lat="46.1610482" lon="12.1633493"><ele>572.0</ele><time>2026-04-27T17:10:09.999Z</time></trkpt><trkpt lat="46.1609688" lon="12.1632519"><ele>572.6</ele><time>2026-04-27T17:10:12Z</time></trkpt><trkpt lat="46.1608897" lon="12.1631504"><ele>573.2</ele><time>2026-04-27T17:10:13.999Z</time></trkpt><trkpt lat="46.1608292" lon="12.1630473"><ele>573.8</ele><time>2026-04-27T17:10:16Z</time></trkpt><trkpt lat="46.1607441" lon="12.1629538"><ele>574.4</ele><time>2026-04-27T17:10:17.999Z</time></trkpt><trkpt lat="46.1606497" lon="12.1628687"><ele>575.0</ele><time>2026-04-27T17:10:19.999Z</time></trkpt><trkpt lat="46.1605404" lon="12.1628234"><ele>575.0</ele><time>2026-04-27T17:10:21.999Z</time></trkpt><trkpt lat="46.1604255" lon="12.16281"><ele>575.0</ele><time>2026-04-27T17:10:23.999Z</time></trkpt><trkpt lat="46.1603035" lon="12.1628236"><ele>575.0</ele><time>2026-04-27T17:10:25.999Z</time></trkpt><trkpt lat="46.1601863" lon="12.1628445"><ele>575.0</ele><time>2026-04-27T17:10:27.999Z</time></trkpt><trkpt lat="46.1600629" lon="12.1628588"><ele>575.0</ele><time>2026-04-27T17:10:29.999Z</time></trkpt><trkpt lat="46.1599466" lon="12.1628824"><ele>575.0</ele><time>2026-04-27T17:10:31.999Z</time></trkpt><trkpt lat="46.1598301" lon="12.1628968"><ele>575.0</ele><time>2026-04-27T17:10:33.999Z</time></trkpt><trkpt lat="46.1597392" lon="12.162922"><ele>575.0</ele><time>2026-04-27T17:10:35.999Z</time></trkpt><trkpt lat="46.1596341" lon="12.1629427"><ele>575.0</ele><time>2026-04-27T17:10:37.999Z</time></trkpt><trkpt lat="46.1595268" lon="12.1629776"><ele>573.8333333333333</ele><time>2026-04-27T17:10:39.999Z</time></trkpt><trkpt lat="46.1594412" lon="12.1630375"><ele>572.6666666666666</ele><time>2026-04-27T17:10:41.999Z</time></trkpt><trkpt lat="46.1593448" lon="12.163133"><ele>571.5</ele><time>2026-04-27T17:10:43.999Z</time></trkpt><trkpt lat="46.1592973" lon="12.1631927"><ele>570.3333333333334</ele><time>2026-04-27T17:10:44.999Z</time></trkpt><trkpt lat="46.1592469" lon="12.163253"><ele>569.1666666666667</ele><time>2026-04-27T17:10:45.999Z</time></trkpt><trkpt lat="46.1591961" lon="12.1633141"><ele>568.0</ele><time>2026-04-27T17:10:47Z</time></trkpt><trkpt lat="46.1591488" lon="12.1633745"><ele>568.0</ele><time>2026-04-27T17:10:47.999Z</time></trkpt><trkpt lat="46.1590969" lon="12.1634358"><ele>568.0</ele><time>2026-04-27T17:10:49Z</time></trkpt><trkpt lat="46.1590455" lon="12.1635012"><ele>568.0</ele><time>2026-04-27T17:10:50Z</time></trkpt><trkpt lat="46.158993" lon="12.1635656"><ele>568.0</ele><time>2026-04-27T17:10:51.114Z</time></trkpt><trkpt lat="46.1588872" lon="12.1636841"><ele>568.0</ele><time>2026-04-27T17:10:53Z</time></trkpt><trkpt lat="46.1588327" lon="12.1637462"><ele>568.0</ele><time>2026-04-27T17:10:53.999Z</time></trkpt><trkpt lat="46.1587817" lon="12.1638079"><ele>567.5</ele><time>2026-04-27T17:10:54.999Z</time></trkpt><trkpt lat="46.158731" lon="12.1638816"><ele>567.0</ele><time>2026-04-27T17:10:55.999Z</time></trkpt><trkpt lat="46.1586803" lon="12.1639445"><ele>566.5</ele><time>2026-04-27T17:10:57Z</time></trkpt><trkpt lat="46.1585973" lon="12.1640639"><ele>566.0</ele><time>2026-04-27T17:10:58.999Z</time></trkpt><trkpt lat="46.1585248" lon="12.1641509"><ele>565.5</ele><time>2026-04-27T17:11:00.999Z</time></trkpt><trkpt lat="46.1584533" lon="12.1641687"><ele>565.0</ele><time>2026-04-27T17:11:02.999Z</time></trkpt><trkpt lat="46.1583872" lon="12.1641369"><ele>565.0</ele><time>2026-04-27T17:11:04.999Z</time></trkpt><trkpt lat="46.1583165" lon="12.1640897"><ele>565.0</ele><time>2026-04-27T17:11:06.999Z</time></trkpt><trkpt lat="46.1582306" lon="12.1640167"><ele>565.0</ele><time>2026-04-27T17:11:09Z</time></trkpt><trkpt lat="46.1581194" lon="12.163933"><ele>565.0</ele><time>2026-04-27T17:11:10.999Z</time></trkpt><trkpt lat="46.1580579" lon="12.1638856"><ele>565.0</ele><time>2026-04-27T17:11:11.999Z</time></trkpt><trkpt lat="46.1579913" lon="12.1638435"><ele>565.0</ele><time>2026-04-27T17:11:12.999Z</time></trkpt><trkpt lat="46.1579176" lon="12.1638134"><ele>563.1428571428571</ele><time>2026-04-27T17:11:13.999Z</time></trkpt><trkpt lat="46.1578467" lon="12.1637834"><ele>561.2857142857142</ele><time>2026-04-27T17:11:14.999Z</time></trkpt><trkpt lat="46.1577703" lon="12.163762"><ele>559.4285714285714</ele><time>2026-04-27T17:11:16Z</time></trkpt><trkpt lat="46.1576995" lon="12.1637377"><ele>557.5714285714286</ele><time>2026-04-27T17:11:16.999Z</time></trkpt><trkpt lat="46.1576251" lon="12.1637147"><ele>555.7142857142858</ele><time>2026-04-27T17:11:18Z</time></trkpt><trkpt lat="46.1575533" lon="12.1637023"><ele>553.8571428571429</ele><time>2026-04-27T17:11:18.999Z</time></trkpt><trkpt lat="46.1574834" lon="12.1637024"><ele>552.0</ele><time>2026-04-27T17:11:19.999Z</time></trkpt><trkpt lat="46.157411" lon="12.163714"><ele>550.1666666666666</ele><time>2026-04-27T17:11:20.999Z</time></trkpt><trkpt lat="46.1573406" lon="12.1637358"><ele>548.3333333333334</ele><time>2026-04-27T17:11:21.999Z</time></trkpt><trkpt lat="46.1572742" lon="12.1637724"><ele>546.5</ele><time>2026-04-27T17:11:23Z</time></trkpt><trkpt lat="46.1572105" lon="12.1638187"><ele>544.6666666666667</ele><time>2026-04-27T17:11:23.999Z</time></trkpt><trkpt lat="46.1571446" lon="12.1638652"><ele>542.8333333333334</ele><time>2026-04-27T17:11:25Z</time></trkpt><trkpt lat="46.1570861" lon="12.1639039"><ele>541.0</ele><time>2026-04-27T17:11:25.999Z</time></trkpt><trkpt lat="46.1569765" lon="12.1639593"><ele>541.0</ele><time>2026-04-27T17:11:27.999Z</time></trkpt><trkpt lat="46.1568831" lon="12.1639708"><ele>541.0</ele><time>2026-04-27T17:11:29.999Z</time></trkpt><trkpt lat="46.156797" lon="12.1640162"><ele>541.0</ele><time>2026-04-27T17:11:31.999Z</time></trkpt><trkpt lat="46.1566933" lon="12.1640691"><ele>541.0</ele><time>2026-04-27T17:11:33.999Z</time></trkpt><trkpt lat="46.1565878" lon="12.1641221"><ele>541.0</ele><time>2026-04-27T17:11:35.999Z</time></trkpt><trkpt lat="46.156479" lon="12.1641754"><ele>539.6666666666667</ele><time>2026-04-27T17:11:37.999Z</time></trkpt><trkpt lat="46.1563766" lon="12.1642199"><ele>538.3333333333334</ele><time>2026-04-27T17:11:39.999Z</time></trkpt><trkpt lat="46.1563067" lon="12.1642643"><ele>537.0</ele><time>2026-04-27T17:11:41.999Z</time></trkpt><trkpt lat="46.1562671" lon="12.1643353"><ele>535.6666666666666</ele><time>2026-04-27T17:11:47.999Z</time></trkpt><trkpt lat="46.1562062" lon="12.1643778"><ele>534.3333333333333</ele><time>2026-04-27T17:11:51.999Z</time></trkpt><trkpt lat="46.1561448" lon="12.164463"><ele>533.0</ele><time>2026-04-27T17:11:54.999Z</time></trkpt><trkpt lat="46.1560927" lon="12.1645794"><ele>533.0</ele><time>2026-04-27T17:11:56.999Z</time></trkpt><trkpt lat="46.1560262" lon="12.1646723"><ele>533.0</ele><time>2026-04-27T17:11:58.999Z</time></trkpt><trkpt lat="46.155946" lon="12.1647363"><ele>533.0</ele><time>2026-04-27T17:12:00.999Z</time></trkpt><trkpt lat="46.1558735" lon="12.1647618"><ele>533.0</ele><time>2026-04-27T17:12:02.999Z</time></trkpt><trkpt lat="46.1557916" lon="12.1647385"><ele>533.0</ele><time>2026-04-27T17:12:05.999Z</time></trkpt><trkpt lat="46.1557336" lon="12.1647012"><ele>533.0</ele><time>2026-04-27T17:12:11.999Z</time></trkpt><trkpt lat="46.1556608" lon="12.1646609"><ele>531.3333333333333</ele><time>2026-04-27T17:12:35.999Z</time></trkpt><trkpt lat="46.1555783" lon="12.1645723"><ele>529.6666666666666</ele><time>2026-04-27T17:12:38.999Z</time></trkpt><trkpt lat="46.1555076" lon="12.1644672"><ele>528.0</ele><time>2026-04-27T17:12:40.999Z</time></trkpt><trkpt lat="46.1554384" lon="12.1643339"><ele>526.3333333333334</ele><time>2026-04-27T17:12:42.999Z</time></trkpt><trkpt lat="46.155407" lon="12.1642533"><ele>524.6666666666667</ele><time>2026-04-27T17:12:43.999Z</time></trkpt><trkpt lat="46.1553825" lon="12.1641661"><ele>523.0</ele><time>2026-04-27T17:12:44.999Z</time></trkpt><trkpt lat="46.1553626" lon="12.1640777"><ele>522.6</ele><time>2026-04-27T17:12:45.999Z</time></trkpt><trkpt lat="46.1553463" lon="12.1639871"><ele>522.1999999999999</ele><time>2026-04-27T17:12:47Z</time></trkpt><trkpt lat="46.1553369" lon="12.1638921"><ele>521.8</ele><time>2026-04-27T17:12:47.999Z</time></trkpt><trkpt lat="46.1553384" lon="12.1637105"><ele>521.4</ele><time>2026-04-27T17:12:49.999Z</time></trkpt><trkpt lat="46.1553417" lon="12.1636183"><ele>521.0</ele><time>2026-04-27T17:12:51.109Z</time></trkpt><trkpt lat="46.1553462" lon="12.163423"><ele>521.0</ele><time>2026-04-27T17:12:52.999Z</time></trkpt><trkpt lat="46.1553495" lon="12.1633227"><ele>521.0</ele><time>2026-04-27T17:12:53.999Z</time></trkpt><trkpt lat="46.1553537" lon="12.1632206"><ele>521.0</ele><time>2026-04-27T17:12:54.999Z</time></trkpt><trkpt lat="46.155356" lon="12.1631183"><ele>521.0</ele><time>2026-04-27T17:12:55.999Z</time></trkpt><trkpt lat="46.155356" lon="12.163018"><ele>521.0</ele><time>2026-04-27T17:12:56.999Z</time></trkpt><trkpt lat="46.1553573" lon="12.1629132"><ele>521.0</ele><time>2026-04-27T17:12:57.999Z</time></trkpt><trkpt lat="46.1553593" lon="12.1628039"><ele>521.0</ele><time>2026-04-27T17:12:59Z</time></trkpt><trkpt lat="46.1553604" lon="12.1626987"><ele>521.8333333333333</ele><time>2026-04-27T17:13:00Z</time></trkpt><trkpt lat="46.1553615" lon="12.1625944"><ele>522.6666666666666</ele><time>2026-04-27T17:13:01Z</time></trkpt><trkpt lat="46.1553624" lon="12.1624929"><ele>523.5</ele><time>2026-04-27T17:13:01.999Z</time></trkpt><trkpt lat="46.1553681" lon="12.1623931"><ele>524.3333333333334</ele><time>2026-04-27T17:13:03Z</time></trkpt><trkpt lat="46.1553705" lon="12.1622938"><ele>525.1666666666667</ele><time>2026-04-27T17:13:03.999Z</time></trkpt><trkpt lat="46.1553694" lon="12.1621148"><ele>526.0</ele><time>2026-04-27T17:13:05.999Z</time></trkpt><trkpt lat="46.1553706" lon="12.1619457"><ele>528.0</ele><time>2026-04-27T17:13:07.999Z</time></trkpt><trkpt lat="46.1553503" lon="12.1618008"><ele>530.0</ele><time>2026-04-27T17:13:09.999Z</time></trkpt><trkpt lat="46.1553054" lon="12.1616852"><ele>532.0</ele><time>2026-04-27T17:13:12Z</time></trkpt><trkpt lat="46.1552185" lon="12.1616139"><ele>534.0</ele><time>2026-04-27T17:13:13.999Z</time></trkpt><trkpt lat="46.1551204" lon="12.1615843"><ele>536.0</ele><time>2026-04-27T17:13:16Z</time></trkpt><trkpt lat="46.15502" lon="12.1616055"><ele>536.0</ele><time>2026-04-27T17:13:17.999Z</time></trkpt><trkpt lat="46.1549286" lon="12.161637"><ele>536.0</ele><time>2026-04-27T17:13:20Z</time></trkpt><trkpt lat="46.1548297" lon="12.1616686"><ele>536.0</ele><time>2026-04-27T17:13:21.999Z</time></trkpt><trkpt lat="46.1547351" lon="12.1616838"><ele>536.0</ele><time>2026-04-27T17:13:23.999Z</time></trkpt><trkpt lat="46.1546416" lon="12.1616738"><ele>536.0</ele><time>2026-04-27T17:13:25.999Z</time></trkpt><trkpt lat="46.1545565" lon="12.1616438"><ele>536.2</ele><time>2026-04-27T17:13:27.999Z</time></trkpt><trkpt lat="46.1544725" lon="12.1615931"><ele>536.4000000000001</ele><time>2026-04-27T17:13:30Z</time></trkpt><trkpt lat="46.1544" lon="12.1615118"><ele>536.6</ele><time>2026-04-27T17:13:31.999Z</time></trkpt><trkpt lat="46.154338" lon="12.1614067"><ele>536.8000000000001</ele><time>2026-04-27T17:13:33.999Z</time></trkpt><trkpt lat="46.1542942" lon="12.1612758"><ele>537.0</ele><time>2026-04-27T17:13:35.999Z</time></trkpt><trkpt lat="46.1542498" lon="12.1611406"><ele>537.0</ele><time>2026-04-27T17:13:38Z</time></trkpt><trkpt lat="46.1542059" lon="12.1610103"><ele>537.0</ele><time>2026-04-27T17:13:39.999Z</time></trkpt><trkpt lat="46.1541651" lon="12.1608835"><ele>537.0</ele><time>2026-04-27T17:13:41.999Z</time></trkpt><trkpt lat="46.1541296" lon="12.1607686"><ele>537.0</ele><time>2026-04-27T17:13:43.999Z</time></trkpt><trkpt lat="46.1540965" lon="12.1606605"><ele>537.0</ele><time>2026-04-27T17:13:45.999Z</time></trkpt><trkpt lat="46.154053" lon="12.1605398"><ele>536.6</ele><time>2026-04-27T17:13:47.999Z</time></trkpt><trkpt lat="46.1540103" lon="12.1604143"><ele>536.2</ele><time>2026-04-27T17:13:49.999Z</time></trkpt><trkpt lat="46.1539562" lon="12.1602934"><ele>535.8</ele><time>2026-04-27T17:13:51.999Z</time></trkpt><trkpt lat="46.1538962" lon="12.1601855"><ele>535.4</ele><time>2026-04-27T17:13:53.999Z</time></trkpt><trkpt lat="46.1538423" lon="12.1600671"><ele>535.0</ele><time>2026-04-27T17:13:56Z</time></trkpt><trkpt lat="46.1537798" lon="12.1599465"><ele>535.2</ele><time>2026-04-27T17:13:57.999Z</time></trkpt><trkpt lat="46.1537133" lon="12.1598151"><ele>535.4</ele><time>2026-04-27T17:13:59.999Z</time></trkpt><trkpt lat="46.1536495" lon="12.1596831"><ele>535.6</ele><time>2026-04-27T17:14:02Z</time></trkpt><trkpt lat="46.1535847" lon="12.1595487"><ele>535.8</ele><time>2026-04-27T17:14:04Z</time></trkpt><trkpt lat="46.1535274" lon="12.1594154"><ele>536.0</ele><time>2026-04-27T17:14:05.999Z</time></trkpt><trkpt lat="46.1534644" lon="12.1592812"><ele>536.0</ele><time>2026-04-27T17:14:07.999Z</time></trkpt><trkpt lat="46.1534023" lon="12.1591576"><ele>536.0</ele><time>2026-04-27T17:14:10Z</time></trkpt><trkpt lat="46.1533481" lon="12.1590441"><ele>536.0</ele><time>2026-04-27T17:14:11.999Z</time></trkpt><trkpt lat="46.1532936" lon="12.1589391"><ele>536.0</ele><time>2026-04-27T17:14:13.999Z</time></trkpt><trkpt lat="46.1532379" lon="12.1588234"><ele>536.0</ele><time>2026-04-27T17:14:15.999Z</time></trkpt><trkpt lat="46.1531899" lon="12.1587244"><ele>536.0</ele><time>2026-04-27T17:14:17.999Z</time></trkpt><trkpt lat="46.1531389" lon="12.1586404"><ele>536.0</ele><time>2026-04-27T17:14:20.999Z</time></trkpt><trkpt lat="46.1530763" lon="12.1585856"><ele>536.0</ele><time>2026-04-27T17:14:28.999Z</time></trkpt><trkpt lat="46.1530128" lon="12.1586608"><ele>536.0</ele><time>2026-04-27T17:14:31Z</time></trkpt><trkpt lat="46.1529398" lon="12.1587716"><ele>536.0</ele><time>2026-04-27T17:14:32.999Z</time></trkpt><trkpt lat="46.1528448" lon="12.158877"><ele>536.0</ele><time>2026-04-27T17:14:34.999Z</time></trkpt><trkpt lat="46.1527928" lon="12.1589328"><ele>536.0</ele><time>2026-04-27T17:14:35.999Z</time></trkpt><trkpt lat="46.1526962" lon="12.1590412"><ele>536.0</ele><time>2026-04-27T17:14:38Z</time></trkpt><trkpt lat="46.1525964" lon="12.1591452"><ele>536.0</ele><time>2026-04-27T17:14:40Z</time></trkpt><trkpt lat="46.1525037" lon="12.1592478"><ele>536.0</ele><time>2026-04-27T17:14:42Z</time></trkpt><trkpt lat="46.1524117" lon="12.1593654"><ele>535.75</ele><time>2026-04-27T17:14:43.999Z</time></trkpt><trkpt lat="46.1523184" lon="12.1594783"><ele>535.5</ele><time>2026-04-27T17:14:45.999Z</time></trkpt><trkpt lat="46.152219" lon="12.1595554"><ele>535.25</ele><time>2026-04-27T17:14:47.999Z</time></trkpt><trkpt lat="46.1521207" lon="12.1596223"><ele>535.0</ele><time>2026-04-27T17:14:49.999Z</time></trkpt><trkpt lat="46.1520254" lon="12.1596926"><ele>535.0</ele><time>2026-04-27T17:14:51.999Z</time></trkpt><trkpt lat="46.1519346" lon="12.1597524"><ele>535.0</ele><time>2026-04-27T17:14:54Z</time></trkpt><trkpt lat="46.1518464" lon="12.1598265"><ele>535.0</ele><time>2026-04-27T17:14:55.999Z</time></trkpt><trkpt lat="46.1517613" lon="12.1599036"><ele>535.0</ele><time>2026-04-27T17:14:57.999Z</time></trkpt><trkpt lat="46.1516726" lon="12.1599138"><ele>535.0</ele><time>2026-04-27T17:14:59.999Z</time></trkpt><trkpt lat="46.1516012" lon="12.1598674"><ele>533.8</ele><time>2026-04-27T17:15:02Z</time></trkpt><trkpt lat="46.1515353" lon="12.1597986"><ele>532.6</ele><time>2026-04-27T17:15:03.999Z</time></trkpt><trkpt lat="46.1514626" lon="12.1597313"><ele>531.4</ele><time>2026-04-27T17:15:05.999Z</time></trkpt><trkpt lat="46.151385" lon="12.1596612"><ele>530.2</ele><time>2026-04-27T17:15:08Z</time></trkpt><trkpt lat="46.1513011" lon="12.1595887"><ele>529.0</ele><time>2026-04-27T17:15:09.999Z</time></trkpt><trkpt lat="46.1512205" lon="12.1595164"><ele>529.0</ele><time>2026-04-27T17:15:12Z</time></trkpt><trkpt lat="46.151136" lon="12.159439"><ele>529.0</ele><time>2026-04-27T17:15:13.999Z</time></trkpt><trkpt lat="46.1510527" lon="12.1593573"><ele>529.0</ele><time>2026-04-27T17:15:16Z</time></trkpt><trkpt lat="46.1509629" lon="12.1592749"><ele>529.0</ele><time>2026-04-27T17:15:18Z</time></trkpt><trkpt lat="46.1508568" lon="12.1591985"><ele>529.0</ele><time>2026-04-27T17:15:20Z</time></trkpt><trkpt lat="46.1507975" lon="12.1591646"><ele>527.5</ele><time>2026-04-27T17:15:20.999Z</time></trkpt><trkpt lat="46.1506724" lon="12.1591129"><ele>526.0</ele><time>2026-04-27T17:15:22.999Z</time></trkpt><trkpt lat="46.1506049" lon="12.1590927"><ele>524.5</ele><time>2026-04-27T17:15:23.999Z</time></trkpt><trkpt lat="46.1505362" lon="12.1590712"><ele>523.0</ele><time>2026-04-27T17:15:24.999Z</time></trkpt><trkpt lat="46.1504698" lon="12.1590641"><ele>521.5</ele><time>2026-04-27T17:15:26Z</time></trkpt><trkpt lat="46.1504016" lon="12.1590605"><ele>520.0</ele><time>2026-04-27T17:15:27.139Z</time></trkpt><trkpt lat="46.1502553" lon="12.1590423"><ele>520.0000000000001</ele><time>2026-04-27T17:15:28.999Z</time></trkpt><trkpt lat="46.1501819" lon="12.1590352"><ele>520.0</ele><time>2026-04-27T17:15:29.999Z</time></trkpt><trkpt lat="46.1501059" lon="12.1590419"><ele>520.0</ele><time>2026-04-27T17:15:30.999Z</time></trkpt><trkpt lat="46.1500365" lon="12.1590648"><ele>520.0</ele><time>2026-04-27T17:15:32Z</time></trkpt><trkpt lat="46.1499651" lon="12.1590969"><ele>520.0</ele><time>2026-04-27T17:15:32.999Z</time></trkpt><trkpt lat="46.1498952" lon="12.1591293"><ele>520.0000000000001</ele><time>2026-04-27T17:15:33.999Z</time></trkpt><trkpt lat="46.1498265" lon="12.1591611"><ele>520.0</ele><time>2026-04-27T17:15:35Z</time></trkpt><trkpt lat="46.1497557" lon="12.1591885"><ele>518.5714285714287</ele><time>2026-04-27T17:15:35.999Z</time></trkpt><trkpt lat="46.1496881" lon="12.1592068"><ele>517.1428571428571</ele><time>2026-04-27T17:15:37Z</time></trkpt><trkpt lat="46.1496221" lon="12.1592334"><ele>515.7142857142858</ele><time>2026-04-27T17:15:38Z</time></trkpt><trkpt lat="46.14956" lon="12.1592629"><ele>514.2857142857143</ele><time>2026-04-27T17:15:38.999Z</time></trkpt><trkpt lat="46.1494999" lon="12.159291"><ele>512.8571428571429</ele><time>2026-04-27T17:15:39.999Z</time></trkpt><trkpt lat="46.149435" lon="12.1593326"><ele>511.42857142857144</ele><time>2026-04-27T17:15:40.999Z</time></trkpt><trkpt lat="46.149358" lon="12.1593751"><ele>510.0</ele><time>2026-04-27T17:15:41.999Z</time></trkpt><trkpt lat="46.149288" lon="12.1594003"><ele>510.0</ele><time>2026-04-27T17:15:42.999Z</time></trkpt><trkpt lat="46.1492073" lon="12.1594202"><ele>510.0</ele><time>2026-04-27T17:15:44Z</time></trkpt><trkpt lat="46.1491293" lon="12.1594344"><ele>510.0</ele><time>2026-04-27T17:15:45Z</time></trkpt><trkpt lat="46.1490481" lon="12.1594426"><ele>510.0</ele><time>2026-04-27T17:15:45.999Z</time></trkpt><trkpt lat="46.1489854" lon="12.1594595"><ele>510.0</ele><time>2026-04-27T17:15:46.999Z</time></trkpt><trkpt lat="46.1488594" lon="12.1594339"><ele>510.0</ele><time>2026-04-27T17:15:48.999Z</time></trkpt><trkpt lat="46.1487752" lon="12.159332"><ele>509.3333333333333</ele><time>2026-04-27T17:15:50.999Z</time></trkpt><trkpt lat="46.1487308" lon="12.1591674"><ele>508.66666666666663</ele><time>2026-04-27T17:15:52.999Z</time></trkpt><trkpt lat="46.1487074" lon="12.1590673"><ele>508.0</ele><time>2026-04-27T17:15:53.999Z</time></trkpt><trkpt lat="46.1486773" lon="12.1589693"><ele>507.3333333333333</ele><time>2026-04-27T17:15:55Z</time></trkpt><trkpt lat="46.148648" lon="12.1588701"><ele>506.66666666666663</ele><time>2026-04-27T17:15:55.999Z</time></trkpt><trkpt lat="46.1486014" lon="12.1587733"><ele>506.0</ele><time>2026-04-27T17:15:56.999Z</time></trkpt><trkpt lat="46.1485712" lon="12.1586711"><ele>504.6</ele><time>2026-04-27T17:15:57.999Z</time></trkpt><trkpt lat="46.1485363" lon="12.1585732"><ele>503.20000000000005</ele><time>2026-04-27T17:15:59Z</time></trkpt><trkpt lat="46.148497" lon="12.1584903"><ele>501.79999999999995</ele><time>2026-04-27T17:16:00Z</time></trkpt><trkpt lat="46.1484369" lon="12.1583318"><ele>500.4</ele><time>2026-04-27T17:16:01.999Z</time></trkpt><trkpt lat="46.1483887" lon="12.158266"><ele>499.0</ele><time>2026-04-27T17:16:02.999Z</time></trkpt><trkpt lat="46.1482799" lon="12.1581695"><ele>497.8571428571429</ele><time>2026-04-27T17:16:04.999Z</time></trkpt><trkpt lat="46.1482125" lon="12.1581198"><ele>496.7142857142857</ele><time>2026-04-27T17:16:05.999Z</time></trkpt><trkpt lat="46.148152" lon="12.1580753"><ele>495.57142857142856</ele><time>2026-04-27T17:16:06.999Z</time></trkpt><trkpt lat="46.1480992" lon="12.158006"><ele>494.42857142857144</ele><time>2026-04-27T17:16:07.999Z</time></trkpt><trkpt lat="46.1480484" lon="12.1579409"><ele>493.2857142857142</ele><time>2026-04-27T17:16:09Z</time></trkpt><trkpt lat="46.147988" lon="12.1578745"><ele>492.1428571428571</ele><time>2026-04-27T17:16:09.999Z</time></trkpt><trkpt lat="46.1479354" lon="12.1578158"><ele>491.0</ele><time>2026-04-27T17:16:10.999Z</time></trkpt><trkpt lat="46.1478728" lon="12.1577845"><ele>490.16666666666663</ele><time>2026-04-27T17:16:12Z</time></trkpt><trkpt lat="46.1478018" lon="12.1577757"><ele>489.3333333333333</ele><time>2026-04-27T17:16:13Z</time></trkpt><trkpt lat="46.147727" lon="12.1577818"><ele>488.5</ele><time>2026-04-27T17:16:14Z</time></trkpt><trkpt lat="46.1476521" lon="12.1578013"><ele>487.66666666666663</ele><time>2026-04-27T17:16:15Z</time></trkpt><trkpt lat="46.1475715" lon="12.1578277"><ele>486.8333333333333</ele><time>2026-04-27T17:16:15.999Z</time></trkpt><trkpt lat="46.1474928" lon="12.1578627"><ele>486.0</ele><time>2026-04-27T17:16:16.999Z</time></trkpt><trkpt lat="46.1474199" lon="12.1579108"><ele>485.0</ele><time>2026-04-27T17:16:17.999Z</time></trkpt><trkpt lat="46.1473488" lon="12.1579705"><ele>484.0</ele><time>2026-04-27T17:16:19Z</time></trkpt><trkpt lat="46.1472869" lon="12.158032"><ele>483.0</ele><time>2026-04-27T17:16:19.999Z</time></trkpt><trkpt lat="46.1472349" lon="12.158089"><ele>482.0</ele><time>2026-04-27T17:16:20.999Z</time></trkpt><trkpt lat="46.1471368" lon="12.1581214"><ele>481.0</ele><time>2026-04-27T17:16:22.999Z</time></trkpt><trkpt lat="46.1470515" lon="12.1580296"><ele>480.0</ele><time>2026-04-27T17:16:25Z</time></trkpt><trkpt lat="46.1469428" lon="12.1579727"><ele>480.0</ele><time>2026-04-27T17:16:26.999Z</time></trkpt><trkpt lat="46.1468771" lon="12.157934"><ele>480.0</ele><time>2026-04-27T17:16:27.999Z</time></trkpt><trkpt lat="46.1468051" lon="12.1578916"><ele>480.0</ele><time>2026-04-27T17:16:28.999Z</time></trkpt><trkpt lat="46.1467336" lon="12.1578402"><ele>480.0</ele><time>2026-04-27T17:16:30Z</time></trkpt><trkpt lat="46.1466622" lon="12.1577832"><ele>480.0</ele><time>2026-04-27T17:16:30.999Z</time></trkpt><trkpt lat="46.1465906" lon="12.1577288"><ele>480.0</ele><time>2026-04-27T17:16:32Z</time></trkpt><trkpt lat="46.1465196" lon="12.1576659"><ele>477.8333333333333</ele><time>2026-04-27T17:16:32.999Z</time></trkpt><trkpt lat="46.1464432" lon="12.1576019"><ele>475.66666666666663</ele><time>2026-04-27T17:16:33.999Z</time></trkpt><trkpt lat="46.1463774" lon="12.1575331"><ele>473.5</ele><time>2026-04-27T17:16:34.999Z</time></trkpt><trkpt lat="46.1463201" lon="12.157476"><ele>471.3333333333333</ele><time>2026-04-27T17:16:35.999Z</time></trkpt><trkpt lat="46.1462593" lon="12.1574139"><ele>469.16666666666663</ele><time>2026-04-27T17:16:36.999Z</time></trkpt><trkpt lat="46.1461652" lon="12.1573037"><ele>467.0</ele><time>2026-04-27T17:16:39Z</time></trkpt><trkpt lat="46.1461126" lon="12.1571655"><ele>467.0</ele><time>2026-04-27T17:16:40.999Z</time></trkpt><trkpt lat="46.1460907" lon="12.1570243"><ele>467.00000000000006</ele><time>2026-04-27T17:16:42.999Z</time></trkpt><trkpt lat="46.1460917" lon="12.1568863"><ele>467.00000000000006</ele><time>2026-04-27T17:16:44.999Z</time></trkpt><trkpt lat="46.1460651" lon="12.1567568"><ele>467.0</ele><time>2026-04-27T17:16:46.999Z</time></trkpt><trkpt lat="46.1459973" lon="12.1566659"><ele>467.0</ele><time>2026-04-27T17:16:49Z</time></trkpt><trkpt lat="46.1459318" lon="12.1565716"><ele>466.99999999999994</ele><time>2026-04-27T17:16:50.999Z</time></trkpt><trkpt lat="46.1458739" lon="12.1564485"><ele>467.0</ele><time>2026-04-27T17:16:52.999Z</time></trkpt><trkpt lat="46.1458052" lon="12.1564488"><ele>467.0</ele><time>2026-04-27T17:16:57.999Z</time></trkpt><trkpt lat="46.1458092" lon="12.1565429"><ele>467.0</ele><time>2026-04-27T17:17:02.999Z</time></trkpt><trkpt lat="46.145815" lon="12.1566699"><ele>466.99999999999994</ele><time>2026-04-27T17:17:26.999Z</time></trkpt><trkpt lat="46.1458427" lon="12.1567615"><ele>467.0</ele><time>2026-04-27T17:17:29Z</time></trkpt><trkpt lat="46.145857" lon="12.1569256"><ele>466.99999999999994</ele><time>2026-04-27T17:17:30.999Z</time></trkpt><trkpt lat="46.1458573" lon="12.157056"><ele>467.0</ele><time>2026-04-27T17:17:32.999Z</time></trkpt><trkpt lat="46.1458351" lon="12.1571848"><ele>467.0</ele><time>2026-04-27T17:17:34.999Z</time></trkpt><trkpt lat="46.145802" lon="12.1573054"><ele>467.0</ele><time>2026-04-27T17:17:37Z</time></trkpt><trkpt lat="46.145768" lon="12.1573952"><ele>466.99999999999994</ele><time>2026-04-27T17:17:38.999Z</time></trkpt><trkpt lat="46.1457415" lon="12.1574972"><ele>467.0</ele><time>2026-04-27T17:17:41.999Z</time></trkpt><trkpt lat="46.1456768" lon="12.1574381"><ele>462.0</ele><time>2026-04-27T17:17:43.999Z</time></trkpt><trkpt lat="46.1456222" lon="12.1573629"><ele>457.00000000000006</ele><time>2026-04-27T17:17:46Z</time></trkpt><trkpt lat="46.1455556" lon="12.1572636"><ele>452.00000000000006</ele><time>2026-04-27T17:17:47.999Z</time></trkpt><trkpt lat="46.1454983" lon="12.157144"><ele>447.0</ele><time>2026-04-27T17:17:49.999Z</time></trkpt><trkpt lat="46.1454307" lon="12.1570196"><ele>442.0</ele><time>2026-04-27T17:17:51.999Z</time></trkpt><trkpt lat="46.1453599" lon="12.1568935"><ele>442.0</ele><time>2026-04-27T17:17:54Z</time></trkpt><trkpt lat="46.1453002" lon="12.1567645"><ele>442.00000000000006</ele><time>2026-04-27T17:17:56Z</time></trkpt><trkpt lat="46.1452722" lon="12.1566362"><ele>442.00000000000006</ele><time>2026-04-27T17:17:57.999Z</time></trkpt><trkpt lat="46.1452377" lon="12.1564849"><ele>442.0</ele><time>2026-04-27T17:17:59.999Z</time></trkpt><trkpt lat="46.1451928" lon="12.1563394"><ele>442.0</ele><time>2026-04-27T17:18:01.999Z</time></trkpt><trkpt lat="46.1451725" lon="12.156252"><ele>441.6</ele><time>2026-04-27T17:18:02.999Z</time></trkpt><trkpt lat="46.1451243" lon="12.1560932"><ele>441.20000000000005</ele><time>2026-04-27T17:18:04.999Z</time></trkpt><trkpt lat="46.1450767" lon="12.1559344"><ele>440.8</ele><time>2026-04-27T17:18:07Z</time></trkpt><trkpt lat="46.145065" lon="12.1558427"><ele>440.4</ele><time>2026-04-27T17:18:07.999Z</time></trkpt><trkpt lat="46.1450228" lon="12.1556627"><ele>440.0</ele><time>2026-04-27T17:18:09.999Z</time></trkpt><trkpt lat="46.1449963" lon="12.1555665"><ele>439.8333333333333</ele><time>2026-04-27T17:18:11Z</time></trkpt><trkpt lat="46.1449791" lon="12.155464"><ele>439.66666666666663</ele><time>2026-04-27T17:18:11.999Z</time></trkpt><trkpt lat="46.144967" lon="12.1553689"><ele>439.5</ele><time>2026-04-27T17:18:12.999Z</time></trkpt><trkpt lat="46.1449555" lon="12.1552761"><ele>439.33333333333337</ele><time>2026-04-27T17:18:13.999Z</time></trkpt><trkpt lat="46.1448931" lon="12.1551319"><ele>439.1666666666667</ele><time>2026-04-27T17:18:15.999Z</time></trkpt><trkpt lat="46.1447922" lon="12.1550637"><ele>439.0</ele><time>2026-04-27T17:18:17.999Z</time></trkpt><trkpt lat="46.1446774" lon="12.1550154"><ele>437.0</ele><time>2026-04-27T17:18:19.999Z</time></trkpt><trkpt lat="46.1445536" lon="12.1549539"><ele>435.0</ele><time>2026-04-27T17:18:21.999Z</time></trkpt><trkpt lat="46.1444951" lon="12.1549134"><ele>433.0</ele><time>2026-04-27T17:18:22.999Z</time></trkpt><trkpt lat="46.1444" lon="12.1547989"><ele>431.0</ele><time>2026-04-27T17:18:25Z</time></trkpt><trkpt lat="46.1443419" lon="12.1546857"><ele>429.0</ele><time>2026-04-27T17:18:26.999Z</time></trkpt><trkpt lat="46.1442996" lon="12.1545545"><ele>428.79999999999995</ele><time>2026-04-27T17:18:28.999Z</time></trkpt><trkpt lat="46.1442532" lon="12.1544299"><ele>428.59999999999997</ele><time>2026-04-27T17:18:30.999Z</time></trkpt><trkpt lat="46.1441906" lon="12.1543054"><ele>428.4</ele><time>2026-04-27T17:18:32.999Z</time></trkpt><trkpt lat="46.1441357" lon="12.1541655"><ele>428.2</ele><time>2026-04-27T17:18:34.998Z</time></trkpt><trkpt lat="46.1440903" lon="12.1540233"><ele>428.0</ele><time>2026-04-27T17:18:36.999Z</time></trkpt><trkpt lat="46.1440403" lon="12.1538631"><ele>427.66666666666663</ele><time>2026-04-27T17:18:38.999Z</time></trkpt><trkpt lat="46.1440066" lon="12.1537791"><ele>427.3333333333333</ele><time>2026-04-27T17:18:39.999Z</time></trkpt><trkpt lat="46.1439708" lon="12.1536875"><ele>427.0</ele><time>2026-04-27T17:18:40.999Z</time></trkpt><trkpt lat="46.1439327" lon="12.1535927"><ele>426.66666666666663</ele><time>2026-04-27T17:18:42Z</time></trkpt><trkpt lat="46.1438957" lon="12.1534837"><ele>426.3333333333333</ele><time>2026-04-27T17:18:42.999Z</time></trkpt><trkpt lat="46.1438546" lon="12.1533732"><ele>426.0</ele><time>2026-04-27T17:18:43.999Z</time></trkpt><trkpt lat="46.1438166" lon="12.1532638"><ele>425.3333333333333</ele><time>2026-04-27T17:18:44.999Z</time></trkpt><trkpt lat="46.1437783" lon="12.1531543"><ele>424.66666666666663</ele><time>2026-04-27T17:18:45.999Z</time></trkpt><trkpt lat="46.1437374" lon="12.153044"><ele>424.0</ele><time>2026-04-27T17:18:46.999Z</time></trkpt><trkpt lat="46.143686" lon="12.1529446"><ele>423.3333333333333</ele><time>2026-04-27T17:18:47.999Z</time></trkpt><trkpt lat="46.1436237" lon="12.1528637"><ele>422.66666666666663</ele><time>2026-04-27T17:18:49Z</time></trkpt><trkpt lat="46.143557" lon="12.1528025"><ele>422.0</ele><time>2026-04-27T17:18:50Z</time></trkpt><trkpt lat="46.1434954" lon="12.1527384"><ele>421.99999999999994</ele><time>2026-04-27T17:18:50.999Z</time></trkpt><trkpt lat="46.1434399" lon="12.1526255"><ele>422.0</ele><time>2026-04-27T17:18:52.999Z</time></trkpt><trkpt lat="46.1433644" lon="12.1525967"><ele>422.0</ele><time>2026-04-27T17:18:56Z</time></trkpt><trkpt lat="46.1432815" lon="12.1526591"><ele>422.0</ele><time>2026-04-27T17:18:58.999Z</time></trkpt><trkpt lat="46.1432135" lon="12.152682"><ele>421.99999999999994</ele><time>2026-04-27T17:19:00.999Z</time></trkpt><trkpt lat="46.1431336" lon="12.1527191"><ele>422.0</ele><time>2026-04-27T17:19:02.999Z</time></trkpt><trkpt lat="46.1430467" lon="12.1527599"><ele>424.49999999999994</ele><time>2026-04-27T17:19:04.999Z</time></trkpt><trkpt lat="46.1429656" lon="12.1528336"><ele>427.0</ele><time>2026-04-27T17:19:06.999Z</time></trkpt><trkpt lat="46.1428902" lon="12.15291"><ele>429.5</ele><time>2026-04-27T17:19:08.999Z</time></trkpt><trkpt lat="46.1428228" lon="12.1529799"><ele>432.0</ele><time>2026-04-27T17:19:10.999Z</time></trkpt><trkpt lat="46.1427658" lon="12.1530643"><ele>434.49999999999994</ele><time>2026-04-27T17:19:12.999Z</time></trkpt><trkpt lat="46.142729" lon="12.1531727"><ele>437.0</ele><time>2026-04-27T17:19:14.999Z</time></trkpt><trkpt lat="46.1427025" lon="12.1532692"><ele>438.16666666666663</ele><time>2026-04-27T17:19:17Z</time></trkpt><trkpt lat="46.1426555" lon="12.1533685"><ele>439.3333333333333</ele><time>2026-04-27T17:19:18.999Z</time></trkpt><trkpt lat="46.1426282" lon="12.1534826"><ele>440.5</ele><time>2026-04-27T17:19:20.999Z</time></trkpt><trkpt lat="46.1426228" lon="12.1536009"><ele>441.66666666666663</ele><time>2026-04-27T17:19:23Z</time></trkpt><trkpt lat="46.1426193" lon="12.1537238"><ele>442.8333333333333</ele><time>2026-04-27T17:19:25Z</time></trkpt><trkpt lat="46.1426175" lon="12.1538453"><ele>444.0</ele><time>2026-04-27T17:19:26.999Z</time></trkpt><trkpt lat="46.1426502" lon="12.1539567"><ele>445.0</ele><time>2026-04-27T17:19:28.999Z</time></trkpt><trkpt lat="46.1426981" lon="12.1540643"><ele>446.0</ele><time>2026-04-27T17:19:30.999Z</time></trkpt><trkpt lat="46.1427545" lon="12.1541629"><ele>447.0</ele><time>2026-04-27T17:19:32.999Z</time></trkpt><trkpt lat="46.1428091" lon="12.154259"><ele>448.0</ele><time>2026-04-27T17:19:34.999Z</time></trkpt><trkpt lat="46.1428549" lon="12.1543618"><ele>449.0</ele><time>2026-04-27T17:19:36.999Z</time></trkpt><trkpt lat="46.1428916" lon="12.1544748"><ele>450.0</ele><time>2026-04-27T17:19:38.999Z</time></trkpt><trkpt lat="46.1429179" lon="12.1545943"><ele>450.0</ele><time>2026-04-27T17:19:40.999Z</time></trkpt><trkpt lat="46.1429399" lon="12.1547174"><ele>450.0</ele><time>2026-04-27T17:19:42.999Z</time></trkpt><trkpt lat="46.1429554" lon="12.1548488"><ele>450.0</ele><time>2026-04-27T17:19:44.999Z</time></trkpt><trkpt lat="46.1429673" lon="12.1549818"><ele>450.0</ele><time>2026-04-27T17:19:47Z</time></trkpt><trkpt lat="46.1429707" lon="12.1551117"><ele>450.0</ele><time>2026-04-27T17:19:48.999Z</time></trkpt><trkpt lat="46.1429875" lon="12.1552412"><ele>450.6666666666667</ele><time>2026-04-27T17:19:51Z</time></trkpt><trkpt lat="46.143001" lon="12.1553701"><ele>451.33333333333337</ele><time>2026-04-27T17:19:53Z</time></trkpt><trkpt lat="46.1430084" lon="12.1554995"><ele>452.0</ele><time>2026-04-27T17:19:54.999Z</time></trkpt><trkpt lat="46.1429949" lon="12.1556262"><ele>452.6666666666667</ele><time>2026-04-27T17:19:56.999Z</time></trkpt><trkpt lat="46.1429692" lon="12.155747"><ele>453.33333333333337</ele><time>2026-04-27T17:19:58.999Z</time></trkpt><trkpt lat="46.1429206" lon="12.1558598"><ele>454.0</ele><time>2026-04-27T17:20:00.999Z</time></trkpt><trkpt lat="46.1428735" lon="12.1559761"><ele>454.0</ele><time>2026-04-27T17:20:02.999Z</time></trkpt><trkpt lat="46.1428352" lon="12.1560991"><ele>454.0</ele><time>2026-04-27T17:20:04.999Z</time></trkpt><trkpt lat="46.1428183" lon="12.1562348"><ele>454.0</ele><time>2026-04-27T17:20:06.999Z</time></trkpt><trkpt lat="46.1428024" lon="12.1563682"><ele>454.0</ele><time>2026-04-27T17:20:08.999Z</time></trkpt><trkpt lat="46.1428012" lon="12.1565023"><ele>454.0</ele><time>2026-04-27T17:20:10.999Z</time></trkpt><trkpt lat="46.1427994" lon="12.1566331"><ele>455.6</ele><time>2026-04-27T17:20:12.999Z</time></trkpt><trkpt lat="46.1428072" lon="12.1567721"><ele>457.2</ele><time>2026-04-27T17:20:15Z</time></trkpt><trkpt lat="46.1428068" lon="12.1569088"><ele>458.80000000000007</ele><time>2026-04-27T17:20:16.999Z</time></trkpt><trkpt lat="46.1428078" lon="12.1570469"><ele>460.40000000000003</ele><time>2026-04-27T17:20:18.999Z</time></trkpt><trkpt lat="46.1428126" lon="12.1571745"><ele>462.0</ele><time>2026-04-27T17:20:20.999Z</time></trkpt><trkpt lat="46.1428115" lon="12.1573123"><ele>462.8333333333333</ele><time>2026-04-27T17:20:23Z</time></trkpt><trkpt lat="46.1428149" lon="12.1574399"><ele>463.66666666666663</ele><time>2026-04-27T17:20:24.999Z</time></trkpt><trkpt lat="46.1428152" lon="12.1575646"><ele>464.5</ele><time>2026-04-27T17:20:26.999Z</time></trkpt><trkpt lat="46.1428274" lon="12.1576928"><ele>465.3333333333333</ele><time>2026-04-27T17:20:28.999Z</time></trkpt><trkpt lat="46.14282" lon="12.1578266"><ele>466.16666666666663</ele><time>2026-04-27T17:20:31Z</time></trkpt><trkpt lat="46.1428058" lon="12.1579528"><ele>467.0</ele><time>2026-04-27T17:20:32.999Z</time></trkpt><trkpt lat="46.1427715" lon="12.1580761"><ele>467.0</ele><time>2026-04-27T17:20:34.999Z</time></trkpt><trkpt lat="46.1427172" lon="12.1581908"><ele>467.00000000000006</ele><time>2026-04-27T17:20:36.999Z</time></trkpt><trkpt lat="46.1426601" lon="12.1583057"><ele>467.00000000000006</ele><time>2026-04-27T17:20:38.999Z</time></trkpt><trkpt lat="46.1425993" lon="12.1584176"><ele>467.0</ele><time>2026-04-27T17:20:40.999Z</time></trkpt><trkpt lat="46.1425421" lon="12.1585253"><ele>467.0</ele><time>2026-04-27T17:20:42.999Z</time></trkpt><trkpt lat="46.1424947" lon="12.1586306"><ele>466.8</ele><time>2026-04-27T17:20:45Z</time></trkpt><trkpt lat="46.1424389" lon="12.158737"><ele>466.6</ele><time>2026-04-27T17:20:46.999Z</time></trkpt><trkpt lat="46.142386" lon="12.1588439"><ele>466.40000000000003</ele><time>2026-04-27T17:20:48.999Z</time></trkpt><trkpt lat="46.1423276" lon="12.158955"><ele>466.20000000000005</ele><time>2026-04-27T17:20:50.999Z</time></trkpt><trkpt lat="46.142275" lon="12.1590645"><ele>466.0</ele><time>2026-04-27T17:20:52.999Z</time></trkpt><trkpt lat="46.1422183" lon="12.1591747"><ele>469.8</ele><time>2026-04-27T17:20:54.999Z</time></trkpt><trkpt lat="46.1421623" lon="12.1592866"><ele>473.6</ele><time>2026-04-27T17:20:56.999Z</time></trkpt><trkpt lat="46.1421067" lon="12.1594042"><ele>477.4</ele><time>2026-04-27T17:20:58.999Z</time></trkpt><trkpt lat="46.1420483" lon="12.1595138"><ele>481.2</ele><time>2026-04-27T17:21:00.999Z</time></trkpt><trkpt lat="46.1419914" lon="12.1596259"><ele>485.0</ele><time>2026-04-27T17:21:02.999Z</time></trkpt><trkpt lat="46.1419362" lon="12.159739"><ele>485.0</ele><time>2026-04-27T17:21:04.999Z</time></trkpt><trkpt lat="46.1418796" lon="12.1598489"><ele>485.0</ele><time>2026-04-27T17:21:06.999Z</time></trkpt><trkpt lat="46.1418275" lon="12.1599573"><ele>485.0</ele><time>2026-04-27T17:21:08.999Z</time></trkpt><trkpt lat="46.1417794" lon="12.1600639"><ele>485.0</ele><time>2026-04-27T17:21:10.999Z</time></trkpt><trkpt lat="46.1417262" lon="12.1601662"><ele>485.0</ele><time>2026-04-27T17:21:13Z</time></trkpt><trkpt lat="46.1416737" lon="12.1602713"><ele>485.8333333333333</ele><time>2026-04-27T17:21:14.999Z</time></trkpt><trkpt lat="46.1416318" lon="12.1603781"><ele>486.66666666666663</ele><time>2026-04-27T17:21:16.999Z</time></trkpt><trkpt lat="46.1415864" lon="12.1604836"><ele>487.5</ele><time>2026-04-27T17:21:18.999Z</time></trkpt><trkpt lat="46.1415381" lon="12.1605869"><ele>488.33333333333337</ele><time>2026-04-27T17:21:20.999Z</time></trkpt><trkpt lat="46.1414837" lon="12.1606999"><ele>489.1666666666667</ele><time>2026-04-27T17:21:23Z</time></trkpt><trkpt lat="46.1414283" lon="12.1608081"><ele>490.0</ele><time>2026-04-27T17:21:24.999Z</time></trkpt><trkpt lat="46.1413742" lon="12.160917"><ele>488.0</ele><time>2026-04-27T17:21:26.999Z</time></trkpt><trkpt lat="46.1413149" lon="12.1610323"><ele>486.0</ele><time>2026-04-27T17:21:28.999Z</time></trkpt><trkpt lat="46.1412576" lon="12.1611396"><ele>484.0</ele><time>2026-04-27T17:21:30.999Z</time></trkpt><trkpt lat="46.1411995" lon="12.1612567"><ele>482.0</ele><time>2026-04-27T17:21:32.999Z</time></trkpt><trkpt lat="46.1411452" lon="12.1613769"><ele>480.0</ele><time>2026-04-27T17:21:34.999Z</time></trkpt><trkpt lat="46.141092" lon="12.1614992"><ele>478.8</ele><time>2026-04-27T17:21:36.999Z</time></trkpt><trkpt lat="46.1410403" lon="12.1616212"><ele>477.6</ele><time>2026-04-27T17:21:38.999Z</time></trkpt><trkpt lat="46.1409939" lon="12.1617536"><ele>476.4</ele><time>2026-04-27T17:21:41Z</time></trkpt><trkpt lat="46.1409478" lon="12.1618888"><ele>475.2</ele><time>2026-04-27T17:21:42.999Z</time></trkpt><trkpt lat="46.1409082" lon="12.1620352"><ele>474.0</ele><time>2026-04-27T17:21:44.999Z</time></trkpt><trkpt lat="46.1408806" lon="12.1621847"><ele>474.0</ele><time>2026-04-27T17:21:46.999Z</time></trkpt><trkpt lat="46.1408565" lon="12.1623362"><ele>474.0</ele><time>2026-04-27T17:21:48.999Z</time></trkpt><trkpt lat="46.1408492" lon="12.162488"><ele>474.0</ele><time>2026-04-27T17:21:51Z</time></trkpt><trkpt lat="46.1408352" lon="12.1626406"><ele>474.0</ele><time>2026-04-27T17:21:53Z</time></trkpt><trkpt lat="46.1408311" lon="12.1627942"><ele>474.0</ele><time>2026-04-27T17:21:54.999Z</time></trkpt><trkpt lat="46.1408323" lon="12.162947"><ele>474.2</ele><time>2026-04-27T17:21:56.999Z</time></trkpt><trkpt lat="46.1408405" lon="12.1630985"><ele>474.4</ele><time>2026-04-27T17:21:58.999Z</time></trkpt><trkpt lat="46.1408526" lon="12.1632481"><ele>474.6</ele><time>2026-04-27T17:22:00.999Z</time></trkpt><trkpt lat="46.1408615" lon="12.1633931"><ele>474.8</ele><time>2026-04-27T17:22:02.999Z</time></trkpt><trkpt lat="46.1408718" lon="12.1635453"><ele>475.0</ele><time>2026-04-27T17:22:04.999Z</time></trkpt><trkpt lat="46.140883" lon="12.1636892"><ele>475.0</ele><time>2026-04-27T17:22:06.999Z</time></trkpt><trkpt lat="46.1409011" lon="12.1638323"><ele>475.0</ele><time>2026-04-27T17:22:09Z</time></trkpt><trkpt lat="46.1409095" lon="12.1639762"><ele>475.0</ele><time>2026-04-27T17:22:10.999Z</time></trkpt><trkpt lat="46.1409141" lon="12.1641173"><ele>475.0</ele><time>2026-04-27T17:22:13Z</time></trkpt><trkpt lat="46.1409185" lon="12.1642557"><ele>475.0</ele><time>2026-04-27T17:22:14.999Z</time></trkpt><trkpt lat="46.1409174" lon="12.1643891"><ele>474.33333333333337</ele><time>2026-04-27T17:22:17Z</time></trkpt><trkpt lat="46.1409156" lon="12.1645097"><ele>473.6666666666667</ele><time>2026-04-27T17:22:18.999Z</time></trkpt><trkpt lat="46.1408403" lon="12.164575"><ele>473.0</ele><time>2026-04-27T17:22:22Z</time></trkpt><trkpt lat="46.1407912" lon="12.1644939"><ele>472.33333333333337</ele><time>2026-04-27T17:22:24.999Z</time></trkpt><trkpt lat="46.1407711" lon="12.1643676"><ele>471.6666666666667</ele><time>2026-04-27T17:22:27.999Z</time></trkpt><trkpt lat="46.140751" lon="12.1642557"><ele>471.0</ele><time>2026-04-27T17:22:30Z</time></trkpt><trkpt lat="46.1407265" lon="12.1641307"><ele>468.6666666666667</ele><time>2026-04-27T17:22:31.999Z</time></trkpt><trkpt lat="46.1406969" lon="12.1640118"><ele>466.33333333333337</ele><time>2026-04-27T17:22:33.999Z</time></trkpt><trkpt lat="46.1406694" lon="12.1638999"><ele>464.0</ele><time>2026-04-27T17:22:36Z</time></trkpt><trkpt lat="46.1406445" lon="12.163796"><ele>461.6666666666667</ele><time>2026-04-27T17:22:38Z</time></trkpt><trkpt lat="46.1406273" lon="12.1636884"><ele>459.33333333333337</ele><time>2026-04-27T17:22:39.999Z</time></trkpt><trkpt lat="46.140603" lon="12.163579"><ele>457.0</ele><time>2026-04-27T17:22:42Z</time></trkpt><trkpt lat="46.1405831" lon="12.1634689"><ele>457.00000000000006</ele><time>2026-04-27T17:22:43.999Z</time></trkpt><trkpt lat="46.1405574" lon="12.1633632"><ele>457.0</ele><time>2026-04-27T17:22:45.999Z</time></trkpt><trkpt lat="46.1405273" lon="12.1632532"><ele>457.0</ele><time>2026-04-27T17:22:47.999Z</time></trkpt><trkpt lat="46.1404971" lon="12.1631409"><ele>457.0</ele><time>2026-04-27T17:22:49.999Z</time></trkpt><trkpt lat="46.1404612" lon="12.1630268"><ele>457.00000000000006</ele><time>2026-04-27T17:22:52Z</time></trkpt><trkpt lat="46.1404279" lon="12.1628995"><ele>457.0</ele><time>2026-04-27T17:22:53.999Z</time></trkpt><trkpt lat="46.1403956" lon="12.1627765"><ele>459.20000000000005</ele><time>2026-04-27T17:22:55.999Z</time></trkpt><trkpt lat="46.1403565" lon="12.1626587"><ele>461.40000000000003</ele><time>2026-04-27T17:22:57.999Z</time></trkpt><trkpt lat="46.1403181" lon="12.162537"><ele>463.59999999999997</ele><time>2026-04-27T17:22:59.999Z</time></trkpt><trkpt lat="46.140278" lon="12.1624156"><ele>465.79999999999995</ele><time>2026-04-27T17:23:01.999Z</time></trkpt><trkpt lat="46.1402332" lon="12.1622986"><ele>468.0</ele><time>2026-04-27T17:23:03.999Z</time></trkpt><trkpt lat="46.140188" lon="12.1621812"><ele>470.4</ele><time>2026-04-27T17:23:05.999Z</time></trkpt><trkpt lat="46.1401528" lon="12.1620597"><ele>472.79999999999995</ele><time>2026-04-27T17:23:07.999Z</time></trkpt><trkpt lat="46.1401117" lon="12.1619373"><ele>475.2</ele><time>2026-04-27T17:23:10Z</time></trkpt><trkpt lat="46.1400651" lon="12.1618182"><ele>477.6</ele><time>2026-04-27T17:23:11.999Z</time></trkpt><trkpt lat="46.1400185" lon="12.1617057"><ele>480.0</ele><time>2026-04-27T17:23:13.999Z</time></trkpt><trkpt lat="46.1399687" lon="12.1615889"><ele>479.4</ele><time>2026-04-27T17:23:15.999Z</time></trkpt><trkpt lat="46.1399137" lon="12.1614759"><ele>478.8</ele><time>2026-04-27T17:23:18Z</time></trkpt><trkpt lat="46.1398583" lon="12.1613627"><ele>478.20000000000005</ele><time>2026-04-27T17:23:19.999Z</time></trkpt><trkpt lat="46.1397735" lon="12.1611918"><ele>477.6</ele><time>2026-04-27T17:23:22.999Z</time></trkpt><trkpt lat="46.1397243" lon="12.1610684"><ele>477.0</ele><time>2026-04-27T17:23:24.999Z</time></trkpt><trkpt lat="46.1396859" lon="12.1609471"><ele>477.0</ele><time>2026-04-27T17:23:27Z</time></trkpt><trkpt lat="46.1396462" lon="12.1608279"><ele>477.00000000000006</ele><time>2026-04-27T17:23:28.999Z</time></trkpt><trkpt lat="46.1396032" lon="12.1607166"><ele>477.00000000000006</ele><time>2026-04-27T17:23:30.999Z</time></trkpt><trkpt lat="46.1395512" lon="12.1606043"><ele>477.0</ele><time>2026-04-27T17:23:32.999Z</time></trkpt><trkpt lat="46.139506" lon="12.1604872"><ele>477.0</ele><time>2026-04-27T17:23:35Z</time></trkpt><trkpt lat="46.1394631" lon="12.1603758"><ele>479.3333333333333</ele><time>2026-04-27T17:23:36.999Z</time></trkpt><trkpt lat="46.1394236" lon="12.1602614"><ele>481.66666666666663</ele><time>2026-04-27T17:23:38.999Z</time></trkpt><trkpt lat="46.1393835" lon="12.160144"><ele>484.0</ele><time>2026-04-27T17:23:40.999Z</time></trkpt><trkpt lat="46.1393456" lon="12.1600304"><ele>486.3333333333333</ele><time>2026-04-27T17:23:42.999Z</time></trkpt><trkpt lat="46.1393212" lon="12.1599101"><ele>488.66666666666663</ele><time>2026-04-27T17:23:45Z</time></trkpt><trkpt lat="46.1392836" lon="12.1597999"><ele>491.0</ele><time>2026-04-27T17:23:46.999Z</time></trkpt><trkpt lat="46.1392216" lon="12.1597724"><ele>492.6</ele><time>2026-04-27T17:24:03.999Z</time></trkpt><trkpt lat="46.1391195" lon="12.159726"><ele>494.20000000000005</ele><time>2026-04-27T17:24:07Z</time></trkpt><trkpt lat="46.1390181" lon="12.1596313"><ele>495.79999999999995</ele><time>2026-04-27T17:24:08.999Z</time></trkpt><trkpt lat="46.1389669" lon="12.1595676"><ele>497.4</ele><time>2026-04-27T17:24:09.999Z</time></trkpt><trkpt lat="46.1389133" lon="12.1594772"><ele>499.0</ele><time>2026-04-27T17:24:10.999Z</time></trkpt><trkpt lat="46.13886" lon="12.159389"><ele>496.83333333333337</ele><time>2026-04-27T17:24:12Z</time></trkpt><trkpt lat="46.1388081" lon="12.1592874"><ele>494.6666666666667</ele><time>2026-04-27T17:24:12.999Z</time></trkpt><trkpt lat="46.1387512" lon="12.1591946"><ele>492.5</ele><time>2026-04-27T17:24:14Z</time></trkpt><trkpt lat="46.1386917" lon="12.1591011"><ele>490.33333333333337</ele><time>2026-04-27T17:24:14.999Z</time></trkpt><trkpt lat="46.1386256" lon="12.1590057"><ele>488.1666666666667</ele><time>2026-04-27T17:24:15.999Z</time></trkpt><trkpt lat="46.1385596" lon="12.1589084"><ele>486.0</ele><time>2026-04-27T17:24:17Z</time></trkpt><trkpt lat="46.1384973" lon="12.1588123"><ele>486.0</ele><time>2026-04-27T17:24:17.999Z</time></trkpt><trkpt lat="46.1384374" lon="12.1587187"><ele>486.0</ele><time>2026-04-27T17:24:19Z</time></trkpt><trkpt lat="46.1383789" lon="12.1586291"><ele>486.0</ele><time>2026-04-27T17:24:20Z</time></trkpt><trkpt lat="46.1383186" lon="12.1585476"><ele>486.0</ele><time>2026-04-27T17:24:20.999Z</time></trkpt><trkpt lat="46.138257" lon="12.1584599"><ele>486.0</ele><time>2026-04-27T17:24:22Z</time></trkpt><trkpt lat="46.1381959" lon="12.1583649"><ele>486.0</ele><time>2026-04-27T17:24:22.999Z</time></trkpt><trkpt lat="46.1381384" lon="12.158274"><ele>483.4</ele><time>2026-04-27T17:24:24Z</time></trkpt><trkpt lat="46.1380844" lon="12.158174"><ele>480.8</ele><time>2026-04-27T17:24:24.999Z</time></trkpt><trkpt lat="46.1380223" lon="12.158078"><ele>478.19999999999993</ele><time>2026-04-27T17:24:25.999Z</time></trkpt><trkpt lat="46.1379565" lon="12.1579797"><ele>475.59999999999997</ele><time>2026-04-27T17:24:26.999Z</time></trkpt><trkpt lat="46.1378907" lon="12.157878"><ele>473.0</ele><time>2026-04-27T17:24:27.999Z</time></trkpt><trkpt lat="46.1378314" lon="12.1577669"><ele>473.0</ele><time>2026-04-27T17:24:29Z</time></trkpt><trkpt lat="46.1377622" lon="12.1576654"><ele>472.99999999999994</ele><time>2026-04-27T17:24:29.999Z</time></trkpt><trkpt lat="46.1376987" lon="12.1575587"><ele>472.99999999999994</ele><time>2026-04-27T17:24:31Z</time></trkpt><trkpt lat="46.1376419" lon="12.1574465"><ele>473.0</ele><time>2026-04-27T17:24:31.999Z</time></trkpt><trkpt lat="46.1375878" lon="12.1573418"><ele>473.0</ele><time>2026-04-27T17:24:32.999Z</time></trkpt><trkpt lat="46.1375409" lon="12.157237"><ele>474.16666666666663</ele><time>2026-04-27T17:24:33.999Z</time></trkpt><trkpt lat="46.1374952" lon="12.1571351"><ele>475.3333333333333</ele><time>2026-04-27T17:24:34.999Z</time></trkpt><trkpt lat="46.1374535" lon="12.1570371"><ele>476.5</ele><time>2026-04-27T17:24:35.999Z</time></trkpt><trkpt lat="46.137405" lon="12.1569503"><ele>477.66666666666663</ele><time>2026-04-27T17:24:37Z</time></trkpt><trkpt lat="46.137348" lon="12.1568705"><ele>478.8333333333333</ele><time>2026-04-27T17:24:37.999Z</time></trkpt><trkpt lat="46.1372867" lon="12.1567928"><ele>480.0</ele><time>2026-04-27T17:24:38.999Z</time></trkpt><trkpt lat="46.1372258" lon="12.1567144"><ele>478.14285714285717</ele><time>2026-04-27T17:24:39.999Z</time></trkpt><trkpt lat="46.1371637" lon="12.1566439"><ele>476.2857142857142</ele><time>2026-04-27T17:24:40.999Z</time></trkpt><trkpt lat="46.1371024" lon="12.1565792"><ele>474.4285714285714</ele><time>2026-04-27T17:24:41.999Z</time></trkpt><trkpt lat="46.1370413" lon="12.1565068"><ele>472.57142857142856</ele><time>2026-04-27T17:24:42.999Z</time></trkpt><trkpt lat="46.1369842" lon="12.1564269"><ele>470.71428571428567</ele><time>2026-04-27T17:24:43.999Z</time></trkpt><trkpt lat="46.1369366" lon="12.1563561"><ele>468.8571428571428</ele><time>2026-04-27T17:24:44.999Z</time></trkpt><trkpt lat="46.1368844" lon="12.1562988"><ele>466.99999999999994</ele><time>2026-04-27T17:24:45.999Z</time></trkpt><trkpt lat="46.1367713" lon="12.1562155"><ele>466.99999999999994</ele><time>2026-04-27T17:24:47.999Z</time></trkpt><trkpt lat="46.1367034" lon="12.1561866"><ele>467.0</ele><time>2026-04-27T17:24:49Z</time></trkpt><trkpt lat="46.1366333" lon="12.1561586"><ele>467.0</ele><time>2026-04-27T17:24:49.999Z</time></trkpt><trkpt lat="46.1365621" lon="12.1561516"><ele>467.0</ele><time>2026-04-27T17:24:50.999Z</time></trkpt><trkpt lat="46.1364985" lon="12.1561727"><ele>466.99999999999994</ele><time>2026-04-27T17:24:51.999Z</time></trkpt><trkpt lat="46.1364028" lon="12.1562051"><ele>467.0</ele><time>2026-04-27T17:24:53.999Z</time></trkpt><trkpt lat="46.1363532" lon="12.1562979"><ele>463.8333333333333</ele><time>2026-04-27T17:24:55.999Z</time></trkpt><trkpt lat="46.1363562" lon="12.1564049"><ele>460.66666666666663</ele><time>2026-04-27T17:24:58Z</time></trkpt><trkpt lat="46.1363331" lon="12.1564931"><ele>457.5</ele><time>2026-04-27T17:25:02Z</time></trkpt><trkpt lat="46.1362492" lon="12.1564245"><ele>454.33333333333337</ele><time>2026-04-27T17:25:03.999Z</time></trkpt><trkpt lat="46.1361713" lon="12.1563543"><ele>451.1666666666667</ele><time>2026-04-27T17:25:06Z</time></trkpt><trkpt lat="46.1361273" lon="12.1562568"><ele>448.0</ele><time>2026-04-27T17:25:07.999Z</time></trkpt><trkpt lat="46.1361139" lon="12.1561596"><ele>448.00000000000006</ele><time>2026-04-27T17:25:09.999Z</time></trkpt><trkpt lat="46.1361004" lon="12.1560344"><ele>448.0</ele><time>2026-04-27T17:25:11.999Z</time></trkpt><trkpt lat="46.1360885" lon="12.1559202"><ele>448.0</ele><time>2026-04-27T17:25:13.999Z</time></trkpt><trkpt lat="46.1360903" lon="12.1557928"><ele>448.0</ele><time>2026-04-27T17:25:15.999Z</time></trkpt><trkpt lat="46.136088" lon="12.1556342"><ele>448.00000000000006</ele><time>2026-04-27T17:25:18Z</time></trkpt><trkpt lat="46.1360726" lon="12.1555334"><ele>448.0</ele><time>2026-04-27T17:25:20Z</time></trkpt><trkpt lat="46.1360554" lon="12.1554394"><ele>447.50000000000006</ele><time>2026-04-27T17:25:22.999Z</time></trkpt><trkpt lat="46.1360387" lon="12.1553281"><ele>447.0</ele><time>2026-04-27T17:25:25.999Z</time></trkpt><trkpt lat="46.1360149" lon="12.1552162"><ele>446.5</ele><time>2026-04-27T17:25:27.999Z</time></trkpt><trkpt lat="46.1360007" lon="12.1550948"><ele>446.0</ele><time>2026-04-27T17:25:29.999Z</time></trkpt><trkpt lat="46.1360034" lon="12.1549529"><ele>445.50000000000006</ele><time>2026-04-27T17:25:31.999Z</time></trkpt><trkpt lat="46.1360058" lon="12.1548141"><ele>445.0</ele><time>2026-04-27T17:25:33.999Z</time></trkpt><trkpt lat="46.1360068" lon="12.1547034"><ele>445.0</ele><time>2026-04-27T17:25:35.999Z</time></trkpt><trkpt lat="46.1360099" lon="12.1545856"><ele>445.0</ele><time>2026-04-27T17:25:37.999Z</time></trkpt><trkpt lat="46.1360277" lon="12.15443"><ele>445.0</ele><time>2026-04-27T17:25:40Z</time></trkpt><trkpt lat="46.1360274" lon="12.1542744"><ele>445.0</ele><time>2026-04-27T17:25:42Z</time></trkpt><trkpt lat="46.136006" lon="12.1541278"><ele>445.0</ele><time>2026-04-27T17:25:43.999Z</time></trkpt><trkpt lat="46.1359885" lon="12.1540396"><ele>445.2</ele><time>2026-04-27T17:25:44.999Z</time></trkpt><trkpt lat="46.1359628" lon="12.153885"><ele>445.4</ele><time>2026-04-27T17:25:46.999Z</time></trkpt><trkpt lat="46.1359384" lon="12.1537219"><ele>445.6</ele><time>2026-04-27T17:25:48.999Z</time></trkpt><trkpt lat="46.1359092" lon="12.1535714"><ele>445.8</ele><time>2026-04-27T17:25:50.999Z</time></trkpt><trkpt lat="46.1358925" lon="12.1534233"><ele>446.0</ele><time>2026-04-27T17:25:52.999Z</time></trkpt><trkpt lat="46.1358565" lon="12.1532663"><ele>445.66666666666663</ele><time>2026-04-27T17:25:55Z</time></trkpt><trkpt lat="46.1358355" lon="12.1531751"><ele>445.3333333333333</ele><time>2026-04-27T17:25:55.999Z</time></trkpt><trkpt lat="46.1358118" lon="12.1530342"><ele>445.0</ele><time>2026-04-27T17:25:57.999Z</time></trkpt><trkpt lat="46.1357931" lon="12.1528869"><ele>444.66666666666663</ele><time>2026-04-27T17:25:59.999Z</time></trkpt><trkpt lat="46.1357599" lon="12.1527962"><ele>444.3333333333333</ele><time>2026-04-27T17:26:01.999Z</time></trkpt><trkpt lat="46.1356952" lon="12.1527045"><ele>444.0</ele><time>2026-04-27T17:26:03.999Z</time></trkpt><trkpt lat="46.1356109" lon="12.1526721"><ele>441.8333333333333</ele><time>2026-04-27T17:26:06Z</time></trkpt><trkpt lat="46.1355319" lon="12.1526616"><ele>439.66666666666663</ele><time>2026-04-27T17:26:07.999Z</time></trkpt><trkpt lat="46.1355296" lon="12.1525449"><ele>437.5</ele><time>2026-04-27T17:26:12.999Z</time></trkpt><trkpt lat="46.1355025" lon="12.1524373"><ele>435.3333333333333</ele><time>2026-04-27T17:26:14.999Z</time></trkpt><trkpt lat="46.1354679" lon="12.152311"><ele>433.16666666666663</ele><time>2026-04-27T17:26:16.999Z</time></trkpt><trkpt lat="46.1354363" lon="12.1521952"><ele>431.0</ele><time>2026-04-27T17:26:18.999Z</time></trkpt><trkpt lat="46.1354189" lon="12.1520089"><ele>429.16666666666663</ele><time>2026-04-27T17:26:21Z</time></trkpt><trkpt lat="46.1353819" lon="12.1518633"><ele>427.3333333333333</ele><time>2026-04-27T17:26:22.999Z</time></trkpt><trkpt lat="46.1353459" lon="12.1517838"><ele>425.5</ele><time>2026-04-27T17:26:23.999Z</time></trkpt><trkpt lat="46.1353252" lon="12.1516553"><ele>423.66666666666663</ele><time>2026-04-27T17:26:25.999Z</time></trkpt><trkpt lat="46.135289" lon="12.1515556"><ele>421.8333333333333</ele><time>2026-04-27T17:26:27.999Z</time></trkpt><trkpt lat="46.1352701" lon="12.1514386"><ele>420.0</ele><time>2026-04-27T17:26:30.999Z</time></trkpt><trkpt lat="46.1352475" lon="12.1513278"><ele>418.3333333333333</ele><time>2026-04-27T17:26:32.999Z</time></trkpt><trkpt lat="46.1352263" lon="12.15123"><ele>416.66666666666663</ele><time>2026-04-27T17:26:35Z</time></trkpt><trkpt lat="46.1352172" lon="12.1511214"><ele>415.0</ele><time>2026-04-27T17:26:39Z</time></trkpt><trkpt lat="46.1351718" lon="12.1510215"><ele>413.3333333333333</ele><time>2026-04-27T17:26:41.999Z</time></trkpt><trkpt lat="46.1351354" lon="12.1509225"><ele>411.66666666666663</ele><time>2026-04-27T17:26:44Z</time></trkpt><trkpt lat="46.1350939" lon="12.1508385"><ele>410.0</ele><time>2026-04-27T17:26:46.999Z</time></trkpt><trkpt lat="46.1350808" lon="12.1507128"><ele>409.8333333333333</ele><time>2026-04-27T17:26:50.999Z</time></trkpt><trkpt lat="46.1350362" lon="12.1506053"><ele>409.66666666666663</ele><time>2026-04-27T17:26:52.999Z</time></trkpt><trkpt lat="46.1349771" lon="12.1505124"><ele>409.5</ele><time>2026-04-27T17:26:55Z</time></trkpt><trkpt lat="46.1349852" lon="12.1504077"><ele>409.33333333333337</ele><time>2026-04-27T17:26:56Z</time></trkpt><trkpt lat="46.1349473" lon="12.1503186"><ele>409.1666666666667</ele><time>2026-04-27T17:26:58Z</time></trkpt><trkpt lat="46.1349062" lon="12.1502098"><ele>409.0</ele><time>2026-04-27T17:27:01Z</time></trkpt><trkpt lat="46.1348825" lon="12.1500903"><ele>408.83333333333337</ele><time>2026-04-27T17:27:02.999Z</time></trkpt><trkpt lat="46.1348353" lon="12.1500195"><ele>408.6666666666667</ele><time>2026-04-27T17:27:04.999Z</time></trkpt><trkpt lat="46.1347715" lon="12.1499908"><ele>408.5</ele><time>2026-04-27T17:27:07.999Z</time></trkpt><trkpt lat="46.1347498" lon="12.1498855"><ele>408.33333333333337</ele><time>2026-04-27T17:27:11Z</time></trkpt><trkpt lat="46.1347138" lon="12.149782"><ele>408.1666666666667</ele><time>2026-04-27T17:27:14Z</time></trkpt><trkpt lat="46.1346781" lon="12.149654"><ele>408.0</ele><time>2026-04-27T17:27:15.999Z</time></trkpt><trkpt lat="46.1346539" lon="12.1495508"><ele>406.8333333333333</ele><time>2026-04-27T17:27:17.999Z</time></trkpt><trkpt lat="46.1346107" lon="12.1494318"><ele>405.66666666666663</ele><time>2026-04-27T17:27:19.999Z</time></trkpt><trkpt lat="46.134578" lon="12.1492752"><ele>404.5</ele><time>2026-04-27T17:27:21.999Z</time></trkpt><trkpt lat="46.1345246" lon="12.1491925"><ele>403.3333333333333</ele><time>2026-04-27T17:27:23.999Z</time></trkpt><trkpt lat="46.1344999" lon="12.1490923"><ele>402.16666666666663</ele><time>2026-04-27T17:27:26Z</time></trkpt><trkpt lat="46.1344987" lon="12.1489647"><ele>401.0</ele><time>2026-04-27T17:27:27.999Z</time></trkpt><trkpt lat="46.1344855" lon="12.1488467"><ele>400.6</ele><time>2026-04-27T17:27:29.999Z</time></trkpt><trkpt lat="46.1344696" lon="12.1486913"><ele>400.20000000000005</ele><time>2026-04-27T17:27:31.999Z</time></trkpt><trkpt lat="46.1344539" lon="12.148539"><ele>399.79999999999995</ele><time>2026-04-27T17:27:34Z</time></trkpt><trkpt lat="46.1344365" lon="12.1483756"><ele>399.4</ele><time>2026-04-27T17:27:35.999Z</time></trkpt><trkpt lat="46.1343957" lon="12.1482193"><ele>399.0</ele><time>2026-04-27T17:27:37.999Z</time></trkpt><trkpt lat="46.1343599" lon="12.1480586"><ele>398.0</ele><time>2026-04-27T17:27:40Z</time></trkpt><trkpt lat="46.1343323" lon="12.1479195"><ele>397.0</ele><time>2026-04-27T17:27:41.999Z</time></trkpt><trkpt lat="46.134317" lon="12.1477969"><ele>396.0</ele><time>2026-04-27T17:27:44Z</time></trkpt><trkpt lat="46.1342986" lon="12.1476365"><ele>395.0</ele><time>2026-04-27T17:27:45.999Z</time></trkpt><trkpt lat="46.1342719" lon="12.1474678"><ele>394.0</ele><time>2026-04-27T17:27:47.999Z</time></trkpt><trkpt lat="46.1342534" lon="12.147297"><ele>393.00000000000006</ele><time>2026-04-27T17:27:49.999Z</time></trkpt><trkpt lat="46.1342344" lon="12.147132"><ele>392.0</ele><time>2026-04-27T17:27:51.999Z</time></trkpt><trkpt lat="46.1342167" lon="12.1470386"><ele>391.0</ele><time>2026-04-27T17:27:52.999Z</time></trkpt><trkpt lat="46.1341983" lon="12.1469076"><ele>390.0</ele><time>2026-04-27T17:27:54.999Z</time></trkpt><trkpt lat="46.1341882" lon="12.1468072"><ele>389.00000000000006</ele><time>2026-04-27T17:27:56.999Z</time></trkpt><trkpt lat="46.1341717" lon="12.146716"><ele>388.0</ele><time>2026-04-27T17:27:58.999Z</time></trkpt><trkpt lat="46.1341719" lon="12.1465783"><ele>387.50000000000006</ele><time>2026-04-27T17:28:01Z</time></trkpt><trkpt lat="46.1341923" lon="12.1464614"><ele>387.0</ele><time>2026-04-27T17:28:02.999Z</time></trkpt><trkpt lat="46.1342176" lon="12.1463336"><ele>386.5</ele><time>2026-04-27T17:28:06Z</time></trkpt><trkpt lat="46.1342544" lon="12.1462222"><ele>386.0</ele><time>2026-04-27T17:28:07.999Z</time></trkpt><trkpt lat="46.1342514" lon="12.1460921"><ele>385.50000000000006</ele><time>2026-04-27T17:28:09.999Z</time></trkpt><trkpt lat="46.1342462" lon="12.1459641"><ele>385.0</ele><time>2026-04-27T17:28:11.999Z</time></trkpt><trkpt lat="46.1341901" lon="12.145834"><ele>385.00000000000006</ele><time>2026-04-27T17:28:13.999Z</time></trkpt><trkpt lat="46.1341741" lon="12.1457085"><ele>385.0</ele><time>2026-04-27T17:28:15.999Z</time></trkpt><trkpt lat="46.1341674" lon="12.1455823"><ele>385.0</ele><time>2026-04-27T17:28:17.999Z</time></trkpt><trkpt lat="46.1341237" lon="12.1454409"><ele>385.0</ele><time>2026-04-27T17:28:19.999Z</time></trkpt><trkpt lat="46.134108" lon="12.1453313"><ele>385.00000000000006</ele><time>2026-04-27T17:28:21.999Z</time></trkpt><trkpt lat="46.1341184" lon="12.1452144"><ele>385.0</ele><time>2026-04-27T17:28:33.999Z</time></trkpt><trkpt lat="46.1341278" lon="12.145115"><ele>385.00000000000006</ele><time>2026-04-27T17:28:40.999Z</time></trkpt><trkpt lat="46.1341628" lon="12.1450291"><ele>385.0</ele><time>2026-04-27T17:28:51Z</time></trkpt><trkpt lat="46.1341578" lon="12.1449071"><ele>385.0</ele><time>2026-04-27T17:28:54Z</time></trkpt><trkpt lat="46.1341541" lon="12.1447683"><ele>385.0</ele><time>2026-04-27T17:28:56Z</time></trkpt><trkpt lat="46.134155" lon="12.1446497"><ele>385.00000000000006</ele><time>2026-04-27T17:28:57.999Z</time></trkpt><trkpt lat="46.1341579" lon="12.1445305"><ele>385.0</ele><time>2026-04-27T17:28:59.999Z</time></trkpt><trkpt lat="46.134168" lon="12.1444319"><ele>383.6666666666667</ele><time>2026-04-27T17:29:04Z</time></trkpt><trkpt lat="46.134169" lon="12.1443397"><ele>382.33333333333337</ele><time>2026-04-27T17:29:10.999Z</time></trkpt><trkpt lat="46.1341533" lon="12.1442027"><ele>381.0</ele><time>2026-04-27T17:29:14Z</time></trkpt><trkpt lat="46.1341567" lon="12.1440878"><ele>379.6666666666667</ele><time>2026-04-27T17:29:15.999Z</time></trkpt><trkpt lat="46.1341662" lon="12.1439691"><ele>378.33333333333337</ele><time>2026-04-27T17:29:19Z</time></trkpt><trkpt lat="46.1341895" lon="12.1438295"><ele>377.0</ele><time>2026-04-27T17:29:21.999Z</time></trkpt><trkpt lat="46.1341914" lon="12.1437337"><ele>376.1666666666667</ele><time>2026-04-27T17:29:27.999Z</time></trkpt><trkpt lat="46.1341891" lon="12.1436045"><ele>375.33333333333337</ele><time>2026-04-27T17:29:34.999Z</time></trkpt><trkpt lat="46.1341753" lon="12.1434552"><ele>374.5</ele><time>2026-04-27T17:29:37.999Z</time></trkpt><trkpt lat="46.1341608" lon="12.1433338"><ele>373.6666666666667</ele><time>2026-04-27T17:29:40Z</time></trkpt><trkpt lat="46.1341806" lon="12.1431929"><ele>372.8333333333333</ele><time>2026-04-27T17:29:41.999Z</time></trkpt><trkpt lat="46.134209" lon="12.1431015"><ele>372.0</ele><time>2026-04-27T17:29:43.999Z</time></trkpt><trkpt lat="46.134225" lon="12.1430057"><ele>372.0</ele><time>2026-04-27T17:29:45.999Z</time></trkpt><trkpt lat="46.1342425" lon="12.1429181"><ele>372.0</ele><time>2026-04-27T17:29:47.999Z</time></trkpt><trkpt lat="46.1342556" lon="12.1428126"><ele>372.0</ele><time>2026-04-27T17:29:50Z</time></trkpt><trkpt lat="46.1342677" lon="12.1426987"><ele>372.0</ele><time>2026-04-27T17:29:51.999Z</time></trkpt><trkpt lat="46.1342748" lon="12.14258"><ele>372.0</ele><time>2026-04-27T17:29:54Z</time></trkpt><trkpt lat="46.1342739" lon="12.142458"><ele>372.0</ele><time>2026-04-27T17:29:56Z</time></trkpt><trkpt lat="46.1342671" lon="12.1423408"><ele>372.0</ele><time>2026-04-27T17:29:58Z</time></trkpt><trkpt lat="46.1342508" lon="12.1422072"><ele>372.0</ele><time>2026-04-27T17:29:59.999Z</time></trkpt><trkpt lat="46.1342417" lon="12.1420835"><ele>372.0</ele><time>2026-04-27T17:30:01.999Z</time></trkpt><trkpt lat="46.1342267" lon="12.14195"><ele>372.0</ele><time>2026-04-27T17:30:04Z</time></trkpt><trkpt lat="46.134207" lon="12.1418097"><ele>372.0</ele><time>2026-04-27T17:30:05.999Z</time></trkpt><trkpt lat="46.1341709" lon="12.1416874"><ele>372.0</ele><time>2026-04-27T17:30:07.999Z</time></trkpt><trkpt lat="46.1341255" lon="12.1415596"><ele>372.0</ele><time>2026-04-27T17:30:09.999Z</time></trkpt><trkpt lat="46.1340848" lon="12.1414363"><ele>372.0</ele><time>2026-04-27T17:30:11.999Z</time></trkpt><trkpt lat="46.1340391" lon="12.1413069"><ele>372.0</ele><time>2026-04-27T17:30:13.999Z</time></trkpt><trkpt lat="46.1339781" lon="12.1411804"><ele>372.0</ele><time>2026-04-27T17:30:15.999Z</time></trkpt><trkpt lat="46.1339" lon="12.1410648"><ele>371.7142857142857</ele><time>2026-04-27T17:30:17.999Z</time></trkpt><trkpt lat="46.1338226" lon="12.1409556"><ele>371.42857142857144</ele><time>2026-04-27T17:30:19.999Z</time></trkpt><trkpt lat="46.1337836" lon="12.1408841"><ele>371.1428571428571</ele><time>2026-04-27T17:30:20.999Z</time></trkpt><trkpt lat="46.1337443" lon="12.1408118"><ele>370.8571428571429</ele><time>2026-04-27T17:30:21.999Z</time></trkpt><trkpt lat="46.1336933" lon="12.1407494"><ele>370.57142857142856</ele><time>2026-04-27T17:30:23Z</time></trkpt><trkpt lat="46.1336434" lon="12.1406733"><ele>370.2857142857143</ele><time>2026-04-27T17:30:24Z</time></trkpt><trkpt lat="46.1335922" lon="12.1406034"><ele>370.0</ele><time>2026-04-27T17:30:24.999Z</time></trkpt><trkpt lat="46.1335431" lon="12.1405294"><ele>369.99999999999994</ele><time>2026-04-27T17:30:26Z</time></trkpt><trkpt lat="46.1334975" lon="12.1404535"><ele>370.0</ele><time>2026-04-27T17:30:26.999Z</time></trkpt><trkpt lat="46.1334557" lon="12.1403755"><ele>370.0</ele><time>2026-04-27T17:30:28Z</time></trkpt><trkpt lat="46.1334152" lon="12.1402939"><ele>370.0</ele><time>2026-04-27T17:30:28.999Z</time></trkpt><trkpt lat="46.133384" lon="12.1402088"><ele>370.0</ele><time>2026-04-27T17:30:30Z</time></trkpt><trkpt lat="46.1333537" lon="12.1401246"><ele>369.99999999999994</ele><time>2026-04-27T17:30:30.999Z</time></trkpt><trkpt lat="46.1333284" lon="12.1400386"><ele>370.0</ele><time>2026-04-27T17:30:31.999Z</time></trkpt><trkpt lat="46.1332744" lon="12.1398793"><ele>368.16666666666663</ele><time>2026-04-27T17:30:34Z</time></trkpt><trkpt lat="46.1332175" lon="12.1397153"><ele>366.3333333333333</ele><time>2026-04-27T17:30:35.999Z</time></trkpt><trkpt lat="46.1331867" lon="12.1396353"><ele>364.5</ele><time>2026-04-27T17:30:36.999Z</time></trkpt><trkpt lat="46.1331551" lon="12.139556"><ele>362.6666666666667</ele><time>2026-04-27T17:30:38Z</time></trkpt><trkpt lat="46.1331237" lon="12.1394744"><ele>360.83333333333337</ele><time>2026-04-27T17:30:39Z</time></trkpt><trkpt lat="46.1330832" lon="12.1393843"><ele>359.0</ele><time>2026-04-27T17:30:40Z</time></trkpt><trkpt lat="46.1330529" lon="12.1392937"><ele>359.0</ele><time>2026-04-27T17:30:40.999Z</time></trkpt><trkpt lat="46.1330242" lon="12.1391996"><ele>359.0</ele><time>2026-04-27T17:30:41.999Z</time></trkpt><trkpt lat="46.1329992" lon="12.1391161"><ele>359.0</ele><time>2026-04-27T17:30:42.999Z</time></trkpt><trkpt lat="46.1329732" lon="12.1390262"><ele>359.0</ele><time>2026-04-27T17:30:44Z</time></trkpt><trkpt lat="46.1329403" lon="12.1389435"><ele>359.0</ele><time>2026-04-27T17:30:44.999Z</time></trkpt><trkpt lat="46.1329112" lon="12.1388629"><ele>359.0</ele><time>2026-04-27T17:30:45.999Z</time></trkpt><trkpt lat="46.132881" lon="12.1387826"><ele>359.0</ele><time>2026-04-27T17:30:47Z</time></trkpt><trkpt lat="46.1328524" lon="12.1386998"><ele>359.6666666666667</ele><time>2026-04-27T17:30:48Z</time></trkpt><trkpt lat="46.1328203" lon="12.1386196"><ele>360.33333333333337</ele><time>2026-04-27T17:30:48.999Z</time></trkpt><trkpt lat="46.1327537" lon="12.1384605"><ele>361.0</ele><time>2026-04-27T17:30:50.999Z</time></trkpt><trkpt lat="46.1327215" lon="12.1383796"><ele>361.6666666666667</ele><time>2026-04-27T17:30:51.999Z</time></trkpt><trkpt lat="46.132688" lon="12.1382992"><ele>362.3333333333333</ele><time>2026-04-27T17:30:53Z</time></trkpt><trkpt lat="46.1326568" lon="12.1382199"><ele>363.0</ele><time>2026-04-27T17:30:54Z</time></trkpt><trkpt lat="46.1325995" lon="12.1380706"><ele>362.5</ele><time>2026-04-27T17:30:55.999Z</time></trkpt><trkpt lat="46.132534" lon="12.1379151"><ele>362.0</ele><time>2026-04-27T17:30:57.999Z</time></trkpt><trkpt lat="46.1324711" lon="12.1377596"><ele>361.5</ele><time>2026-04-27T17:31:00Z</time></trkpt><trkpt lat="46.1324422" lon="12.1376781"><ele>361.0</ele><time>2026-04-27T17:31:00.999Z</time></trkpt><trkpt lat="46.1324097" lon="12.1375958"><ele>360.5</ele><time>2026-04-27T17:31:01.999Z</time></trkpt><trkpt lat="46.1323798" lon="12.137509"><ele>360.0</ele><time>2026-04-27T17:31:03Z</time></trkpt><trkpt lat="46.132348" lon="12.137423"><ele>359.5</ele><time>2026-04-27T17:31:03.999Z</time></trkpt><trkpt lat="46.132294" lon="12.1372572"><ele>359.0</ele><time>2026-04-27T17:31:05.999Z</time></trkpt><trkpt lat="46.132262" lon="12.1371754"><ele>358.5</ele><time>2026-04-27T17:31:06.999Z</time></trkpt><trkpt lat="46.1322321" lon="12.1370916"><ele>358.0</ele><time>2026-04-27T17:31:07.999Z</time></trkpt><trkpt lat="46.1321978" lon="12.1370125"><ele>357.5</ele><time>2026-04-27T17:31:08.999Z</time></trkpt><trkpt lat="46.1321644" lon="12.1369352"><ele>357.0</ele><time>2026-04-27T17:31:09.999Z</time></trkpt><trkpt lat="46.1320896" lon="12.1367892"><ele>357.0</ele><time>2026-04-27T17:31:11.999Z</time></trkpt><trkpt lat="46.1320501" lon="12.1367178"><ele>357.0</ele><time>2026-04-27T17:31:12.999Z</time></trkpt><trkpt lat="46.1320109" lon="12.1366445"><ele>357.0</ele><time>2026-04-27T17:31:13.999Z</time></trkpt><trkpt lat="46.1319728" lon="12.1365696"><ele>357.0</ele><time>2026-04-27T17:31:15Z</time></trkpt><trkpt lat="46.1319073" lon="12.136414"><ele>357.0</ele><time>2026-04-27T17:31:16.999Z</time></trkpt><trkpt lat="46.1318576" lon="12.1362457"><ele>357.0</ele><time>2026-04-27T17:31:18.999Z</time></trkpt><trkpt lat="46.1318406" lon="12.1361576"><ele>357.3333333333333</ele><time>2026-04-27T17:31:19.999Z</time></trkpt><trkpt lat="46.131826" lon="12.1360675"><ele>357.6666666666667</ele><time>2026-04-27T17:31:20.999Z</time></trkpt><trkpt lat="46.1318108" lon="12.1359785"><ele>358.0</ele><time>2026-04-27T17:31:21.999Z</time></trkpt><trkpt lat="46.1317946" lon="12.1358863"><ele>358.33333333333337</ele><time>2026-04-27T17:31:23Z</time></trkpt><trkpt lat="46.1317728" lon="12.1357955"><ele>358.6666666666667</ele><time>2026-04-27T17:31:23.999Z</time></trkpt><trkpt lat="46.1317487" lon="12.1357038"><ele>359.0</ele><time>2026-04-27T17:31:24.999Z</time></trkpt><trkpt lat="46.131706" lon="12.1355383"><ele>359.0</ele><time>2026-04-27T17:31:26.999Z</time></trkpt><trkpt lat="46.1316782" lon="12.1353719"><ele>359.0</ele><time>2026-04-27T17:31:29Z</time></trkpt><trkpt lat="46.1316871" lon="12.1352174"><ele>359.0</ele><time>2026-04-27T17:31:31Z</time></trkpt><trkpt lat="46.1317548" lon="12.1350958"><ele>359.0</ele><time>2026-04-27T17:31:33Z</time></trkpt><trkpt lat="46.1318471" lon="12.135012"><ele>359.0</ele><time>2026-04-27T17:31:34.999Z</time></trkpt><trkpt lat="46.1319506" lon="12.1349292"><ele>357.79999999999995</ele><time>2026-04-27T17:31:36.999Z</time></trkpt><trkpt lat="46.1320082" lon="12.1348868"><ele>356.59999999999997</ele><time>2026-04-27T17:31:37.999Z</time></trkpt><trkpt lat="46.1320663" lon="12.1348422"><ele>355.4</ele><time>2026-04-27T17:31:38.999Z</time></trkpt><trkpt lat="46.1321657" lon="12.1347441"><ele>354.2</ele><time>2026-04-27T17:31:40.999Z</time></trkpt><trkpt lat="46.1322668" lon="12.1346585"><ele>353.0</ele><time>2026-04-27T17:31:43Z</time></trkpt><trkpt lat="46.1323682" lon="12.1345701"><ele>353.5</ele><time>2026-04-27T17:31:44.999Z</time></trkpt><trkpt lat="46.1324544" lon="12.13447"><ele>354.0</ele><time>2026-04-27T17:31:47Z</time></trkpt><trkpt lat="46.132504" lon="12.1343193"><ele>354.5</ele><time>2026-04-27T17:31:48.999Z</time></trkpt><trkpt lat="46.1325346" lon="12.1341643"><ele>355.0</ele><time>2026-04-27T17:31:50.999Z</time></trkpt><trkpt lat="46.1325334" lon="12.1340023"><ele>355.0</ele><time>2026-04-27T17:31:52.999Z</time></trkpt><trkpt lat="46.1324802" lon="12.1338498"><ele>355.0</ele><time>2026-04-27T17:31:54.999Z</time></trkpt><trkpt lat="46.1324325" lon="12.1337866"><ele>355.0</ele><time>2026-04-27T17:31:56Z</time></trkpt><trkpt lat="46.1323778" lon="12.133728"><ele>355.0</ele><time>2026-04-27T17:31:56.999Z</time></trkpt><trkpt lat="46.1323181" lon="12.1336832"><ele>355.0</ele><time>2026-04-27T17:31:57.999Z</time></trkpt><trkpt lat="46.132257" lon="12.1336535"><ele>355.0</ele><time>2026-04-27T17:31:59Z</time></trkpt><trkpt lat="46.1321929" lon="12.1336358"><ele>355.0</ele><time>2026-04-27T17:31:59.999Z</time></trkpt><trkpt lat="46.1321255" lon="12.1336315"><ele>354.5</ele><time>2026-04-27T17:32:00.999Z</time></trkpt><trkpt lat="46.1320605" lon="12.1336328"><ele>354.0</ele><time>2026-04-27T17:32:02Z</time></trkpt><trkpt lat="46.1319925" lon="12.1336328"><ele>353.5</ele><time>2026-04-27T17:32:02.999Z</time></trkpt><trkpt lat="46.1319293" lon="12.1336415"><ele>353.0</ele><time>2026-04-27T17:32:03.999Z</time></trkpt><trkpt lat="46.1318653" lon="12.1336601"><ele>352.5</ele><time>2026-04-27T17:32:04.999Z</time></trkpt><trkpt lat="46.1317461" lon="12.1336813"><ele>352.0</ele><time>2026-04-27T17:32:06.999Z</time></trkpt><trkpt lat="46.1316321" lon="12.1336789"><ele>352.25</ele><time>2026-04-27T17:32:08.999Z</time></trkpt><trkpt lat="46.1315248" lon="12.1336566"><ele>352.5</ele><time>2026-04-27T17:32:10.999Z</time></trkpt><trkpt lat="46.1314229" lon="12.1336044"><ele>352.75</ele><time>2026-04-27T17:32:12.999Z</time></trkpt><trkpt lat="46.1313137" lon="12.1335235"><ele>353.0</ele><time>2026-04-27T17:32:15Z</time></trkpt><trkpt lat="46.1312106" lon="12.1334224"><ele>353.0</ele><time>2026-04-27T17:32:16.999Z</time></trkpt><trkpt lat="46.1311609" lon="12.1333665"><ele>353.0</ele><time>2026-04-27T17:32:18Z</time></trkpt><trkpt lat="46.1311131" lon="12.133306"><ele>353.0</ele><time>2026-04-27T17:32:18.999Z</time></trkpt><trkpt lat="46.13103" lon="12.1331838"><ele>353.0</ele><time>2026-04-27T17:32:21Z</time></trkpt><trkpt lat="46.1309493" lon="12.133064"><ele>353.0</ele><time>2026-04-27T17:32:22.999Z</time></trkpt><trkpt lat="46.1308693" lon="12.1329554"><ele>352.79999999999995</ele><time>2026-04-27T17:32:25Z</time></trkpt><trkpt lat="46.1307861" lon="12.1328571"><ele>352.6</ele><time>2026-04-27T17:32:26.999Z</time></trkpt><trkpt lat="46.1306988" lon="12.1327801"><ele>352.4</ele><time>2026-04-27T17:32:28.999Z</time></trkpt><trkpt lat="46.1305995" lon="12.1327251"><ele>352.20000000000005</ele><time>2026-04-27T17:32:31Z</time></trkpt><trkpt lat="46.130493" lon="12.132687"><ele>352.0</ele><time>2026-04-27T17:32:32.999Z</time></trkpt><trkpt lat="46.1303753" lon="12.1326878"><ele>352.0</ele><time>2026-04-27T17:32:34.999Z</time></trkpt><trkpt lat="46.1302439" lon="12.1327113"><ele>352.0</ele><time>2026-04-27T17:32:36.999Z</time></trkpt><trkpt lat="46.1301732" lon="12.1327185"><ele>352.0</ele><time>2026-04-27T17:32:38Z</time></trkpt><trkpt lat="46.1301034" lon="12.1327276"><ele>352.0</ele><time>2026-04-27T17:32:39Z</time></trkpt><trkpt lat="46.1300329" lon="12.1327407"><ele>352.0</ele><time>2026-04-27T17:32:40Z</time></trkpt><trkpt lat="46.1299669" lon="12.1327572"><ele>352.0</ele><time>2026-04-27T17:32:40.999Z</time></trkpt><trkpt lat="46.1299015" lon="12.1327716"><ele>353.6</ele><time>2026-04-27T17:32:41.999Z</time></trkpt><trkpt lat="46.1298374" lon="12.1327824"><ele>355.20000000000005</ele><time>2026-04-27T17:32:42.999Z</time></trkpt><trkpt lat="46.1297183" lon="12.1327796"><ele>356.8</ele><time>2026-04-27T17:32:44.999Z</time></trkpt><trkpt lat="46.1296057" lon="12.1327496"><ele>358.4</ele><time>2026-04-27T17:32:46.999Z</time></trkpt><trkpt lat="46.1295051" lon="12.1327163"><ele>360.0</ele><time>2026-04-27T17:32:48.999Z</time></trkpt><trkpt lat="46.1294187" lon="12.1326814"><ele>360.0</ele><time>2026-04-27T17:32:50.999Z</time></trkpt><trkpt lat="46.1293486" lon="12.1326279"><ele>360.0</ele><time>2026-04-27T17:32:52.999Z</time></trkpt><trkpt lat="46.1292679" lon="12.1325435"><ele>360.0</ele><time>2026-04-27T17:32:54.999Z</time></trkpt><trkpt lat="46.129201" lon="12.1324101"><ele>360.0</ele><time>2026-04-27T17:32:56.999Z</time></trkpt><trkpt lat="46.1291751" lon="12.1323262"><ele>360.0</ele><time>2026-04-27T17:32:57.999Z</time></trkpt><trkpt lat="46.1291586" lon="12.1322365"><ele>360.0</ele><time>2026-04-27T17:32:58.999Z</time></trkpt><trkpt lat="46.1291216" lon="12.1321451"><ele>358.3333333333333</ele><time>2026-04-27T17:33:00Z</time></trkpt><trkpt lat="46.129104" lon="12.1320576"><ele>356.6666666666667</ele><time>2026-04-27T17:33:01Z</time></trkpt><trkpt lat="46.1290799" lon="12.1319637"><ele>355.0</ele><time>2026-04-27T17:33:01.999Z</time></trkpt><trkpt lat="46.1290605" lon="12.1318741"><ele>353.33333333333337</ele><time>2026-04-27T17:33:02.999Z</time></trkpt><trkpt lat="46.1290239" lon="12.13173"><ele>351.6666666666667</ele><time>2026-04-27T17:33:05Z</time></trkpt><trkpt lat="46.1289259" lon="12.1316178"><ele>350.0</ele><time>2026-04-27T17:33:06.999Z</time></trkpt><trkpt lat="46.1288658" lon="12.1315792"><ele>348.85714285714283</ele><time>2026-04-27T17:33:07.999Z</time></trkpt><trkpt lat="46.1288063" lon="12.1315325"><ele>347.7142857142857</ele><time>2026-04-27T17:33:08.999Z</time></trkpt><trkpt lat="46.1287461" lon="12.1314892"><ele>346.57142857142856</ele><time>2026-04-27T17:33:09.999Z</time></trkpt><trkpt lat="46.1286843" lon="12.1314377"><ele>345.42857142857144</ele><time>2026-04-27T17:33:10.999Z</time></trkpt><trkpt lat="46.1286725" lon="12.1313111"><ele>344.2857142857143</ele><time>2026-04-27T17:33:11.999Z</time></trkpt><trkpt lat="46.1286474" lon="12.1312198"><ele>343.1428571428571</ele><time>2026-04-27T17:33:12.999Z</time></trkpt><trkpt lat="46.1286222" lon="12.1311312"><ele>342.0</ele><time>2026-04-27T17:33:13.999Z</time></trkpt><trkpt lat="46.1285689" lon="12.1309779"><ele>342.0</ele><time>2026-04-27T17:33:15.999Z</time></trkpt><trkpt lat="46.1285226" lon="12.130911"><ele>342.0</ele><time>2026-04-27T17:33:16.999Z</time></trkpt><trkpt lat="46.1284429" lon="12.130779"><ele>342.0</ele><time>2026-04-27T17:33:18.999Z</time></trkpt><trkpt lat="46.12841" lon="12.1306999"><ele>342.0</ele><time>2026-04-27T17:33:19.999Z</time></trkpt><trkpt lat="46.1283729" lon="12.13053"><ele>342.0</ele><time>2026-04-27T17:33:22Z</time></trkpt><trkpt lat="46.1283654" lon="12.1304392"><ele>342.0</ele><time>2026-04-27T17:33:22.999Z</time></trkpt><trkpt lat="46.128353" lon="12.1303482"><ele>341.8</ele><time>2026-04-27T17:33:24Z</time></trkpt><trkpt lat="46.1283356" lon="12.1302574"><ele>341.6</ele><time>2026-04-27T17:33:24.999Z</time></trkpt><trkpt lat="46.1283129" lon="12.130079"><ele>341.40000000000003</ele><time>2026-04-27T17:33:26.999Z</time></trkpt><trkpt lat="46.1282953" lon="12.1299914"><ele>341.20000000000005</ele><time>2026-04-27T17:33:27.999Z</time></trkpt><trkpt lat="46.1282639" lon="12.129815"><ele>341.0</ele><time>2026-04-27T17:33:29.999Z</time></trkpt><trkpt lat="46.1282403" lon="12.1296582"><ele>341.20000000000005</ele><time>2026-04-27T17:33:31.999Z</time></trkpt><trkpt lat="46.1282249" lon="12.1295271"><ele>341.40000000000003</ele><time>2026-04-27T17:33:33.999Z</time></trkpt><trkpt lat="46.1282191" lon="12.1293954"><ele>341.6</ele><time>2026-04-27T17:33:36Z</time></trkpt><trkpt lat="46.1282183" lon="12.1292521"><ele>341.8</ele><time>2026-04-27T17:33:37.999Z</time></trkpt><trkpt lat="46.1282213" lon="12.1291055"><ele>342.0</ele><time>2026-04-27T17:33:39.999Z</time></trkpt><trkpt lat="46.128227" lon="12.1289508"><ele>342.0</ele><time>2026-04-27T17:33:41.999Z</time></trkpt><trkpt lat="46.1282319" lon="12.1288132"><ele>342.0</ele><time>2026-04-27T17:33:43.999Z</time></trkpt><trkpt lat="46.1282205" lon="12.1286965"><ele>342.0</ele><time>2026-04-27T17:33:45.999Z</time></trkpt><trkpt lat="46.1281792" lon="12.1286191"><ele>342.0</ele><time>2026-04-27T17:33:47.999Z</time></trkpt><trkpt lat="46.1280962" lon="12.1286796"><ele>342.0</ele><time>2026-04-27T17:33:50.999Z</time></trkpt><trkpt lat="46.1280258" lon="12.1287643"><ele>342.0</ele><time>2026-04-27T17:33:52.999Z</time></trkpt><trkpt lat="46.1279479" lon="12.1288738"><ele>341.20000000000005</ele><time>2026-04-27T17:33:54.999Z</time></trkpt><trkpt lat="46.127856" lon="12.1289865"><ele>340.4</ele><time>2026-04-27T17:33:56.999Z</time></trkpt><trkpt lat="46.1277602" lon="12.1291003"><ele>339.6</ele><time>2026-04-27T17:33:58.999Z</time></trkpt><trkpt lat="46.1277117" lon="12.1291608"><ele>338.79999999999995</ele><time>2026-04-27T17:33:59.999Z</time></trkpt><trkpt lat="46.1276179" lon="12.1292789"><ele>338.0</ele><time>2026-04-27T17:34:01.999Z</time></trkpt><trkpt lat="46.12757" lon="12.129343"><ele>338.0</ele><time>2026-04-27T17:34:02.999Z</time></trkpt><trkpt lat="46.1275207" lon="12.1294001"><ele>338.0</ele><time>2026-04-27T17:34:03.999Z</time></trkpt><trkpt lat="46.127425" lon="12.1295144"><ele>338.0</ele><time>2026-04-27T17:34:05.999Z</time></trkpt><trkpt lat="46.1273323" lon="12.129626"><ele>338.0</ele><time>2026-04-27T17:34:07.999Z</time></trkpt><trkpt lat="46.1272358" lon="12.1297398"><ele>338.0</ele><time>2026-04-27T17:34:09.999Z</time></trkpt><trkpt lat="46.1271418" lon="12.1298581"><ele>338.4</ele><time>2026-04-27T17:34:11.999Z</time></trkpt><trkpt lat="46.1270458" lon="12.1299772"><ele>338.79999999999995</ele><time>2026-04-27T17:34:13.999Z</time></trkpt><trkpt lat="46.1269969" lon="12.1300385"><ele>339.2</ele><time>2026-04-27T17:34:14.999Z</time></trkpt><trkpt lat="46.1269061" lon="12.1301569"><ele>339.6</ele><time>2026-04-27T17:34:16.999Z</time></trkpt><trkpt lat="46.1268181" lon="12.1302339"><ele>340.0</ele><time>2026-04-27T17:34:18.999Z</time></trkpt><trkpt lat="46.1267264" lon="12.1302126"><ele>340.0</ele><time>2026-04-27T17:34:20.999Z</time></trkpt><trkpt lat="46.1266226" lon="12.1301882"><ele>340.0</ele><time>2026-04-27T17:34:23Z</time></trkpt><trkpt lat="46.1265269" lon="12.1301923"><ele>340.0</ele><time>2026-04-27T17:34:24.999Z</time></trkpt><trkpt lat="46.1264222" lon="12.1302044"><ele>340.0</ele><time>2026-04-27T17:34:26.999Z</time></trkpt><trkpt lat="46.1263187" lon="12.1302122"><ele>340.0</ele><time>2026-04-27T17:34:28.999Z</time></trkpt><trkpt lat="46.1262151" lon="12.1302171"><ele>339.2</ele><time>2026-04-27T17:34:30.999Z</time></trkpt><trkpt lat="46.1261176" lon="12.1302219"><ele>338.4</ele><time>2026-04-27T17:34:33Z</time></trkpt><trkpt lat="46.1260232" lon="12.130215"><ele>337.6</ele><time>2026-04-27T17:34:35Z</time></trkpt><trkpt lat="46.1259275" lon="12.1302134"><ele>336.8</ele><time>2026-04-27T17:34:36.999Z</time></trkpt><trkpt lat="46.1258336" lon="12.1302052"><ele>336.0</ele><time>2026-04-27T17:34:39Z</time></trkpt><trkpt lat="46.1257324" lon="12.1301913"><ele>335.8</ele><time>2026-04-27T17:34:40.999Z</time></trkpt><trkpt lat="46.1256316" lon="12.130167"><ele>335.6</ele><time>2026-04-27T17:34:43Z</time></trkpt><trkpt lat="46.1255313" lon="12.1301443"><ele>335.4</ele><time>2026-04-27T17:34:44.999Z</time></trkpt><trkpt lat="46.1254288" lon="12.1301142"><ele>335.2</ele><time>2026-04-27T17:34:47Z</time></trkpt><trkpt lat="46.125335" lon="12.1300593"><ele>335.0</ele><time>2026-04-27T17:34:48.999Z</time></trkpt><trkpt lat="46.1252392" lon="12.1300067"><ele>335.0</ele><time>2026-04-27T17:34:50.999Z</time></trkpt><trkpt lat="46.1251394" lon="12.1299548"><ele>335.0</ele><time>2026-04-27T17:34:52.999Z</time></trkpt><trkpt lat="46.1250428" lon="12.1299151"><ele>335.0</ele><time>2026-04-27T17:34:55Z</time></trkpt><trkpt lat="46.1249478" lon="12.1298723"><ele>335.0</ele><time>2026-04-27T17:34:56.999Z</time></trkpt><trkpt lat="46.1248516" lon="12.1298385"><ele>335.0</ele><time>2026-04-27T17:34:58.999Z</time></trkpt><trkpt lat="46.1247492" lon="12.1298176"><ele>334.8</ele><time>2026-04-27T17:35:00.999Z</time></trkpt><trkpt lat="46.1246416" lon="12.1298053"><ele>334.6</ele><time>2026-04-27T17:35:02.999Z</time></trkpt><trkpt lat="46.1245368" lon="12.1297899"><ele>334.4</ele><time>2026-04-27T17:35:04.999Z</time></trkpt><trkpt lat="46.1244342" lon="12.1297664"><ele>334.2</ele><time>2026-04-27T17:35:06.999Z</time></trkpt><trkpt lat="46.1243366" lon="12.129738"><ele>334.0</ele><time>2026-04-27T17:35:08.999Z</time></trkpt><trkpt lat="46.1242339" lon="12.129707"><ele>334.0</ele><time>2026-04-27T17:35:10.999Z</time></trkpt><trkpt lat="46.1241547" lon="12.1296121"><ele>334.0</ele><time>2026-04-27T17:35:12.999Z</time></trkpt><trkpt lat="46.1240667" lon="12.1295432"><ele>334.0</ele><time>2026-04-27T17:35:15Z</time></trkpt><trkpt lat="46.1239588" lon="12.1295155"><ele>334.0</ele><time>2026-04-27T17:35:16.999Z</time></trkpt><trkpt lat="46.1238429" lon="12.1295177"><ele>334.0</ele><time>2026-04-27T17:35:18.999Z</time></trkpt><trkpt lat="46.123718" lon="12.1295223"><ele>333.79999999999995</ele><time>2026-04-27T17:35:20.999Z</time></trkpt><trkpt lat="46.1236531" lon="12.129528"><ele>333.59999999999997</ele><time>2026-04-27T17:35:21.999Z</time></trkpt><trkpt lat="46.1235302" lon="12.1295234"><ele>333.4</ele><time>2026-04-27T17:35:24Z</time></trkpt><trkpt lat="46.1234161" lon="12.1295154"><ele>333.2</ele><time>2026-04-27T17:35:25.999Z</time></trkpt><trkpt lat="46.1232965" lon="12.1295133"><ele>333.0</ele><time>2026-04-27T17:35:27.999Z</time></trkpt><trkpt lat="46.1231787" lon="12.1295059"><ele>332.79999999999995</ele><time>2026-04-27T17:35:29.999Z</time></trkpt><trkpt lat="46.1230682" lon="12.1295123"><ele>332.6</ele><time>2026-04-27T17:35:32Z</time></trkpt><trkpt lat="46.1229643" lon="12.129531"><ele>332.4</ele><time>2026-04-27T17:35:33.999Z</time></trkpt><trkpt lat="46.1228627" lon="12.1295289"><ele>332.20000000000005</ele><time>2026-04-27T17:35:35.999Z</time></trkpt><trkpt lat="46.1227934" lon="12.12943"><ele>332.0</ele><time>2026-04-27T17:35:37.999Z</time></trkpt><trkpt lat="46.1227485" lon="12.1293083"><ele>332.0</ele><time>2026-04-27T17:35:39.999Z</time></trkpt><trkpt lat="46.1227075" lon="12.1291898"><ele>332.0</ele><time>2026-04-27T17:35:42Z</time></trkpt><trkpt lat="46.1226711" lon="12.1290777"><ele>332.0</ele><time>2026-04-27T17:35:44Z</time></trkpt><trkpt lat="46.1226184" lon="12.1289885"><ele>332.0</ele><time>2026-04-27T17:35:45.999Z</time></trkpt><trkpt lat="46.1225623" lon="12.1289237"><ele>332.0</ele><time>2026-04-27T17:35:47.999Z</time></trkpt><trkpt lat="46.1224995" lon="12.12883"><ele>332.0</ele><time>2026-04-27T17:35:53.999Z</time></trkpt><trkpt lat="46.122421" lon="12.1288406"><ele>331.20000000000005</ele><time>2026-04-27T17:35:55.999Z</time></trkpt><trkpt lat="46.1223258" lon="12.128787"><ele>330.4</ele><time>2026-04-27T17:35:58Z</time></trkpt><trkpt lat="46.1222203" lon="12.1287491"><ele>329.6</ele><time>2026-04-27T17:35:59.999Z</time></trkpt><trkpt lat="46.1221083" lon="12.1287204"><ele>328.79999999999995</ele><time>2026-04-27T17:36:01.999Z</time></trkpt><trkpt lat="46.1219859" lon="12.1287287"><ele>328.0</ele><time>2026-04-27T17:36:03.999Z</time></trkpt><trkpt lat="46.1218729" lon="12.128771"><ele>328.0</ele><time>2026-04-27T17:36:05.999Z</time></trkpt><trkpt lat="46.1217669" lon="12.1288357"><ele>328.0</ele><time>2026-04-27T17:36:07.999Z</time></trkpt><trkpt lat="46.1216675" lon="12.1289068"><ele>328.0</ele><time>2026-04-27T17:36:09.999Z</time></trkpt><trkpt lat="46.1215669" lon="12.128986"><ele>328.0</ele><time>2026-04-27T17:36:12Z</time></trkpt><trkpt lat="46.1214608" lon="12.1290743"><ele>327.99999999999994</ele><time>2026-04-27T17:36:13.999Z</time></trkpt><trkpt lat="46.12135" lon="12.1291632"><ele>328.0</ele><time>2026-04-27T17:36:15.999Z</time></trkpt><trkpt lat="46.1212935" lon="12.1292121"><ele>328.0</ele><time>2026-04-27T17:36:16.999Z</time></trkpt><trkpt lat="46.1212407" lon="12.129263"><ele>328.0</ele><time>2026-04-27T17:36:18Z</time></trkpt><trkpt lat="46.1211916" lon="12.1293202"><ele>328.0</ele><time>2026-04-27T17:36:18.999Z</time></trkpt><trkpt lat="46.1211428" lon="12.1293793"><ele>327.99999999999994</ele><time>2026-04-27T17:36:19.999Z</time></trkpt><trkpt lat="46.121094" lon="12.1294403"><ele>328.0</ele><time>2026-04-27T17:36:20.999Z</time></trkpt><trkpt lat="46.1210453" lon="12.1295022"><ele>328.0</ele><time>2026-04-27T17:36:21.999Z</time></trkpt><trkpt lat="46.1209972" lon="12.1295618"><ele>328.0</ele><time>2026-04-27T17:36:22.999Z</time></trkpt><trkpt lat="46.120905" lon="12.129686"><ele>328.0</ele><time>2026-04-27T17:36:24.999Z</time></trkpt><trkpt lat="46.1208553" lon="12.129747"><ele>328.0</ele><time>2026-04-27T17:36:26Z</time></trkpt><trkpt lat="46.1208089" lon="12.1298107"><ele>328.0</ele><time>2026-04-27T17:36:27Z</time></trkpt><trkpt lat="46.1207616" lon="12.1298733"><ele>328.0</ele><time>2026-04-27T17:36:28Z</time></trkpt><trkpt lat="46.1206728" lon="12.129995"><ele>328.59999999999997</ele><time>2026-04-27T17:36:30Z</time></trkpt><trkpt lat="46.1205744" lon="12.1301091"><ele>329.2</ele><time>2026-04-27T17:36:31.999Z</time></trkpt><trkpt lat="46.1205236" lon="12.1301638"><ele>329.8</ele><time>2026-04-27T17:36:33Z</time></trkpt><trkpt lat="46.1204131" lon="12.1302386"><ele>330.4</ele><time>2026-04-27T17:36:34.999Z</time></trkpt><trkpt lat="46.1203008" lon="12.1302874"><ele>331.0</ele><time>2026-04-27T17:36:36.999Z</time></trkpt><trkpt lat="46.1201829" lon="12.1303051"><ele>331.0</ele><time>2026-04-27T17:36:38.999Z</time></trkpt><trkpt lat="46.1200722" lon="12.1302453"><ele>331.0</ele><time>2026-04-27T17:36:40.999Z</time></trkpt><trkpt lat="46.1199725" lon="12.1301493"><ele>331.0</ele><time>2026-04-27T17:36:42.999Z</time></trkpt><trkpt lat="46.1198751" lon="12.1300364"><ele>331.0</ele><time>2026-04-27T17:36:44.999Z</time></trkpt><trkpt lat="46.1197823" lon="12.1299209"><ele>332.4</ele><time>2026-04-27T17:36:46.999Z</time></trkpt><trkpt lat="46.1197327" lon="12.1298639"><ele>333.8</ele><time>2026-04-27T17:36:48Z</time></trkpt><trkpt lat="46.1196376" lon="12.1297505"><ele>335.2</ele><time>2026-04-27T17:36:49.999Z</time></trkpt><trkpt lat="46.1195408" lon="12.1296419"><ele>336.59999999999997</ele><time>2026-04-27T17:36:51.999Z</time></trkpt><trkpt lat="46.1194444" lon="12.129531"><ele>338.0</ele><time>2026-04-27T17:36:53.999Z</time></trkpt><trkpt lat="46.1193553" lon="12.1294122"><ele>338.0</ele><time>2026-04-27T17:36:55.999Z</time></trkpt><trkpt lat="46.1192617" lon="12.1292932"><ele>338.0</ele><time>2026-04-27T17:36:58Z</time></trkpt><trkpt lat="46.1191702" lon="12.1291795"><ele>338.0</ele><time>2026-04-27T17:36:59.999Z</time></trkpt><trkpt lat="46.1191237" lon="12.1291166"><ele>338.0</ele><time>2026-04-27T17:37:00.999Z</time></trkpt><trkpt lat="46.1190409" lon="12.1289891"><ele>338.0</ele><time>2026-04-27T17:37:02.999Z</time></trkpt><trkpt lat="46.1189607" lon="12.1288592"><ele>337.59999999999997</ele><time>2026-04-27T17:37:04.999Z</time></trkpt><trkpt lat="46.1188742" lon="12.128725"><ele>337.2</ele><time>2026-04-27T17:37:06.999Z</time></trkpt><trkpt lat="46.1187975" lon="12.1285972"><ele>336.8</ele><time>2026-04-27T17:37:08.999Z</time></trkpt><trkpt lat="46.1187497" lon="12.1285255"><ele>336.4</ele><time>2026-04-27T17:37:09.999Z</time></trkpt><trkpt lat="46.118668" lon="12.1283969"><ele>336.0</ele><time>2026-04-27T17:37:11.999Z</time></trkpt><trkpt lat="46.1185869" lon="12.128275"><ele>334.0</ele><time>2026-04-27T17:37:14Z</time></trkpt><trkpt lat="46.1185375" lon="12.1282131"><ele>332.0</ele><time>2026-04-27T17:37:14.999Z</time></trkpt><trkpt lat="46.1184397" lon="12.1280938"><ele>330.0</ele><time>2026-04-27T17:37:16.999Z</time></trkpt><trkpt lat="46.1183279" lon="12.1280003"><ele>328.0</ele><time>2026-04-27T17:37:18.999Z</time></trkpt><trkpt lat="46.1182656" lon="12.1279593"><ele>326.0</ele><time>2026-04-27T17:37:19.999Z</time></trkpt><trkpt lat="46.1182006" lon="12.1279392"><ele>325.83333333333337</ele><time>2026-04-27T17:37:21Z</time></trkpt><trkpt lat="46.1181333" lon="12.1279232"><ele>325.6666666666667</ele><time>2026-04-27T17:37:22Z</time></trkpt><trkpt lat="46.1180652" lon="12.1279082"><ele>325.5</ele><time>2026-04-27T17:37:22.999Z</time></trkpt><trkpt lat="46.117998" lon="12.1279058"><ele>325.3333333333333</ele><time>2026-04-27T17:37:23.999Z</time></trkpt><trkpt lat="46.1178694" lon="12.1279159"><ele>325.16666666666663</ele><time>2026-04-27T17:37:25.999Z</time></trkpt><trkpt lat="46.1177991" lon="12.1279151"><ele>325.0</ele><time>2026-04-27T17:37:26.999Z</time></trkpt><trkpt lat="46.1177256" lon="12.1279186"><ele>325.0</ele><time>2026-04-27T17:37:27.999Z</time></trkpt><trkpt lat="46.1176487" lon="12.1279252"><ele>325.0</ele><time>2026-04-27T17:37:28.999Z</time></trkpt><trkpt lat="46.1175693" lon="12.1279269"><ele>325.0</ele><time>2026-04-27T17:37:29.999Z</time></trkpt><trkpt lat="46.1174881" lon="12.1279385"><ele>325.0</ele><time>2026-04-27T17:37:30.999Z</time></trkpt><trkpt lat="46.1174035" lon="12.1279511"><ele>325.0</ele><time>2026-04-27T17:37:32Z</time></trkpt><trkpt lat="46.1173218" lon="12.127963"><ele>325.0</ele><time>2026-04-27T17:37:33Z</time></trkpt><trkpt lat="46.1172371" lon="12.1279709"><ele>324.66666666666663</ele><time>2026-04-27T17:37:33.999Z</time></trkpt><trkpt lat="46.1171544" lon="12.1279741"><ele>324.3333333333333</ele><time>2026-04-27T17:37:34.999Z</time></trkpt><trkpt lat="46.1170762" lon="12.1279599"><ele>324.0</ele><time>2026-04-27T17:37:36Z</time></trkpt><trkpt lat="46.1170017" lon="12.1279382"><ele>323.6666666666667</ele><time>2026-04-27T17:37:36.999Z</time></trkpt><trkpt lat="46.1169314" lon="12.1279096"><ele>323.33333333333337</ele><time>2026-04-27T17:37:37.999Z</time></trkpt><trkpt lat="46.1168669" lon="12.1278807"><ele>323.0</ele><time>2026-04-27T17:37:38.999Z</time></trkpt><trkpt lat="46.1167546" lon="12.1278272"><ele>323.0</ele><time>2026-04-27T17:37:40.999Z</time></trkpt><trkpt lat="46.1166568" lon="12.1277591"><ele>323.0</ele><time>2026-04-27T17:37:43Z</time></trkpt><trkpt lat="46.1165794" lon="12.1276944"><ele>323.0</ele><time>2026-04-27T17:37:45Z</time></trkpt><trkpt lat="46.116514" lon="12.1276141"><ele>323.0</ele><time>2026-04-27T17:37:47.999Z</time></trkpt><trkpt lat="46.1165247" lon="12.1277045"><ele>323.0</ele><time>2026-04-27T17:37:51.999Z</time></trkpt><trkpt lat="46.1165929" lon="12.1277464"><ele>323.0</ele><time>2026-04-27T17:37:53.999Z</time></trkpt><trkpt lat="46.1166742" lon="12.1277987"><ele>323.0</ele><time>2026-04-27T17:37:56Z</time></trkpt><trkpt lat="46.1167646" lon="12.1278512"><ele>323.0</ele><time>2026-04-27T17:37:58Z</time></trkpt><trkpt lat="46.1168597" lon="12.1279059"><ele>323.0</ele><time>2026-04-27T17:38:00Z</time></trkpt><trkpt lat="46.1169603" lon="12.1279531"><ele>323.0</ele><time>2026-04-27T17:38:02Z</time></trkpt><trkpt lat="46.1170715" lon="12.1279874"><ele>323.0</ele><time>2026-04-27T17:38:03.999Z</time></trkpt><trkpt lat="46.1171762" lon="12.128003"><ele>323.0</ele><time>2026-04-27T17:38:05.999Z</time></trkpt><trkpt lat="46.1172805" lon="12.1280026"><ele>323.0</ele><time>2026-04-27T17:38:07.999Z</time></trkpt><trkpt lat="46.117377" lon="12.127987"><ele>323.0</ele><time>2026-04-27T17:38:09.999Z</time></trkpt><trkpt lat="46.1174619" lon="12.1279392"><ele>323.0</ele><time>2026-04-27T17:38:11.999Z</time></trkpt><trkpt lat="46.1175379" lon="12.127857"><ele>323.0</ele><time>2026-04-27T17:38:13.999Z</time></trkpt><trkpt lat="46.117627" lon="12.1277643"><ele>323.4</ele><time>2026-04-27T17:38:15.999Z</time></trkpt><trkpt lat="46.1177105" lon="12.1276395"><ele>323.79999999999995</ele><time>2026-04-27T17:38:17.999Z</time></trkpt><trkpt lat="46.1177456" lon="12.1275581"><ele>324.2</ele><time>2026-04-27T17:38:19Z</time></trkpt><trkpt lat="46.1177856" lon="12.1274838"><ele>324.6</ele><time>2026-04-27T17:38:19.999Z</time></trkpt><trkpt lat="46.1178867" lon="12.1273904"><ele>325.0</ele><time>2026-04-27T17:38:21.999Z</time></trkpt><trkpt lat="46.1179786" lon="12.1273118"><ele>325.0</ele><time>2026-04-27T17:38:23.999Z</time></trkpt><trkpt lat="46.1180696" lon="12.1272241"><ele>325.0</ele><time>2026-04-27T17:38:25.999Z</time></trkpt><trkpt lat="46.1181624" lon="12.1271118"><ele>325.0</ele><time>2026-04-27T17:38:27.999Z</time></trkpt><trkpt lat="46.1182553" lon="12.127073"><ele>325.0</ele><time>2026-04-27T17:38:29.999Z</time></trkpt><trkpt lat="46.1183414" lon="12.1271336"><ele>325.0</ele><time>2026-04-27T17:38:31.999Z</time></trkpt><trkpt lat="46.1184326" lon="12.1271779"><ele>324.8</ele><time>2026-04-27T17:38:33.999Z</time></trkpt><trkpt lat="46.1185355" lon="12.1271543"><ele>324.6</ele><time>2026-04-27T17:38:35.999Z</time></trkpt><trkpt lat="46.1186281" lon="12.1270901"><ele>324.4</ele><time>2026-04-27T17:38:37.999Z</time></trkpt><trkpt lat="46.1187131" lon="12.1270081"><ele>324.2</ele><time>2026-04-27T17:38:39.999Z</time></trkpt><trkpt lat="46.1187874" lon="12.126917"><ele>324.0</ele><time>2026-04-27T17:38:41.999Z</time></trkpt><trkpt lat="46.1188584" lon="12.1268143"><ele>324.0</ele><time>2026-04-27T17:38:43.999Z</time></trkpt><trkpt lat="46.1189234" lon="12.1266967"><ele>324.0</ele><time>2026-04-27T17:38:45.999Z</time></trkpt><trkpt lat="46.1189829" lon="12.1265893"><ele>324.0</ele><time>2026-04-27T17:38:48Z</time></trkpt><trkpt lat="46.1190494" lon="12.126453"><ele>324.0</ele><time>2026-04-27T17:38:50Z</time></trkpt><trkpt lat="46.1191117" lon="12.1263429"><ele>324.0</ele><time>2026-04-27T17:38:51.999Z</time></trkpt><trkpt lat="46.1191905" lon="12.126224"><ele>324.25</ele><time>2026-04-27T17:38:53.999Z</time></trkpt><trkpt lat="46.1192678" lon="12.1261125"><ele>324.5</ele><time>2026-04-27T17:38:56Z</time></trkpt><trkpt lat="46.1193573" lon="12.1260046"><ele>324.75</ele><time>2026-04-27T17:38:57.999Z</time></trkpt><trkpt lat="46.119447" lon="12.1258994"><ele>325.0</ele><time>2026-04-27T17:38:59.999Z</time></trkpt><trkpt lat="46.1195462" lon="12.1258058"><ele>325.0</ele><time>2026-04-27T17:39:02Z</time></trkpt><trkpt lat="46.1196399" lon="12.1257027"><ele>325.0</ele><time>2026-04-27T17:39:04Z</time></trkpt><trkpt lat="46.1197312" lon="12.1255943"><ele>325.0</ele><time>2026-04-27T17:39:05.999Z</time></trkpt><trkpt lat="46.1198241" lon="12.1254778"><ele>325.0</ele><time>2026-04-27T17:39:07.999Z</time></trkpt><trkpt lat="46.1199146" lon="12.1253713"><ele>325.0</ele><time>2026-04-27T17:39:10Z</time></trkpt><trkpt lat="46.1200041" lon="12.1252551"><ele>325.0</ele><time>2026-04-27T17:39:12Z</time></trkpt><trkpt lat="46.1201041" lon="12.1251574"><ele>325.0</ele><time>2026-04-27T17:39:13.999Z</time></trkpt><trkpt lat="46.1202036" lon="12.1250598"><ele>325.0</ele><time>2026-04-27T17:39:15.999Z</time></trkpt><trkpt lat="46.1203057" lon="12.1249653"><ele>325.0</ele><time>2026-04-27T17:39:18Z</time></trkpt><trkpt lat="46.1203611" lon="12.1249197"><ele>325.0</ele><time>2026-04-27T17:39:18.999Z</time></trkpt><trkpt lat="46.120466" lon="12.1248262"><ele>325.0</ele><time>2026-04-27T17:39:20.999Z</time></trkpt><trkpt lat="46.1205652" lon="12.1247246"><ele>325.0</ele><time>2026-04-27T17:39:22.999Z</time></trkpt><trkpt lat="46.1206516" lon="12.1246183"><ele>325.0</ele><time>2026-04-27T17:39:24.999Z</time></trkpt><trkpt lat="46.1207239" lon="12.1244932"><ele>324.75</ele><time>2026-04-27T17:39:27Z</time></trkpt><trkpt lat="46.1208147" lon="12.1243799"><ele>324.5</ele><time>2026-04-27T17:39:28.999Z</time></trkpt><trkpt lat="46.1209033" lon="12.1242788"><ele>324.25</ele><time>2026-04-27T17:39:30.999Z</time></trkpt><trkpt lat="46.1209921" lon="12.1241669"><ele>324.0</ele><time>2026-04-27T17:39:32.999Z</time></trkpt><trkpt lat="46.1210763" lon="12.1240568"><ele>324.6</ele><time>2026-04-27T17:39:34.999Z</time></trkpt><trkpt lat="46.121161" lon="12.1239481"><ele>325.2</ele><time>2026-04-27T17:39:37Z</time></trkpt><trkpt lat="46.1212464" lon="12.1238407"><ele>325.8</ele><time>2026-04-27T17:39:39Z</time></trkpt><trkpt lat="46.1213271" lon="12.123734"><ele>326.40000000000003</ele><time>2026-04-27T17:39:40.999Z</time></trkpt><trkpt lat="46.1214117" lon="12.1236258"><ele>327.0</ele><time>2026-04-27T17:39:42.999Z</time></trkpt><trkpt lat="46.1214989" lon="12.1235132"><ele>327.40000000000003</ele><time>2026-04-27T17:39:44.999Z</time></trkpt><trkpt lat="46.1215894" lon="12.1233941"><ele>327.8</ele><time>2026-04-27T17:39:46.999Z</time></trkpt><trkpt lat="46.1216374" lon="12.1233353"><ele>328.2</ele><time>2026-04-27T17:39:47.999Z</time></trkpt><trkpt lat="46.1217257" lon="12.1232168"><ele>328.6</ele><time>2026-04-27T17:39:49.999Z</time></trkpt><trkpt lat="46.1218071" lon="12.1231082"><ele>329.0</ele><time>2026-04-27T17:39:51.999Z</time></trkpt><trkpt lat="46.1218836" lon="12.12302"><ele>329.0</ele><time>2026-04-27T17:39:54Z</time></trkpt><trkpt lat="46.1219515" lon="12.1229559"><ele>329.0</ele><time>2026-04-27T17:39:56Z</time></trkpt><trkpt lat="46.1220166" lon="12.1229423"><ele>329.0</ele><time>2026-04-27T17:39:57.999Z</time></trkpt><trkpt lat="46.1220828" lon="12.1229808"><ele>329.0</ele><time>2026-04-27T17:40:00Z</time></trkpt><trkpt lat="46.1221585" lon="12.1230157"><ele>329.0</ele><time>2026-04-27T17:40:01.999Z</time></trkpt><trkpt lat="46.1222477" lon="12.1230525"><ele>329.0</ele><time>2026-04-27T17:40:04Z</time></trkpt><trkpt lat="46.1223456" lon="12.1230788"><ele>329.25</ele><time>2026-04-27T17:40:05.999Z</time></trkpt><trkpt lat="46.1224548" lon="12.1231057"><ele>329.5</ele><time>2026-04-27T17:40:07.999Z</time></trkpt><trkpt lat="46.1225634" lon="12.1231249"><ele>329.75</ele><time>2026-04-27T17:40:09.999Z</time></trkpt><trkpt lat="46.1226786" lon="12.1231435"><ele>330.0</ele><time>2026-04-27T17:40:11.999Z</time></trkpt><trkpt lat="46.1227956" lon="12.1231535"><ele>330.0</ele><time>2026-04-27T17:40:14Z</time></trkpt><trkpt lat="46.122916" lon="12.1231598"><ele>330.0</ele><time>2026-04-27T17:40:15.999Z</time></trkpt><trkpt lat="46.1230326" lon="12.1231667"><ele>330.0</ele><time>2026-04-27T17:40:17.999Z</time></trkpt><trkpt lat="46.1231511" lon="12.1231762"><ele>330.0</ele><time>2026-04-27T17:40:19.999Z</time></trkpt><trkpt lat="46.1232673" lon="12.1231786"><ele>330.0</ele><time>2026-04-27T17:40:21.999Z</time></trkpt><trkpt lat="46.1233779" lon="12.123193"><ele>330.0</ele><time>2026-04-27T17:40:23.999Z</time></trkpt><trkpt lat="46.1234986" lon="12.1232134"><ele>330.0</ele><time>2026-04-27T17:40:25.999Z</time></trkpt><trkpt lat="46.1236046" lon="12.1232155"><ele>330.0</ele><time>2026-04-27T17:40:27.999Z</time></trkpt><trkpt lat="46.1236702" lon="12.1232423"><ele>330.0</ele><time>2026-04-27T17:40:28.999Z</time></trkpt><trkpt lat="46.1237841" lon="12.1232817"><ele>330.25</ele><time>2026-04-27T17:40:30.999Z</time></trkpt><trkpt lat="46.1238963" lon="12.1233343"><ele>330.5</ele><time>2026-04-27T17:40:33Z</time></trkpt><trkpt lat="46.1240067" lon="12.123396"><ele>330.75</ele><time>2026-04-27T17:40:34.999Z</time></trkpt><trkpt lat="46.1241168" lon="12.1234554"><ele>331.0</ele><time>2026-04-27T17:40:36.999Z</time></trkpt><trkpt lat="46.1242193" lon="12.123527"><ele>331.75</ele><time>2026-04-27T17:40:38.999Z</time></trkpt><trkpt lat="46.1243198" lon="12.1235961"><ele>332.5</ele><time>2026-04-27T17:40:40.999Z</time></trkpt><trkpt lat="46.1244213" lon="12.1236704"><ele>333.25</ele><time>2026-04-27T17:40:42.999Z</time></trkpt><trkpt lat="46.124529" lon="12.1237419"><ele>334.0</ele><time>2026-04-27T17:40:44.999Z</time></trkpt><trkpt lat="46.1246363" lon="12.1238265"><ele>334.0</ele><time>2026-04-27T17:40:46.999Z</time></trkpt><trkpt lat="46.1247373" lon="12.1239095"><ele>334.0</ele><time>2026-04-27T17:40:48.999Z</time></trkpt><trkpt lat="46.1248347" lon="12.1239734"><ele>334.0</ele><time>2026-04-27T17:40:50.999Z</time></trkpt><trkpt lat="46.124916" lon="12.1240252"><ele>334.0</ele><time>2026-04-27T17:40:52.999Z</time></trkpt><trkpt lat="46.1250097" lon="12.1240429"><ele>334.0</ele><time>2026-04-27T17:40:54.999Z</time></trkpt><trkpt lat="46.125098" lon="12.1239946"><ele>334.6</ele><time>2026-04-27T17:40:56.999Z</time></trkpt><trkpt lat="46.1251659" lon="12.1238891"><ele>335.2</ele><time>2026-04-27T17:40:58.999Z</time></trkpt><trkpt lat="46.125222" lon="12.1237673"><ele>335.8</ele><time>2026-04-27T17:41:01Z</time></trkpt><trkpt lat="46.1252742" lon="12.1236277"><ele>336.40000000000003</ele><time>2026-04-27T17:41:02.999Z</time></trkpt><trkpt lat="46.1253188" lon="12.123508"><ele>337.0</ele><time>2026-04-27T17:41:04.999Z</time></trkpt><trkpt lat="46.1253438" lon="12.1234025"><ele>337.0</ele><time>2026-04-27T17:41:06.999Z</time></trkpt><trkpt lat="46.125313" lon="12.1233123"><ele>337.0</ele><time>2026-04-27T17:41:08.999Z</time></trkpt><trkpt lat="46.1252398" lon="12.1232514"><ele>337.0</ele><time>2026-04-27T17:41:10.999Z</time></trkpt><trkpt lat="46.1251493" lon="12.1231908"><ele>337.0</ele><time>2026-04-27T17:41:12.999Z</time></trkpt><trkpt lat="46.1250536" lon="12.1231118"><ele>337.0</ele><time>2026-04-27T17:41:14.999Z</time></trkpt><trkpt lat="46.1249553" lon="12.1230119"><ele>336.16666666666663</ele><time>2026-04-27T17:41:16.999Z</time></trkpt><trkpt lat="46.1248591" lon="12.1229053"><ele>335.3333333333333</ele><time>2026-04-27T17:41:18.999Z</time></trkpt><trkpt lat="46.1248069" lon="12.1228527"><ele>334.5</ele><time>2026-04-27T17:41:20Z</time></trkpt><trkpt lat="46.1247519" lon="12.1228004"><ele>333.6666666666667</ele><time>2026-04-27T17:41:20.999Z</time></trkpt><trkpt lat="46.124697" lon="12.1227471"><ele>332.83333333333337</ele><time>2026-04-27T17:41:21.999Z</time></trkpt><trkpt lat="46.124636" lon="12.1226956"><ele>332.0</ele><time>2026-04-27T17:41:22.999Z</time></trkpt><trkpt lat="46.1245731" lon="12.1226458"><ele>332.0</ele><time>2026-04-27T17:41:23.999Z</time></trkpt><trkpt lat="46.1245022" lon="12.1226032"><ele>332.0</ele><time>2026-04-27T17:41:24.999Z</time></trkpt><trkpt lat="46.124431" lon="12.1225639"><ele>332.0</ele><time>2026-04-27T17:41:26Z</time></trkpt><trkpt lat="46.1243606" lon="12.1225288"><ele>332.0</ele><time>2026-04-27T17:41:26.999Z</time></trkpt><trkpt lat="46.1242823" lon="12.122504"><ele>332.0</ele><time>2026-04-27T17:41:27.999Z</time></trkpt><trkpt lat="46.1242051" lon="12.1224745"><ele>332.0</ele><time>2026-04-27T17:41:28.999Z</time></trkpt><trkpt lat="46.1241277" lon="12.122445"><ele>331.6666666666667</ele><time>2026-04-27T17:41:29.999Z</time></trkpt><trkpt lat="46.1240519" lon="12.1224265"><ele>331.33333333333337</ele><time>2026-04-27T17:41:30.999Z</time></trkpt><trkpt lat="46.1239735" lon="12.1224099"><ele>331.0</ele><time>2026-04-27T17:41:32Z</time></trkpt><trkpt lat="46.1238938" lon="12.1223939"><ele>330.6666666666667</ele><time>2026-04-27T17:41:32.999Z</time></trkpt><trkpt lat="46.1238135" lon="12.1223793"><ele>330.3333333333333</ele><time>2026-04-27T17:41:34Z</time></trkpt><trkpt lat="46.1237332" lon="12.1223664"><ele>330.0</ele><time>2026-04-27T17:41:34.999Z</time></trkpt><trkpt lat="46.1236544" lon="12.1223528"><ele>329.6666666666667</ele><time>2026-04-27T17:41:35.999Z</time></trkpt><trkpt lat="46.123573" lon="12.1223371"><ele>329.3333333333333</ele><time>2026-04-27T17:41:36.999Z</time></trkpt><trkpt lat="46.1234944" lon="12.1223206"><ele>329.0</ele><time>2026-04-27T17:41:37.999Z</time></trkpt><trkpt lat="46.1234163" lon="12.1223067"><ele>328.66666666666663</ele><time>2026-04-27T17:41:38.999Z</time></trkpt><trkpt lat="46.1233412" lon="12.1222965"><ele>328.3333333333333</ele><time>2026-04-27T17:41:39.999Z</time></trkpt><trkpt lat="46.1232684" lon="12.1222837"><ele>328.0</ele><time>2026-04-27T17:41:41Z</time></trkpt><trkpt lat="46.123195" lon="12.1222774"><ele>327.85714285714283</ele><time>2026-04-27T17:41:41.999Z</time></trkpt><trkpt lat="46.1231212" lon="12.1222759"><ele>327.7142857142857</ele><time>2026-04-27T17:41:42.999Z</time></trkpt><trkpt lat="46.1230453" lon="12.1222734"><ele>327.57142857142856</ele><time>2026-04-27T17:41:43.999Z</time></trkpt><trkpt lat="46.1229724" lon="12.1222867"><ele>327.42857142857144</ele><time>2026-04-27T17:41:44.999Z</time></trkpt><trkpt lat="46.1229009" lon="12.1222992"><ele>327.2857142857143</ele><time>2026-04-27T17:41:45.999Z</time></trkpt><trkpt lat="46.1228365" lon="12.1223056"><ele>327.1428571428571</ele><time>2026-04-27T17:41:46.999Z</time></trkpt><trkpt lat="46.1227666" lon="12.1223164"><ele>327.0</ele><time>2026-04-27T17:41:47.999Z</time></trkpt><trkpt lat="46.122697" lon="12.1223048"><ele>327.0</ele><time>2026-04-27T17:41:48.999Z</time></trkpt><trkpt lat="46.1226321" lon="12.1222693"><ele>327.0</ele><time>2026-04-27T17:41:50Z</time></trkpt><trkpt lat="46.1225757" lon="12.1222115"><ele>327.0</ele><time>2026-04-27T17:41:51Z</time></trkpt><trkpt lat="46.1225276" lon="12.1221386"><ele>327.0</ele><time>2026-04-27T17:41:51.999Z</time></trkpt><trkpt lat="46.1224841" lon="12.1220607"><ele>327.0</ele><time>2026-04-27T17:41:52.999Z</time></trkpt><trkpt lat="46.1224426" lon="12.121981"><ele>327.0</ele><time>2026-04-27T17:41:53.999Z</time></trkpt><trkpt lat="46.1224039" lon="12.1218986"><ele>327.0</ele><time>2026-04-27T17:41:54.999Z</time></trkpt><trkpt lat="46.1223614" lon="12.1218189"><ele>326.85714285714283</ele><time>2026-04-27T17:41:55.999Z</time></trkpt><trkpt lat="46.1223223" lon="12.1217349"><ele>326.7142857142857</ele><time>2026-04-27T17:41:56.999Z</time></trkpt><trkpt lat="46.1222806" lon="12.1216526"><ele>326.57142857142856</ele><time>2026-04-27T17:41:58Z</time></trkpt><trkpt lat="46.1222418" lon="12.1215715"><ele>326.42857142857144</ele><time>2026-04-27T17:41:58.999Z</time></trkpt><trkpt lat="46.122201" lon="12.1214877"><ele>326.2857142857143</ele><time>2026-04-27T17:42:00Z</time></trkpt><trkpt lat="46.1221611" lon="12.1214056"><ele>326.14285714285717</ele><time>2026-04-27T17:42:00.999Z</time></trkpt><trkpt lat="46.1221184" lon="12.121327"><ele>326.0</ele><time>2026-04-27T17:42:02Z</time></trkpt><trkpt lat="46.1220746" lon="12.1212505"><ele>326.0</ele><time>2026-04-27T17:42:02.999Z</time></trkpt><trkpt lat="46.1220326" lon="12.1211776"><ele>326.0</ele><time>2026-04-27T17:42:03.999Z</time></trkpt><trkpt lat="46.1219877" lon="12.1211055"><ele>326.0</ele><time>2026-04-27T17:42:04.999Z</time></trkpt><trkpt lat="46.1219395" lon="12.1210362"><ele>326.0</ele><time>2026-04-27T17:42:05.999Z</time></trkpt><trkpt lat="46.1218909" lon="12.1209677"><ele>326.0</ele><time>2026-04-27T17:42:07Z</time></trkpt><trkpt lat="46.121839" lon="12.1208995"><ele>326.0</ele><time>2026-04-27T17:42:07.999Z</time></trkpt><trkpt lat="46.1217862" lon="12.1208373"><ele>326.0</ele><time>2026-04-27T17:42:08.999Z</time></trkpt><trkpt lat="46.1217312" lon="12.1207726"><ele>326.14285714285717</ele><time>2026-04-27T17:42:09.999Z</time></trkpt><trkpt lat="46.1216768" lon="12.1207101"><ele>326.2857142857143</ele><time>2026-04-27T17:42:10.999Z</time></trkpt><trkpt lat="46.1216235" lon="12.1206461"><ele>326.42857142857144</ele><time>2026-04-27T17:42:12Z</time></trkpt><trkpt lat="46.1215702" lon="12.1205821"><ele>326.57142857142856</ele><time>2026-04-27T17:42:12.999Z</time></trkpt><trkpt lat="46.1215163" lon="12.120518"><ele>326.7142857142857</ele><time>2026-04-27T17:42:13.999Z</time></trkpt><trkpt lat="46.1214644" lon="12.120458"><ele>326.85714285714283</ele><time>2026-04-27T17:42:14.999Z</time></trkpt><trkpt lat="46.1214099" lon="12.120391"><ele>327.0</ele><time>2026-04-27T17:42:15.999Z</time></trkpt><trkpt lat="46.121356" lon="12.120326"><ele>327.0</ele><time>2026-04-27T17:42:16.999Z</time></trkpt><trkpt lat="46.1213062" lon="12.1202578"><ele>327.0</ele><time>2026-04-27T17:42:18Z</time></trkpt><trkpt lat="46.1212545" lon="12.1201934"><ele>327.0</ele><time>2026-04-27T17:42:19Z</time></trkpt><trkpt lat="46.1212018" lon="12.1201327"><ele>327.0</ele><time>2026-04-27T17:42:19.999Z</time></trkpt><trkpt lat="46.1211494" lon="12.1200702"><ele>327.0</ele><time>2026-04-27T17:42:20.999Z</time></trkpt><trkpt lat="46.121098" lon="12.1200049"><ele>327.0</ele><time>2026-04-27T17:42:22Z</time></trkpt><trkpt lat="46.1210479" lon="12.1199428"><ele>327.0</ele><time>2026-04-27T17:42:22.999Z</time></trkpt><trkpt lat="46.1209972" lon="12.1198795"><ele>326.57142857142856</ele><time>2026-04-27T17:42:24Z</time></trkpt><trkpt lat="46.1209442" lon="12.1198181"><ele>326.14285714285717</ele><time>2026-04-27T17:42:25Z</time></trkpt><trkpt lat="46.1208902" lon="12.1197565"><ele>325.7142857142857</ele><time>2026-04-27T17:42:25.999Z</time></trkpt><trkpt lat="46.1208365" lon="12.1196958"><ele>325.2857142857143</ele><time>2026-04-27T17:42:26.999Z</time></trkpt><trkpt lat="46.1207815" lon="12.119634"><ele>324.85714285714283</ele><time>2026-04-27T17:42:27.999Z</time></trkpt><trkpt lat="46.120728" lon="12.1195729"><ele>324.42857142857144</ele><time>2026-04-27T17:42:28.999Z</time></trkpt><trkpt lat="46.1206754" lon="12.1195137"><ele>324.0</ele><time>2026-04-27T17:42:29.999Z</time></trkpt><trkpt lat="46.1206213" lon="12.1194513"><ele>324.0</ele><time>2026-04-27T17:42:30.999Z</time></trkpt><trkpt lat="46.1205694" lon="12.1193898"><ele>324.0</ele><time>2026-04-27T17:42:31.999Z</time></trkpt><trkpt lat="46.12052" lon="12.1193258"><ele>324.0</ele><time>2026-04-27T17:42:32.999Z</time></trkpt><trkpt lat="46.1204697" lon="12.1192558"><ele>324.0</ele><time>2026-04-27T17:42:34Z</time></trkpt><trkpt lat="46.1204147" lon="12.1191895"><ele>324.0</ele><time>2026-04-27T17:42:34.999Z</time></trkpt><trkpt lat="46.1203607" lon="12.1191224"><ele>324.0</ele><time>2026-04-27T17:42:35.999Z</time></trkpt><trkpt lat="46.1203089" lon="12.1190512"><ele>324.0</ele><time>2026-04-27T17:42:36.999Z</time></trkpt><trkpt lat="46.1202514" lon="12.1189873"><ele>324.0</ele><time>2026-04-27T17:42:37.999Z</time></trkpt><trkpt lat="46.1201943" lon="12.1189267"><ele>324.0</ele><time>2026-04-27T17:42:39Z</time></trkpt><trkpt lat="46.1201327" lon="12.1188767"><ele>324.0</ele><time>2026-04-27T17:42:39.999Z</time></trkpt><trkpt lat="46.1200696" lon="12.1188316"><ele>324.0</ele><time>2026-04-27T17:42:41Z</time></trkpt><trkpt lat="46.1200057" lon="12.1187937"><ele>324.0</ele><time>2026-04-27T17:42:42Z</time></trkpt><trkpt lat="46.1199414" lon="12.118755"><ele>324.0</ele><time>2026-04-27T17:42:43Z</time></trkpt><trkpt lat="46.1198804" lon="12.1187198"><ele>324.0</ele><time>2026-04-27T17:42:43.999Z</time></trkpt><trkpt lat="46.1198142" lon="12.1186861"><ele>324.0</ele><time>2026-04-27T17:42:44.999Z</time></trkpt><trkpt lat="46.1197497" lon="12.118653"><ele>324.0</ele><time>2026-04-27T17:42:46Z</time></trkpt><trkpt lat="46.1196849" lon="12.1186264"><ele>324.0</ele><time>2026-04-27T17:42:46.999Z</time></trkpt><trkpt lat="46.1196204" lon="12.1186012"><ele>324.0</ele><time>2026-04-27T17:42:47.999Z</time></trkpt><trkpt lat="46.1195557" lon="12.1185788"><ele>324.0</ele><time>2026-04-27T17:42:48.999Z</time></trkpt><trkpt lat="46.1194914" lon="12.1185561"><ele>324.0</ele><time>2026-04-27T17:42:49.999Z</time></trkpt><trkpt lat="46.1194291" lon="12.1185391"><ele>324.0</ele><time>2026-04-27T17:42:50.999Z</time></trkpt><trkpt lat="46.1193658" lon="12.118523"><ele>324.0</ele><time>2026-04-27T17:42:51.999Z</time></trkpt><trkpt lat="46.1193018" lon="12.1185071"><ele>324.0</ele><time>2026-04-27T17:42:52.999Z</time></trkpt><trkpt lat="46.1192385" lon="12.1184904"><ele>324.0</ele><time>2026-04-27T17:42:53.999Z</time></trkpt><trkpt lat="46.119174" lon="12.1184781"><ele>324.0</ele><time>2026-04-27T17:42:54.999Z</time></trkpt><trkpt lat="46.1191106" lon="12.1184628"><ele>324.0</ele><time>2026-04-27T17:42:56Z</time></trkpt><trkpt lat="46.1190456" lon="12.1184476"><ele>324.0</ele><time>2026-04-27T17:42:57.14Z</time></trkpt><trkpt lat="46.1189201" lon="12.1184101"><ele>323.8333333333333</ele><time>2026-04-27T17:42:58.999Z</time></trkpt><trkpt lat="46.1188562" lon="12.1183914"><ele>323.6666666666667</ele><time>2026-04-27T17:42:59.999Z</time></trkpt><trkpt lat="46.1187916" lon="12.1183728"><ele>323.5</ele><time>2026-04-27T17:43:00.999Z</time></trkpt><trkpt lat="46.1187276" lon="12.1183481"><ele>323.33333333333337</ele><time>2026-04-27T17:43:01.999Z</time></trkpt><trkpt lat="46.1186646" lon="12.1183273"><ele>323.1666666666667</ele><time>2026-04-27T17:43:03Z</time></trkpt><trkpt lat="46.1186003" lon="12.118308"><ele>323.0</ele><time>2026-04-27T17:43:03.999Z</time></trkpt><trkpt lat="46.1184773" lon="12.1182893"><ele>323.00000000000006</ele><time>2026-04-27T17:43:06Z</time></trkpt><trkpt lat="46.1184137" lon="12.1182829"><ele>323.0</ele><time>2026-04-27T17:43:07Z</time></trkpt><trkpt lat="46.1182912" lon="12.1182752"><ele>323.0</ele><time>2026-04-27T17:43:08.999Z</time></trkpt><trkpt lat="46.1182279" lon="12.118272"><ele>323.0</ele><time>2026-04-27T17:43:09.999Z</time></trkpt><trkpt lat="46.1181614" lon="12.1182736"><ele>323.0</ele><time>2026-04-27T17:43:10.999Z</time></trkpt><trkpt lat="46.118097" lon="12.1182767"><ele>323.00000000000006</ele><time>2026-04-27T17:43:11.999Z</time></trkpt><trkpt lat="46.1180295" lon="12.1182729"><ele>323.0</ele><time>2026-04-27T17:43:12.999Z</time></trkpt><trkpt lat="46.117964" lon="12.1182536"><ele>322.42857142857144</ele><time>2026-04-27T17:43:14Z</time></trkpt><trkpt lat="46.1178977" lon="12.1182366"><ele>321.8571428571429</ele><time>2026-04-27T17:43:14.999Z</time></trkpt><trkpt lat="46.1178319" lon="12.1182166"><ele>321.28571428571433</ele><time>2026-04-27T17:43:15.999Z</time></trkpt><trkpt lat="46.1177662" lon="12.1181944"><ele>320.7142857142857</ele><time>2026-04-27T17:43:17Z</time></trkpt><trkpt lat="46.1177011" lon="12.1181779"><ele>320.1428571428571</ele><time>2026-04-27T17:43:17.999Z</time></trkpt><trkpt lat="46.1176378" lon="12.1181491"><ele>319.5714285714286</ele><time>2026-04-27T17:43:18.999Z</time></trkpt><trkpt lat="46.1175737" lon="12.118119"><ele>319.0</ele><time>2026-04-27T17:43:20Z</time></trkpt><trkpt lat="46.1175108" lon="12.1180909"><ele>319.0</ele><time>2026-04-27T17:43:20.999Z</time></trkpt><trkpt lat="46.1174467" lon="12.1180653"><ele>319.0</ele><time>2026-04-27T17:43:21.999Z</time></trkpt><trkpt lat="46.1173847" lon="12.1180376"><ele>319.0</ele><time>2026-04-27T17:43:22.999Z</time></trkpt><trkpt lat="46.1173202" lon="12.1180166"><ele>319.0</ele><time>2026-04-27T17:43:23.999Z</time></trkpt><trkpt lat="46.1172549" lon="12.1179953"><ele>319.0</ele><time>2026-04-27T17:43:24.999Z</time></trkpt><trkpt lat="46.117192" lon="12.1179783"><ele>319.0</ele><time>2026-04-27T17:43:25.999Z</time></trkpt><trkpt lat="46.1171248" lon="12.1179606"><ele>319.0</ele><time>2026-04-27T17:43:26.999Z</time></trkpt><trkpt lat="46.1170582" lon="12.117944"><ele>318.8571428571429</ele><time>2026-04-27T17:43:28Z</time></trkpt><trkpt lat="46.1169917" lon="12.1179297"><ele>318.71428571428567</ele><time>2026-04-27T17:43:28.999Z</time></trkpt><trkpt lat="46.116929" lon="12.117916"><ele>318.57142857142856</ele><time>2026-04-27T17:43:29.999Z</time></trkpt><trkpt lat="46.1168647" lon="12.1178973"><ele>318.42857142857144</ele><time>2026-04-27T17:43:31Z</time></trkpt><trkpt lat="46.1168016" lon="12.1178768"><ele>318.28571428571433</ele><time>2026-04-27T17:43:32Z</time></trkpt><trkpt lat="46.1167376" lon="12.1178606"><ele>318.1428571428571</ele><time>2026-04-27T17:43:33Z</time></trkpt><trkpt lat="46.116674" lon="12.1178474"><ele>318.0</ele><time>2026-04-27T17:43:33.999Z</time></trkpt><trkpt lat="46.1166096" lon="12.1178351"><ele>317.7142857142857</ele><time>2026-04-27T17:43:35Z</time></trkpt><trkpt lat="46.1165467" lon="12.1178187"><ele>317.42857142857144</ele><time>2026-04-27T17:43:35.999Z</time></trkpt><trkpt lat="46.116484" lon="12.1178"><ele>317.14285714285717</ele><time>2026-04-27T17:43:37Z</time></trkpt><trkpt lat="46.1163594" lon="12.1177727"><ele>316.8571428571429</ele><time>2026-04-27T17:43:38.999Z</time></trkpt><trkpt lat="46.1162945" lon="12.1177559"><ele>316.57142857142856</ele><time>2026-04-27T17:43:39.999Z</time></trkpt><trkpt lat="46.1162309" lon="12.11774"><ele>316.28571428571433</ele><time>2026-04-27T17:43:40.999Z</time></trkpt><trkpt lat="46.1161675" lon="12.1177202"><ele>316.0</ele><time>2026-04-27T17:43:41.999Z</time></trkpt><trkpt lat="46.1161024" lon="12.1177013"><ele>316.00000000000006</ele><time>2026-04-27T17:43:43Z</time></trkpt><trkpt lat="46.1160378" lon="12.1176882"><ele>316.0</ele><time>2026-04-27T17:43:43.999Z</time></trkpt><trkpt lat="46.1159715" lon="12.1176748"><ele>316.0</ele><time>2026-04-27T17:43:45Z</time></trkpt><trkpt lat="46.1159096" lon="12.1176574"><ele>316.0</ele><time>2026-04-27T17:43:46Z</time></trkpt><trkpt lat="46.115844" lon="12.1176403"><ele>316.0</ele><time>2026-04-27T17:43:46.999Z</time></trkpt><trkpt lat="46.1157787" lon="12.1176201"><ele>316.00000000000006</ele><time>2026-04-27T17:43:47.999Z</time></trkpt><trkpt lat="46.115714" lon="12.1176032"><ele>316.0</ele><time>2026-04-27T17:43:48.999Z</time></trkpt><trkpt lat="46.1156482" lon="12.1175885"><ele>316.28571428571433</ele><time>2026-04-27T17:43:49.999Z</time></trkpt><trkpt lat="46.1155823" lon="12.1175699"><ele>316.57142857142856</ele><time>2026-04-27T17:43:51Z</time></trkpt><trkpt lat="46.1155172" lon="12.1175519"><ele>316.8571428571429</ele><time>2026-04-27T17:43:51.999Z</time></trkpt><trkpt lat="46.1154527" lon="12.1175382"><ele>317.14285714285717</ele><time>2026-04-27T17:43:52.999Z</time></trkpt><trkpt lat="46.1153858" lon="12.1175241"><ele>317.42857142857144</ele><time>2026-04-27T17:43:53.999Z</time></trkpt><trkpt lat="46.1153234" lon="12.1175079"><ele>317.7142857142857</ele><time>2026-04-27T17:43:54.999Z</time></trkpt><trkpt lat="46.1152615" lon="12.1174859"><ele>318.0</ele><time>2026-04-27T17:43:55.999Z</time></trkpt><trkpt lat="46.1151954" lon="12.117464"><ele>318.0</ele><time>2026-04-27T17:43:56.999Z</time></trkpt><trkpt lat="46.115074" lon="12.1174143"><ele>318.0</ele><time>2026-04-27T17:43:58.999Z</time></trkpt><trkpt lat="46.1150189" lon="12.1173659"><ele>318.0</ele><time>2026-04-27T17:43:59.999Z</time></trkpt><trkpt lat="46.1149711" lon="12.1173014"><ele>318.0</ele><time>2026-04-27T17:44:00.999Z</time></trkpt><trkpt lat="46.1149036" lon="12.1171459"><ele>318.0</ele><time>2026-04-27T17:44:02.999Z</time></trkpt><trkpt lat="46.1148581" lon="12.1169724"><ele>317.5</ele><time>2026-04-27T17:44:04.999Z</time></trkpt><trkpt lat="46.1148332" lon="12.1168847"><ele>317.0</ele><time>2026-04-27T17:44:05.999Z</time></trkpt><trkpt lat="46.1147635" lon="12.1167342"><ele>316.5</ele><time>2026-04-27T17:44:07.999Z</time></trkpt><trkpt lat="46.1147208" lon="12.1166658"><ele>316.0</ele><time>2026-04-27T17:44:08.999Z</time></trkpt><trkpt lat="46.1146675" lon="12.1166081"><ele>315.5</ele><time>2026-04-27T17:44:10Z</time></trkpt><trkpt lat="46.1146087" lon="12.1165654"><ele>315.0</ele><time>2026-04-27T17:44:10.999Z</time></trkpt><trkpt lat="46.1144955" lon="12.1164955"><ele>315.0</ele><time>2026-04-27T17:44:13Z</time></trkpt><trkpt lat="46.1143842" lon="12.1164364"><ele>315.0</ele><time>2026-04-27T17:44:14.999Z</time></trkpt><trkpt lat="46.1142921" lon="12.1163777"><ele>315.0</ele><time>2026-04-27T17:44:16.999Z</time></trkpt><trkpt lat="46.1142331" lon="12.1163116"><ele>315.0</ele><time>2026-04-27T17:44:19.999Z</time></trkpt><trkpt lat="46.114286" lon="12.1162502"><ele>315.0</ele><time>2026-04-27T17:44:24.999Z</time></trkpt><trkpt lat="46.1143531" lon="12.1161905"><ele>315.0</ele><time>2026-04-27T17:44:28.999Z</time></trkpt><trkpt lat="46.1144127" lon="12.1161163"><ele>315.0</ele><time>2026-04-27T17:44:31.999Z</time></trkpt><trkpt lat="46.1144612" lon="12.1160538"><ele>315.0</ele><time>2026-04-27T17:44:34Z</time></trkpt><trkpt lat="46.1145194" lon="12.115977"><ele>315.0</ele><time>2026-04-27T17:44:35.999Z</time></trkpt><trkpt lat="46.1145883" lon="12.1159089"><ele>315.0</ele><time>2026-04-27T17:44:37.999Z</time></trkpt><trkpt lat="46.1146644" lon="12.1158296"><ele>315.0</ele><time>2026-04-27T17:44:40Z</time></trkpt><trkpt lat="46.1147614" lon="12.115776"><ele>315.0</ele><time>2026-04-27T17:44:41.999Z</time></trkpt><trkpt lat="46.1148637" lon="12.1157471"><ele>317.75</ele><time>2026-04-27T17:44:43.999Z</time></trkpt><trkpt lat="46.1149743" lon="12.1157216"><ele>320.5</ele><time>2026-04-27T17:44:45.999Z</time></trkpt><trkpt lat="46.115089" lon="12.115669"><ele>323.25</ele><time>2026-04-27T17:44:48Z</time></trkpt><trkpt lat="46.1151922" lon="12.1155752"><ele>326.0</ele><time>2026-04-27T17:44:49.999Z</time></trkpt><trkpt lat="46.1152841" lon="12.1154495"><ele>326.0</ele><time>2026-04-27T17:44:51.999Z</time></trkpt><trkpt lat="46.115336" lon="12.1153014"><ele>326.0</ele><time>2026-04-27T17:44:53.999Z</time></trkpt><trkpt lat="46.1152785" lon="12.1151739"><ele>326.0</ele><time>2026-04-27T17:44:55.999Z</time></trkpt><trkpt lat="46.1151752" lon="12.1151239"><ele>326.0</ele><time>2026-04-27T17:44:57.999Z</time></trkpt><trkpt lat="46.1150807" lon="12.115066"><ele>326.0</ele><time>2026-04-27T17:45:00Z</time></trkpt><trkpt lat="46.114988" lon="12.1150176"><ele>326.6</ele><time>2026-04-27T17:45:01.999Z</time></trkpt><trkpt lat="46.1149" lon="12.1149614"><ele>327.20000000000005</ele><time>2026-04-27T17:45:04Z</time></trkpt><trkpt lat="46.1148218" lon="12.1149022"><ele>327.79999999999995</ele><time>2026-04-27T17:45:05.999Z</time></trkpt><trkpt lat="46.1147483" lon="12.114833"><ele>328.4</ele><time>2026-04-27T17:45:07.999Z</time></trkpt><trkpt lat="46.1146755" lon="12.1147589"><ele>329.0</ele><time>2026-04-27T17:45:09.999Z</time></trkpt><trkpt lat="46.1146072" lon="12.1146744"><ele>329.0</ele><time>2026-04-27T17:45:11.999Z</time></trkpt><trkpt lat="46.1145434" lon="12.1145871"><ele>329.0</ele><time>2026-04-27T17:45:14Z</time></trkpt><trkpt lat="46.1144965" lon="12.1144877"><ele>329.0</ele><time>2026-04-27T17:45:15.999Z</time></trkpt><trkpt lat="46.1144801" lon="12.1143718"><ele>329.0</ele><time>2026-04-27T17:45:17.999Z</time></trkpt><trkpt lat="46.1144961" lon="12.1142644"><ele>329.0</ele><time>2026-04-27T17:45:19.999Z</time></trkpt><trkpt lat="46.1145441" lon="12.1141667"><ele>329.0</ele><time>2026-04-27T17:45:21.999Z</time></trkpt><trkpt lat="46.1146145" lon="12.1141076"><ele>329.0</ele><time>2026-04-27T17:45:23.999Z</time></trkpt><trkpt lat="46.1146931" lon="12.1141152"><ele>329.0</ele><time>2026-04-27T17:45:26Z</time></trkpt><trkpt lat="46.1147694" lon="12.1141537"><ele>329.0</ele><time>2026-04-27T17:45:28Z</time></trkpt><trkpt lat="46.1148492" lon="12.1142083"><ele>329.0</ele><time>2026-04-27T17:45:29.999Z</time></trkpt><trkpt lat="46.1149361" lon="12.1142564"><ele>329.0</ele><time>2026-04-27T17:45:32Z</time></trkpt><trkpt lat="46.1150295" lon="12.1142181"><ele>329.0</ele><time>2026-04-27T17:45:34Z</time></trkpt><trkpt lat="46.1150984" lon="12.1141064"><ele>334.2</ele><time>2026-04-27T17:45:35.999Z</time></trkpt><trkpt lat="46.1151591" lon="12.1139962"><ele>339.4</ele><time>2026-04-27T17:45:37.999Z</time></trkpt><trkpt lat="46.1152309" lon="12.1139092"><ele>344.6</ele><time>2026-04-27T17:45:40Z</time></trkpt><trkpt lat="46.1153153" lon="12.1138713"><ele>349.8</ele><time>2026-04-27T17:45:42Z</time></trkpt><trkpt lat="46.1154055" lon="12.1138679"><ele>355.0</ele><time>2026-04-27T17:45:43.999Z</time></trkpt><trkpt lat="46.1154914" lon="12.1138616"><ele>355.0</ele><time>2026-04-27T17:45:46Z</time></trkpt><trkpt lat="46.1155824" lon="12.1138548"><ele>355.0</ele><time>2026-04-27T17:45:47.999Z</time></trkpt><trkpt lat="46.115668" lon="12.1138258"><ele>355.0</ele><time>2026-04-27T17:45:49.999Z</time></trkpt><trkpt lat="46.1157192" lon="12.1137393"><ele>355.0</ele><time>2026-04-27T17:45:51.999Z</time></trkpt><trkpt lat="46.115699" lon="12.1136048"><ele>355.0</ele><time>2026-04-27T17:45:53.999Z</time></trkpt><trkpt lat="46.1156622" lon="12.1134975"><ele>355.0</ele><time>2026-04-27T17:45:55.999Z</time></trkpt><trkpt lat="46.1156054" lon="12.1134102"><ele>355.0</ele><time>2026-04-27T17:45:57.999Z</time></trkpt><trkpt lat="46.1155203" lon="12.1133327"><ele>355.0</ele><time>2026-04-27T17:45:59.999Z</time></trkpt><trkpt lat="46.1154167" lon="12.1132719"><ele>355.0</ele><time>2026-04-27T17:46:01.999Z</time></trkpt><trkpt lat="46.115308" lon="12.1132207"><ele>355.0</ele><time>2026-04-27T17:46:03.999Z</time></trkpt><trkpt lat="46.1151998" lon="12.113177"><ele>355.0</ele><time>2026-04-27T17:46:05.999Z</time></trkpt><trkpt lat="46.1150903" lon="12.1131435"><ele>356.66666666666663</ele><time>2026-04-27T17:46:07.999Z</time></trkpt><trkpt lat="46.1149843" lon="12.1131112"><ele>358.3333333333333</ele><time>2026-04-27T17:46:09.999Z</time></trkpt><trkpt lat="46.1148807" lon="12.1130849"><ele>360.0</ele><time>2026-04-27T17:46:11.999Z</time></trkpt><trkpt lat="46.1148059" lon="12.1130156"><ele>361.6666666666667</ele><time>2026-04-27T17:46:13.999Z</time></trkpt><trkpt lat="46.1148181" lon="12.1129249"><ele>363.33333333333337</ele><time>2026-04-27T17:46:15.999Z</time></trkpt><trkpt lat="46.1148766" lon="12.1128883"><ele>365.0</ele><time>2026-04-27T17:46:18Z</time></trkpt><trkpt lat="46.1149683" lon="12.1128524"><ele>367.0</ele><time>2026-04-27T17:46:19.999Z</time></trkpt><trkpt lat="46.1150573" lon="12.1128047"><ele>369.0</ele><time>2026-04-27T17:46:21.999Z</time></trkpt><trkpt lat="46.1151473" lon="12.1127876"><ele>371.0</ele><time>2026-04-27T17:46:23.999Z</time></trkpt><trkpt lat="46.1152377" lon="12.1127565"><ele>373.0</ele><time>2026-04-27T17:46:25.999Z</time></trkpt><trkpt lat="46.1153243" lon="12.1127245"><ele>375.0</ele><time>2026-04-27T17:46:27.999Z</time></trkpt><trkpt lat="46.1154098" lon="12.1127079"><ele>375.0</ele><time>2026-04-27T17:46:29.999Z</time></trkpt><trkpt lat="46.1154967" lon="12.1126842"><ele>375.0</ele><time>2026-04-27T17:46:31.999Z</time></trkpt><trkpt lat="46.1155802" lon="12.1126693"><ele>375.0</ele><time>2026-04-27T17:46:33.999Z</time></trkpt><trkpt lat="46.1156516" lon="12.1126427"><ele>375.0</ele><time>2026-04-27T17:46:35.999Z</time></trkpt><trkpt lat="46.1157383" lon="12.1126276"><ele>375.0</ele><time>2026-04-27T17:46:38Z</time></trkpt><trkpt lat="46.115821" lon="12.1126275"><ele>375.0</ele><time>2026-04-27T17:46:39.999Z</time></trkpt><trkpt lat="46.115898" lon="12.1126351"><ele>375.5</ele><time>2026-04-27T17:46:42Z</time></trkpt><trkpt lat="46.1159787" lon="12.1126358"><ele>376.0</ele><time>2026-04-27T17:46:43.999Z</time></trkpt><trkpt lat="46.1160574" lon="12.1126396"><ele>376.5</ele><time>2026-04-27T17:46:45.999Z</time></trkpt><trkpt lat="46.1161442" lon="12.1126405"><ele>377.0</ele><time>2026-04-27T17:46:47.999Z</time></trkpt><trkpt lat="46.1162401" lon="12.1126422"><ele>377.5</ele><time>2026-04-27T17:46:49.999Z</time></trkpt><trkpt lat="46.1163341" lon="12.1126367"><ele>378.0</ele><time>2026-04-27T17:46:51.999Z</time></trkpt><trkpt lat="46.1164356" lon="12.1126325"><ele>378.0</ele><time>2026-04-27T17:46:53.999Z</time></trkpt><trkpt lat="46.1165314" lon="12.1126387"><ele>378.0</ele><time>2026-04-27T17:46:55.999Z</time></trkpt><trkpt lat="46.1166306" lon="12.1126356"><ele>378.0</ele><time>2026-04-27T17:46:57.999Z</time></trkpt><trkpt lat="46.1167224" lon="12.1126404"><ele>378.0</ele><time>2026-04-27T17:46:59.999Z</time></trkpt><trkpt lat="46.1168155" lon="12.1126465"><ele>378.0</ele><time>2026-04-27T17:47:01.999Z</time></trkpt><trkpt lat="46.1169104" lon="12.1126491"><ele>378.79999999999995</ele><time>2026-04-27T17:47:03.999Z</time></trkpt><trkpt lat="46.1170097" lon="12.1126443"><ele>379.6</ele><time>2026-04-27T17:47:05.999Z</time></trkpt><trkpt lat="46.1171041" lon="12.1126305"><ele>380.4</ele><time>2026-04-27T17:47:07.999Z</time></trkpt><trkpt lat="46.1171994" lon="12.1126331"><ele>381.20000000000005</ele><time>2026-04-27T17:47:10Z</time></trkpt><trkpt lat="46.1172909" lon="12.1126351"><ele>382.0</ele><time>2026-04-27T17:47:11.999Z</time></trkpt><trkpt lat="46.1173832" lon="12.1126412"><ele>382.66666666666663</ele><time>2026-04-27T17:47:13.999Z</time></trkpt><trkpt lat="46.1174758" lon="12.1126459"><ele>383.3333333333333</ele><time>2026-04-27T17:47:16Z</time></trkpt><trkpt lat="46.1175642" lon="12.1126552"><ele>384.0</ele><time>2026-04-27T17:47:18Z</time></trkpt><trkpt lat="46.1176538" lon="12.1126526"><ele>384.66666666666663</ele><time>2026-04-27T17:47:20Z</time></trkpt><trkpt lat="46.1177351" lon="12.1126332"><ele>385.3333333333333</ele><time>2026-04-27T17:47:21.999Z</time></trkpt><trkpt lat="46.1177974" lon="12.1125688"><ele>386.0</ele><time>2026-04-27T17:47:23.999Z</time></trkpt><trkpt lat="46.1178168" lon="12.1124641"><ele>389.4</ele><time>2026-04-27T17:47:26Z</time></trkpt><trkpt lat="46.1177769" lon="12.1123628"><ele>392.8</ele><time>2026-04-27T17:47:27.999Z</time></trkpt><trkpt lat="46.1177138" lon="12.1122608"><ele>396.2</ele><time>2026-04-27T17:47:29.999Z</time></trkpt><trkpt lat="46.1176462" lon="12.1121582"><ele>399.59999999999997</ele><time>2026-04-27T17:47:32Z</time></trkpt><trkpt lat="46.1175796" lon="12.1120575"><ele>403.0</ele><time>2026-04-27T17:47:34Z</time></trkpt><trkpt lat="46.1175162" lon="12.1119623"><ele>403.0</ele><time>2026-04-27T17:47:36Z</time></trkpt><trkpt lat="46.1174502" lon="12.1118675"><ele>403.0</ele><time>2026-04-27T17:47:38Z</time></trkpt><trkpt lat="46.1173831" lon="12.1117814"><ele>403.0</ele><time>2026-04-27T17:47:40Z</time></trkpt><trkpt lat="46.1173142" lon="12.1116899"><ele>403.0</ele><time>2026-04-27T17:47:41.999Z</time></trkpt><trkpt lat="46.1172541" lon="12.1115919"><ele>403.0</ele><time>2026-04-27T17:47:43.999Z</time></trkpt><trkpt lat="46.1171864" lon="12.111492"><ele>402.59999999999997</ele><time>2026-04-27T17:47:45.999Z</time></trkpt><trkpt lat="46.117121" lon="12.1113922"><ele>402.2</ele><time>2026-04-27T17:47:48Z</time></trkpt><trkpt lat="46.117058" lon="12.1112957"><ele>401.8</ele><time>2026-04-27T17:47:49.999Z</time></trkpt><trkpt lat="46.1170017" lon="12.1111997"><ele>401.4</ele><time>2026-04-27T17:47:51.999Z</time></trkpt><trkpt lat="46.1169433" lon="12.111102"><ele>401.0</ele><time>2026-04-27T17:47:53.999Z</time></trkpt><trkpt lat="46.1168978" lon="12.1109942"><ele>400.99999999999994</ele><time>2026-04-27T17:47:55.999Z</time></trkpt><trkpt lat="46.1168616" lon="12.1108847"><ele>401.0</ele><time>2026-04-27T17:47:58Z</time></trkpt><trkpt lat="46.1168224" lon="12.1107754"><ele>401.0</ele><time>2026-04-27T17:47:59.999Z</time></trkpt><trkpt lat="46.1167884" lon="12.1106639"><ele>401.0</ele><time>2026-04-27T17:48:01.999Z</time></trkpt><trkpt lat="46.1167592" lon="12.1105501"><ele>400.99999999999994</ele><time>2026-04-27T17:48:03.999Z</time></trkpt><trkpt lat="46.1167313" lon="12.1104348"><ele>401.0</ele><time>2026-04-27T17:48:05.999Z</time></trkpt><trkpt lat="46.1167055" lon="12.1103168"><ele>402.99999999999994</ele><time>2026-04-27T17:48:07.999Z</time></trkpt><trkpt lat="46.1166842" lon="12.1101955"><ele>405.0</ele><time>2026-04-27T17:48:09.999Z</time></trkpt><trkpt lat="46.1166696" lon="12.1100731"><ele>407.0</ele><time>2026-04-27T17:48:12Z</time></trkpt><trkpt lat="46.116674" lon="12.109956"><ele>409.0</ele><time>2026-04-27T17:48:14Z</time></trkpt><trkpt lat="46.1166918" lon="12.1098508"><ele>410.99999999999994</ele><time>2026-04-27T17:48:16Z</time></trkpt><trkpt lat="46.1167155" lon="12.1097538"><ele>413.0</ele><time>2026-04-27T17:48:17.999Z</time></trkpt><trkpt lat="46.1167342" lon="12.1096542"><ele>413.57142857142856</ele><time>2026-04-27T17:48:19.999Z</time></trkpt><trkpt lat="46.1167458" lon="12.1095562"><ele>414.1428571428571</ele><time>2026-04-27T17:48:22Z</time></trkpt><trkpt lat="46.1167521" lon="12.1094603"><ele>414.7142857142857</ele><time>2026-04-27T17:48:24Z</time></trkpt><trkpt lat="46.1167517" lon="12.1093667"><ele>415.2857142857143</ele><time>2026-04-27T17:48:25.999Z</time></trkpt><trkpt lat="46.1167232" lon="12.1092629"><ele>415.85714285714283</ele><time>2026-04-27T17:48:28.999Z</time></trkpt><trkpt lat="46.1166937" lon="12.1091709"><ele>416.42857142857144</ele><time>2026-04-27T17:48:31.999Z</time></trkpt><trkpt lat="46.1166715" lon="12.1090631"><ele>417.0</ele><time>2026-04-27T17:48:34.999Z</time></trkpt><trkpt lat="46.1166537" lon="12.1089686"><ele>417.0</ele><time>2026-04-27T17:48:37.999Z</time></trkpt><trkpt lat="46.1166071" lon="12.1088932"><ele>417.0</ele><time>2026-04-27T17:48:41.999Z</time></trkpt><trkpt lat="46.1165384" lon="12.1089443"><ele>417.0</ele><time>2026-04-27T17:48:45Z</time></trkpt><trkpt lat="46.1164955" lon="12.1090141"><ele>417.0</ele><time>2026-04-27T17:48:46.999Z</time></trkpt><trkpt lat="46.1164387" lon="12.1090701"><ele>417.0</ele><time>2026-04-27T17:48:49Z</time></trkpt><trkpt lat="46.1163625" lon="12.1090969"><ele>417.0</ele><time>2026-04-27T17:48:50.999Z</time></trkpt><trkpt lat="46.116288" lon="12.109117"><ele>417.0</ele><time>2026-04-27T17:48:52.999Z</time></trkpt><trkpt lat="46.1162139" lon="12.1091116"><ele>415.8333333333333</ele><time>2026-04-27T17:48:54.999Z</time></trkpt><trkpt lat="46.1161471" lon="12.1090917"><ele>414.66666666666663</ele><time>2026-04-27T17:48:57Z</time></trkpt><trkpt lat="46.1160691" lon="12.1090779"><ele>413.5</ele><time>2026-04-27T17:48:59.999Z</time></trkpt><trkpt lat="46.1160054" lon="12.1090173"><ele>412.3333333333333</ele><time>2026-04-27T17:49:06Z</time></trkpt><trkpt lat="46.1159193" lon="12.1089845"><ele>411.16666666666663</ele><time>2026-04-27T17:49:09.999Z</time></trkpt><trkpt lat="46.1158427" lon="12.1089322"><ele>410.0</ele><time>2026-04-27T17:49:12.999Z</time></trkpt><trkpt lat="46.1157814" lon="12.1088781"><ele>408.66666666666663</ele><time>2026-04-27T17:49:14.999Z</time></trkpt><trkpt lat="46.1157251" lon="12.1087945"><ele>407.3333333333333</ele><time>2026-04-27T17:49:16.999Z</time></trkpt><trkpt lat="46.1156765" lon="12.1086965"><ele>406.0</ele><time>2026-04-27T17:49:18.999Z</time></trkpt><trkpt lat="46.1156267" lon="12.1085941"><ele>404.66666666666663</ele><time>2026-04-27T17:49:21Z</time></trkpt><trkpt lat="46.1155578" lon="12.1085057"><ele>403.3333333333333</ele><time>2026-04-27T17:49:22.999Z</time></trkpt><trkpt lat="46.1154791" lon="12.108428"><ele>402.0</ele><time>2026-04-27T17:49:24.999Z</time></trkpt><trkpt lat="46.1153944" lon="12.1083477"><ele>402.0</ele><time>2026-04-27T17:49:27Z</time></trkpt><trkpt lat="46.1153074" lon="12.1082635"><ele>402.0</ele><time>2026-04-27T17:49:28.999Z</time></trkpt><trkpt lat="46.1152282" lon="12.1081797"><ele>402.0</ele><time>2026-04-27T17:49:31Z</time></trkpt><trkpt lat="46.115166" lon="12.1080831"><ele>402.0</ele><time>2026-04-27T17:49:33Z</time></trkpt><trkpt lat="46.1151184" lon="12.108005"><ele>402.0</ele><time>2026-04-27T17:49:34.999Z</time></trkpt><trkpt lat="46.1150588" lon="12.1079214"><ele>403.4285714285714</ele><time>2026-04-27T17:49:37Z</time></trkpt><trkpt lat="46.1150136" lon="12.1078302"><ele>404.8571428571429</ele><time>2026-04-27T17:49:38.999Z</time></trkpt><trkpt lat="46.1149794" lon="12.1077536"><ele>406.2857142857143</ele><time>2026-04-27T17:49:40.999Z</time></trkpt><trkpt lat="46.1149507" lon="12.1076722"><ele>407.71428571428567</ele><time>2026-04-27T17:49:42.999Z</time></trkpt><trkpt lat="46.1149216" lon="12.1075841"><ele>409.1428571428571</ele><time>2026-04-27T17:49:44.999Z</time></trkpt><trkpt lat="46.1148969" lon="12.1074662"><ele>410.57142857142856</ele><time>2026-04-27T17:49:46.999Z</time></trkpt><trkpt lat="46.1148542" lon="12.1073644"><ele>412.0</ele><time>2026-04-27T17:49:49Z</time></trkpt><trkpt lat="46.1148137" lon="12.1072692"><ele>412.0</ele><time>2026-04-27T17:49:50.999Z</time></trkpt><trkpt lat="46.1147571" lon="12.1071703"><ele>412.0</ele><time>2026-04-27T17:49:53Z</time></trkpt><trkpt lat="46.1146976" lon="12.1070765"><ele>412.0</ele><time>2026-04-27T17:49:54.999Z</time></trkpt><trkpt lat="46.1146251" lon="12.1069835"><ele>412.0</ele><time>2026-04-27T17:49:56.999Z</time></trkpt><trkpt lat="46.1145248" lon="12.1069228"><ele>412.0</ele><time>2026-04-27T17:49:58.999Z</time></trkpt><trkpt lat="46.1144193" lon="12.1068507"><ele>412.00000000000006</ele><time>2026-04-27T17:50:00.999Z</time></trkpt><trkpt lat="46.1143473" lon="12.106709"><ele>412.0</ele><time>2026-04-27T17:50:03Z</time></trkpt><trkpt lat="46.1143213" lon="12.1066191"><ele>412.0</ele><time>2026-04-27T17:50:03.999Z</time></trkpt><trkpt lat="46.1142912" lon="12.1065196"><ele>412.0</ele><time>2026-04-27T17:50:04.999Z</time></trkpt><trkpt lat="46.1142598" lon="12.1064164"><ele>412.00000000000006</ele><time>2026-04-27T17:50:06Z</time></trkpt><trkpt lat="46.1142331" lon="12.1063065"><ele>412.0</ele><time>2026-04-27T17:50:06.999Z</time></trkpt><trkpt lat="46.1142046" lon="12.1061905"><ele>410.1666666666667</ele><time>2026-04-27T17:50:07.999Z</time></trkpt><trkpt lat="46.114175" lon="12.1060746"><ele>408.33333333333337</ele><time>2026-04-27T17:50:08.999Z</time></trkpt><trkpt lat="46.1141394" lon="12.1059579"><ele>406.5</ele><time>2026-04-27T17:50:09.999Z</time></trkpt><trkpt lat="46.114109" lon="12.1058431"><ele>404.66666666666663</ele><time>2026-04-27T17:50:10.999Z</time></trkpt><trkpt lat="46.1140793" lon="12.1057226"><ele>402.8333333333333</ele><time>2026-04-27T17:50:11.999Z</time></trkpt><trkpt lat="46.1140516" lon="12.1055994"><ele>401.0</ele><time>2026-04-27T17:50:12.999Z</time></trkpt><trkpt lat="46.1140307" lon="12.1054741"><ele>399.3333333333333</ele><time>2026-04-27T17:50:13.999Z</time></trkpt><trkpt lat="46.1140097" lon="12.1053574"><ele>397.66666666666663</ele><time>2026-04-27T17:50:15Z</time></trkpt><trkpt lat="46.1139933" lon="12.1052525"><ele>396.0</ele><time>2026-04-27T17:50:16Z</time></trkpt><trkpt lat="46.1139787" lon="12.1051481"><ele>394.33333333333337</ele><time>2026-04-27T17:50:16.999Z</time></trkpt><trkpt lat="46.1139735" lon="12.105044"><ele>392.6666666666667</ele><time>2026-04-27T17:50:18Z</time></trkpt><trkpt lat="46.1139555" lon="12.104927"><ele>391.0</ele><time>2026-04-27T17:50:18.999Z</time></trkpt><trkpt lat="46.1139355" lon="12.1048127"><ele>391.0</ele><time>2026-04-27T17:50:19.999Z</time></trkpt><trkpt lat="46.1139087" lon="12.1046917"><ele>391.0</ele><time>2026-04-27T17:50:20.999Z</time></trkpt><trkpt lat="46.11388" lon="12.1045708"><ele>391.0</ele><time>2026-04-27T17:50:21.999Z</time></trkpt><trkpt lat="46.1138495" lon="12.1044489"><ele>391.0</ele><time>2026-04-27T17:50:23Z</time></trkpt><trkpt lat="46.113821" lon="12.1043278"><ele>391.0</ele><time>2026-04-27T17:50:23.999Z</time></trkpt><trkpt lat="46.1137875" lon="12.1041954"><ele>390.1666666666667</ele><time>2026-04-27T17:50:25Z</time></trkpt><trkpt lat="46.1137514" lon="12.1040698"><ele>389.33333333333337</ele><time>2026-04-27T17:50:26Z</time></trkpt><trkpt lat="46.1137167" lon="12.1039545"><ele>388.5</ele><time>2026-04-27T17:50:26.999Z</time></trkpt><trkpt lat="46.1136828" lon="12.1038501"><ele>387.66666666666663</ele><time>2026-04-27T17:50:27.999Z</time></trkpt><trkpt lat="46.1136506" lon="12.1037054"><ele>386.8333333333333</ele><time>2026-04-27T17:50:29.999Z</time></trkpt><trkpt lat="46.113678" lon="12.1035989"><ele>386.0</ele><time>2026-04-27T17:50:32Z</time></trkpt><trkpt lat="46.1137326" lon="12.1035331"><ele>385.99999999999994</ele><time>2026-04-27T17:50:33.999Z</time></trkpt><trkpt lat="46.1138168" lon="12.103465"><ele>386.0</ele><time>2026-04-27T17:50:36Z</time></trkpt><trkpt lat="46.1138743" lon="12.1034157"><ele>386.0</ele><time>2026-04-27T17:50:37.999Z</time></trkpt><trkpt lat="46.1139395" lon="12.1033986"><ele>386.0</ele><time>2026-04-27T17:50:41.999Z</time></trkpt><trkpt lat="46.1140159" lon="12.1033276"><ele>385.99999999999994</ele><time>2026-04-27T17:50:44.999Z</time></trkpt><trkpt lat="46.1140284" lon="12.1031794"><ele>386.0</ele><time>2026-04-27T17:50:47Z</time></trkpt><trkpt lat="46.1140413" lon="12.1030536"><ele>384.8333333333333</ele><time>2026-04-27T17:50:48.999Z</time></trkpt><trkpt lat="46.114038" lon="12.1029389"><ele>383.66666666666663</ele><time>2026-04-27T17:50:52Z</time></trkpt><trkpt lat="46.1139957" lon="12.1028267"><ele>382.5</ele><time>2026-04-27T17:50:53.999Z</time></trkpt><trkpt lat="46.1139458" lon="12.1027595"><ele>381.3333333333333</ele><time>2026-04-27T17:50:55.999Z</time></trkpt><trkpt lat="46.1139381" lon="12.1026538"><ele>380.16666666666663</ele><time>2026-04-27T17:51:03.999Z</time></trkpt><trkpt lat="46.1139621" lon="12.1025658"><ele>379.0</ele><time>2026-04-27T17:51:06.999Z</time></trkpt><trkpt lat="46.1139928" lon="12.1024374"><ele>377.0</ele><time>2026-04-27T17:51:09.999Z</time></trkpt><trkpt lat="46.1140148" lon="12.1023419"><ele>375.0</ele><time>2026-04-27T17:51:11.999Z</time></trkpt><trkpt lat="46.1140237" lon="12.1022243"><ele>373.0</ele><time>2026-04-27T17:51:14.999Z</time></trkpt><trkpt lat="46.1139793" lon="12.1021451"><ele>371.0</ele><time>2026-04-27T17:51:16.999Z</time></trkpt><trkpt lat="46.1139253" lon="12.1020534"><ele>369.0</ele><time>2026-04-27T17:51:19Z</time></trkpt><trkpt lat="46.1138824" lon="12.1019541"><ele>367.0</ele><time>2026-04-27T17:51:20.999Z</time></trkpt><trkpt lat="46.1138237" lon="12.1018497"><ele>367.0</ele><time>2026-04-27T17:51:23Z</time></trkpt><trkpt lat="46.1137675" lon="12.1017869"><ele>367.0</ele><time>2026-04-27T17:51:24.999Z</time></trkpt><trkpt lat="46.1137329" lon="12.1017003"><ele>367.0</ele><time>2026-04-27T17:51:34.999Z</time></trkpt><trkpt lat="46.1137485" lon="12.1016116"><ele>367.0</ele><time>2026-04-27T17:51:40.999Z</time></trkpt><trkpt lat="46.1137939" lon="12.1015387"><ele>367.0</ele><time>2026-04-27T17:51:42.999Z</time></trkpt><trkpt lat="46.1138393" lon="12.101461"><ele>367.0</ele><time>2026-04-27T17:51:45Z</time></trkpt><trkpt lat="46.1138952" lon="12.1014168"><ele>367.0</ele><time>2026-04-27T17:51:46.999Z</time></trkpt><trkpt lat="46.1139635" lon="12.1014225"><ele>364.66666666666663</ele><time>2026-04-27T17:51:48.999Z</time></trkpt><trkpt lat="46.1140316" lon="12.1014277"><ele>362.3333333333333</ele><time>2026-04-27T17:51:51Z</time></trkpt><trkpt lat="46.1140993" lon="12.10143"><ele>360.0</ele><time>2026-04-27T17:51:52.999Z</time></trkpt><trkpt lat="46.1141675" lon="12.1014374"><ele>357.6666666666667</ele><time>2026-04-27T17:51:55Z</time></trkpt><trkpt lat="46.1142416" lon="12.1014476"><ele>355.33333333333337</ele><time>2026-04-27T17:51:56.999Z</time></trkpt><trkpt lat="46.114324" lon="12.1014486"><ele>353.0</ele><time>2026-04-27T17:51:58.999Z</time></trkpt><trkpt lat="46.1144174" lon="12.1014867"><ele>353.6666666666667</ele><time>2026-04-27T17:52:00.999Z</time></trkpt><trkpt lat="46.1145123" lon="12.1015331"><ele>354.33333333333337</ele><time>2026-04-27T17:52:02.999Z</time></trkpt><trkpt lat="46.1145895" lon="12.101599"><ele>355.0</ele><time>2026-04-27T17:52:04.999Z</time></trkpt><trkpt lat="46.1146627" lon="12.1016554"><ele>355.6666666666667</ele><time>2026-04-27T17:52:06.999Z</time></trkpt><trkpt lat="46.1147131" lon="12.1015733"><ele>356.3333333333333</ele><time>2026-04-27T17:52:08.999Z</time></trkpt><trkpt lat="46.1146949" lon="12.1014705"><ele>357.0</ele><time>2026-04-27T17:52:10.999Z</time></trkpt><trkpt lat="46.1146282" lon="12.1013997"><ele>355.20000000000005</ele><time>2026-04-27T17:52:12.999Z</time></trkpt><trkpt lat="46.1145568" lon="12.1013189"><ele>353.4</ele><time>2026-04-27T17:52:14.999Z</time></trkpt><trkpt lat="46.1144931" lon="12.101227"><ele>351.6</ele><time>2026-04-27T17:52:17Z</time></trkpt><trkpt lat="46.1144355" lon="12.1011191"><ele>349.79999999999995</ele><time>2026-04-27T17:52:18.999Z</time></trkpt><trkpt lat="46.1143772" lon="12.1009973"><ele>348.0</ele><time>2026-04-27T17:52:20.999Z</time></trkpt><trkpt lat="46.1143109" lon="12.1008677"><ele>347.75</ele><time>2026-04-27T17:52:22.999Z</time></trkpt><trkpt lat="46.1142393" lon="12.1007335"><ele>347.5</ele><time>2026-04-27T17:52:25Z</time></trkpt><trkpt lat="46.1141585" lon="12.1005911"><ele>347.25</ele><time>2026-04-27T17:52:26.999Z</time></trkpt><trkpt lat="46.1140657" lon="12.1004755"><ele>347.0</ele><time>2026-04-27T17:52:28.999Z</time></trkpt><trkpt lat="46.1139631" lon="12.1003888"><ele>347.0</ele><time>2026-04-27T17:52:30.999Z</time></trkpt><trkpt lat="46.1138655" lon="12.1003394"><ele>347.0</ele><time>2026-04-27T17:52:32.999Z</time></trkpt><trkpt lat="46.1138251" lon="12.1002188"><ele>347.0</ele><time>2026-04-27T17:52:34.999Z</time></trkpt><trkpt lat="46.1138833" lon="12.1001345"><ele>347.0</ele><time>2026-04-27T17:52:37Z</time></trkpt><trkpt lat="46.1139747" lon="12.1001697"><ele>347.0</ele><time>2026-04-27T17:52:38.999Z</time></trkpt><trkpt lat="46.1140656" lon="12.1002346"><ele>345.33333333333337</ele><time>2026-04-27T17:52:40.999Z</time></trkpt><trkpt lat="46.114162" lon="12.1003092"><ele>343.6666666666667</ele><time>2026-04-27T17:52:42.999Z</time></trkpt><trkpt lat="46.1142221" lon="12.1003414"><ele>342.0</ele><time>2026-04-27T17:52:43.999Z</time></trkpt><trkpt lat="46.1142801" lon="12.1003787"><ele>340.3333333333333</ele><time>2026-04-27T17:52:44.999Z</time></trkpt><trkpt lat="46.1143407" lon="12.1004195"><ele>338.66666666666663</ele><time>2026-04-27T17:52:45.999Z</time></trkpt><trkpt lat="46.1144682" lon="12.1004866"><ele>337.0</ele><time>2026-04-27T17:52:47.999Z</time></trkpt><trkpt lat="46.1145414" lon="12.1005205"><ele>337.00000000000006</ele><time>2026-04-27T17:52:48.999Z</time></trkpt><trkpt lat="46.1146094" lon="12.1005411"><ele>337.0</ele><time>2026-04-27T17:52:49.999Z</time></trkpt><trkpt lat="46.1146824" lon="12.10056"><ele>337.0</ele><time>2026-04-27T17:52:50.999Z</time></trkpt><trkpt lat="46.1147572" lon="12.1005661"><ele>337.0</ele><time>2026-04-27T17:52:52Z</time></trkpt><trkpt lat="46.1148273" lon="12.1005372"><ele>337.0</ele><time>2026-04-27T17:52:53Z</time></trkpt><trkpt lat="46.1148988" lon="12.1004936"><ele>337.00000000000006</ele><time>2026-04-27T17:52:54Z</time></trkpt><trkpt lat="46.1149614" lon="12.1004561"><ele>337.0</ele><time>2026-04-27T17:52:54.999Z</time></trkpt><trkpt lat="46.1150202" lon="12.1004219"><ele>335.8</ele><time>2026-04-27T17:52:56Z</time></trkpt><trkpt lat="46.1151037" lon="12.1003267"><ele>334.6</ele><time>2026-04-27T17:52:57.999Z</time></trkpt><trkpt lat="46.1150895" lon="12.1001759"><ele>333.40000000000003</ele><time>2026-04-27T17:52:59.999Z</time></trkpt><trkpt lat="46.1150093" lon="12.1000793"><ele>332.20000000000005</ele><time>2026-04-27T17:53:01.999Z</time></trkpt><trkpt lat="46.1149202" lon="12.1000001"><ele>331.0</ele><time>2026-04-27T17:53:03.999Z</time></trkpt><trkpt lat="46.114854" lon="12.0998913"><ele>331.0</ele><time>2026-04-27T17:53:05.999Z</time></trkpt><trkpt lat="46.1148748" lon="12.0997409"><ele>331.0</ele><time>2026-04-27T17:53:07.999Z</time></trkpt><trkpt lat="46.1149359" lon="12.0995816"><ele>331.0</ele><time>2026-04-27T17:53:09.999Z</time></trkpt><trkpt lat="46.114972" lon="12.0994997"><ele>331.0</ele><time>2026-04-27T17:53:10.999Z</time></trkpt><trkpt lat="46.1150038" lon="12.0994138"><ele>331.0</ele><time>2026-04-27T17:53:12Z</time></trkpt><trkpt lat="46.1150417" lon="12.0993258"><ele>331.0</ele><time>2026-04-27T17:53:12.999Z</time></trkpt><trkpt lat="46.1150777" lon="12.099239"><ele>330.14285714285717</ele><time>2026-04-27T17:53:13.999Z</time></trkpt><trkpt lat="46.1151179" lon="12.0991539"><ele>329.2857142857143</ele><time>2026-04-27T17:53:14.999Z</time></trkpt><trkpt lat="46.1151684" lon="12.0990765"><ele>328.42857142857144</ele><time>2026-04-27T17:53:16Z</time></trkpt><trkpt lat="46.1152245" lon="12.0990078"><ele>327.57142857142856</ele><time>2026-04-27T17:53:16.999Z</time></trkpt><trkpt lat="46.1152768" lon="12.098931"><ele>326.7142857142857</ele><time>2026-04-27T17:53:18Z</time></trkpt><trkpt lat="46.1153205" lon="12.0988404"><ele>325.85714285714283</ele><time>2026-04-27T17:53:18.999Z</time></trkpt><trkpt lat="46.1153525" lon="12.0987584"><ele>325.0</ele><time>2026-04-27T17:53:19.999Z</time></trkpt><trkpt lat="46.1153806" lon="12.0986694"><ele>324.8333333333333</ele><time>2026-04-27T17:53:20.999Z</time></trkpt><trkpt lat="46.1154285" lon="12.098516"><ele>324.66666666666663</ele><time>2026-04-27T17:53:22.999Z</time></trkpt><trkpt lat="46.1154724" lon="12.0984086"><ele>324.5</ele><time>2026-04-27T17:53:25Z</time></trkpt><trkpt lat="46.115502" lon="12.0983179"><ele>324.3333333333333</ele><time>2026-04-27T17:53:48.999Z</time></trkpt><trkpt lat="46.1154385" lon="12.098296"><ele>324.1666666666667</ele><time>2026-04-27T17:53:52.999Z</time></trkpt><trkpt lat="46.1153792" lon="12.0982518"><ele>324.0</ele><time>2026-04-27T17:53:55Z</time></trkpt><trkpt lat="46.1153158" lon="12.0982113"><ele>323.8333333333333</ele><time>2026-04-27T17:53:57Z</time></trkpt><trkpt lat="46.1152513" lon="12.0981737"><ele>323.6666666666667</ele><time>2026-04-27T17:53:58.999Z</time></trkpt><trkpt lat="46.1151875" lon="12.0981366"><ele>323.5</ele><time>2026-04-27T17:54:00.999Z</time></trkpt><trkpt lat="46.1151231" lon="12.0980861"><ele>323.33333333333337</ele><time>2026-04-27T17:54:02.999Z</time></trkpt><trkpt lat="46.1150575" lon="12.0980322"><ele>323.1666666666667</ele><time>2026-04-27T17:54:04.999Z</time></trkpt><trkpt lat="46.1149763" lon="12.0979856"><ele>323.0</ele><time>2026-04-27T17:54:06.999Z</time></trkpt><trkpt lat="46.1148824" lon="12.0979227"><ele>323.0</ele><time>2026-04-27T17:54:09Z</time></trkpt><trkpt lat="46.1147845" lon="12.097853"><ele>323.0</ele><time>2026-04-27T17:54:10.999Z</time></trkpt><trkpt lat="46.1146904" lon="12.0977899"><ele>323.0</ele><time>2026-04-27T17:54:12.999Z</time></trkpt><trkpt lat="46.1146001" lon="12.0977293"><ele>323.0</ele><time>2026-04-27T17:54:14.998Z</time></trkpt><trkpt lat="46.1145103" lon="12.0976739"><ele>323.0</ele><time>2026-04-27T17:54:17Z</time></trkpt><trkpt lat="46.1144242" lon="12.0976223"><ele>323.0</ele><time>2026-04-27T17:54:19Z</time></trkpt><trkpt lat="46.114319" lon="12.0975719"><ele>323.0</ele><time>2026-04-27T17:54:20.999Z</time></trkpt><trkpt lat="46.1142139" lon="12.0975213"><ele>323.0</ele><time>2026-04-27T17:54:22.999Z</time></trkpt><trkpt lat="46.1141068" lon="12.0974783"><ele>323.0</ele><time>2026-04-27T17:54:24.999Z</time></trkpt><trkpt lat="46.1140055" lon="12.0974469"><ele>323.0</ele><time>2026-04-27T17:54:27Z</time></trkpt><trkpt lat="46.1139173" lon="12.0974191"><ele>322.2</ele><time>2026-04-27T17:54:28.999Z</time></trkpt><trkpt lat="46.1138261" lon="12.0973952"><ele>321.4</ele><time>2026-04-27T17:54:30.999Z</time></trkpt><trkpt lat="46.1137256" lon="12.0973744"><ele>320.59999999999997</ele><time>2026-04-27T17:54:33Z</time></trkpt><trkpt lat="46.1136234" lon="12.0973553"><ele>319.79999999999995</ele><time>2026-04-27T17:54:35Z</time></trkpt><trkpt lat="46.113513" lon="12.0973408"><ele>319.0</ele><time>2026-04-27T17:54:36.999Z</time></trkpt><trkpt lat="46.113402" lon="12.0972909"><ele>319.0</ele><time>2026-04-27T17:54:39Z</time></trkpt><trkpt lat="46.1132888" lon="12.0972348"><ele>319.0</ele><time>2026-04-27T17:54:41Z</time></trkpt><trkpt lat="46.1131702" lon="12.0971742"><ele>319.0</ele><time>2026-04-27T17:54:43Z</time></trkpt><trkpt lat="46.1130553" lon="12.0971077"><ele>319.0</ele><time>2026-04-27T17:54:44.999Z</time></trkpt><trkpt lat="46.1129416" lon="12.0970377"><ele>319.4</ele><time>2026-04-27T17:54:46.999Z</time></trkpt><trkpt lat="46.1128293" lon="12.0969602"><ele>319.79999999999995</ele><time>2026-04-27T17:54:48.999Z</time></trkpt><trkpt lat="46.1127136" lon="12.096886"><ele>320.20000000000005</ele><time>2026-04-27T17:54:50.999Z</time></trkpt><trkpt lat="46.1126008" lon="12.0968144"><ele>320.6</ele><time>2026-04-27T17:54:52.999Z</time></trkpt><trkpt lat="46.1125423" lon="12.0967803"><ele>321.0</ele><time>2026-04-27T17:54:54Z</time></trkpt><trkpt lat="46.112429" lon="12.0967023"><ele>320.5</ele><time>2026-04-27T17:54:55.999Z</time></trkpt><trkpt lat="46.1123168" lon="12.0966187"><ele>320.0</ele><time>2026-04-27T17:54:57.999Z</time></trkpt><trkpt lat="46.1122116" lon="12.0965339"><ele>319.5</ele><time>2026-04-27T17:54:59.999Z</time></trkpt><trkpt lat="46.1121086" lon="12.0964431"><ele>319.0</ele><time>2026-04-27T17:55:01.999Z</time></trkpt><trkpt lat="46.1120074" lon="12.0963637"><ele>319.0</ele><time>2026-04-27T17:55:03.999Z</time></trkpt><trkpt lat="46.111899" lon="12.0963166"><ele>319.0</ele><time>2026-04-27T17:55:06Z</time></trkpt><trkpt lat="46.1117817" lon="12.0963039"><ele>319.0</ele><time>2026-04-27T17:55:08Z</time></trkpt><trkpt lat="46.1116747" lon="12.0963253"><ele>319.0</ele><time>2026-04-27T17:55:09.999Z</time></trkpt><trkpt lat="46.1115691" lon="12.0963588"><ele>319.0</ele><time>2026-04-27T17:55:11.999Z</time></trkpt><trkpt lat="46.1114737" lon="12.0964034"><ele>318.8</ele><time>2026-04-27T17:55:13.999Z</time></trkpt><trkpt lat="46.111387" lon="12.0964796"><ele>318.59999999999997</ele><time>2026-04-27T17:55:15.999Z</time></trkpt><trkpt lat="46.1113173" lon="12.0965887"><ele>318.4</ele><time>2026-04-27T17:55:17.999Z</time></trkpt><trkpt lat="46.1112836" lon="12.0967107"><ele>318.2</ele><time>2026-04-27T17:55:19.999Z</time></trkpt><trkpt lat="46.1112668" lon="12.0968424"><ele>318.0</ele><time>2026-04-27T17:55:21.999Z</time></trkpt><trkpt lat="46.111237" lon="12.0969705"><ele>318.0</ele><time>2026-04-27T17:55:23.999Z</time></trkpt><trkpt lat="46.1111961" lon="12.0970901"><ele>318.0</ele><time>2026-04-27T17:55:25.999Z</time></trkpt><trkpt lat="46.1111464" lon="12.0972343"><ele>318.0</ele><time>2026-04-27T17:55:27.999Z</time></trkpt><trkpt lat="46.1110718" lon="12.0973619"><ele>318.0</ele><time>2026-04-27T17:55:29.999Z</time></trkpt><trkpt lat="46.11103" lon="12.0974298"><ele>318.0</ele><time>2026-04-27T17:55:30.999Z</time></trkpt><trkpt lat="46.110983" lon="12.0974945"><ele>318.0</ele><time>2026-04-27T17:55:32Z</time></trkpt><trkpt lat="46.1109382" lon="12.0975662"><ele>318.0</ele><time>2026-04-27T17:55:32.999Z</time></trkpt><trkpt lat="46.1108955" lon="12.0976367"><ele>318.0</ele><time>2026-04-27T17:55:33.999Z</time></trkpt><trkpt lat="46.1108495" lon="12.0977129"><ele>318.0</ele><time>2026-04-27T17:55:34.999Z</time></trkpt><trkpt lat="46.1108145" lon="12.0977893"><ele>318.0</ele><time>2026-04-27T17:55:35.999Z</time></trkpt><trkpt lat="46.1107466" lon="12.0979358"><ele>318.0</ele><time>2026-04-27T17:55:38Z</time></trkpt><trkpt lat="46.1107084" lon="12.098008"><ele>318.0</ele><time>2026-04-27T17:55:39Z</time></trkpt><trkpt lat="46.1106334" lon="12.098144"><ele>318.0</ele><time>2026-04-27T17:55:40.999Z</time></trkpt><trkpt lat="46.1105974" lon="12.0982876"><ele>318.0</ele><time>2026-04-27T17:55:43Z</time></trkpt><trkpt lat="46.1106557" lon="12.0984033"><ele>318.0</ele><time>2026-04-27T17:55:44.999Z</time></trkpt><trkpt lat="46.1107279" lon="12.0984972"><ele>318.0</ele><time>2026-04-27T17:55:46.999Z</time></trkpt><trkpt lat="46.1107061" lon="12.0986049"><ele>318.0</ele><time>2026-04-27T17:55:49Z</time></trkpt><trkpt lat="46.1106573" lon="12.0987138"><ele>318.0</ele><time>2026-04-27T17:55:51.148Z</time></trkpt><trkpt lat="46.1105828" lon="12.0988516"><ele>318.0</ele><time>2026-04-27T17:55:52.999Z</time></trkpt><trkpt lat="46.1105147" lon="12.098995"><ele>318.0</ele><time>2026-04-27T17:55:54.999Z</time></trkpt><trkpt lat="46.1104614" lon="12.0991631"><ele>318.0</ele><time>2026-04-27T17:55:57Z</time></trkpt><trkpt lat="46.1104387" lon="12.0993398"><ele>317.6</ele><time>2026-04-27T17:55:58.999Z</time></trkpt><trkpt lat="46.1104141" lon="12.0995142"><ele>317.20000000000005</ele><time>2026-04-27T17:56:00.999Z</time></trkpt><trkpt lat="46.1103838" lon="12.0996856"><ele>316.8</ele><time>2026-04-27T17:56:02.999Z</time></trkpt><trkpt lat="46.1103535" lon="12.0997684"><ele>316.40000000000003</ele><time>2026-04-27T17:56:04Z</time></trkpt><trkpt lat="46.1102858" lon="12.0999235"><ele>316.0</ele><time>2026-04-27T17:56:05.999Z</time></trkpt><trkpt lat="46.1102365" lon="12.0999845"><ele>315.8571428571429</ele><time>2026-04-27T17:56:06.999Z</time></trkpt><trkpt lat="46.1101895" lon="12.1000529"><ele>315.7142857142857</ele><time>2026-04-27T17:56:07.999Z</time></trkpt><trkpt lat="46.1101409" lon="12.1001267"><ele>315.57142857142856</ele><time>2026-04-27T17:56:08.999Z</time></trkpt><trkpt lat="46.110093" lon="12.100197"><ele>315.42857142857144</ele><time>2026-04-27T17:56:09.999Z</time></trkpt><trkpt lat="46.1100483" lon="12.1002715"><ele>315.2857142857143</ele><time>2026-04-27T17:56:10.999Z</time></trkpt><trkpt lat="46.1099992" lon="12.1003356"><ele>315.14285714285717</ele><time>2026-04-27T17:56:12Z</time></trkpt><trkpt lat="46.1099481" lon="12.1003943"><ele>315.0</ele><time>2026-04-27T17:56:12.999Z</time></trkpt><trkpt lat="46.109853" lon="12.1004789"><ele>315.0</ele><time>2026-04-27T17:56:14.999Z</time></trkpt><trkpt lat="46.1097764" lon="12.1005133"><ele>315.0</ele><time>2026-04-27T17:56:17Z</time></trkpt><trkpt lat="46.1097109" lon="12.1005055"><ele>315.0</ele><time>2026-04-27T17:56:19.999Z</time></trkpt><trkpt lat="46.1096434" lon="12.1005488"><ele>315.0</ele><time>2026-04-27T17:56:21.999Z</time></trkpt><trkpt lat="46.1095604" lon="12.1006182"><ele>315.0</ele><time>2026-04-27T17:56:23.999Z</time></trkpt><trkpt lat="46.1094609" lon="12.1006892"><ele>315.0</ele><time>2026-04-27T17:56:25.999Z</time></trkpt><trkpt lat="46.1093597" lon="12.1007821"><ele>314.6666666666667</ele><time>2026-04-27T17:56:28Z</time></trkpt><trkpt lat="46.1092786" lon="12.1009095"><ele>314.3333333333333</ele><time>2026-04-27T17:56:30Z</time></trkpt><trkpt lat="46.1092437" lon="12.1009924"><ele>314.0</ele><time>2026-04-27T17:56:30.999Z</time></trkpt><trkpt lat="46.1091982" lon="12.1011467"><ele>313.66666666666663</ele><time>2026-04-27T17:56:32.999Z</time></trkpt><trkpt lat="46.1091854" lon="12.1012444"><ele>313.3333333333333</ele><time>2026-04-27T17:56:33.999Z</time></trkpt><trkpt lat="46.1091738" lon="12.1013337"><ele>313.0</ele><time>2026-04-27T17:56:34.999Z</time></trkpt><trkpt lat="46.1091622" lon="12.1014258"><ele>313.0</ele><time>2026-04-27T17:56:35.999Z</time></trkpt><trkpt lat="46.1091483" lon="12.1015166"><ele>313.0</ele><time>2026-04-27T17:56:36.999Z</time></trkpt><trkpt lat="46.1091402" lon="12.101611"><ele>313.0</ele><time>2026-04-27T17:56:38Z</time></trkpt><trkpt lat="46.1091304" lon="12.1017068"><ele>313.0</ele><time>2026-04-27T17:56:38.999Z</time></trkpt><trkpt lat="46.1091234" lon="12.1017978"><ele>313.0</ele><time>2026-04-27T17:56:39.999Z</time></trkpt><trkpt lat="46.1091134" lon="12.101973"><ele>313.0</ele><time>2026-04-27T17:56:41.999Z</time></trkpt><trkpt lat="46.1091067" lon="12.1020647"><ele>313.0</ele><time>2026-04-27T17:56:43Z</time></trkpt><trkpt lat="46.1091047" lon="12.1021585"><ele>312.7142857142857</ele><time>2026-04-27T17:56:44Z</time></trkpt><trkpt lat="46.1090999" lon="12.10225"><ele>312.42857142857144</ele><time>2026-04-27T17:56:45Z</time></trkpt><trkpt lat="46.109093" lon="12.1023449"><ele>312.1428571428571</ele><time>2026-04-27T17:56:45.999Z</time></trkpt><trkpt lat="46.1090851" lon="12.1024356"><ele>311.8571428571429</ele><time>2026-04-27T17:56:46.999Z</time></trkpt><trkpt lat="46.1090698" lon="12.1026167"><ele>311.5714285714286</ele><time>2026-04-27T17:56:48.999Z</time></trkpt><trkpt lat="46.109065" lon="12.1027089"><ele>311.2857142857143</ele><time>2026-04-27T17:56:49.999Z</time></trkpt><trkpt lat="46.1090597" lon="12.1027995"><ele>311.0</ele><time>2026-04-27T17:56:50.999Z</time></trkpt><trkpt lat="46.1090537" lon="12.1028919"><ele>310.57142857142856</ele><time>2026-04-27T17:56:52Z</time></trkpt><trkpt lat="46.1090507" lon="12.1029866"><ele>310.14285714285717</ele><time>2026-04-27T17:56:52.999Z</time></trkpt><trkpt lat="46.109045" lon="12.103079"><ele>309.7142857142857</ele><time>2026-04-27T17:56:53.999Z</time></trkpt><trkpt lat="46.1090385" lon="12.1031727"><ele>309.2857142857143</ele><time>2026-04-27T17:56:54.999Z</time></trkpt><trkpt lat="46.1090343" lon="12.1032641"><ele>308.8571428571429</ele><time>2026-04-27T17:56:55.999Z</time></trkpt><trkpt lat="46.1090311" lon="12.103355"><ele>308.42857142857144</ele><time>2026-04-27T17:56:56.999Z</time></trkpt><trkpt lat="46.1090138" lon="12.1035322"><ele>308.0</ele><time>2026-04-27T17:56:58.999Z</time></trkpt><trkpt lat="46.109001" lon="12.1037093"><ele>308.0</ele><time>2026-04-27T17:57:00.999Z</time></trkpt><trkpt lat="46.108992" lon="12.1038026"><ele>308.0</ele><time>2026-04-27T17:57:01.999Z</time></trkpt><trkpt lat="46.1089828" lon="12.1038953"><ele>308.0</ele><time>2026-04-27T17:57:03Z</time></trkpt><trkpt lat="46.1089708" lon="12.1040754"><ele>308.0</ele><time>2026-04-27T17:57:04.999Z</time></trkpt><trkpt lat="46.1089643" lon="12.1041734"><ele>308.0</ele><time>2026-04-27T17:57:06Z</time></trkpt><trkpt lat="46.1089588" lon="12.10427"><ele>308.0</ele><time>2026-04-27T17:57:07Z</time></trkpt><trkpt lat="46.1089483" lon="12.1043607"><ele>308.0</ele><time>2026-04-27T17:57:07.999Z</time></trkpt><trkpt lat="46.1089419" lon="12.1044538"><ele>308.0</ele><time>2026-04-27T17:57:09Z</time></trkpt><trkpt lat="46.1089351" lon="12.1045455"><ele>308.0</ele><time>2026-04-27T17:57:09.999Z</time></trkpt><trkpt lat="46.1089289" lon="12.1046383"><ele>308.0</ele><time>2026-04-27T17:57:10.999Z</time></trkpt><trkpt lat="46.1089236" lon="12.1047329"><ele>308.0</ele><time>2026-04-27T17:57:11.999Z</time></trkpt><trkpt lat="46.1089175" lon="12.1048255"><ele>308.0</ele><time>2026-04-27T17:57:12.999Z</time></trkpt><trkpt lat="46.1089137" lon="12.1049169"><ele>308.0</ele><time>2026-04-27T17:57:13.999Z</time></trkpt><trkpt lat="46.1089003" lon="12.1050063"><ele>308.0</ele><time>2026-04-27T17:57:14.999Z</time></trkpt><trkpt lat="46.1088662" lon="12.1050883"><ele>308.0</ele><time>2026-04-27T17:57:15.999Z</time></trkpt><trkpt lat="46.1088196" lon="12.1051535"><ele>308.0</ele><time>2026-04-27T17:57:16.999Z</time></trkpt><trkpt lat="46.1087084" lon="12.1052333"><ele>308.0</ele><time>2026-04-27T17:57:18.999Z</time></trkpt><trkpt lat="46.1085878" lon="12.1052937"><ele>308.0</ele><time>2026-04-27T17:57:20.999Z</time></trkpt><trkpt lat="46.1085243" lon="12.105327"><ele>308.0</ele><time>2026-04-27T17:57:21.999Z</time></trkpt><trkpt lat="46.1084649" lon="12.1053584"><ele>308.0</ele><time>2026-04-27T17:57:22.999Z</time></trkpt><trkpt lat="46.1084052" lon="12.1053943"><ele>308.0</ele><time>2026-04-27T17:57:23.999Z</time></trkpt><trkpt lat="46.1083464" lon="12.1054353"><ele>308.0</ele><time>2026-04-27T17:57:24.999Z</time></trkpt><trkpt lat="46.1082898" lon="12.1054837"><ele>308.0</ele><time>2026-04-27T17:57:25.999Z</time></trkpt><trkpt lat="46.1082344" lon="12.1055326"><ele>308.0</ele><time>2026-04-27T17:57:26.999Z</time></trkpt><trkpt lat="46.1081809" lon="12.1055867"><ele>308.0</ele><time>2026-04-27T17:57:27.999Z</time></trkpt><trkpt lat="46.1080842" lon="12.1057018"><ele>307.5</ele><time>2026-04-27T17:57:29.999Z</time></trkpt><trkpt lat="46.1080397" lon="12.1057667"><ele>307.0</ele><time>2026-04-27T17:57:30.999Z</time></trkpt><trkpt lat="46.1079985" lon="12.1058365"><ele>306.5</ele><time>2026-04-27T17:57:31.999Z</time></trkpt><trkpt lat="46.1079617" lon="12.1059137"><ele>306.0</ele><time>2026-04-27T17:57:32.999Z</time></trkpt><trkpt lat="46.1079006" lon="12.1060636"><ele>305.5</ele><time>2026-04-27T17:57:34.999Z</time></trkpt><trkpt lat="46.1078324" lon="12.1062164"><ele>305.0</ele><time>2026-04-27T17:57:36.999Z</time></trkpt><trkpt lat="46.1077983" lon="12.1062947"><ele>305.0</ele><time>2026-04-27T17:57:37.999Z</time></trkpt><trkpt lat="46.1077626" lon="12.1063738"><ele>305.0</ele><time>2026-04-27T17:57:38.999Z</time></trkpt><trkpt lat="46.1077238" lon="12.1064473"><ele>305.0</ele><time>2026-04-27T17:57:39.999Z</time></trkpt><trkpt lat="46.1076829" lon="12.1065188"><ele>305.0</ele><time>2026-04-27T17:57:40.999Z</time></trkpt><trkpt lat="46.1076123" lon="12.1066619"><ele>305.0</ele><time>2026-04-27T17:57:43Z</time></trkpt><trkpt lat="46.1075748" lon="12.1067363"><ele>305.0</ele><time>2026-04-27T17:57:43.999Z</time></trkpt><trkpt lat="46.1075278" lon="12.1067996"><ele>305.0</ele><time>2026-04-27T17:57:44.999Z</time></trkpt><trkpt lat="46.1074743" lon="12.1068488"><ele>304.83333333333337</ele><time>2026-04-27T17:57:46Z</time></trkpt><trkpt lat="46.1074151" lon="12.1068851"><ele>304.6666666666667</ele><time>2026-04-27T17:57:46.999Z</time></trkpt><trkpt lat="46.1073528" lon="12.1069016"><ele>304.5</ele><time>2026-04-27T17:57:48Z</time></trkpt><trkpt lat="46.1072282" lon="12.1069135"><ele>304.3333333333333</ele><time>2026-04-27T17:57:49.999Z</time></trkpt><trkpt lat="46.1071641" lon="12.1069174"><ele>304.16666666666663</ele><time>2026-04-27T17:57:51Z</time></trkpt><trkpt lat="46.1071008" lon="12.106919"><ele>304.0</ele><time>2026-04-27T17:57:51.999Z</time></trkpt><trkpt lat="46.1069751" lon="12.1069297"><ele>303.75</ele><time>2026-04-27T17:57:53.999Z</time></trkpt><trkpt lat="46.1068521" lon="12.1069386"><ele>303.5</ele><time>2026-04-27T17:57:55.999Z</time></trkpt><trkpt lat="46.1067288" lon="12.106968"><ele>303.25</ele><time>2026-04-27T17:57:57.999Z</time></trkpt><trkpt lat="46.1066163" lon="12.1069927"><ele>303.0</ele><time>2026-04-27T17:57:59.999Z</time></trkpt><trkpt lat="46.1064937" lon="12.1070182"><ele>302.75</ele><time>2026-04-27T17:58:01.999Z</time></trkpt><trkpt lat="46.1063695" lon="12.1070347"><ele>302.5</ele><time>2026-04-27T17:58:03.999Z</time></trkpt><trkpt lat="46.1062475" lon="12.1070462"><ele>302.25</ele><time>2026-04-27T17:58:06Z</time></trkpt><trkpt lat="46.1061293" lon="12.1070311"><ele>302.0</ele><time>2026-04-27T17:58:07.999Z</time></trkpt><trkpt lat="46.1060074" lon="12.1070139"><ele>302.0</ele><time>2026-04-27T17:58:10Z</time></trkpt><trkpt lat="46.1058842" lon="12.1070177"><ele>302.0</ele><time>2026-04-27T17:58:11.999Z</time></trkpt><trkpt lat="46.1057651" lon="12.1070597"><ele>302.0</ele><time>2026-04-27T17:58:14Z</time></trkpt><trkpt lat="46.105645" lon="12.1071121"><ele>302.0</ele><time>2026-04-27T17:58:15.999Z</time></trkpt><trkpt lat="46.1055837" lon="12.107139"><ele>302.0</ele><time>2026-04-27T17:58:16.999Z</time></trkpt><trkpt lat="46.105463" lon="12.1071947"><ele>302.5</ele><time>2026-04-27T17:58:18.999Z</time></trkpt><trkpt lat="46.1053438" lon="12.1072492"><ele>303.0</ele><time>2026-04-27T17:58:20.999Z</time></trkpt><trkpt lat="46.1052327" lon="12.1073217"><ele>303.5</ele><time>2026-04-27T17:58:22.999Z</time></trkpt><trkpt lat="46.1051325" lon="12.1074076"><ele>304.0</ele><time>2026-04-27T17:58:24.999Z</time></trkpt><trkpt lat="46.1050365" lon="12.1075031"><ele>304.0</ele><time>2026-04-27T17:58:26.999Z</time></trkpt><trkpt lat="46.1049395" lon="12.1076051"><ele>304.0</ele><time>2026-04-27T17:58:28.999Z</time></trkpt><trkpt lat="46.104843" lon="12.1076964"><ele>304.0</ele><time>2026-04-27T17:58:31Z</time></trkpt><trkpt lat="46.1047526" lon="12.1077946"><ele>304.0</ele><time>2026-04-27T17:58:32.999Z</time></trkpt><trkpt lat="46.104654" lon="12.1079036"><ele>305.0</ele><time>2026-04-27T17:58:34.999Z</time></trkpt><trkpt lat="46.1046048" lon="12.1079616"><ele>306.0</ele><time>2026-04-27T17:58:35.999Z</time></trkpt><trkpt lat="46.1045277" lon="12.108097"><ele>307.0</ele><time>2026-04-27T17:58:37.999Z</time></trkpt><trkpt lat="46.104476" lon="12.108254"><ele>308.0</ele><time>2026-04-27T17:58:39.999Z</time></trkpt><trkpt lat="46.1044542" lon="12.1084157"><ele>309.0</ele><time>2026-04-27T17:58:42Z</time></trkpt><trkpt lat="46.1044614" lon="12.1085744"><ele>309.59999999999997</ele><time>2026-04-27T17:58:43.999Z</time></trkpt><trkpt lat="46.104486" lon="12.1087263"><ele>310.2</ele><time>2026-04-27T17:58:46Z</time></trkpt><trkpt lat="46.1045073" lon="12.1088743"><ele>310.79999999999995</ele><time>2026-04-27T17:58:47.999Z</time></trkpt><trkpt lat="46.1045111" lon="12.1089822"><ele>311.4</ele><time>2026-04-27T17:58:49.999Z</time></trkpt><trkpt lat="46.1045193" lon="12.1088605"><ele>312.0</ele><time>2026-04-27T17:58:54.999Z</time></trkpt><trkpt lat="46.1045177" lon="12.1087402"><ele>312.0</ele><time>2026-04-27T17:58:57.999Z</time></trkpt><trkpt lat="46.1044554" lon="12.1087723"><ele>312.0</ele><time>2026-04-27T17:59:09.999Z</time></trkpt><trkpt lat="46.1044047" lon="12.1088268"><ele>312.0</ele><time>2026-04-27T17:59:23.999Z</time></trkpt><trkpt lat="46.104361" lon="12.1089117"><ele>312.0</ele><time>2026-04-27T17:59:29Z</time></trkpt><trkpt lat="46.1043253" lon="12.109004"><ele>312.0</ele><time>2026-04-27T17:59:33.999Z</time></trkpt><trkpt lat="46.1042652" lon="12.1090325"><ele>312.0</ele><time>2026-04-27T17:59:36.999Z</time></trkpt><trkpt lat="46.104186" lon="12.1090874"><ele>312.0</ele><time>2026-04-27T17:59:40.999Z</time></trkpt><trkpt lat="46.1041268" lon="12.1091578"><ele>316.3333333333333</ele><time>2026-04-27T17:59:43.999Z</time></trkpt><trkpt lat="46.1040628" lon="12.109209"><ele>320.6666666666667</ele><time>2026-04-27T17:59:46.999Z</time></trkpt><trkpt lat="46.1040086" lon="12.1092741"><ele>325.0</ele><time>2026-04-27T17:59:49.999Z</time></trkpt><trkpt lat="46.1039442" lon="12.1093405"><ele>329.33333333333337</ele><time>2026-04-27T17:59:52.999Z</time></trkpt><trkpt lat="46.1038779" lon="12.1094187"><ele>333.6666666666667</ele><time>2026-04-27T17:59:56.999Z</time></trkpt><trkpt lat="46.103837" lon="12.1095025"><ele>338.0</ele><time>2026-04-27T18:00:00Z</time></trkpt><trkpt lat="46.1037734" lon="12.1095847"><ele>338.0</ele><time>2026-04-27T18:00:03.999Z</time></trkpt><trkpt lat="46.1037228" lon="12.1096405"><ele>338.0</ele><time>2026-04-27T18:00:06.999Z</time></trkpt><trkpt lat="46.103671" lon="12.1097006"><ele>338.0</ele><time>2026-04-27T18:00:10Z</time></trkpt><trkpt lat="46.1036235" lon="12.1097618"><ele>338.0</ele><time>2026-04-27T18:00:12.999Z</time></trkpt><trkpt lat="46.1035741" lon="12.1098287"><ele>338.0</ele><time>2026-04-27T18:00:15.999Z</time></trkpt><trkpt lat="46.1035228" lon="12.109904"><ele>338.0</ele><time>2026-04-27T18:00:20Z</time></trkpt><trkpt lat="46.1034562" lon="12.1099809"><ele>338.0</ele><time>2026-04-27T18:00:23Z</time></trkpt><trkpt lat="46.1033937" lon="12.1100287"><ele>338.5</ele><time>2026-04-27T18:00:25.999Z</time></trkpt><trkpt lat="46.1033243" lon="12.1100641"><ele>339.0</ele><time>2026-04-27T18:00:28.999Z</time></trkpt><trkpt lat="46.103251" lon="12.1101203"><ele>339.5</ele><time>2026-04-27T18:00:32Z</time></trkpt><trkpt lat="46.1031813" lon="12.1101499"><ele>340.0</ele><time>2026-04-27T18:00:34.999Z</time></trkpt><trkpt lat="46.1031209" lon="12.1102231"><ele>340.5</ele><time>2026-04-27T18:00:39Z</time></trkpt><trkpt lat="46.1030541" lon="12.1101498"><ele>341.0</ele><time>2026-04-27T18:00:41.999Z</time></trkpt><trkpt lat="46.1029833" lon="12.1100697"><ele>342.20000000000005</ele><time>2026-04-27T18:00:44.999Z</time></trkpt><trkpt lat="46.1029065" lon="12.110002"><ele>343.40000000000003</ele><time>2026-04-27T18:00:47.999Z</time></trkpt><trkpt lat="46.1028143" lon="12.1099845"><ele>344.6</ele><time>2026-04-27T18:00:50.999Z</time></trkpt><trkpt lat="46.1027437" lon="12.1100411"><ele>345.8</ele><time>2026-04-27T18:00:53.999Z</time></trkpt><trkpt lat="46.1027135" lon="12.1101671"><ele>347.0</ele><time>2026-04-27T18:00:56.999Z</time></trkpt><trkpt lat="46.1027212" lon="12.1103015"><ele>347.0</ele><time>2026-04-27T18:01:00Z</time></trkpt><trkpt lat="46.1027258" lon="12.1104386"><ele>347.0</ele><time>2026-04-27T18:01:03Z</time></trkpt><trkpt lat="46.1027157" lon="12.1105341"><ele>347.0</ele><time>2026-04-27T18:01:05Z</time></trkpt><trkpt lat="46.1026829" lon="12.1106603"><ele>347.0</ele><time>2026-04-27T18:01:07.999Z</time></trkpt><trkpt lat="46.1026452" lon="12.1107374"><ele>347.0</ele><time>2026-04-27T18:01:09.999Z</time></trkpt><trkpt lat="46.1025767" lon="12.1108304"><ele>347.0</ele><time>2026-04-27T18:01:12.999Z</time></trkpt><trkpt lat="46.1025248" lon="12.1108879"><ele>347.14285714285717</ele><time>2026-04-27T18:01:14.999Z</time></trkpt><trkpt lat="46.1024521" lon="12.1109716"><ele>347.2857142857143</ele><time>2026-04-27T18:01:17.999Z</time></trkpt><trkpt lat="46.1024002" lon="12.1110264"><ele>347.42857142857144</ele><time>2026-04-27T18:01:20Z</time></trkpt><trkpt lat="46.1023484" lon="12.1110895"><ele>347.57142857142856</ele><time>2026-04-27T18:01:21.999Z</time></trkpt><trkpt lat="46.1022945" lon="12.1111552"><ele>347.7142857142857</ele><time>2026-04-27T18:01:23.999Z</time></trkpt><trkpt lat="46.1022404" lon="12.1112206"><ele>347.85714285714283</ele><time>2026-04-27T18:01:25.999Z</time></trkpt><trkpt lat="46.1021876" lon="12.111274"><ele>348.0</ele><time>2026-04-27T18:01:27.999Z</time></trkpt><trkpt lat="46.1021268" lon="12.11134"><ele>348.6666666666667</ele><time>2026-04-27T18:01:29.999Z</time></trkpt><trkpt lat="46.1020684" lon="12.1114138"><ele>349.3333333333333</ele><time>2026-04-27T18:01:32Z</time></trkpt><trkpt lat="46.1020083" lon="12.1114857"><ele>350.0</ele><time>2026-04-27T18:01:33.999Z</time></trkpt><trkpt lat="46.1019484" lon="12.1115546"><ele>350.66666666666663</ele><time>2026-04-27T18:01:36Z</time></trkpt><trkpt lat="46.1018917" lon="12.1116289"><ele>351.3333333333333</ele><time>2026-04-27T18:01:37.999Z</time></trkpt><trkpt lat="46.1018367" lon="12.1117065"><ele>352.0</ele><time>2026-04-27T18:01:39.999Z</time></trkpt><trkpt lat="46.1017842" lon="12.1117866"><ele>352.0</ele><time>2026-04-27T18:01:41.999Z</time></trkpt><trkpt lat="46.1017285" lon="12.1118632"><ele>352.0</ele><time>2026-04-27T18:01:43.999Z</time></trkpt><trkpt lat="46.1016703" lon="12.1119326"><ele>352.0</ele><time>2026-04-27T18:01:45.999Z</time></trkpt><trkpt lat="46.1016152" lon="12.112004"><ele>352.0</ele><time>2026-04-27T18:01:47.999Z</time></trkpt><trkpt lat="46.1015517" lon="12.1120786"><ele>352.0</ele><time>2026-04-27T18:01:49.999Z</time></trkpt><trkpt lat="46.1014781" lon="12.1121672"><ele>352.0</ele><time>2026-04-27T18:01:51.999Z</time></trkpt><trkpt lat="46.1013976" lon="12.1122617"><ele>351.5</ele><time>2026-04-27T18:01:54Z</time></trkpt><trkpt lat="46.1013014" lon="12.1123556"><ele>351.0</ele><time>2026-04-27T18:01:55.999Z</time></trkpt><trkpt lat="46.1011985" lon="12.1124564"><ele>350.5</ele><time>2026-04-27T18:01:57.999Z</time></trkpt><trkpt lat="46.1011456" lon="12.1125084"><ele>350.0</ele><time>2026-04-27T18:01:58.999Z</time></trkpt><trkpt lat="46.10109" lon="12.1125595"><ele>349.5</ele><time>2026-04-27T18:01:59.999Z</time></trkpt><trkpt lat="46.1010333" lon="12.1126125"><ele>349.0</ele><time>2026-04-27T18:02:01Z</time></trkpt><trkpt lat="46.1009295" lon="12.1127057"><ele>349.0</ele><time>2026-04-27T18:02:02.999Z</time></trkpt><trkpt lat="46.1008208" lon="12.112796"><ele>349.0</ele><time>2026-04-27T18:02:04.999Z</time></trkpt><trkpt lat="46.1007225" lon="12.1128803"><ele>349.0</ele><time>2026-04-27T18:02:06.999Z</time></trkpt><trkpt lat="46.10062" lon="12.11296"><ele>349.0</ele><time>2026-04-27T18:02:08.999Z</time></trkpt><trkpt lat="46.1005246" lon="12.113033"><ele>347.79999999999995</ele><time>2026-04-27T18:02:10.999Z</time></trkpt><trkpt lat="46.1004337" lon="12.1131136"><ele>346.59999999999997</ele><time>2026-04-27T18:02:12.999Z</time></trkpt><trkpt lat="46.1003465" lon="12.1131917"><ele>345.4</ele><time>2026-04-27T18:02:14.999Z</time></trkpt><trkpt lat="46.1002562" lon="12.1132759"><ele>344.2</ele><time>2026-04-27T18:02:17Z</time></trkpt><trkpt lat="46.1001657" lon="12.1133624"><ele>343.0</ele><time>2026-04-27T18:02:18.999Z</time></trkpt><trkpt lat="46.1000823" lon="12.113479"><ele>342.79999999999995</ele><time>2026-04-27T18:02:20.999Z</time></trkpt><trkpt lat="46.1000133" lon="12.1136237"><ele>342.6</ele><time>2026-04-27T18:02:22.999Z</time></trkpt><trkpt lat="46.0999616" lon="12.1137951"><ele>342.4</ele><time>2026-04-27T18:02:24.999Z</time></trkpt><trkpt lat="46.0999417" lon="12.1138884"><ele>342.20000000000005</ele><time>2026-04-27T18:02:26Z</time></trkpt><trkpt lat="46.0999213" lon="12.1139937"><ele>342.0</ele><time>2026-04-27T18:02:26.999Z</time></trkpt><trkpt lat="46.0999028" lon="12.1140961"><ele>340.57142857142856</ele><time>2026-04-27T18:02:28Z</time></trkpt><trkpt lat="46.0998863" lon="12.1141974"><ele>339.1428571428571</ele><time>2026-04-27T18:02:29Z</time></trkpt><trkpt lat="46.0998727" lon="12.1143237"><ele>337.71428571428567</ele><time>2026-04-27T18:02:30Z</time></trkpt><trkpt lat="46.0998534" lon="12.1144161"><ele>336.2857142857143</ele><time>2026-04-27T18:02:30.999Z</time></trkpt><trkpt lat="46.0998337" lon="12.1145167"><ele>334.8571428571429</ele><time>2026-04-27T18:02:31.999Z</time></trkpt><trkpt lat="46.0998203" lon="12.1146214"><ele>333.4285714285714</ele><time>2026-04-27T18:02:32.999Z</time></trkpt><trkpt lat="46.0998063" lon="12.1147242"><ele>332.0</ele><time>2026-04-27T18:02:33.999Z</time></trkpt><trkpt lat="46.0997875" lon="12.1148286"><ele>332.0</ele><time>2026-04-27T18:02:34.999Z</time></trkpt><trkpt lat="46.0997673" lon="12.1149313"><ele>332.0</ele><time>2026-04-27T18:02:35.999Z</time></trkpt><trkpt lat="46.0997532" lon="12.1150257"><ele>332.0</ele><time>2026-04-27T18:02:36.999Z</time></trkpt><trkpt lat="46.0997341" lon="12.1151298"><ele>332.0</ele><time>2026-04-27T18:02:37.999Z</time></trkpt><trkpt lat="46.0997174" lon="12.1152193"><ele>332.0</ele><time>2026-04-27T18:02:38.999Z</time></trkpt><trkpt lat="46.0997048" lon="12.1153229"><ele>332.0</ele><time>2026-04-27T18:02:39.999Z</time></trkpt><trkpt lat="46.0996845" lon="12.1154159"><ele>332.0</ele><time>2026-04-27T18:02:40.999Z</time></trkpt><trkpt lat="46.0996679" lon="12.1155113"><ele>332.0</ele><time>2026-04-27T18:02:41.999Z</time></trkpt><trkpt lat="46.0996551" lon="12.1156148"><ele>332.0</ele><time>2026-04-27T18:02:42.999Z</time></trkpt><trkpt lat="46.0996541" lon="12.1157267"><ele>332.0</ele><time>2026-04-27T18:02:43.999Z</time></trkpt><trkpt lat="46.0996417" lon="12.1158448"><ele>332.0</ele><time>2026-04-27T18:02:44.999Z</time></trkpt><trkpt lat="46.0996368" lon="12.1160425"><ele>332.0</ele><time>2026-04-27T18:02:46.999Z</time></trkpt><trkpt lat="46.0996515" lon="12.1162168"><ele>332.1666666666667</ele><time>2026-04-27T18:02:48.999Z</time></trkpt><trkpt lat="46.0996525" lon="12.1163084"><ele>332.33333333333337</ele><time>2026-04-27T18:02:49.999Z</time></trkpt><trkpt lat="46.0996527" lon="12.1164056"><ele>332.5</ele><time>2026-04-27T18:02:50.999Z</time></trkpt><trkpt lat="46.0996589" lon="12.1164984"><ele>332.6666666666667</ele><time>2026-04-27T18:02:51.999Z</time></trkpt><trkpt lat="46.0996673" lon="12.1166083"><ele>332.8333333333333</ele><time>2026-04-27T18:02:53Z</time></trkpt><trkpt lat="46.0996707" lon="12.1167085"><ele>333.0</ele><time>2026-04-27T18:02:54Z</time></trkpt><trkpt lat="46.099701" lon="12.1168967"><ele>333.0</ele><time>2026-04-27T18:02:55.999Z</time></trkpt><trkpt lat="46.0997046" lon="12.1170072"><ele>333.0</ele><time>2026-04-27T18:02:56.999Z</time></trkpt><trkpt lat="46.0997035" lon="12.1171187"><ele>333.0</ele><time>2026-04-27T18:02:58Z</time></trkpt><trkpt lat="46.0996949" lon="12.1172156"><ele>333.0</ele><time>2026-04-27T18:02:59Z</time></trkpt><trkpt lat="46.0996769" lon="12.1173139"><ele>333.0</ele><time>2026-04-27T18:03:00Z</time></trkpt><trkpt lat="46.099641" lon="12.1173888"><ele>333.0</ele><time>2026-04-27T18:03:00.999Z</time></trkpt><trkpt lat="46.0995841" lon="12.1174409"><ele>333.0</ele><time>2026-04-27T18:03:01.999Z</time></trkpt><trkpt lat="46.0995199" lon="12.1174758"><ele>333.2857142857143</ele><time>2026-04-27T18:03:02.999Z</time></trkpt><trkpt lat="46.0994516" lon="12.1174971"><ele>333.57142857142856</ele><time>2026-04-27T18:03:04Z</time></trkpt><trkpt lat="46.099378" lon="12.1175075"><ele>333.85714285714283</ele><time>2026-04-27T18:03:04.999Z</time></trkpt><trkpt lat="46.0993055" lon="12.1175155"><ele>334.1428571428571</ele><time>2026-04-27T18:03:05.999Z</time></trkpt><trkpt lat="46.099243" lon="12.1175471"><ele>334.42857142857144</ele><time>2026-04-27T18:03:06.999Z</time></trkpt><trkpt lat="46.0991841" lon="12.1175876"><ele>334.71428571428567</ele><time>2026-04-27T18:03:07.999Z</time></trkpt><trkpt lat="46.0991412" lon="12.1176617"><ele>335.0</ele><time>2026-04-27T18:03:08.999Z</time></trkpt><trkpt lat="46.0991218" lon="12.1177537"><ele>335.0</ele><time>2026-04-27T18:03:09.999Z</time></trkpt><trkpt lat="46.099143" lon="12.1179306"><ele>335.0</ele><time>2026-04-27T18:03:11.999Z</time></trkpt><trkpt lat="46.0991603" lon="12.1180209"><ele>335.0</ele><time>2026-04-27T18:03:12.999Z</time></trkpt><trkpt lat="46.0991735" lon="12.1181197"><ele>335.0</ele><time>2026-04-27T18:03:13.999Z</time></trkpt><trkpt lat="46.0991939" lon="12.118292"><ele>335.0</ele><time>2026-04-27T18:03:15.999Z</time></trkpt><trkpt lat="46.099192" lon="12.1183849"><ele>335.0</ele><time>2026-04-27T18:03:16.999Z</time></trkpt><trkpt lat="46.0991133" lon="12.1185126"><ele>333.6666666666667</ele><time>2026-04-27T18:03:18.999Z</time></trkpt><trkpt lat="46.0989794" lon="12.1185672"><ele>332.33333333333337</ele><time>2026-04-27T18:03:20.999Z</time></trkpt><trkpt lat="46.0989001" lon="12.1185758"><ele>331.0</ele><time>2026-04-27T18:03:22Z</time></trkpt><trkpt lat="46.0988224" lon="12.118578"><ele>329.6666666666667</ele><time>2026-04-27T18:03:23Z</time></trkpt><trkpt lat="46.0987423" lon="12.1185824"><ele>328.3333333333333</ele><time>2026-04-27T18:03:23.999Z</time></trkpt><trkpt lat="46.0986695" lon="12.1185865"><ele>327.0</ele><time>2026-04-27T18:03:24.999Z</time></trkpt><trkpt lat="46.0986018" lon="12.1186001"><ele>327.0</ele><time>2026-04-27T18:03:25.999Z</time></trkpt><trkpt lat="46.0985359" lon="12.1186015"><ele>327.0</ele><time>2026-04-27T18:03:26.999Z</time></trkpt><trkpt lat="46.0984726" lon="12.1186078"><ele>327.0</ele><time>2026-04-27T18:03:27.999Z</time></trkpt><trkpt lat="46.0983546" lon="12.1186103"><ele>327.0</ele><time>2026-04-27T18:03:29.999Z</time></trkpt><trkpt lat="46.0982909" lon="12.118614"><ele>327.0</ele><time>2026-04-27T18:03:30.999Z</time></trkpt><trkpt lat="46.0981754" lon="12.1186241"><ele>327.0</ele><time>2026-04-27T18:03:32.999Z</time></trkpt><trkpt lat="46.0980668" lon="12.1186182"><ele>327.0</ele><time>2026-04-27T18:03:34.999Z</time></trkpt><trkpt lat="46.0979493" lon="12.1186254"><ele>327.0</ele><time>2026-04-27T18:03:37Z</time></trkpt><trkpt lat="46.0978363" lon="12.1186328"><ele>327.0</ele><time>2026-04-27T18:03:38.999Z</time></trkpt><trkpt lat="46.0977203" lon="12.1186226"><ele>327.0</ele><time>2026-04-27T18:03:40.999Z</time></trkpt><trkpt lat="46.0976105" lon="12.1186215"><ele>327.0</ele><time>2026-04-27T18:03:43Z</time></trkpt><trkpt lat="46.0975096" lon="12.1186172"><ele>327.0</ele><time>2026-04-27T18:03:45Z</time></trkpt><trkpt lat="46.0974032" lon="12.1186149"><ele>327.0</ele><time>2026-04-27T18:03:47Z</time></trkpt><trkpt lat="46.0973004" lon="12.11861"><ele>327.0</ele><time>2026-04-27T18:03:48.999Z</time></trkpt><trkpt lat="46.0971883" lon="12.1186007"><ele>327.0</ele><time>2026-04-27T18:03:50.999Z</time></trkpt><trkpt lat="46.0970876" lon="12.1185994"><ele>327.0</ele><time>2026-04-27T18:03:53Z</time></trkpt><trkpt lat="46.0969781" lon="12.1185917"><ele>327.0</ele><time>2026-04-27T18:03:55Z</time></trkpt><trkpt lat="46.0968643" lon="12.1185843"><ele>327.0</ele><time>2026-04-27T18:03:56.999Z</time></trkpt><trkpt lat="46.0967483" lon="12.1185809"><ele>327.0</ele><time>2026-04-27T18:03:59Z</time></trkpt><trkpt lat="46.0966472" lon="12.1185754"><ele>327.0</ele><time>2026-04-27T18:04:00.999Z</time></trkpt><trkpt lat="46.0965328" lon="12.1185804"><ele>327.75</ele><time>2026-04-27T18:04:02.999Z</time></trkpt><trkpt lat="46.0964164" lon="12.1185785"><ele>328.5</ele><time>2026-04-27T18:04:05Z</time></trkpt><trkpt lat="46.0962972" lon="12.1185793"><ele>329.25</ele><time>2026-04-27T18:04:06.999Z</time></trkpt><trkpt lat="46.0961764" lon="12.1186056"><ele>330.0</ele><time>2026-04-27T18:04:08.999Z</time></trkpt><trkpt lat="46.0960601" lon="12.1186626"><ele>330.0</ele><time>2026-04-27T18:04:11Z</time></trkpt><trkpt lat="46.0959693" lon="12.1187483"><ele>330.0</ele><time>2026-04-27T18:04:12.999Z</time></trkpt><trkpt lat="46.0958778" lon="12.1188426"><ele>330.0</ele><time>2026-04-27T18:04:14.999Z</time></trkpt><trkpt lat="46.0957847" lon="12.1189402"><ele>330.0</ele><time>2026-04-27T18:04:16.999Z</time></trkpt><trkpt lat="46.0957" lon="12.1190203"><ele>330.0</ele><time>2026-04-27T18:04:18.999Z</time></trkpt><trkpt lat="46.0956051" lon="12.1190671"><ele>330.4</ele><time>2026-04-27T18:04:20.999Z</time></trkpt><trkpt lat="46.0955022" lon="12.1190593"><ele>330.8</ele><time>2026-04-27T18:04:22.999Z</time></trkpt><trkpt lat="46.0954008" lon="12.1190017"><ele>331.20000000000005</ele><time>2026-04-27T18:04:24.999Z</time></trkpt><trkpt lat="46.0953145" lon="12.118901"><ele>331.6</ele><time>2026-04-27T18:04:26.999Z</time></trkpt><trkpt lat="46.0952484" lon="12.1187857"><ele>332.0</ele><time>2026-04-27T18:04:28.999Z</time></trkpt><trkpt lat="46.0951824" lon="12.1186851"><ele>332.0</ele><time>2026-04-27T18:04:30.999Z</time></trkpt><trkpt lat="46.095124" lon="12.1185979"><ele>332.0</ele><time>2026-04-27T18:04:32.999Z</time></trkpt><trkpt lat="46.0950671" lon="12.1185153"><ele>332.0</ele><time>2026-04-27T18:04:34.999Z</time></trkpt><trkpt lat="46.095017" lon="12.1184399"><ele>332.0</ele><time>2026-04-27T18:04:36.999Z</time></trkpt><trkpt lat="46.0949624" lon="12.1183701"><ele>332.0</ele><time>2026-04-27T18:04:38.999Z</time></trkpt><trkpt lat="46.0949097" lon="12.1183006"><ele>332.0</ele><time>2026-04-27T18:04:40.999Z</time></trkpt><trkpt lat="46.0948419" lon="12.1182171"><ele>330.0</ele><time>2026-04-27T18:04:43Z</time></trkpt><trkpt lat="46.0947675" lon="12.1181005"><ele>328.0</ele><time>2026-04-27T18:04:44.999Z</time></trkpt><trkpt lat="46.0947191" lon="12.1180342"><ele>326.0</ele><time>2026-04-27T18:04:45.999Z</time></trkpt><trkpt lat="46.0946669" lon="12.1179735"><ele>324.0</ele><time>2026-04-27T18:04:47Z</time></trkpt><trkpt lat="46.0946015" lon="12.1179211"><ele>322.0</ele><time>2026-04-27T18:04:47.999Z</time></trkpt><trkpt lat="46.0945316" lon="12.1178885"><ele>320.0</ele><time>2026-04-27T18:04:48.999Z</time></trkpt><trkpt lat="46.0944483" lon="12.1178778"><ele>320.0</ele><time>2026-04-27T18:04:49.999Z</time></trkpt><trkpt lat="46.0943643" lon="12.1179213"><ele>320.0</ele><time>2026-04-27T18:04:50.999Z</time></trkpt><trkpt lat="46.0942889" lon="12.1179976"><ele>320.0</ele><time>2026-04-27T18:04:51.999Z</time></trkpt><trkpt lat="46.0942216" lon="12.1180909"><ele>320.0</ele><time>2026-04-27T18:04:52.999Z</time></trkpt><trkpt lat="46.0941634" lon="12.1181867"><ele>320.0</ele><time>2026-04-27T18:04:53.999Z</time></trkpt><trkpt lat="46.0940984" lon="12.1182991"><ele>319.2</ele><time>2026-04-27T18:04:54.999Z</time></trkpt><trkpt lat="46.0940363" lon="12.1184219"><ele>318.4</ele><time>2026-04-27T18:04:55.999Z</time></trkpt><trkpt lat="46.0939737" lon="12.1185484"><ele>317.6</ele><time>2026-04-27T18:04:56.999Z</time></trkpt><trkpt lat="46.0939085" lon="12.1186785"><ele>316.8</ele><time>2026-04-27T18:04:58Z</time></trkpt><trkpt lat="46.093844" lon="12.118805"><ele>316.0</ele><time>2026-04-27T18:04:58.999Z</time></trkpt><trkpt lat="46.0937819" lon="12.1189322"><ele>316.0</ele><time>2026-04-27T18:04:59.999Z</time></trkpt><trkpt lat="46.0937255" lon="12.119051"><ele>316.0</ele><time>2026-04-27T18:05:00.999Z</time></trkpt><trkpt lat="46.0936652" lon="12.1191589"><ele>316.0</ele><time>2026-04-27T18:05:01.999Z</time></trkpt><trkpt lat="46.0935999" lon="12.1192512"><ele>316.0</ele><time>2026-04-27T18:05:02.999Z</time></trkpt><trkpt lat="46.0935181" lon="12.1193104"><ele>316.0</ele><time>2026-04-27T18:05:04Z</time></trkpt><trkpt lat="46.0934404" lon="12.1193541"><ele>316.3333333333333</ele><time>2026-04-27T18:05:04.999Z</time></trkpt><trkpt lat="46.0933603" lon="12.1193863"><ele>316.66666666666663</ele><time>2026-04-27T18:05:05.999Z</time></trkpt><trkpt lat="46.093283" lon="12.1194132"><ele>317.0</ele><time>2026-04-27T18:05:06.999Z</time></trkpt><trkpt lat="46.0932076" lon="12.119438"><ele>317.3333333333333</ele><time>2026-04-27T18:05:07.999Z</time></trkpt><trkpt lat="46.0931326" lon="12.1194658"><ele>317.6666666666667</ele><time>2026-04-27T18:05:08.999Z</time></trkpt><trkpt lat="46.0930561" lon="12.1195063"><ele>318.0</ele><time>2026-04-27T18:05:09.999Z</time></trkpt><trkpt lat="46.0929871" lon="12.1195589"><ele>316.0</ele><time>2026-04-27T18:05:10.999Z</time></trkpt><trkpt lat="46.0929309" lon="12.119622"><ele>314.0</ele><time>2026-04-27T18:05:11.999Z</time></trkpt><trkpt lat="46.0928784" lon="12.1197011"><ele>312.0</ele><time>2026-04-27T18:05:12.999Z</time></trkpt><trkpt lat="46.0928378" lon="12.119789"><ele>310.0</ele><time>2026-04-27T18:05:13.999Z</time></trkpt><trkpt lat="46.0928103" lon="12.1198832"><ele>308.0</ele><time>2026-04-27T18:05:15Z</time></trkpt><trkpt lat="46.0927947" lon="12.1199739"><ele>306.0</ele><time>2026-04-27T18:05:15.999Z</time></trkpt><trkpt lat="46.0927811" lon="12.1200685"><ele>304.0</ele><time>2026-04-27T18:05:16.999Z</time></trkpt><trkpt lat="46.0927698" lon="12.1201643"><ele>304.0</ele><time>2026-04-27T18:05:17.999Z</time></trkpt><trkpt lat="46.0927598" lon="12.1202577"><ele>304.0</ele><time>2026-04-27T18:05:18.999Z</time></trkpt><trkpt lat="46.0927498" lon="12.1203528"><ele>304.0</ele><time>2026-04-27T18:05:19.999Z</time></trkpt><trkpt lat="46.0927397" lon="12.1204511"><ele>304.0</ele><time>2026-04-27T18:05:20.999Z</time></trkpt><trkpt lat="46.0927273" lon="12.1205545"><ele>304.0</ele><time>2026-04-27T18:05:21.999Z</time></trkpt><trkpt lat="46.0927175" lon="12.1206593"><ele>304.0</ele><time>2026-04-27T18:05:22.999Z</time></trkpt><trkpt lat="46.092709" lon="12.1207621"><ele>304.0</ele><time>2026-04-27T18:05:24Z</time></trkpt><trkpt lat="46.0927014" lon="12.1208667"><ele>304.3333333333333</ele><time>2026-04-27T18:05:24.999Z</time></trkpt><trkpt lat="46.0926942" lon="12.1209704"><ele>304.66666666666663</ele><time>2026-04-27T18:05:25.999Z</time></trkpt><trkpt lat="46.0926884" lon="12.1210734"><ele>305.0</ele><time>2026-04-27T18:05:26.999Z</time></trkpt><trkpt lat="46.0926839" lon="12.1211782"><ele>305.3333333333333</ele><time>2026-04-27T18:05:27.999Z</time></trkpt><trkpt lat="46.0926814" lon="12.1212818"><ele>305.6666666666667</ele><time>2026-04-27T18:05:29Z</time></trkpt><trkpt lat="46.0926826" lon="12.1213749"><ele>306.0</ele><time>2026-04-27T18:05:29.999Z</time></trkpt><trkpt lat="46.0926738" lon="12.1215537"><ele>305.75</ele><time>2026-04-27T18:05:31.999Z</time></trkpt><trkpt lat="46.0926673" lon="12.1217284"><ele>305.5</ele><time>2026-04-27T18:05:33.999Z</time></trkpt><trkpt lat="46.0926574" lon="12.1218963"><ele>305.25</ele><time>2026-04-27T18:05:36Z</time></trkpt><trkpt lat="46.0926496" lon="12.1220684"><ele>305.0</ele><time>2026-04-27T18:05:37.999Z</time></trkpt><trkpt lat="46.0926458" lon="12.1222475"><ele>305.0</ele><time>2026-04-27T18:05:39.999Z</time></trkpt><trkpt lat="46.0926427" lon="12.1223405"><ele>305.0</ele><time>2026-04-27T18:05:40.999Z</time></trkpt><trkpt lat="46.0926339" lon="12.1225185"><ele>305.0</ele><time>2026-04-27T18:05:43Z</time></trkpt><trkpt lat="46.0926001" lon="12.1226929"><ele>305.0</ele><time>2026-04-27T18:05:45Z</time></trkpt><trkpt lat="46.0925269" lon="12.1228444"><ele>305.0</ele><time>2026-04-27T18:05:47Z</time></trkpt><trkpt lat="46.0924845" lon="12.1229235"><ele>305.1666666666667</ele><time>2026-04-27T18:05:48Z</time></trkpt><trkpt lat="46.0924356" lon="12.1230021"><ele>305.33333333333337</ele><time>2026-04-27T18:05:49Z</time></trkpt><trkpt lat="46.092389" lon="12.1230717"><ele>305.5</ele><time>2026-04-27T18:05:49.999Z</time></trkpt><trkpt lat="46.0923323" lon="12.1231286"><ele>305.6666666666667</ele><time>2026-04-27T18:05:50.999Z</time></trkpt><trkpt lat="46.0922319" lon="12.1232465"><ele>305.8333333333333</ele><time>2026-04-27T18:05:52.999Z</time></trkpt><trkpt lat="46.0921764" lon="12.1232993"><ele>306.0</ele><time>2026-04-27T18:05:53.999Z</time></trkpt><trkpt lat="46.0921229" lon="12.1233655"><ele>304.1666666666667</ele><time>2026-04-27T18:05:54.999Z</time></trkpt><trkpt lat="46.0920869" lon="12.1234514"><ele>302.3333333333333</ele><time>2026-04-27T18:05:56Z</time></trkpt><trkpt lat="46.0920503" lon="12.1235285"><ele>300.5</ele><time>2026-04-27T18:05:56.999Z</time></trkpt><trkpt lat="46.0920042" lon="12.1235981"><ele>298.66666666666663</ele><time>2026-04-27T18:05:57.999Z</time></trkpt><trkpt lat="46.0919563" lon="12.1237515"><ele>296.8333333333333</ele><time>2026-04-27T18:05:59.999Z</time></trkpt><trkpt lat="46.0919157" lon="12.1238993"><ele>295.0</ele><time>2026-04-27T18:06:01.999Z</time></trkpt><trkpt lat="46.0918546" lon="12.1240496"><ele>296.0</ele><time>2026-04-27T18:06:04Z</time></trkpt><trkpt lat="46.091789" lon="12.1241833"><ele>297.0</ele><time>2026-04-27T18:06:06Z</time></trkpt><trkpt lat="46.0917344" lon="12.1243171"><ele>298.0</ele><time>2026-04-27T18:06:07.999Z</time></trkpt><trkpt lat="46.0916686" lon="12.1244581"><ele>299.0</ele><time>2026-04-27T18:06:09.999Z</time></trkpt><trkpt lat="46.0916027" lon="12.1245963"><ele>297.25</ele><time>2026-04-27T18:06:11.999Z</time></trkpt><trkpt lat="46.0915285" lon="12.1247427"><ele>295.5</ele><time>2026-04-27T18:06:13.999Z</time></trkpt><trkpt lat="46.0914615" lon="12.1248871"><ele>293.75</ele><time>2026-04-27T18:06:15.999Z</time></trkpt><trkpt lat="46.0913955" lon="12.1250332"><ele>292.0</ele><time>2026-04-27T18:06:17.999Z</time></trkpt><trkpt lat="46.0913333" lon="12.1251817"><ele>291.75</ele><time>2026-04-27T18:06:19.999Z</time></trkpt><trkpt lat="46.091266" lon="12.1253234"><ele>291.5</ele><time>2026-04-27T18:06:21.999Z</time></trkpt><trkpt lat="46.0911996" lon="12.1254688"><ele>291.25</ele><time>2026-04-27T18:06:24Z</time></trkpt><trkpt lat="46.0911368" lon="12.125615"><ele>291.0</ele><time>2026-04-27T18:06:25.999Z</time></trkpt><trkpt lat="46.0910705" lon="12.125758"><ele>291.0</ele><time>2026-04-27T18:06:27.999Z</time></trkpt><trkpt lat="46.0910023" lon="12.1259045"><ele>291.0</ele><time>2026-04-27T18:06:29.999Z</time></trkpt><trkpt lat="46.0909354" lon="12.1260488"><ele>291.0</ele><time>2026-04-27T18:06:32Z</time></trkpt><trkpt lat="46.0908694" lon="12.1261959"><ele>291.0</ele><time>2026-04-27T18:06:33.999Z</time></trkpt><trkpt lat="46.0908025" lon="12.1263458"><ele>291.3333333333333</ele><time>2026-04-27T18:06:35.999Z</time></trkpt><trkpt lat="46.0907342" lon="12.1264939"><ele>291.6666666666667</ele><time>2026-04-27T18:06:38Z</time></trkpt><trkpt lat="46.0906969" lon="12.1265699"><ele>292.0</ele><time>2026-04-27T18:06:38.999Z</time></trkpt><trkpt lat="46.09063" lon="12.1267054"><ele>292.33333333333337</ele><time>2026-04-27T18:06:40.999Z</time></trkpt><trkpt lat="46.0905955" lon="12.126782"><ele>292.6666666666667</ele><time>2026-04-27T18:06:41.999Z</time></trkpt><trkpt lat="46.0905614" lon="12.1268587"><ele>293.0</ele><time>2026-04-27T18:06:42.999Z</time></trkpt><trkpt lat="46.0904999" lon="12.1269963"><ele>293.25</ele><time>2026-04-27T18:06:45Z</time></trkpt><trkpt lat="46.0904342" lon="12.1271392"><ele>293.5</ele><time>2026-04-27T18:06:47Z</time></trkpt><trkpt lat="46.0903655" lon="12.1272894"><ele>293.75</ele><time>2026-04-27T18:06:48.999Z</time></trkpt><trkpt lat="46.0903036" lon="12.1274326"><ele>294.0</ele><time>2026-04-27T18:06:51Z</time></trkpt><trkpt lat="46.0902392" lon="12.1275794"><ele>294.6666666666667</ele><time>2026-04-27T18:06:52.999Z</time></trkpt><trkpt lat="46.0902019" lon="12.1276605"><ele>295.3333333333333</ele><time>2026-04-27T18:06:53.999Z</time></trkpt><trkpt lat="46.0901596" lon="12.1277345"><ele>296.0</ele><time>2026-04-27T18:06:54.999Z</time></trkpt><trkpt lat="46.0900906" lon="12.1278702"><ele>296.66666666666663</ele><time>2026-04-27T18:06:56.999Z</time></trkpt><trkpt lat="46.0900148" lon="12.1280141"><ele>297.3333333333333</ele><time>2026-04-27T18:06:58.999Z</time></trkpt><trkpt lat="46.0899763" lon="12.1280872"><ele>298.0</ele><time>2026-04-27T18:06:59.999Z</time></trkpt><trkpt lat="46.0899007" lon="12.1282245"><ele>299.0</ele><time>2026-04-27T18:07:01.999Z</time></trkpt><trkpt lat="46.0898215" lon="12.1283597"><ele>300.0</ele><time>2026-04-27T18:07:03.999Z</time></trkpt><trkpt lat="46.0897755" lon="12.1284332"><ele>301.0</ele><time>2026-04-27T18:07:05Z</time></trkpt><trkpt lat="46.0897369" lon="12.1285077"><ele>302.0</ele><time>2026-04-27T18:07:05.999Z</time></trkpt><trkpt lat="46.0896608" lon="12.1286436"><ele>303.0</ele><time>2026-04-27T18:07:07.999Z</time></trkpt><trkpt lat="46.0895797" lon="12.1287612"><ele>303.0</ele><time>2026-04-27T18:07:09.999Z</time></trkpt><trkpt lat="46.0894921" lon="12.1288687"><ele>303.0</ele><time>2026-04-27T18:07:12Z</time></trkpt><trkpt lat="46.0894026" lon="12.1289797"><ele>303.0</ele><time>2026-04-27T18:07:13.999Z</time></trkpt><trkpt lat="46.0893106" lon="12.1290896"><ele>303.0</ele><time>2026-04-27T18:07:15.999Z</time></trkpt><trkpt lat="46.0892151" lon="12.1291957"><ele>303.0</ele><time>2026-04-27T18:07:17.999Z</time></trkpt><trkpt lat="46.0891151" lon="12.1292931"><ele>303.0</ele><time>2026-04-27T18:07:19.999Z</time></trkpt><trkpt lat="46.0890597" lon="12.1293394"><ele>303.0</ele><time>2026-04-27T18:07:21Z</time></trkpt><trkpt lat="46.0889518" lon="12.1294243"><ele>303.0</ele><time>2026-04-27T18:07:22.999Z</time></trkpt><trkpt lat="46.088848" lon="12.129508"><ele>303.0</ele><time>2026-04-27T18:07:24.999Z</time></trkpt><trkpt lat="46.0887409" lon="12.1296006"><ele>303.0</ele><time>2026-04-27T18:07:27Z</time></trkpt><trkpt lat="46.0886343" lon="12.129696"><ele>303.0</ele><time>2026-04-27T18:07:28.999Z</time></trkpt><trkpt lat="46.088578" lon="12.1297412"><ele>303.0</ele><time>2026-04-27T18:07:30Z</time></trkpt><trkpt lat="46.088469" lon="12.1298326"><ele>303.0</ele><time>2026-04-27T18:07:31.999Z</time></trkpt><trkpt lat="46.0883651" lon="12.1299328"><ele>303.0</ele><time>2026-04-27T18:07:33.999Z</time></trkpt><trkpt lat="46.0883144" lon="12.1299878"><ele>303.5</ele><time>2026-04-27T18:07:34.999Z</time></trkpt><trkpt lat="46.0882178" lon="12.1300807"><ele>304.0</ele><time>2026-04-27T18:07:36.999Z</time></trkpt><trkpt lat="46.0881191" lon="12.13017"><ele>304.5</ele><time>2026-04-27T18:07:38.999Z</time></trkpt><trkpt lat="46.0880139" lon="12.1302524"><ele>305.0</ele><time>2026-04-27T18:07:40.999Z</time></trkpt><trkpt lat="46.0879157" lon="12.1303299"><ele>305.0</ele><time>2026-04-27T18:07:42.999Z</time></trkpt><trkpt lat="46.0878156" lon="12.130414"><ele>305.0</ele><time>2026-04-27T18:07:45Z</time></trkpt><trkpt lat="46.0877163" lon="12.1304983"><ele>305.0</ele><time>2026-04-27T18:07:47Z</time></trkpt><trkpt lat="46.0876188" lon="12.1305832"><ele>305.0</ele><time>2026-04-27T18:07:49Z</time></trkpt><trkpt lat="46.0875205" lon="12.1306625"><ele>306.25</ele><time>2026-04-27T18:07:50.999Z</time></trkpt><trkpt lat="46.0874219" lon="12.1307433"><ele>307.5</ele><time>2026-04-27T18:07:52.999Z</time></trkpt><trkpt lat="46.0873208" lon="12.1308282"><ele>308.75</ele><time>2026-04-27T18:07:55Z</time></trkpt><trkpt lat="46.0872245" lon="12.1309055"><ele>310.0</ele><time>2026-04-27T18:07:56.999Z</time></trkpt><trkpt lat="46.0871243" lon="12.1309892"><ele>310.0</ele><time>2026-04-27T18:07:58.999Z</time></trkpt><trkpt lat="46.0870232" lon="12.1310676"><ele>310.0</ele><time>2026-04-27T18:08:01Z</time></trkpt><trkpt lat="46.0869228" lon="12.1311524"><ele>310.0</ele><time>2026-04-27T18:08:02.999Z</time></trkpt><trkpt lat="46.0868267" lon="12.1312333"><ele>310.0</ele><time>2026-04-27T18:08:04.999Z</time></trkpt><trkpt lat="46.08673" lon="12.1313147"><ele>310.0</ele><time>2026-04-27T18:08:06.999Z</time></trkpt><trkpt lat="46.0866314" lon="12.1314007"><ele>310.0</ele><time>2026-04-27T18:08:08.999Z</time></trkpt><trkpt lat="46.0865394" lon="12.131484"><ele>310.0</ele><time>2026-04-27T18:08:10.999Z</time></trkpt><trkpt lat="46.086439" lon="12.1315682"><ele>310.0</ele><time>2026-04-27T18:08:12.999Z</time></trkpt><trkpt lat="46.0863388" lon="12.1316558"><ele>310.0</ele><time>2026-04-27T18:08:14.999Z</time></trkpt><trkpt lat="46.0862471" lon="12.1317395"><ele>310.0</ele><time>2026-04-27T18:08:16.999Z</time></trkpt><trkpt lat="46.0861503" lon="12.1318212"><ele>310.0</ele><time>2026-04-27T18:08:18.999Z</time></trkpt><trkpt lat="46.0860486" lon="12.1318952"><ele>310.0</ele><time>2026-04-27T18:08:20.999Z</time></trkpt><trkpt lat="46.0859524" lon="12.131967"><ele>310.0</ele><time>2026-04-27T18:08:22.999Z</time></trkpt><trkpt lat="46.0858618" lon="12.132043"><ele>310.0</ele><time>2026-04-27T18:08:24.999Z</time></trkpt><trkpt lat="46.0857802" lon="12.1321404"><ele>310.0</ele><time>2026-04-27T18:08:26.999Z</time></trkpt><trkpt lat="46.0856913" lon="12.1322364"><ele>310.0</ele><time>2026-04-27T18:08:28.999Z</time></trkpt><trkpt lat="46.0855973" lon="12.1323298"><ele>310.0</ele><time>2026-04-27T18:08:30.999Z</time></trkpt><trkpt lat="46.0855033" lon="12.132432"><ele>310.0</ele><time>2026-04-27T18:08:32.999Z</time></trkpt><trkpt lat="46.0854081" lon="12.1325239"><ele>311.0</ele><time>2026-04-27T18:08:34.999Z</time></trkpt><trkpt lat="46.0853315" lon="12.132651"><ele>312.0</ele><time>2026-04-27T18:08:37Z</time></trkpt><trkpt lat="46.0852879" lon="12.1328075"><ele>313.0</ele><time>2026-04-27T18:08:38.999Z</time></trkpt><trkpt lat="46.0852585" lon="12.1329657"><ele>314.0</ele><time>2026-04-27T18:08:41Z</time></trkpt><trkpt lat="46.0852373" lon="12.1331248"><ele>314.2</ele><time>2026-04-27T18:08:42.999Z</time></trkpt><trkpt lat="46.0852328" lon="12.1332779"><ele>314.4</ele><time>2026-04-27T18:08:44.999Z</time></trkpt><trkpt lat="46.0852198" lon="12.1334336"><ele>314.6</ele><time>2026-04-27T18:08:46.999Z</time></trkpt><trkpt lat="46.0852105" lon="12.1335934"><ele>314.8</ele><time>2026-04-27T18:08:49Z</time></trkpt><trkpt lat="46.0851931" lon="12.1337501"><ele>315.0</ele><time>2026-04-27T18:08:50.999Z</time></trkpt><trkpt lat="46.0851731" lon="12.1339121"><ele>314.8</ele><time>2026-04-27T18:08:52.999Z</time></trkpt><trkpt lat="46.0851581" lon="12.1340721"><ele>314.6</ele><time>2026-04-27T18:08:54.999Z</time></trkpt><trkpt lat="46.0851559" lon="12.1342325"><ele>314.4</ele><time>2026-04-27T18:08:56.999Z</time></trkpt><trkpt lat="46.0851523" lon="12.1343914"><ele>314.2</ele><time>2026-04-27T18:08:58.999Z</time></trkpt><trkpt lat="46.085152" lon="12.1345494"><ele>314.0</ele><time>2026-04-27T18:09:00.999Z</time></trkpt><trkpt lat="46.0851521" lon="12.13471"><ele>314.0</ele><time>2026-04-27T18:09:03Z</time></trkpt><trkpt lat="46.0851471" lon="12.1348757"><ele>314.0</ele><time>2026-04-27T18:09:04.999Z</time></trkpt><trkpt lat="46.0851356" lon="12.1350428"><ele>314.0</ele><time>2026-04-27T18:09:07Z</time></trkpt><trkpt lat="46.0851209" lon="12.1352013"><ele>314.0</ele><time>2026-04-27T18:09:08.999Z</time></trkpt><trkpt lat="46.0851021" lon="12.1353606"><ele>314.4</ele><time>2026-04-27T18:09:10.999Z</time></trkpt><trkpt lat="46.0850782" lon="12.1355155"><ele>314.79999999999995</ele><time>2026-04-27T18:09:12.999Z</time></trkpt><trkpt lat="46.0850496" lon="12.1356697"><ele>315.20000000000005</ele><time>2026-04-27T18:09:14.999Z</time></trkpt><trkpt lat="46.0850212" lon="12.1358219"><ele>315.6</ele><time>2026-04-27T18:09:16.999Z</time></trkpt><trkpt lat="46.0849839" lon="12.1359751"><ele>316.0</ele><time>2026-04-27T18:09:19Z</time></trkpt><trkpt lat="46.0849516" lon="12.1361216"><ele>316.6</ele><time>2026-04-27T18:09:20.999Z</time></trkpt><trkpt lat="46.0849296" lon="12.1362782"><ele>317.20000000000005</ele><time>2026-04-27T18:09:23Z</time></trkpt><trkpt lat="46.0849069" lon="12.1364231"><ele>317.79999999999995</ele><time>2026-04-27T18:09:25Z</time></trkpt><trkpt lat="46.0848794" lon="12.1365751"><ele>318.4</ele><time>2026-04-27T18:09:26.999Z</time></trkpt><trkpt lat="46.0848503" lon="12.1367143"><ele>319.0</ele><time>2026-04-27T18:09:28.999Z</time></trkpt><trkpt lat="46.0848179" lon="12.136855"><ele>319.4</ele><time>2026-04-27T18:09:31Z</time></trkpt><trkpt lat="46.0847856" lon="12.1370171"><ele>319.79999999999995</ele><time>2026-04-27T18:09:32.999Z</time></trkpt><trkpt lat="46.084755" lon="12.1371572"><ele>320.20000000000005</ele><time>2026-04-27T18:09:35Z</time></trkpt><trkpt lat="46.0847332" lon="12.1373159"><ele>320.6</ele><time>2026-04-27T18:09:36.999Z</time></trkpt><trkpt lat="46.0846985" lon="12.137479"><ele>321.0</ele><time>2026-04-27T18:09:38.999Z</time></trkpt><trkpt lat="46.0846696" lon="12.1376444"><ele>321.25</ele><time>2026-04-27T18:09:40.999Z</time></trkpt><trkpt lat="46.0846429" lon="12.1377944"><ele>321.5</ele><time>2026-04-27T18:09:42.999Z</time></trkpt><trkpt lat="46.084618" lon="12.1379556"><ele>321.75</ele><time>2026-04-27T18:09:44.999Z</time></trkpt><trkpt lat="46.0845816" lon="12.1381162"><ele>322.0</ele><time>2026-04-27T18:09:46.999Z</time></trkpt><trkpt lat="46.0845497" lon="12.1382728"><ele>322.25</ele><time>2026-04-27T18:09:49Z</time></trkpt><trkpt lat="46.0845233" lon="12.1384347"><ele>322.5</ele><time>2026-04-27T18:09:50.999Z</time></trkpt><trkpt lat="46.0844952" lon="12.1386001"><ele>322.75</ele><time>2026-04-27T18:09:52.999Z</time></trkpt><trkpt lat="46.0844679" lon="12.1387626"><ele>323.0</ele><time>2026-04-27T18:09:54.999Z</time></trkpt><trkpt lat="46.0844424" lon="12.1389246"><ele>323.2</ele><time>2026-04-27T18:09:56.999Z</time></trkpt><trkpt lat="46.0844176" lon="12.1390776"><ele>323.4</ele><time>2026-04-27T18:09:58.999Z</time></trkpt><trkpt lat="46.0843875" lon="12.1392353"><ele>323.59999999999997</ele><time>2026-04-27T18:10:00.999Z</time></trkpt><trkpt lat="46.0843659" lon="12.1393925"><ele>323.79999999999995</ele><time>2026-04-27T18:10:03Z</time></trkpt><trkpt lat="46.0843512" lon="12.1395526"><ele>324.0</ele><time>2026-04-27T18:10:05Z</time></trkpt><trkpt lat="46.0843395" lon="12.1397145"><ele>324.0</ele><time>2026-04-27T18:10:06.999Z</time></trkpt><trkpt lat="46.0843337" lon="12.1398727"><ele>324.0</ele><time>2026-04-27T18:10:08.999Z</time></trkpt><trkpt lat="46.0843362" lon="12.1400284"><ele>324.0</ele><time>2026-04-27T18:10:11Z</time></trkpt><trkpt lat="46.0843299" lon="12.1401829"><ele>324.0</ele><time>2026-04-27T18:10:12.999Z</time></trkpt><trkpt lat="46.0843157" lon="12.1403447"><ele>324.0</ele><time>2026-04-27T18:10:14.999Z</time></trkpt><trkpt lat="46.0842927" lon="12.1405029"><ele>324.0</ele><time>2026-04-27T18:10:16.999Z</time></trkpt><trkpt lat="46.0842514" lon="12.1406565"><ele>324.0</ele><time>2026-04-27T18:10:18.999Z</time></trkpt><trkpt lat="46.0842072" lon="12.1408002"><ele>324.0</ele><time>2026-04-27T18:10:21Z</time></trkpt><trkpt lat="46.084158" lon="12.1409374"><ele>324.0</ele><time>2026-04-27T18:10:22.999Z</time></trkpt><trkpt lat="46.084104" lon="12.141068"><ele>324.0</ele><time>2026-04-27T18:10:25Z</time></trkpt><trkpt lat="46.0840479" lon="12.141168"><ele>324.8333333333333</ele><time>2026-04-27T18:10:26.999Z</time></trkpt><trkpt lat="46.083988" lon="12.1412594"><ele>325.6666666666667</ele><time>2026-04-27T18:10:28.999Z</time></trkpt><trkpt lat="46.083921" lon="12.1413615"><ele>326.5</ele><time>2026-04-27T18:10:31Z</time></trkpt><trkpt lat="46.0838433" lon="12.1414921"><ele>327.33333333333337</ele><time>2026-04-27T18:10:33Z</time></trkpt><trkpt lat="46.0837994" lon="12.1415662"><ele>328.1666666666667</ele><time>2026-04-27T18:10:33.999Z</time></trkpt><trkpt lat="46.0837487" lon="12.1416502"><ele>329.0</ele><time>2026-04-27T18:10:35Z</time></trkpt><trkpt lat="46.0836986" lon="12.1417294"><ele>329.1666666666667</ele><time>2026-04-27T18:10:35.999Z</time></trkpt><trkpt lat="46.0836522" lon="12.1418008"><ele>329.33333333333337</ele><time>2026-04-27T18:10:37Z</time></trkpt><trkpt lat="46.0836083" lon="12.1418733"><ele>329.5</ele><time>2026-04-27T18:10:37.999Z</time></trkpt><trkpt lat="46.0835464" lon="12.1419912"><ele>329.6666666666667</ele><time>2026-04-27T18:10:39.999Z</time></trkpt><trkpt lat="46.0834923" lon="12.1420795"><ele>329.8333333333333</ele><time>2026-04-27T18:10:41.999Z</time></trkpt><trkpt lat="46.083437" lon="12.1421612"><ele>330.0</ele><time>2026-04-27T18:10:44Z</time></trkpt><trkpt lat="46.083381" lon="12.1422485"><ele>330.00000000000006</ele><time>2026-04-27T18:10:46Z</time></trkpt><trkpt lat="46.0833329" lon="12.1423287"><ele>330.0</ele><time>2026-04-27T18:10:48Z</time></trkpt><trkpt lat="46.083286" lon="12.1424143"><ele>330.0</ele><time>2026-04-27T18:10:49.999Z</time></trkpt><trkpt lat="46.0832363" lon="12.1424986"><ele>330.0</ele><time>2026-04-27T18:10:51.999Z</time></trkpt><trkpt lat="46.0831855" lon="12.1425779"><ele>330.0</ele><time>2026-04-27T18:10:53.999Z</time></trkpt><trkpt lat="46.0831279" lon="12.1426367"><ele>330.00000000000006</ele><time>2026-04-27T18:10:56Z</time></trkpt><trkpt lat="46.0830684" lon="12.1426924"><ele>330.0</ele><time>2026-04-27T18:10:57.999Z</time></trkpt><trkpt lat="46.0830119" lon="12.1427601"><ele>330.5</ele><time>2026-04-27T18:11:00Z</time></trkpt><trkpt lat="46.0829511" lon="12.1428337"><ele>331.0</ele><time>2026-04-27T18:11:01.999Z</time></trkpt><trkpt lat="46.0828948" lon="12.1429196"><ele>331.5</ele><time>2026-04-27T18:11:03.999Z</time></trkpt><trkpt lat="46.0828476" lon="12.1430234"><ele>332.0</ele><time>2026-04-27T18:11:05.999Z</time></trkpt><trkpt lat="46.0828041" lon="12.1431339"><ele>332.5</ele><time>2026-04-27T18:11:07.999Z</time></trkpt><trkpt lat="46.0827597" lon="12.1432379"><ele>333.0</ele><time>2026-04-27T18:11:09.999Z</time></trkpt><trkpt lat="46.0827205" lon="12.1433528"><ele>333.0</ele><time>2026-04-27T18:11:11.999Z</time></trkpt><trkpt lat="46.0826877" lon="12.1434644"><ele>333.0</ele><time>2026-04-27T18:11:13.999Z</time></trkpt><trkpt lat="46.0826481" lon="12.1435736"><ele>333.0</ele><time>2026-04-27T18:11:15.999Z</time></trkpt><trkpt lat="46.0826045" lon="12.1436817"><ele>333.0</ele><time>2026-04-27T18:11:17.999Z</time></trkpt><trkpt lat="46.0825486" lon="12.1437694"><ele>333.0</ele><time>2026-04-27T18:11:20Z</time></trkpt><trkpt lat="46.0824865" lon="12.1438401"><ele>333.0</ele><time>2026-04-27T18:11:21.999Z</time></trkpt><trkpt lat="46.0824254" lon="12.1439251"><ele>333.0</ele><time>2026-04-27T18:11:23.999Z</time></trkpt><trkpt lat="46.0823601" lon="12.1440118"><ele>333.0</ele><time>2026-04-27T18:11:26Z</time></trkpt><trkpt lat="46.0822923" lon="12.1441012"><ele>333.0</ele><time>2026-04-27T18:11:28Z</time></trkpt><trkpt lat="46.0822506" lon="12.1442178"><ele>333.0</ele><time>2026-04-27T18:11:30Z</time></trkpt><trkpt lat="46.0822698" lon="12.1443531"><ele>333.0</ele><time>2026-04-27T18:11:31.999Z</time></trkpt><trkpt lat="46.0823017" lon="12.1444896"><ele>333.2</ele><time>2026-04-27T18:11:33.999Z</time></trkpt><trkpt lat="46.0823387" lon="12.1446293"><ele>333.4</ele><time>2026-04-27T18:11:36Z</time></trkpt><trkpt lat="46.0823741" lon="12.1447635"><ele>333.59999999999997</ele><time>2026-04-27T18:11:37.999Z</time></trkpt><trkpt lat="46.0824103" lon="12.14488"><ele>333.79999999999995</ele><time>2026-04-27T18:11:39.999Z</time></trkpt><trkpt lat="46.0824501" lon="12.1449885"><ele>334.0</ele><time>2026-04-27T18:11:41.999Z</time></trkpt><trkpt lat="46.0824845" lon="12.1451069"><ele>334.0</ele><time>2026-04-27T18:11:43.999Z</time></trkpt><trkpt lat="46.08252" lon="12.1452337"><ele>334.0</ele><time>2026-04-27T18:11:45.999Z</time></trkpt><trkpt lat="46.082555" lon="12.1453646"><ele>334.0</ele><time>2026-04-27T18:11:48Z</time></trkpt><trkpt lat="46.0825894" lon="12.1454884"><ele>334.0</ele><time>2026-04-27T18:11:50Z</time></trkpt><trkpt lat="46.0826211" lon="12.1456028"><ele>334.0</ele><time>2026-04-27T18:11:51.999Z</time></trkpt><trkpt lat="46.0826282" lon="12.1457247"><ele>334.4</ele><time>2026-04-27T18:11:53.999Z</time></trkpt><trkpt lat="46.0825917" lon="12.1458576"><ele>334.79999999999995</ele><time>2026-04-27T18:11:55.999Z</time></trkpt><trkpt lat="46.082535" lon="12.145971"><ele>335.20000000000005</ele><time>2026-04-27T18:11:58Z</time></trkpt><trkpt lat="46.082466" lon="12.146088"><ele>335.6</ele><time>2026-04-27T18:12:00Z</time></trkpt><trkpt lat="46.0823933" lon="12.1461886"><ele>336.0</ele><time>2026-04-27T18:12:01.999Z</time></trkpt><trkpt lat="46.0823278" lon="12.1462972"><ele>336.0</ele><time>2026-04-27T18:12:03.999Z</time></trkpt><trkpt lat="46.082262" lon="12.1463972"><ele>336.0</ele><time>2026-04-27T18:12:05.999Z</time></trkpt><trkpt lat="46.0821936" lon="12.1464986"><ele>336.0</ele><time>2026-04-27T18:12:07.999Z</time></trkpt><trkpt lat="46.0821192" lon="12.1465963"><ele>336.0</ele><time>2026-04-27T18:12:09.999Z</time></trkpt><trkpt lat="46.0820452" lon="12.1467001"><ele>336.0</ele><time>2026-04-27T18:12:11.999Z</time></trkpt><trkpt lat="46.0819701" lon="12.1467988"><ele>336.0</ele><time>2026-04-27T18:12:14Z</time></trkpt><trkpt lat="46.0819003" lon="12.146895"><ele>336.0</ele><time>2026-04-27T18:12:16Z</time></trkpt><trkpt lat="46.0818254" lon="12.1470012"><ele>336.0</ele><time>2026-04-27T18:12:18Z</time></trkpt><trkpt lat="46.0817624" lon="12.1471002"><ele>336.0</ele><time>2026-04-27T18:12:19.999Z</time></trkpt><trkpt lat="46.0816962" lon="12.1472012"><ele>336.0</ele><time>2026-04-27T18:12:22Z</time></trkpt><trkpt lat="46.0816258" lon="12.1472823"><ele>336.1666666666667</ele><time>2026-04-27T18:12:23.999Z</time></trkpt><trkpt lat="46.0815594" lon="12.1473729"><ele>336.3333333333333</ele><time>2026-04-27T18:12:25.999Z</time></trkpt><trkpt lat="46.0814777" lon="12.1474408"><ele>336.5</ele><time>2026-04-27T18:12:28Z</time></trkpt><trkpt lat="46.0813909" lon="12.1474797"><ele>336.66666666666663</ele><time>2026-04-27T18:12:29.999Z</time></trkpt><trkpt lat="46.0813051" lon="12.1475085"><ele>336.8333333333333</ele><time>2026-04-27T18:12:31.999Z</time></trkpt><trkpt lat="46.0812308" lon="12.1475607"><ele>337.0</ele><time>2026-04-27T18:12:33.999Z</time></trkpt><trkpt lat="46.081203" lon="12.1476828"><ele>337.6</ele><time>2026-04-27T18:12:35.999Z</time></trkpt><trkpt lat="46.0812598" lon="12.147796"><ele>338.20000000000005</ele><time>2026-04-27T18:12:37.999Z</time></trkpt><trkpt lat="46.0813313" lon="12.1478959"><ele>338.8</ele><time>2026-04-27T18:12:39.999Z</time></trkpt><trkpt lat="46.0813881" lon="12.1480305"><ele>339.4</ele><time>2026-04-27T18:12:41.999Z</time></trkpt><trkpt lat="46.0814437" lon="12.1481688"><ele>340.0</ele><time>2026-04-27T18:12:43.999Z</time></trkpt><trkpt lat="46.0814974" lon="12.1483062"><ele>340.0</ele><time>2026-04-27T18:12:45.999Z</time></trkpt><trkpt lat="46.0815511" lon="12.1484544"><ele>340.0</ele><time>2026-04-27T18:12:47.999Z</time></trkpt><trkpt lat="46.0816138" lon="12.1486064"><ele>340.0</ele><time>2026-04-27T18:12:50Z</time></trkpt><trkpt lat="46.0816762" lon="12.1487563"><ele>340.0</ele><time>2026-04-27T18:12:51.999Z</time></trkpt><trkpt lat="46.0817409" lon="12.1489088"><ele>340.2</ele><time>2026-04-27T18:12:54Z</time></trkpt><trkpt lat="46.0818019" lon="12.1490646"><ele>340.4</ele><time>2026-04-27T18:12:56Z</time></trkpt><trkpt lat="46.0818359" lon="12.1491425"><ele>340.6</ele><time>2026-04-27T18:12:56.999Z</time></trkpt><trkpt lat="46.0818974" lon="12.1492987"><ele>340.8</ele><time>2026-04-27T18:12:59Z</time></trkpt><trkpt lat="46.0819287" lon="12.1493807"><ele>341.0</ele><time>2026-04-27T18:12:59.999Z</time></trkpt><trkpt lat="46.0819935" lon="12.1495352"><ele>341.0</ele><time>2026-04-27T18:13:02Z</time></trkpt><trkpt lat="46.0820267" lon="12.149614"><ele>341.0</ele><time>2026-04-27T18:13:03Z</time></trkpt><trkpt lat="46.0820599" lon="12.1496926"><ele>341.0</ele><time>2026-04-27T18:13:03.999Z</time></trkpt><trkpt lat="46.0821193" lon="12.1498536"><ele>341.0</ele><time>2026-04-27T18:13:05.999Z</time></trkpt><trkpt lat="46.0821825" lon="12.1500087"><ele>341.0</ele><time>2026-04-27T18:13:07.999Z</time></trkpt><trkpt lat="46.0822126" lon="12.1500894"><ele>341.0</ele><time>2026-04-27T18:13:09Z</time></trkpt><trkpt lat="46.0822767" lon="12.1502426"><ele>341.0</ele><time>2026-04-27T18:13:10.999Z</time></trkpt><trkpt lat="46.0823083" lon="12.1503225"><ele>341.0</ele><time>2026-04-27T18:13:11.999Z</time></trkpt><trkpt lat="46.0823418" lon="12.1504021"><ele>341.0</ele><time>2026-04-27T18:13:12.999Z</time></trkpt><trkpt lat="46.082411" lon="12.1505521"><ele>341.0</ele><time>2026-04-27T18:13:14.999Z</time></trkpt><trkpt lat="46.0824874" lon="12.1506962"><ele>341.0</ele><time>2026-04-27T18:13:17Z</time></trkpt><trkpt lat="46.0825636" lon="12.1508344"><ele>340.20000000000005</ele><time>2026-04-27T18:13:18.999Z</time></trkpt><trkpt lat="46.082648" lon="12.1509615"><ele>339.40000000000003</ele><time>2026-04-27T18:13:20.999Z</time></trkpt><trkpt lat="46.082696" lon="12.1510222"><ele>338.6</ele><time>2026-04-27T18:13:21.999Z</time></trkpt><trkpt lat="46.0827863" lon="12.1511419"><ele>337.8</ele><time>2026-04-27T18:13:23.999Z</time></trkpt><trkpt lat="46.0828385" lon="12.1511952"><ele>337.0</ele><time>2026-04-27T18:13:24.999Z</time></trkpt><trkpt lat="46.0829369" lon="12.1513091"><ele>337.0</ele><time>2026-04-27T18:13:27Z</time></trkpt><trkpt lat="46.0829873" lon="12.1513661"><ele>337.0</ele><time>2026-04-27T18:13:27.999Z</time></trkpt><trkpt lat="46.0830853" lon="12.1514797"><ele>337.0</ele><time>2026-04-27T18:13:29.999Z</time></trkpt><trkpt lat="46.0831347" lon="12.1515392"><ele>337.0</ele><time>2026-04-27T18:13:31Z</time></trkpt><trkpt lat="46.0832263" lon="12.1516523"><ele>337.0</ele><time>2026-04-27T18:13:32.999Z</time></trkpt><trkpt lat="46.0833182" lon="12.151772"><ele>335.25</ele><time>2026-04-27T18:13:35Z</time></trkpt><trkpt lat="46.0834132" lon="12.1518891"><ele>333.5</ele><time>2026-04-27T18:13:36.999Z</time></trkpt><trkpt lat="46.0835035" lon="12.152005"><ele>331.75</ele><time>2026-04-27T18:13:38.999Z</time></trkpt><trkpt lat="46.0835957" lon="12.15212"><ele>330.0</ele><time>2026-04-27T18:13:40.999Z</time></trkpt><trkpt lat="46.0836891" lon="12.1522295"><ele>330.0</ele><time>2026-04-27T18:13:42.999Z</time></trkpt><trkpt lat="46.0837802" lon="12.1523442"><ele>330.0</ele><time>2026-04-27T18:13:44.999Z</time></trkpt><trkpt lat="46.0838735" lon="12.1524584"><ele>330.0</ele><time>2026-04-27T18:13:46.999Z</time></trkpt><trkpt lat="46.0839222" lon="12.1525171"><ele>330.0</ele><time>2026-04-27T18:13:47.999Z</time></trkpt><trkpt lat="46.0840183" lon="12.1526305"><ele>330.0</ele><time>2026-04-27T18:13:49.999Z</time></trkpt><trkpt lat="46.0840676" lon="12.1526873"><ele>330.2</ele><time>2026-04-27T18:13:50.999Z</time></trkpt><trkpt lat="46.0841609" lon="12.1528034"><ele>330.4</ele><time>2026-04-27T18:13:53Z</time></trkpt><trkpt lat="46.0842592" lon="12.1529162"><ele>330.6</ele><time>2026-04-27T18:13:54.999Z</time></trkpt><trkpt lat="46.0843515" lon="12.1530342"><ele>330.8</ele><time>2026-04-27T18:13:56.999Z</time></trkpt><trkpt lat="46.0843964" lon="12.1530979"><ele>331.0</ele><time>2026-04-27T18:13:57.999Z</time></trkpt><trkpt lat="46.08444" lon="12.1531635"><ele>331.75</ele><time>2026-04-27T18:13:58.999Z</time></trkpt><trkpt lat="46.0845131" lon="12.1532917"><ele>332.5</ele><time>2026-04-27T18:14:00.999Z</time></trkpt><trkpt lat="46.0845823" lon="12.1534293"><ele>333.25</ele><time>2026-04-27T18:14:02.999Z</time></trkpt><trkpt lat="46.0846474" lon="12.153573"><ele>334.0</ele><time>2026-04-27T18:14:05Z</time></trkpt><trkpt lat="46.0847108" lon="12.1537122"><ele>334.0</ele><time>2026-04-27T18:14:06.999Z</time></trkpt><trkpt lat="46.084777" lon="12.1538537"><ele>334.0</ele><time>2026-04-27T18:14:09Z</time></trkpt><trkpt lat="46.0848409" lon="12.1539941"><ele>334.0</ele><time>2026-04-27T18:14:10.999Z</time></trkpt><trkpt lat="46.0849061" lon="12.1541315"><ele>334.0</ele><time>2026-04-27T18:14:13Z</time></trkpt><trkpt lat="46.0849745" lon="12.154267"><ele>335.5</ele><time>2026-04-27T18:14:15Z</time></trkpt><trkpt lat="46.0850418" lon="12.1544051"><ele>337.0</ele><time>2026-04-27T18:14:16.999Z</time></trkpt><trkpt lat="46.0851087" lon="12.1545481"><ele>338.5</ele><time>2026-04-27T18:14:18.999Z</time></trkpt><trkpt lat="46.0851738" lon="12.1547001"><ele>340.0</ele><time>2026-04-27T18:14:20.999Z</time></trkpt><trkpt lat="46.0852432" lon="12.1548467"><ele>340.5</ele><time>2026-04-27T18:14:23Z</time></trkpt><trkpt lat="46.085311" lon="12.1549926"><ele>341.0</ele><time>2026-04-27T18:14:25Z</time></trkpt><trkpt lat="46.085376" lon="12.1551509"><ele>341.5</ele><time>2026-04-27T18:14:27Z</time></trkpt><trkpt lat="46.0854095" lon="12.1552295"><ele>342.0</ele><time>2026-04-27T18:14:27.999Z</time></trkpt><trkpt lat="46.0854429" lon="12.1553122"><ele>342.5</ele><time>2026-04-27T18:14:28.999Z</time></trkpt><trkpt lat="46.0854811" lon="12.1553905"><ele>343.0</ele><time>2026-04-27T18:14:30Z</time></trkpt><trkpt lat="46.085519" lon="12.1554707"><ele>343.0</ele><time>2026-04-27T18:14:30.999Z</time></trkpt><trkpt lat="46.0855553" lon="12.1555531"><ele>343.0</ele><time>2026-04-27T18:14:31.999Z</time></trkpt><trkpt lat="46.085593" lon="12.1556302"><ele>343.0</ele><time>2026-04-27T18:14:32.999Z</time></trkpt><trkpt lat="46.0856308" lon="12.1557141"><ele>343.0</ele><time>2026-04-27T18:14:33.999Z</time></trkpt><trkpt lat="46.0856699" lon="12.1557991"><ele>343.0</ele><time>2026-04-27T18:14:34.999Z</time></trkpt><trkpt lat="46.0857066" lon="12.1558795"><ele>343.0</ele><time>2026-04-27T18:14:35.999Z</time></trkpt><trkpt lat="46.0857425" lon="12.1559624"><ele>343.0</ele><time>2026-04-27T18:14:36.999Z</time></trkpt><trkpt lat="46.0857792" lon="12.1560452"><ele>342.85714285714283</ele><time>2026-04-27T18:14:38Z</time></trkpt><trkpt lat="46.0858165" lon="12.1561334"><ele>342.7142857142857</ele><time>2026-04-27T18:14:39Z</time></trkpt><trkpt lat="46.0858529" lon="12.1562163"><ele>342.57142857142856</ele><time>2026-04-27T18:14:40Z</time></trkpt><trkpt lat="46.0858904" lon="12.1562979"><ele>342.42857142857144</ele><time>2026-04-27T18:14:40.999Z</time></trkpt><trkpt lat="46.0859302" lon="12.1563731"><ele>342.2857142857143</ele><time>2026-04-27T18:14:41.999Z</time></trkpt><trkpt lat="46.0859674" lon="12.1564519"><ele>342.1428571428571</ele><time>2026-04-27T18:14:42.999Z</time></trkpt><trkpt lat="46.0860029" lon="12.1565304"><ele>342.0</ele><time>2026-04-27T18:14:43.999Z</time></trkpt><trkpt lat="46.0860691" lon="12.1566844"><ele>341.8</ele><time>2026-04-27T18:14:46Z</time></trkpt><trkpt lat="46.0861411" lon="12.1568321"><ele>341.6</ele><time>2026-04-27T18:14:47.999Z</time></trkpt><trkpt lat="46.0862027" lon="12.1569814"><ele>341.40000000000003</ele><time>2026-04-27T18:14:50Z</time></trkpt><trkpt lat="46.0862695" lon="12.1571264"><ele>341.20000000000005</ele><time>2026-04-27T18:14:51.999Z</time></trkpt><trkpt lat="46.0863024" lon="12.1572057"><ele>341.0</ele><time>2026-04-27T18:14:52.999Z</time></trkpt><trkpt lat="46.0863741" lon="12.1573553"><ele>340.7142857142857</ele><time>2026-04-27T18:14:54.999Z</time></trkpt><trkpt lat="46.0864106" lon="12.1574304"><ele>340.42857142857144</ele><time>2026-04-27T18:14:56Z</time></trkpt><trkpt lat="46.0864462" lon="12.157508"><ele>340.1428571428571</ele><time>2026-04-27T18:14:56.999Z</time></trkpt><trkpt lat="46.0864841" lon="12.1575905"><ele>339.8571428571429</ele><time>2026-04-27T18:14:57.999Z</time></trkpt><trkpt lat="46.0865213" lon="12.1576711"><ele>339.5714285714286</ele><time>2026-04-27T18:14:58.999Z</time></trkpt><trkpt lat="46.0865574" lon="12.1577515"><ele>339.2857142857143</ele><time>2026-04-27T18:15:00Z</time></trkpt><trkpt lat="46.0865967" lon="12.1578239"><ele>339.0</ele><time>2026-04-27T18:15:00.999Z</time></trkpt><trkpt lat="46.0866596" lon="12.1579736"><ele>338.79999999999995</ele><time>2026-04-27T18:15:02.999Z</time></trkpt><trkpt lat="46.0867157" lon="12.1581289"><ele>338.59999999999997</ele><time>2026-04-27T18:15:04.999Z</time></trkpt><trkpt lat="46.0867643" lon="12.1582928"><ele>338.4</ele><time>2026-04-27T18:15:06.999Z</time></trkpt><trkpt lat="46.0868096" lon="12.1584555"><ele>338.2</ele><time>2026-04-27T18:15:08.999Z</time></trkpt><trkpt lat="46.0868318" lon="12.1585427"><ele>338.0</ele><time>2026-04-27T18:15:09.999Z</time></trkpt><trkpt lat="46.0868545" lon="12.1586311"><ele>338.0</ele><time>2026-04-27T18:15:10.999Z</time></trkpt><trkpt lat="46.0868786" lon="12.1587182"><ele>338.0</ele><time>2026-04-27T18:15:11.999Z</time></trkpt><trkpt lat="46.0869046" lon="12.1588011"><ele>338.0</ele><time>2026-04-27T18:15:13Z</time></trkpt><trkpt lat="46.0869276" lon="12.1588872"><ele>338.0</ele><time>2026-04-27T18:15:13.999Z</time></trkpt><trkpt lat="46.086972" lon="12.1590591"><ele>338.0</ele><time>2026-04-27T18:15:16Z</time></trkpt><trkpt lat="46.0869963" lon="12.159146"><ele>338.0</ele><time>2026-04-27T18:15:17Z</time></trkpt><trkpt lat="46.0870236" lon="12.1592374"><ele>337.8571428571429</ele><time>2026-04-27T18:15:17.999Z</time></trkpt><trkpt lat="46.087052" lon="12.1593217"><ele>337.7142857142857</ele><time>2026-04-27T18:15:19Z</time></trkpt><trkpt lat="46.087083" lon="12.1594073"><ele>337.57142857142856</ele><time>2026-04-27T18:15:20Z</time></trkpt><trkpt lat="46.0871151" lon="12.1594884"><ele>337.42857142857144</ele><time>2026-04-27T18:15:20.999Z</time></trkpt><trkpt lat="46.0871534" lon="12.1595695"><ele>337.2857142857143</ele><time>2026-04-27T18:15:21.999Z</time></trkpt><trkpt lat="46.08719" lon="12.1596477"><ele>337.14285714285717</ele><time>2026-04-27T18:15:22.999Z</time></trkpt><trkpt lat="46.0872273" lon="12.1597235"><ele>337.0</ele><time>2026-04-27T18:15:23.999Z</time></trkpt><trkpt lat="46.0872729" lon="12.1597915"><ele>337.0</ele><time>2026-04-27T18:15:24.999Z</time></trkpt><trkpt lat="46.0873162" lon="12.1598617"><ele>337.0</ele><time>2026-04-27T18:15:25.999Z</time></trkpt><trkpt lat="46.0873632" lon="12.1599263"><ele>337.0</ele><time>2026-04-27T18:15:26.999Z</time></trkpt><trkpt lat="46.0874128" lon="12.1599871"><ele>337.0</ele><time>2026-04-27T18:15:27.999Z</time></trkpt><trkpt lat="46.0875102" lon="12.1600886"><ele>337.0</ele><time>2026-04-27T18:15:29.999Z</time></trkpt><trkpt lat="46.0876153" lon="12.1601755"><ele>337.0</ele><time>2026-04-27T18:15:31.999Z</time></trkpt><trkpt lat="46.087673" lon="12.1602184"><ele>335.75</ele><time>2026-04-27T18:15:33Z</time></trkpt><trkpt lat="46.0877785" lon="12.1602893"><ele>334.5</ele><time>2026-04-27T18:15:34.999Z</time></trkpt><trkpt lat="46.0878957" lon="12.1603391"><ele>333.25</ele><time>2026-04-27T18:15:36.999Z</time></trkpt><trkpt lat="46.0880124" lon="12.1603685"><ele>332.0</ele><time>2026-04-27T18:15:38.999Z</time></trkpt><trkpt lat="46.0881287" lon="12.1603946"><ele>332.0</ele><time>2026-04-27T18:15:40.999Z</time></trkpt><trkpt lat="46.088244" lon="12.1604267"><ele>332.0</ele><time>2026-04-27T18:15:42.999Z</time></trkpt><trkpt lat="46.0883583" lon="12.1604575"><ele>332.0</ele><time>2026-04-27T18:15:44.999Z</time></trkpt><trkpt lat="46.0884648" lon="12.1604869"><ele>332.0</ele><time>2026-04-27T18:15:46.999Z</time></trkpt><trkpt lat="46.0885741" lon="12.1605143"><ele>332.20000000000005</ele><time>2026-04-27T18:15:48.999Z</time></trkpt><trkpt lat="46.088684" lon="12.1605492"><ele>332.4</ele><time>2026-04-27T18:15:50.999Z</time></trkpt><trkpt lat="46.0887922" lon="12.1605942"><ele>332.6</ele><time>2026-04-27T18:15:52.999Z</time></trkpt><trkpt lat="46.0888872" lon="12.1606569"><ele>332.79999999999995</ele><time>2026-04-27T18:15:55Z</time></trkpt><trkpt lat="46.0889821" lon="12.160738"><ele>333.0</ele><time>2026-04-27T18:15:57Z</time></trkpt><trkpt lat="46.0890653" lon="12.1608358"><ele>334.2</ele><time>2026-04-27T18:15:58.999Z</time></trkpt><trkpt lat="46.0891437" lon="12.1609503"><ele>335.4</ele><time>2026-04-27T18:16:01Z</time></trkpt><trkpt lat="46.0892045" lon="12.1610741"><ele>336.59999999999997</ele><time>2026-04-27T18:16:02.999Z</time></trkpt><trkpt lat="46.0892501" lon="12.1612139"><ele>337.79999999999995</ele><time>2026-04-27T18:16:05Z</time></trkpt><trkpt lat="46.0892864" lon="12.1613592"><ele>339.0</ele><time>2026-04-27T18:16:07Z</time></trkpt><trkpt lat="46.0893104" lon="12.1615118"><ele>338.6</ele><time>2026-04-27T18:16:09Z</time></trkpt><trkpt lat="46.0893271" lon="12.1616484"><ele>338.2</ele><time>2026-04-27T18:16:10.999Z</time></trkpt><trkpt lat="46.0893458" lon="12.1617915"><ele>337.8</ele><time>2026-04-27T18:16:12.999Z</time></trkpt><trkpt lat="46.0893595" lon="12.1619347"><ele>337.40000000000003</ele><time>2026-04-27T18:16:14.999Z</time></trkpt><trkpt lat="46.0893762" lon="12.1620838"><ele>337.0</ele><time>2026-04-27T18:16:16.999Z</time></trkpt><trkpt lat="46.0893992" lon="12.1622315"><ele>336.8</ele><time>2026-04-27T18:16:18.999Z</time></trkpt><trkpt lat="46.0894204" lon="12.1623798"><ele>336.6</ele><time>2026-04-27T18:16:20.999Z</time></trkpt><trkpt lat="46.0894938" lon="12.1624846"><ele>336.40000000000003</ele><time>2026-04-27T18:16:23Z</time></trkpt><trkpt lat="46.0896092" lon="12.16253"><ele>336.20000000000005</ele><time>2026-04-27T18:16:24.999Z</time></trkpt><trkpt lat="46.0896753" lon="12.1625279"><ele>336.0</ele><time>2026-04-27T18:16:25.999Z</time></trkpt><trkpt lat="46.0897401" lon="12.1625204"><ele>336.0</ele><time>2026-04-27T18:16:26.999Z</time></trkpt><trkpt lat="46.0898654" lon="12.1625196"><ele>336.0</ele><time>2026-04-27T18:16:28.999Z</time></trkpt><trkpt lat="46.0899772" lon="12.1625203"><ele>336.0</ele><time>2026-04-27T18:16:30.999Z</time></trkpt><trkpt lat="46.0900501" lon="12.1625367"><ele>336.0</ele><time>2026-04-27T18:16:32Z</time></trkpt><trkpt lat="46.090167" lon="12.1625675"><ele>336.0</ele><time>2026-04-27T18:16:33.999Z</time></trkpt><trkpt lat="46.0902689" lon="12.1626607"><ele>336.8</ele><time>2026-04-27T18:16:36Z</time></trkpt><trkpt lat="46.0903489" lon="12.1627719"><ele>337.6</ele><time>2026-04-27T18:16:38Z</time></trkpt><trkpt lat="46.0903957" lon="12.1629105"><ele>338.4</ele><time>2026-04-27T18:16:39.999Z</time></trkpt><trkpt lat="46.090441" lon="12.1630538"><ele>339.2</ele><time>2026-04-27T18:16:41.999Z</time></trkpt><trkpt lat="46.0904814" lon="12.1631943"><ele>340.0</ele><time>2026-04-27T18:16:43.999Z</time></trkpt><trkpt lat="46.0905134" lon="12.1633249"><ele>340.0</ele><time>2026-04-27T18:16:45.999Z</time></trkpt><trkpt lat="46.0905508" lon="12.1634568"><ele>340.0</ele><time>2026-04-27T18:16:47.999Z</time></trkpt><trkpt lat="46.0905855" lon="12.1635884"><ele>340.0</ele><time>2026-04-27T18:16:50Z</time></trkpt><trkpt lat="46.0906231" lon="12.1637194"><ele>340.0</ele><time>2026-04-27T18:16:52Z</time></trkpt><trkpt lat="46.0906628" lon="12.1638498"><ele>340.0</ele><time>2026-04-27T18:16:53.999Z</time></trkpt><trkpt lat="46.0907017" lon="12.1639746"><ele>339.8333333333333</ele><time>2026-04-27T18:16:55.999Z</time></trkpt><trkpt lat="46.0907435" lon="12.1640838"><ele>339.66666666666663</ele><time>2026-04-27T18:16:57.999Z</time></trkpt><trkpt lat="46.0907899" lon="12.1641833"><ele>339.5</ele><time>2026-04-27T18:16:59.999Z</time></trkpt><trkpt lat="46.0908437" lon="12.1642777"><ele>339.3333333333333</ele><time>2026-04-27T18:17:01.999Z</time></trkpt><trkpt lat="46.0909038" lon="12.1643632"><ele>339.1666666666667</ele><time>2026-04-27T18:17:04Z</time></trkpt><trkpt lat="46.0909656" lon="12.1644465"><ele>339.0</ele><time>2026-04-27T18:17:05.999Z</time></trkpt><trkpt lat="46.0910225" lon="12.1645353"><ele>340.0</ele><time>2026-04-27T18:17:07.999Z</time></trkpt><trkpt lat="46.0910685" lon="12.1646244"><ele>341.0</ele><time>2026-04-27T18:17:09.999Z</time></trkpt><trkpt lat="46.0911122" lon="12.1646946"><ele>342.0</ele><time>2026-04-27T18:17:12Z</time></trkpt><trkpt lat="46.0911997" lon="12.1646994"><ele>343.0</ele><time>2026-04-27T18:17:15Z</time></trkpt><trkpt lat="46.0912562" lon="12.164648"><ele>344.0</ele><time>2026-04-27T18:17:16.999Z</time></trkpt><trkpt lat="46.0912999" lon="12.1645637"><ele>345.0</ele><time>2026-04-27T18:17:19Z</time></trkpt><trkpt lat="46.0913483" lon="12.1644748"><ele>346.0</ele><time>2026-04-27T18:17:20.999Z</time></trkpt><trkpt lat="46.0914182" lon="12.164381"><ele>346.0</ele><time>2026-04-27T18:17:22.999Z</time></trkpt><trkpt lat="46.0915078" lon="12.1643112"><ele>346.0</ele><time>2026-04-27T18:17:24.999Z</time></trkpt><trkpt lat="46.0916053" lon="12.1642429"><ele>346.0</ele><time>2026-04-27T18:17:26.999Z</time></trkpt><trkpt lat="46.0917001" lon="12.1641748"><ele>346.0</ele><time>2026-04-27T18:17:28.999Z</time></trkpt><trkpt lat="46.0917945" lon="12.1641048"><ele>346.0</ele><time>2026-04-27T18:17:31Z</time></trkpt><trkpt lat="46.0918877" lon="12.1640399"><ele>346.20000000000005</ele><time>2026-04-27T18:17:32.999Z</time></trkpt><trkpt lat="46.0919801" lon="12.1639724"><ele>346.40000000000003</ele><time>2026-04-27T18:17:34.999Z</time></trkpt><trkpt lat="46.0920763" lon="12.1639017"><ele>346.6</ele><time>2026-04-27T18:17:36.999Z</time></trkpt><trkpt lat="46.0921723" lon="12.1638449"><ele>346.8</ele><time>2026-04-27T18:17:38.999Z</time></trkpt><trkpt lat="46.0922777" lon="12.1637915"><ele>347.0</ele><time>2026-04-27T18:17:40.999Z</time></trkpt><trkpt lat="46.0923835" lon="12.1637347"><ele>346.0</ele><time>2026-04-27T18:17:42.999Z</time></trkpt><trkpt lat="46.092495" lon="12.1636771"><ele>345.0</ele><time>2026-04-27T18:17:44.999Z</time></trkpt><trkpt lat="46.0926064" lon="12.1636157"><ele>344.0</ele><time>2026-04-27T18:17:46.999Z</time></trkpt><trkpt lat="46.0927189" lon="12.1635546"><ele>343.0</ele><time>2026-04-27T18:17:48.999Z</time></trkpt><trkpt lat="46.0928283" lon="12.1634944"><ele>343.0</ele><time>2026-04-27T18:17:51Z</time></trkpt><trkpt lat="46.0929378" lon="12.1634343"><ele>343.0</ele><time>2026-04-27T18:17:52.999Z</time></trkpt><trkpt lat="46.093042" lon="12.1633673"><ele>343.0</ele><time>2026-04-27T18:17:54.999Z</time></trkpt><trkpt lat="46.0931415" lon="12.163312"><ele>343.0</ele><time>2026-04-27T18:17:56.999Z</time></trkpt><trkpt lat="46.0932357" lon="12.1632602"><ele>343.0</ele><time>2026-04-27T18:17:58.999Z</time></trkpt><trkpt lat="46.093326" lon="12.1632092"><ele>342.59999999999997</ele><time>2026-04-27T18:18:00.999Z</time></trkpt><trkpt lat="46.0934213" lon="12.1631581"><ele>342.2</ele><time>2026-04-27T18:18:02.999Z</time></trkpt><trkpt lat="46.0935178" lon="12.1631463"><ele>341.8</ele><time>2026-04-27T18:18:04.999Z</time></trkpt><trkpt lat="46.0936122" lon="12.1631832"><ele>341.4</ele><time>2026-04-27T18:18:06.999Z</time></trkpt><trkpt lat="46.0936816" lon="12.1632376"><ele>341.0</ele><time>2026-04-27T18:18:09Z</time></trkpt><trkpt lat="46.0937547" lon="12.163292"><ele>341.0</ele><time>2026-04-27T18:18:11Z</time></trkpt><trkpt lat="46.093814" lon="12.1633769"><ele>341.0</ele><time>2026-04-27T18:18:13Z</time></trkpt><trkpt lat="46.0938605" lon="12.1634853"><ele>341.0</ele><time>2026-04-27T18:18:14.999Z</time></trkpt><trkpt lat="46.0939021" lon="12.1635978"><ele>341.0</ele><time>2026-04-27T18:18:17Z</time></trkpt><trkpt lat="46.0939329" lon="12.1637207"><ele>341.0</ele><time>2026-04-27T18:18:18.999Z</time></trkpt><trkpt lat="46.0939732" lon="12.1638394"><ele>341.0</ele><time>2026-04-27T18:18:21Z</time></trkpt><trkpt lat="46.0940131" lon="12.1639587"><ele>341.5</ele><time>2026-04-27T18:18:22.999Z</time></trkpt><trkpt lat="46.0940585" lon="12.1640783"><ele>342.0</ele><time>2026-04-27T18:18:24.999Z</time></trkpt><trkpt lat="46.094094" lon="12.1641922"><ele>342.5</ele><time>2026-04-27T18:18:26.999Z</time></trkpt><trkpt lat="46.0941383" lon="12.164303"><ele>343.0</ele><time>2026-04-27T18:18:28.999Z</time></trkpt><trkpt lat="46.0941817" lon="12.1644181"><ele>343.5</ele><time>2026-04-27T18:18:30.999Z</time></trkpt><trkpt lat="46.0942206" lon="12.1645286"><ele>344.0</ele><time>2026-04-27T18:18:32.999Z</time></trkpt><trkpt lat="46.0942635" lon="12.1646386"><ele>344.6666666666667</ele><time>2026-04-27T18:18:34.999Z</time></trkpt><trkpt lat="46.0943049" lon="12.1647511"><ele>345.33333333333337</ele><time>2026-04-27T18:18:36.999Z</time></trkpt><trkpt lat="46.0943479" lon="12.1648638"><ele>346.0</ele><time>2026-04-27T18:18:39Z</time></trkpt><trkpt lat="46.0943889" lon="12.1649759"><ele>346.6666666666667</ele><time>2026-04-27T18:18:41Z</time></trkpt><trkpt lat="46.0944319" lon="12.1650848"><ele>347.3333333333333</ele><time>2026-04-27T18:18:43Z</time></trkpt><trkpt lat="46.0944709" lon="12.1651954"><ele>348.0</ele><time>2026-04-27T18:18:44.999Z</time></trkpt><trkpt lat="46.094511" lon="12.1653038"><ele>348.5</ele><time>2026-04-27T18:18:47Z</time></trkpt><trkpt lat="46.0945495" lon="12.1654108"><ele>349.0</ele><time>2026-04-27T18:18:48.999Z</time></trkpt><trkpt lat="46.0945878" lon="12.1655155"><ele>349.5</ele><time>2026-04-27T18:18:50.999Z</time></trkpt><trkpt lat="46.0946298" lon="12.165623"><ele>350.0</ele><time>2026-04-27T18:18:52.999Z</time></trkpt><trkpt lat="46.0946735" lon="12.1657332"><ele>350.5</ele><time>2026-04-27T18:18:54.999Z</time></trkpt><trkpt lat="46.0947159" lon="12.1658465"><ele>351.0</ele><time>2026-04-27T18:18:56.999Z</time></trkpt><trkpt lat="46.0947572" lon="12.165959"><ele>350.8333333333333</ele><time>2026-04-27T18:18:59Z</time></trkpt><trkpt lat="46.0947995" lon="12.1660734"><ele>350.6666666666667</ele><time>2026-04-27T18:19:00.999Z</time></trkpt><trkpt lat="46.0948403" lon="12.1661897"><ele>350.5</ele><time>2026-04-27T18:19:02.999Z</time></trkpt><trkpt lat="46.0948704" lon="12.1663005"><ele>350.33333333333337</ele><time>2026-04-27T18:19:05Z</time></trkpt><trkpt lat="46.0949062" lon="12.1664109"><ele>350.1666666666667</ele><time>2026-04-27T18:19:06.999Z</time></trkpt><trkpt lat="46.0949334" lon="12.1665244"><ele>350.0</ele><time>2026-04-27T18:19:08.999Z</time></trkpt><trkpt lat="46.0949628" lon="12.1666387"><ele>350.0</ele><time>2026-04-27T18:19:11Z</time></trkpt><trkpt lat="46.0949936" lon="12.1667549"><ele>350.0</ele><time>2026-04-27T18:19:12.999Z</time></trkpt><trkpt lat="46.0950316" lon="12.1668777"><ele>350.0</ele><time>2026-04-27T18:19:15Z</time></trkpt><trkpt lat="46.0950714" lon="12.1670093"><ele>350.0</ele><time>2026-04-27T18:19:17Z</time></trkpt><trkpt lat="46.095107" lon="12.1671366"><ele>350.0</ele><time>2026-04-27T18:19:19Z</time></trkpt><trkpt lat="46.0951391" lon="12.1672676"><ele>350.25</ele><time>2026-04-27T18:19:20.999Z</time></trkpt><trkpt lat="46.0951795" lon="12.1674163"><ele>350.5</ele><time>2026-04-27T18:19:23Z</time></trkpt><trkpt lat="46.0952152" lon="12.1675657"><ele>350.75</ele><time>2026-04-27T18:19:24.999Z</time></trkpt><trkpt lat="46.0952667" lon="12.1677864"><ele>351.0</ele><time>2026-04-27T18:19:27.999Z</time></trkpt><trkpt lat="46.0952988" lon="12.167939"><ele>351.0</ele><time>2026-04-27T18:19:30Z</time></trkpt><trkpt lat="46.0953362" lon="12.1680899"><ele>351.0</ele><time>2026-04-27T18:19:32Z</time></trkpt><trkpt lat="46.0953748" lon="12.1682525"><ele>351.0</ele><time>2026-04-27T18:19:33.999Z</time></trkpt><trkpt lat="46.0954186" lon="12.1684204"><ele>351.0</ele><time>2026-04-27T18:19:35.999Z</time></trkpt><trkpt lat="46.0954605" lon="12.168581"><ele>351.25</ele><time>2026-04-27T18:19:37.999Z</time></trkpt><trkpt lat="46.0955075" lon="12.1687445"><ele>351.5</ele><time>2026-04-27T18:19:40Z</time></trkpt><trkpt lat="46.0955483" lon="12.1689104"><ele>351.75</ele><time>2026-04-27T18:19:41.999Z</time></trkpt><trkpt lat="46.0955872" lon="12.169078"><ele>352.0</ele><time>2026-04-27T18:19:43.999Z</time></trkpt><trkpt lat="46.095625" lon="12.1692487"><ele>352.0</ele><time>2026-04-27T18:19:45.999Z</time></trkpt><trkpt lat="46.0956652" lon="12.1694262"><ele>352.0</ele><time>2026-04-27T18:19:47.999Z</time></trkpt><trkpt lat="46.0956813" lon="12.1695146"><ele>352.0</ele><time>2026-04-27T18:19:48.999Z</time></trkpt><trkpt lat="46.0956976" lon="12.1696066"><ele>352.0</ele><time>2026-04-27T18:19:49.999Z</time></trkpt><trkpt lat="46.095729" lon="12.169778"><ele>352.0</ele><time>2026-04-27T18:19:51.999Z</time></trkpt><trkpt lat="46.0957635" lon="12.1699524"><ele>351.25</ele><time>2026-04-27T18:19:54Z</time></trkpt><trkpt lat="46.0957994" lon="12.1701254"><ele>350.5</ele><time>2026-04-27T18:19:56Z</time></trkpt><trkpt lat="46.09583" lon="12.1702854"><ele>349.75</ele><time>2026-04-27T18:19:57.999Z</time></trkpt><trkpt lat="46.0958574" lon="12.1704542"><ele>349.0</ele><time>2026-04-27T18:19:59.999Z</time></trkpt><trkpt lat="46.0958836" lon="12.1706178"><ele>349.25</ele><time>2026-04-27T18:20:02Z</time></trkpt><trkpt lat="46.0959157" lon="12.170788"><ele>349.5</ele><time>2026-04-27T18:20:03.999Z</time></trkpt><trkpt lat="46.0959393" lon="12.1709633"><ele>349.75</ele><time>2026-04-27T18:20:05.999Z</time></trkpt><trkpt lat="46.0959357" lon="12.1711283"><ele>350.0</ele><time>2026-04-27T18:20:08Z</time></trkpt><trkpt lat="46.095913" lon="12.1712853"><ele>350.0</ele><time>2026-04-27T18:20:09.999Z</time></trkpt><trkpt lat="46.0958874" lon="12.1714188"><ele>350.0</ele><time>2026-04-27T18:20:12Z</time></trkpt><trkpt lat="46.0958495" lon="12.1715367"><ele>350.0</ele><time>2026-04-27T18:20:13.999Z</time></trkpt><trkpt lat="46.0958133" lon="12.171636"><ele>350.0</ele><time>2026-04-27T18:20:16.999Z</time></trkpt><trkpt lat="46.0958649" lon="12.1717239"><ele>350.0</ele><time>2026-04-27T18:20:18.999Z</time></trkpt><trkpt lat="46.0959322" lon="12.1717984"><ele>350.0</ele><time>2026-04-27T18:20:20.999Z</time></trkpt><trkpt lat="46.0960162" lon="12.1718794"><ele>349.8</ele><time>2026-04-27T18:20:22.999Z</time></trkpt><trkpt lat="46.0961032" lon="12.1719579"><ele>349.6</ele><time>2026-04-27T18:20:24.999Z</time></trkpt><trkpt lat="46.0961848" lon="12.1720395"><ele>349.4</ele><time>2026-04-27T18:20:26.999Z</time></trkpt><trkpt lat="46.0962436" lon="12.1721484"><ele>349.2</ele><time>2026-04-27T18:20:29Z</time></trkpt><trkpt lat="46.0962706" lon="12.1722828"><ele>349.0</ele><time>2026-04-27T18:20:30.999Z</time></trkpt><trkpt lat="46.0962615" lon="12.1723922"><ele>349.2</ele><time>2026-04-27T18:20:33Z</time></trkpt><trkpt lat="46.0962693" lon="12.1724875"><ele>349.4</ele><time>2026-04-27T18:20:34.999Z</time></trkpt><trkpt lat="46.0963404" lon="12.1725871"><ele>349.6</ele><time>2026-04-27T18:20:36.999Z</time></trkpt><trkpt lat="46.0964506" lon="12.172663"><ele>349.8</ele><time>2026-04-27T18:20:38.999Z</time></trkpt><trkpt lat="46.0965636" lon="12.1727456"><ele>350.0</ele><time>2026-04-27T18:20:40.999Z</time></trkpt><trkpt lat="46.0966216" lon="12.1727954"><ele>350.0</ele><time>2026-04-27T18:20:42Z</time></trkpt><trkpt lat="46.0966699" lon="12.172861"><ele>350.0</ele><time>2026-04-27T18:20:42.999Z</time></trkpt><trkpt lat="46.0966978" lon="12.1729436"><ele>350.0</ele><time>2026-04-27T18:20:43.999Z</time></trkpt><trkpt lat="46.0967466" lon="12.1730971"><ele>350.0</ele><time>2026-04-27T18:20:46Z</time></trkpt><trkpt lat="46.0968018" lon="12.1732542"><ele>350.0</ele><time>2026-04-27T18:20:47.999Z</time></trkpt><trkpt lat="46.0968587" lon="12.1734093"><ele>350.0</ele><time>2026-04-27T18:20:50Z</time></trkpt><trkpt lat="46.0969094" lon="12.1735658"><ele>350.0</ele><time>2026-04-27T18:20:52Z</time></trkpt><trkpt lat="46.0969422" lon="12.1736435"><ele>350.0</ele><time>2026-04-27T18:20:52.999Z</time></trkpt><trkpt lat="46.0970034" lon="12.1737921"><ele>350.0</ele><time>2026-04-27T18:20:54.999Z</time></trkpt><trkpt lat="46.0970614" lon="12.1739373"><ele>350.0</ele><time>2026-04-27T18:20:56.999Z</time></trkpt><trkpt lat="46.0971236" lon="12.1740808"><ele>350.0</ele><time>2026-04-27T18:20:58.999Z</time></trkpt><trkpt lat="46.0971818" lon="12.174234"><ele>350.0</ele><time>2026-04-27T18:21:00.999Z</time></trkpt><trkpt lat="46.0972392" lon="12.1743893"><ele>350.0</ele><time>2026-04-27T18:21:02.999Z</time></trkpt><trkpt lat="46.0972972" lon="12.174543"><ele>350.0</ele><time>2026-04-27T18:21:04.999Z</time></trkpt><trkpt lat="46.0973591" lon="12.1746941"><ele>350.0</ele><time>2026-04-27T18:21:07Z</time></trkpt><trkpt lat="46.0974168" lon="12.1748448"><ele>350.0</ele><time>2026-04-27T18:21:09Z</time></trkpt><trkpt lat="46.097479" lon="12.1750006"><ele>350.0</ele><time>2026-04-27T18:21:10.999Z</time></trkpt><trkpt lat="46.0975377" lon="12.1751464"><ele>350.0</ele><time>2026-04-27T18:21:13Z</time></trkpt><trkpt lat="46.0975969" lon="12.1752996"><ele>351.0</ele><time>2026-04-27T18:21:14.999Z</time></trkpt><trkpt lat="46.097656" lon="12.1754459"><ele>352.0</ele><time>2026-04-27T18:21:16.999Z</time></trkpt><trkpt lat="46.0977197" lon="12.1755959"><ele>353.0</ele><time>2026-04-27T18:21:18.999Z</time></trkpt><trkpt lat="46.097791" lon="12.1757361"><ele>354.0</ele><time>2026-04-27T18:21:20.999Z</time></trkpt><trkpt lat="46.0978807" lon="12.1758556"><ele>354.0</ele><time>2026-04-27T18:21:23Z</time></trkpt><trkpt lat="46.0979847" lon="12.1759511"><ele>354.0</ele><time>2026-04-27T18:21:24.999Z</time></trkpt><trkpt lat="46.098089" lon="12.1760407"><ele>354.0</ele><time>2026-04-27T18:21:26.999Z</time></trkpt><trkpt lat="46.0981929" lon="12.1761225"><ele>354.0</ele><time>2026-04-27T18:21:28.999Z</time></trkpt><trkpt lat="46.0982999" lon="12.1762054"><ele>354.0</ele><time>2026-04-27T18:21:31Z</time></trkpt><trkpt lat="46.098408" lon="12.1762822"><ele>354.0</ele><time>2026-04-27T18:21:33Z</time></trkpt><trkpt lat="46.0985168" lon="12.1763614"><ele>354.0</ele><time>2026-04-27T18:21:34.999Z</time></trkpt><trkpt lat="46.0986212" lon="12.1764411"><ele>354.0</ele><time>2026-04-27T18:21:36.999Z</time></trkpt><trkpt lat="46.0987298" lon="12.1765251"><ele>354.1666666666667</ele><time>2026-04-27T18:21:38.999Z</time></trkpt><trkpt lat="46.0987817" lon="12.1765802"><ele>354.3333333333333</ele><time>2026-04-27T18:21:39.999Z</time></trkpt><trkpt lat="46.0988745" lon="12.1766969"><ele>354.5</ele><time>2026-04-27T18:21:41.999Z</time></trkpt><trkpt lat="46.0989184" lon="12.1767645"><ele>354.66666666666663</ele><time>2026-04-27T18:21:42.999Z</time></trkpt><trkpt lat="46.0989834" lon="12.1769185"><ele>354.8333333333333</ele><time>2026-04-27T18:21:44.999Z</time></trkpt><trkpt lat="46.0990048" lon="12.1770045"><ele>355.0</ele><time>2026-04-27T18:21:46Z</time></trkpt><trkpt lat="46.0990353" lon="12.1771785"><ele>355.0</ele><time>2026-04-27T18:21:47.999Z</time></trkpt><trkpt lat="46.0990432" lon="12.1772688"><ele>355.0</ele><time>2026-04-27T18:21:48.999Z</time></trkpt><trkpt lat="46.0990497" lon="12.1774449"><ele>355.0</ele><time>2026-04-27T18:21:50.999Z</time></trkpt><trkpt lat="46.0990383" lon="12.1776213"><ele>355.0</ele><time>2026-04-27T18:21:52.999Z</time></trkpt><trkpt lat="46.099014" lon="12.1777969"><ele>355.0</ele><time>2026-04-27T18:21:54.999Z</time></trkpt><trkpt lat="46.098998" lon="12.1779702"><ele>355.0</ele><time>2026-04-27T18:21:56.999Z</time></trkpt><trkpt lat="46.0989809" lon="12.1781488"><ele>355.0</ele><time>2026-04-27T18:21:59Z</time></trkpt><trkpt lat="46.098962" lon="12.1783213"><ele>355.0</ele><time>2026-04-27T18:22:00.999Z</time></trkpt><trkpt lat="46.0989403" lon="12.178495"><ele>355.0</ele><time>2026-04-27T18:22:03Z</time></trkpt><trkpt lat="46.0989223" lon="12.1786754"><ele>355.6</ele><time>2026-04-27T18:22:04.999Z</time></trkpt><trkpt lat="46.0989089" lon="12.178766"><ele>356.2</ele><time>2026-04-27T18:22:05.999Z</time></trkpt><trkpt lat="46.0988782" lon="12.1789335"><ele>356.79999999999995</ele><time>2026-04-27T18:22:07.999Z</time></trkpt><trkpt lat="46.0988594" lon="12.1790255"><ele>357.4</ele><time>2026-04-27T18:22:08.999Z</time></trkpt><trkpt lat="46.0988454" lon="12.1791972"><ele>358.0</ele><time>2026-04-27T18:22:11Z</time></trkpt><trkpt lat="46.0988327" lon="12.1793715"><ele>358.79999999999995</ele><time>2026-04-27T18:22:12.999Z</time></trkpt><trkpt lat="46.0988275" lon="12.179462"><ele>359.6</ele><time>2026-04-27T18:22:13.999Z</time></trkpt><trkpt lat="46.0988266" lon="12.1796415"><ele>360.4</ele><time>2026-04-27T18:22:15.999Z</time></trkpt><trkpt lat="46.0988335" lon="12.179738"><ele>361.20000000000005</ele><time>2026-04-27T18:22:16.999Z</time></trkpt><trkpt lat="46.0988384" lon="12.1799061"><ele>362.0</ele><time>2026-04-27T18:22:19Z</time></trkpt><trkpt lat="46.0988426" lon="12.1800668"><ele>362.0</ele><time>2026-04-27T18:22:20.999Z</time></trkpt><trkpt lat="46.0988443" lon="12.1802045"><ele>362.0</ele><time>2026-04-27T18:22:22.999Z</time></trkpt><trkpt lat="46.0988529" lon="12.1803466"><ele>362.0</ele><time>2026-04-27T18:22:25Z</time></trkpt><trkpt lat="46.0988764" lon="12.1805064"><ele>362.0</ele><time>2026-04-27T18:22:27Z</time></trkpt><trkpt lat="46.0988937" lon="12.1806695"><ele>362.0</ele><time>2026-04-27T18:22:29Z</time></trkpt><trkpt lat="46.0989158" lon="12.1808194"><ele>362.0</ele><time>2026-04-27T18:22:30.999Z</time></trkpt><trkpt lat="46.0989491" lon="12.1809692"><ele>362.0</ele><time>2026-04-27T18:22:32.999Z</time></trkpt><trkpt lat="46.0989699" lon="12.1811352"><ele>362.0</ele><time>2026-04-27T18:22:34.999Z</time></trkpt><trkpt lat="46.0989912" lon="12.1812964"><ele>362.0</ele><time>2026-04-27T18:22:36.999Z</time></trkpt><trkpt lat="46.0990012" lon="12.1814528"><ele>362.0</ele><time>2026-04-27T18:22:38.999Z</time></trkpt><trkpt lat="46.0990094" lon="12.1816028"><ele>362.0</ele><time>2026-04-27T18:22:40.999Z</time></trkpt><trkpt lat="46.0990253" lon="12.1817383"><ele>362.0</ele><time>2026-04-27T18:22:43Z</time></trkpt><trkpt lat="46.099106" lon="12.1818016"><ele>362.0</ele><time>2026-04-27T18:22:44.999Z</time></trkpt><trkpt lat="46.0991853" lon="12.1818128"><ele>362.0</ele><time>2026-04-27T18:22:46.999Z</time></trkpt><trkpt lat="46.0992851" lon="12.1818413"><ele>362.0</ele><time>2026-04-27T18:22:48.999Z</time></trkpt><trkpt lat="46.0993942" lon="12.1819171"><ele>362.0</ele><time>2026-04-27T18:22:51Z</time></trkpt><trkpt lat="46.0994473" lon="12.1819739"><ele>362.0</ele><time>2026-04-27T18:22:52Z</time></trkpt><trkpt lat="46.0995048" lon="12.1820413"><ele>362.0</ele><time>2026-04-27T18:22:52.999Z</time></trkpt><trkpt lat="46.0995696" lon="12.1821189"><ele>362.0</ele><time>2026-04-27T18:22:53.999Z</time></trkpt><trkpt lat="46.0996387" lon="12.1821958"><ele>362.0</ele><time>2026-04-27T18:22:54.999Z</time></trkpt><trkpt lat="46.0997085" lon="12.1822663"><ele>362.0</ele><time>2026-04-27T18:22:56Z</time></trkpt><trkpt lat="46.0997777" lon="12.1823417"><ele>362.33333333333337</ele><time>2026-04-27T18:22:57Z</time></trkpt><trkpt lat="46.0998486" lon="12.1824191"><ele>362.6666666666667</ele><time>2026-04-27T18:22:58Z</time></trkpt><trkpt lat="46.0999122" lon="12.1824886"><ele>363.0</ele><time>2026-04-27T18:22:58.999Z</time></trkpt><trkpt lat="46.0999649" lon="12.1825641"><ele>363.3333333333333</ele><time>2026-04-27T18:22:59.999Z</time></trkpt><trkpt lat="46.100011" lon="12.1826293"><ele>363.66666666666663</ele><time>2026-04-27T18:23:00.999Z</time></trkpt><trkpt lat="46.1001055" lon="12.182674"><ele>364.0</ele><time>2026-04-27T18:23:02.999Z</time></trkpt><trkpt lat="46.1002211" lon="12.1826356"><ele>362.5</ele><time>2026-04-27T18:23:04.999Z</time></trkpt><trkpt lat="46.1002858" lon="12.1826104"><ele>361.0</ele><time>2026-04-27T18:23:06Z</time></trkpt><trkpt lat="46.1003543" lon="12.1825861"><ele>359.5</ele><time>2026-04-27T18:23:06.999Z</time></trkpt><trkpt lat="46.100432" lon="12.1825602"><ele>358.0</ele><time>2026-04-27T18:23:07.999Z</time></trkpt><trkpt lat="46.100506" lon="12.1825355"><ele>356.5</ele><time>2026-04-27T18:23:08.999Z</time></trkpt><trkpt lat="46.1005796" lon="12.182507"><ele>355.0</ele><time>2026-04-27T18:23:09.999Z</time></trkpt><trkpt lat="46.1006591" lon="12.1824756"><ele>355.0</ele><time>2026-04-27T18:23:10.999Z</time></trkpt><trkpt lat="46.1007337" lon="12.182445"><ele>355.0</ele><time>2026-04-27T18:23:11.999Z</time></trkpt><trkpt lat="46.1008032" lon="12.1824149"><ele>355.0</ele><time>2026-04-27T18:23:13Z</time></trkpt><trkpt lat="46.1008702" lon="12.1823831"><ele>355.0</ele><time>2026-04-27T18:23:13.999Z</time></trkpt><trkpt lat="46.1009403" lon="12.1823503"><ele>355.0</ele><time>2026-04-27T18:23:14.999Z</time></trkpt><trkpt lat="46.101006" lon="12.1823207"><ele>355.0</ele><time>2026-04-27T18:23:15.999Z</time></trkpt><trkpt lat="46.1010675" lon="12.1822911"><ele>355.0</ele><time>2026-04-27T18:23:16.999Z</time></trkpt><trkpt lat="46.1011289" lon="12.1822563"><ele>353.25</ele><time>2026-04-27T18:23:18Z</time></trkpt><trkpt lat="46.1012469" lon="12.1821854"><ele>351.5</ele><time>2026-04-27T18:23:19.999Z</time></trkpt><trkpt lat="46.1013596" lon="12.1821219"><ele>349.75</ele><time>2026-04-27T18:23:21.999Z</time></trkpt><trkpt lat="46.1014672" lon="12.1820596"><ele>348.0</ele><time>2026-04-27T18:23:23.999Z</time></trkpt><trkpt lat="46.1015728" lon="12.182001"><ele>348.2</ele><time>2026-04-27T18:23:25.999Z</time></trkpt><trkpt lat="46.1016655" lon="12.1819256"><ele>348.4</ele><time>2026-04-27T18:23:27.999Z</time></trkpt><trkpt lat="46.1017602" lon="12.1818506"><ele>348.59999999999997</ele><time>2026-04-27T18:23:30Z</time></trkpt><trkpt lat="46.1018625" lon="12.1818281"><ele>348.79999999999995</ele><time>2026-04-27T18:23:31.999Z</time></trkpt><trkpt lat="46.1019587" lon="12.1817989"><ele>349.0</ele><time>2026-04-27T18:23:33.999Z</time></trkpt><trkpt lat="46.1020663" lon="12.1817694"><ele>349.0</ele><time>2026-04-27T18:23:35.999Z</time></trkpt><trkpt lat="46.1021926" lon="12.1817441"><ele>349.0</ele><time>2026-04-27T18:23:38Z</time></trkpt><trkpt lat="46.1022583" lon="12.1817221"><ele>349.0</ele><time>2026-04-27T18:23:38.999Z</time></trkpt><trkpt lat="46.1023258" lon="12.1816968"><ele>349.0</ele><time>2026-04-27T18:23:39.999Z</time></trkpt><trkpt lat="46.1024197" lon="12.1816627"><ele>349.0</ele><time>2026-04-27T18:23:40.999Z</time></trkpt><trkpt lat="46.1025019" lon="12.1816366"><ele>349.0</ele><time>2026-04-27T18:23:41.999Z</time></trkpt><trkpt lat="46.1025737" lon="12.1816315"><ele>348.16666666666663</ele><time>2026-04-27T18:23:42.999Z</time></trkpt><trkpt lat="46.1026514" lon="12.181631"><ele>347.3333333333333</ele><time>2026-04-27T18:23:43.999Z</time></trkpt><trkpt lat="46.1027187" lon="12.1816757"><ele>346.5</ele><time>2026-04-27T18:23:45Z</time></trkpt><trkpt lat="46.1027792" lon="12.1817114"><ele>345.6666666666667</ele><time>2026-04-27T18:23:45.999Z</time></trkpt><trkpt lat="46.1028363" lon="12.181751"><ele>344.83333333333337</ele><time>2026-04-27T18:23:46.999Z</time></trkpt><trkpt lat="46.1029386" lon="12.181821"><ele>344.0</ele><time>2026-04-27T18:23:48.999Z</time></trkpt><trkpt lat="46.1030376" lon="12.1819126"><ele>344.0</ele><time>2026-04-27T18:23:50.999Z</time></trkpt><trkpt lat="46.1031304" lon="12.182013"><ele>344.0</ele><time>2026-04-27T18:23:52.999Z</time></trkpt><trkpt lat="46.1032183" lon="12.1821173"><ele>344.0</ele><time>2026-04-27T18:23:54.999Z</time></trkpt><trkpt lat="46.1033013" lon="12.1822322"><ele>344.0</ele><time>2026-04-27T18:23:56.999Z</time></trkpt><trkpt lat="46.1033657" lon="12.1823791"><ele>344.5</ele><time>2026-04-27T18:23:58.999Z</time></trkpt><trkpt lat="46.103417" lon="12.1825356"><ele>345.0</ele><time>2026-04-27T18:24:00.999Z</time></trkpt><trkpt lat="46.1034787" lon="12.1826962"><ele>345.5</ele><time>2026-04-27T18:24:02.999Z</time></trkpt><trkpt lat="46.1035354" lon="12.1828464"><ele>346.0</ele><time>2026-04-27T18:24:04.999Z</time></trkpt><trkpt lat="46.1035933" lon="12.1829997"><ele>346.0</ele><time>2026-04-27T18:24:06.999Z</time></trkpt><trkpt lat="46.1036526" lon="12.183147"><ele>346.0</ele><time>2026-04-27T18:24:09Z</time></trkpt><trkpt lat="46.1037121" lon="12.183297"><ele>346.0</ele><time>2026-04-27T18:24:10.999Z</time></trkpt><trkpt lat="46.1037689" lon="12.1834441"><ele>346.0</ele><time>2026-04-27T18:24:12.999Z</time></trkpt><trkpt lat="46.1037561" lon="12.1835757"><ele>346.0</ele><time>2026-04-27T18:24:14.999Z</time></trkpt><trkpt lat="46.103709" lon="12.1836924"><ele>346.6</ele><time>2026-04-27T18:24:16.999Z</time></trkpt><trkpt lat="46.1037565" lon="12.1837981"><ele>347.20000000000005</ele><time>2026-04-27T18:24:18.999Z</time></trkpt><trkpt lat="46.1037834" lon="12.1839436"><ele>347.79999999999995</ele><time>2026-04-27T18:24:21Z</time></trkpt><trkpt lat="46.1038018" lon="12.1841076"><ele>348.4</ele><time>2026-04-27T18:24:22.999Z</time></trkpt><trkpt lat="46.1038199" lon="12.1842751"><ele>349.0</ele><time>2026-04-27T18:24:24.999Z</time></trkpt><trkpt lat="46.1038265" lon="12.1843667"><ele>349.5</ele><time>2026-04-27T18:24:26Z</time></trkpt><trkpt lat="46.1038363" lon="12.1845411"><ele>350.0</ele><time>2026-04-27T18:24:28Z</time></trkpt><trkpt lat="46.1038431" lon="12.184712"><ele>350.5</ele><time>2026-04-27T18:24:29.999Z</time></trkpt><trkpt lat="46.1038339" lon="12.184886"><ele>351.0</ele><time>2026-04-27T18:24:32Z</time></trkpt><trkpt lat="46.1038253" lon="12.1850646"><ele>351.5</ele><time>2026-04-27T18:24:34Z</time></trkpt><trkpt lat="46.1038282" lon="12.1852449"><ele>352.0</ele><time>2026-04-27T18:24:35.999Z</time></trkpt><trkpt lat="46.1038284" lon="12.1854249"><ele>352.5</ele><time>2026-04-27T18:24:37.999Z</time></trkpt><trkpt lat="46.1038362" lon="12.1856"><ele>353.0</ele><time>2026-04-27T18:24:39.999Z</time></trkpt><trkpt lat="46.1038425" lon="12.185764"><ele>353.2</ele><time>2026-04-27T18:24:41.999Z</time></trkpt><trkpt lat="46.1038437" lon="12.1859291"><ele>353.4</ele><time>2026-04-27T18:24:44Z</time></trkpt><trkpt lat="46.10385" lon="12.1860816"><ele>353.59999999999997</ele><time>2026-04-27T18:24:45.999Z</time></trkpt><trkpt lat="46.1038607" lon="12.186225"><ele>353.79999999999995</ele><time>2026-04-27T18:24:48Z</time></trkpt><trkpt lat="46.1038626" lon="12.1863453"><ele>354.0</ele><time>2026-04-27T18:24:49.999Z</time></trkpt><trkpt lat="46.1038554" lon="12.1864545"><ele>353.8333333333333</ele><time>2026-04-27T18:25:01Z</time></trkpt><trkpt lat="46.1038659" lon="12.1865627"><ele>353.6666666666667</ele><time>2026-04-27T18:25:04Z</time></trkpt><trkpt lat="46.1038736" lon="12.1866582"><ele>353.5</ele><time>2026-04-27T18:25:05.999Z</time></trkpt><trkpt lat="46.1038835" lon="12.1867742"><ele>353.33333333333337</ele><time>2026-04-27T18:25:08Z</time></trkpt><trkpt lat="46.1038824" lon="12.1869142"><ele>353.1666666666667</ele><time>2026-04-27T18:25:09.999Z</time></trkpt><trkpt lat="46.1038915" lon="12.1870631"><ele>353.0</ele><time>2026-04-27T18:25:11.999Z</time></trkpt><trkpt lat="46.1038999" lon="12.1872076"><ele>353.0</ele><time>2026-04-27T18:25:13.999Z</time></trkpt><trkpt lat="46.1039308" lon="12.1873339"><ele>353.0</ele><time>2026-04-27T18:25:15.999Z</time></trkpt><trkpt lat="46.103965" lon="12.1874624"><ele>353.0</ele><time>2026-04-27T18:25:18Z</time></trkpt><trkpt lat="46.1040037" lon="12.1875919"><ele>353.0</ele><time>2026-04-27T18:25:20Z</time></trkpt><trkpt lat="46.1040452" lon="12.1877166"><ele>353.0</ele><time>2026-04-27T18:25:21.999Z</time></trkpt><trkpt lat="46.1040903" lon="12.1878362"><ele>353.79999999999995</ele><time>2026-04-27T18:25:23.999Z</time></trkpt><trkpt lat="46.1041309" lon="12.1879657"><ele>354.6</ele><time>2026-04-27T18:25:25.999Z</time></trkpt><trkpt lat="46.1041712" lon="12.1880867"><ele>355.4</ele><time>2026-04-27T18:25:28Z</time></trkpt><trkpt lat="46.1042147" lon="12.1882057"><ele>356.20000000000005</ele><time>2026-04-27T18:25:29.999Z</time></trkpt><trkpt lat="46.1042588" lon="12.188334"><ele>357.0</ele><time>2026-04-27T18:25:32Z</time></trkpt><trkpt lat="46.1042953" lon="12.1884562"><ele>357.1666666666667</ele><time>2026-04-27T18:25:33.999Z</time></trkpt><trkpt lat="46.1043313" lon="12.1885767"><ele>357.3333333333333</ele><time>2026-04-27T18:25:35.999Z</time></trkpt><trkpt lat="46.1043622" lon="12.1886985"><ele>357.5</ele><time>2026-04-27T18:25:37.999Z</time></trkpt><trkpt lat="46.1043982" lon="12.1888193"><ele>357.66666666666663</ele><time>2026-04-27T18:25:39.999Z</time></trkpt><trkpt lat="46.1044079" lon="12.1889238"><ele>357.8333333333333</ele><time>2026-04-27T18:25:41.999Z</time></trkpt><trkpt lat="46.1044207" lon="12.1890414"><ele>358.0</ele><time>2026-04-27T18:25:44.999Z</time></trkpt><trkpt lat="46.1044689" lon="12.1891073"><ele>358.2</ele><time>2026-04-27T18:25:46.999Z</time></trkpt><trkpt lat="46.1045514" lon="12.1891537"><ele>358.4</ele><time>2026-04-27T18:25:48.999Z</time></trkpt><trkpt lat="46.1046455" lon="12.1891975"><ele>358.59999999999997</ele><time>2026-04-27T18:25:50.999Z</time></trkpt><trkpt lat="46.1047445" lon="12.189247"><ele>358.79999999999995</ele><time>2026-04-27T18:25:53Z</time></trkpt><trkpt lat="46.1048349" lon="12.1893278"><ele>359.0</ele><time>2026-04-27T18:25:55Z</time></trkpt><trkpt lat="46.1049186" lon="12.1894284"><ele>359.0</ele><time>2026-04-27T18:25:56.999Z</time></trkpt><trkpt lat="46.1049954" lon="12.1895362"><ele>359.0</ele><time>2026-04-27T18:25:59Z</time></trkpt><trkpt lat="46.1050657" lon="12.1896514"><ele>359.0</ele><time>2026-04-27T18:26:00.999Z</time></trkpt><trkpt lat="46.1051334" lon="12.1897687"><ele>359.0</ele><time>2026-04-27T18:26:02.999Z</time></trkpt><trkpt lat="46.1052033" lon="12.189892"><ele>359.0</ele><time>2026-04-27T18:26:04.999Z</time></trkpt><trkpt lat="46.1052728" lon="12.1900056"><ele>359.2</ele><time>2026-04-27T18:26:06.999Z</time></trkpt><trkpt lat="46.1053433" lon="12.1901267"><ele>359.4</ele><time>2026-04-27T18:26:08.999Z</time></trkpt><trkpt lat="46.1054127" lon="12.1902428"><ele>359.6</ele><time>2026-04-27T18:26:11Z</time></trkpt><trkpt lat="46.1054798" lon="12.1903589"><ele>359.8</ele><time>2026-04-27T18:26:12.999Z</time></trkpt><trkpt lat="46.1055454" lon="12.1904752"><ele>360.0</ele><time>2026-04-27T18:26:14.999Z</time></trkpt><trkpt lat="46.1056318" lon="12.1905584"><ele>360.0</ele><time>2026-04-27T18:26:17Z</time></trkpt><trkpt lat="46.10572" lon="12.1906156"><ele>360.0</ele><time>2026-04-27T18:26:18.999Z</time></trkpt><trkpt lat="46.1057922" lon="12.1906653"><ele>360.0</ele><time>2026-04-27T18:26:20.999Z</time></trkpt><trkpt lat="46.1058474" lon="12.1907312"><ele>360.0</ele><time>2026-04-27T18:26:22.999Z</time></trkpt><trkpt lat="46.1059048" lon="12.1908076"><ele>360.0</ele><time>2026-04-27T18:26:24.999Z</time></trkpt><trkpt lat="46.1059615" lon="12.1908905"><ele>360.0</ele><time>2026-04-27T18:26:26.999Z</time></trkpt><trkpt lat="46.1060179" lon="12.1909695"><ele>360.1428571428571</ele><time>2026-04-27T18:26:28.999Z</time></trkpt><trkpt lat="46.1060773" lon="12.1910141"><ele>360.28571428571433</ele><time>2026-04-27T18:26:30.999Z</time></trkpt><trkpt lat="46.1061474" lon="12.1910265"><ele>360.42857142857144</ele><time>2026-04-27T18:26:32.999Z</time></trkpt><trkpt lat="46.1062242" lon="12.1910237"><ele>360.57142857142856</ele><time>2026-04-27T18:26:34.999Z</time></trkpt><trkpt lat="46.1062956" lon="12.1910263"><ele>360.71428571428567</ele><time>2026-04-27T18:26:37Z</time></trkpt><trkpt lat="46.1063644" lon="12.1910319"><ele>360.8571428571429</ele><time>2026-04-27T18:26:39Z</time></trkpt><trkpt lat="46.106443" lon="12.1910512"><ele>361.0</ele><time>2026-04-27T18:26:40.999Z</time></trkpt><trkpt lat="46.1065213" lon="12.1910633"><ele>360.7142857142857</ele><time>2026-04-27T18:26:42.999Z</time></trkpt><trkpt lat="46.1065923" lon="12.1910911"><ele>360.4285714285714</ele><time>2026-04-27T18:26:45Z</time></trkpt><trkpt lat="46.106653" lon="12.1911159"><ele>360.1428571428571</ele><time>2026-04-27T18:26:46.999Z</time></trkpt><trkpt lat="46.1066716" lon="12.1910214"><ele>359.8571428571429</ele><time>2026-04-27T18:26:50.999Z</time></trkpt><trkpt lat="46.1066467" lon="12.1909343"><ele>359.57142857142856</ele><time>2026-04-27T18:26:52.999Z</time></trkpt><trkpt lat="46.10662" lon="12.1908334"><ele>359.2857142857143</ele><time>2026-04-27T18:26:54.999Z</time></trkpt><trkpt lat="46.1065917" lon="12.19073"><ele>359.0</ele><time>2026-04-27T18:26:56.999Z</time></trkpt><trkpt lat="46.1066352" lon="12.1908253"><ele>359.0</ele><time>2026-04-27T18:27:05.999Z</time></trkpt><trkpt lat="46.1066992" lon="12.1908809"><ele>359.0</ele><time>2026-04-27T18:27:08.999Z</time></trkpt><trkpt lat="46.1067694" lon="12.1909197"><ele>359.0</ele><time>2026-04-27T18:27:12Z</time></trkpt><trkpt lat="46.1067884" lon="12.1908051"><ele>359.0</ele><time>2026-04-27T18:27:14.999Z</time></trkpt><trkpt lat="46.1068518" lon="12.1908878"><ele>359.0</ele><time>2026-04-27T18:27:26Z</time></trkpt><trkpt lat="46.1069288" lon="12.1909098"><ele>359.0</ele><time>2026-04-27T18:27:28.999Z</time></trkpt><trkpt lat="46.1070062" lon="12.1909378"><ele>359.0</ele><time>2026-04-27T18:27:32Z</time></trkpt><trkpt lat="46.1070549" lon="12.1910008"><ele>359.0</ele><time>2026-04-27T18:27:35Z</time></trkpt><trkpt lat="46.1071106" lon="12.1910519"><ele>359.0</ele><time>2026-04-27T18:27:36.999Z</time></trkpt><trkpt lat="46.1071802" lon="12.1910743"><ele>359.0</ele><time>2026-04-27T18:27:39Z</time></trkpt><trkpt lat="46.1072427" lon="12.1910957"><ele>359.0</ele><time>2026-04-27T18:27:41Z</time></trkpt><trkpt lat="46.1073266" lon="12.1911426"><ele>359.0</ele><time>2026-04-27T18:27:44Z</time></trkpt><trkpt lat="46.1073871" lon="12.1911916"><ele>359.0</ele><time>2026-04-27T18:27:45.999Z</time></trkpt><trkpt lat="46.107461" lon="12.1912306"><ele>358.33333333333337</ele><time>2026-04-27T18:27:47.999Z</time></trkpt><trkpt lat="46.107547" lon="12.1912464"><ele>357.6666666666667</ele><time>2026-04-27T18:27:49.999Z</time></trkpt><trkpt lat="46.1076391" lon="12.191262"><ele>357.0</ele><time>2026-04-27T18:27:51.999Z</time></trkpt><trkpt lat="46.1077266" lon="12.1912558"><ele>356.3333333333333</ele><time>2026-04-27T18:27:53.999Z</time></trkpt><trkpt lat="46.1078108" lon="12.191251"><ele>355.66666666666663</ele><time>2026-04-27T18:27:56Z</time></trkpt><trkpt lat="46.1078968" lon="12.1912362"><ele>355.0</ele><time>2026-04-27T18:27:58Z</time></trkpt><trkpt lat="46.1079793" lon="12.1912147"><ele>355.0</ele><time>2026-04-27T18:27:59.999Z</time></trkpt><trkpt lat="46.1080585" lon="12.1911778"><ele>355.0</ele><time>2026-04-27T18:28:01.999Z</time></trkpt><trkpt lat="46.1081344" lon="12.1911316"><ele>355.0</ele><time>2026-04-27T18:28:03.999Z</time></trkpt><trkpt lat="46.1082075" lon="12.1910816"><ele>355.0</ele><time>2026-04-27T18:28:05.999Z</time></trkpt><trkpt lat="46.1082767" lon="12.1910186"><ele>355.0</ele><time>2026-04-27T18:28:07.999Z</time></trkpt><trkpt lat="46.1083465" lon="12.190946"><ele>355.0</ele><time>2026-04-27T18:28:09.999Z</time></trkpt><trkpt lat="46.1084231" lon="12.1908695"><ele>354.8</ele><time>2026-04-27T18:28:12Z</time></trkpt><trkpt lat="46.108506" lon="12.1907881"><ele>354.6</ele><time>2026-04-27T18:28:14Z</time></trkpt><trkpt lat="46.1086001" lon="12.1907092"><ele>354.4</ele><time>2026-04-27T18:28:15.999Z</time></trkpt><trkpt lat="46.1086876" lon="12.1906368"><ele>354.2</ele><time>2026-04-27T18:28:17.999Z</time></trkpt><trkpt lat="46.1087796" lon="12.1905526"><ele>354.0</ele><time>2026-04-27T18:28:19.999Z</time></trkpt><trkpt lat="46.1088675" lon="12.1904687"><ele>353.6</ele><time>2026-04-27T18:28:21.999Z</time></trkpt><trkpt lat="46.1089622" lon="12.1903926"><ele>353.2</ele><time>2026-04-27T18:28:23.999Z</time></trkpt><trkpt lat="46.1090522" lon="12.1903098"><ele>352.8</ele><time>2026-04-27T18:28:25.999Z</time></trkpt><trkpt lat="46.109143" lon="12.1902435"><ele>352.40000000000003</ele><time>2026-04-27T18:28:27.999Z</time></trkpt><trkpt lat="46.109235" lon="12.1901672"><ele>352.0</ele><time>2026-04-27T18:28:30Z</time></trkpt><trkpt lat="46.1093174" lon="12.1900879"><ele>352.0</ele><time>2026-04-27T18:28:31.999Z</time></trkpt><trkpt lat="46.1094061" lon="12.1900051"><ele>352.0</ele><time>2026-04-27T18:28:33.999Z</time></trkpt><trkpt lat="46.1094858" lon="12.1899204"><ele>352.0</ele><time>2026-04-27T18:28:35.999Z</time></trkpt><trkpt lat="46.109568" lon="12.1898394"><ele>352.0</ele><time>2026-04-27T18:28:38Z</time></trkpt><trkpt lat="46.1096495" lon="12.1897628"><ele>352.0</ele><time>2026-04-27T18:28:39.999Z</time></trkpt><trkpt lat="46.1097317" lon="12.1896768"><ele>352.0</ele><time>2026-04-27T18:28:42Z</time></trkpt><trkpt lat="46.1098169" lon="12.1895894"><ele>352.0</ele><time>2026-04-27T18:28:43.999Z</time></trkpt><trkpt lat="46.1098979" lon="12.1894969"><ele>352.0</ele><time>2026-04-27T18:28:45.999Z</time></trkpt><trkpt lat="46.1099815" lon="12.1894011"><ele>352.0</ele><time>2026-04-27T18:28:47.999Z</time></trkpt><trkpt lat="46.1100626" lon="12.189312"><ele>352.0</ele><time>2026-04-27T18:28:49.999Z</time></trkpt><trkpt lat="46.1101471" lon="12.1892372"><ele>351.20000000000005</ele><time>2026-04-27T18:28:52Z</time></trkpt><trkpt lat="46.1102309" lon="12.1891523"><ele>350.4</ele><time>2026-04-27T18:28:53.999Z</time></trkpt><trkpt lat="46.110326" lon="12.189089"><ele>349.6</ele><time>2026-04-27T18:28:55.999Z</time></trkpt><trkpt lat="46.1104253" lon="12.1890452"><ele>348.79999999999995</ele><time>2026-04-27T18:28:57.999Z</time></trkpt><trkpt lat="46.1105238" lon="12.1890368"><ele>348.0</ele><time>2026-04-27T18:28:59.999Z</time></trkpt><trkpt lat="46.1106271" lon="12.18903"><ele>348.0</ele><time>2026-04-27T18:29:01.999Z</time></trkpt><trkpt lat="46.1107232" lon="12.1890172"><ele>348.0</ele><time>2026-04-27T18:29:03.999Z</time></trkpt><trkpt lat="46.1108186" lon="12.1889981"><ele>348.0</ele><time>2026-04-27T18:29:05.999Z</time></trkpt><trkpt lat="46.1109181" lon="12.1889701"><ele>348.0</ele><time>2026-04-27T18:29:07.999Z</time></trkpt><trkpt lat="46.111018" lon="12.1889318"><ele>348.0</ele><time>2026-04-27T18:29:09.999Z</time></trkpt><trkpt lat="46.1111114" lon="12.1889048"><ele>348.0</ele><time>2026-04-27T18:29:11.999Z</time></trkpt><trkpt lat="46.1112109" lon="12.1888671"><ele>348.0</ele><time>2026-04-27T18:29:13.999Z</time></trkpt><trkpt lat="46.1113112" lon="12.1888313"><ele>348.0</ele><time>2026-04-27T18:29:15.999Z</time></trkpt><trkpt lat="46.1114117" lon="12.1888051"><ele>348.0</ele><time>2026-04-27T18:29:17.999Z</time></trkpt><trkpt lat="46.1115172" lon="12.1887723"><ele>348.0</ele><time>2026-04-27T18:29:19.999Z</time></trkpt><trkpt lat="46.1116234" lon="12.1887339"><ele>348.0</ele><time>2026-04-27T18:29:21.999Z</time></trkpt><trkpt lat="46.1117287" lon="12.1887197"><ele>348.0</ele><time>2026-04-27T18:29:23.999Z</time></trkpt><trkpt lat="46.1118297" lon="12.18871"><ele>348.0</ele><time>2026-04-27T18:29:25.999Z</time></trkpt><trkpt lat="46.111924" lon="12.1886961"><ele>348.0</ele><time>2026-04-27T18:29:27.999Z</time></trkpt><trkpt lat="46.1120261" lon="12.1886792"><ele>348.0</ele><time>2026-04-27T18:29:29.999Z</time></trkpt><trkpt lat="46.1121166" lon="12.1886273"><ele>348.0</ele><time>2026-04-27T18:29:31.999Z</time></trkpt><trkpt lat="46.1121792" lon="12.1884991"><ele>348.0</ele><time>2026-04-27T18:29:33.999Z</time></trkpt><trkpt lat="46.11224" lon="12.1883958"><ele>348.0</ele><time>2026-04-27T18:29:35.999Z</time></trkpt><trkpt lat="46.1123067" lon="12.1883456"><ele>348.0</ele><time>2026-04-27T18:29:38Z</time></trkpt><trkpt lat="46.112335" lon="12.1884418"><ele>348.0</ele><time>2026-04-27T18:33:45.999Z</time></trkpt></trkseg></trk></gpx>